ECMWFFLT1_500_spd_000.txt.gz
Wind_Speed
18 15 12 11 11 12 15 17 17 17 15 13 13 15 17 18 18 18 19 21 22 22 22 22 23 23 23 21 21 21 21 20 20 21 23 24 25 25 26 27 27 27 27 27 27 27 26 24 23 23 23 24 25 26 28 30 31 32 32 32 33 33 33
16 14 10 8 10 12 15 16 17 16 14 14 13 14 16 17 16 16 17 19 21 21 21 20 20 20 20 20 20 21 21 21 20 21 22 23 25 25 26 27 27 26 25 25 26 26 25 24 23 24 24 24 26 27 29 30 31 32 32 33 33 33 34
18 15 11 6 5 8 11 13 15 16 14 14 13 13 15 15 15 16 16 18 20 20 20 19 18 18 19 20 21 21 21 21 21 21 22 23 24 25 27 27 27 25 23 24 25 24 23 22 23 24 25 25 26 28 29 31 32 32 33 33 33 34 34
20 19 16 12 11 10 9 9 12 13 13 13 13 14 14 14 15 16 17 18 19 20 21 20 19 19 19 20 21 22 22 22 21 21 22 23 24 24 26 27 25 23 22 23 23 23 22 22 22 24 25 26 27 28 30 32 33 34 34 34 34 34 34
22 22 19 16 16 14 10 8 9 10 12 13 14 14 13 14 15 16 17 18 19 21 22 21 20 20 21 22 23 23 23 22 21 21 22 23 24 25 25 25 24 22 22 22 22 23 23 22 23 24 26 26 27 28 30 32 33 34 35 35 35 35 36
23 21 18 17 16 14 10 8 10 12 14 15 15 14 13 14 14 15 17 19 20 21 22 22 22 23 23 23 24 24 24 23 21 21 22 23 24 24 24 24 23 22 22 22 22 23 24 24 25 26 27 28 28 28 30 32 34 35 37 37 37 36 36
23 22 20 18 16 13 10 8 9 12 14 15 14 13 13 13 14 15 17 19 21 23 22 22 24 26 25 25 24 25 26 25 24 23 22 23 24 24 24 24 23 22 21 22 23 24 25 27 27 28 29 29 29 30 32 34 35 36 38 39 39 39 38
20 22 22 21 19 15 10 8 9 10 12 13 12 12 12 13 15 16 18 20 22 23 23 24 25 27 28 27 26 26 27 27 25 23 22 24 25 25 24 24 24 22 22 22 23 25 27 28 29 30 30 30 30 31 33 34 35 37 39 40 41 42 42
20 22 23 22 21 18 14 11 11 12 12 12 12 13 14 15 17 18 19 21 23 24 25 27 27 28 28 28 27 27 28 28 27 25 25 26 27 27 26 25 24 23 23 23 24 26 28 29 30 31 32 32 32 32 33 35 37 39 41 42 43 43 43
23 23 22 21 22 21 18 14 13 14 15 15 15 16 17 18 19 20 22 23 24 26 28 30 29 29 29 29 28 27 28 29 29 29 29 29 29 29 27 25 23 23 24 25 26 28 30 31 32 32 33 33 33 33 35 36 38 40 41 42 43 44 44
23 23 23 23 24 24 20 17 17 17 17 18 18 19 20 21 22 22 23 25 27 29 30 31 31 30 30 30 29 29 29 28 29 32 32 31 31 31 28 25 25 25 26 27 29 30 32 33 33 33 33 34 34 35 37 38 39 40 41 42 43 44 44
22 22 23 23 25 24 20 19 20 22 22 21 21 22 23 23 24 25 26 27 28 30 32 33 33 32 32 32 31 31 30 28 29 33 33 31 32 32 30 28 27 28 28 30 31 33 34 34 33 33 34 35 36 38 39 39 40 41 43 43 44 44 45
24 24 23 22 23 22 20 21 24 25 24 24 24 25 25 26 28 29 29 30 31 32 34 35 35 35 34 33 32 32 32 31 32 33 32 31 32 31 31 31 30 30 31 32 33 34 35 35 34 35 36 37 39 40 41 41 41 43 44 44 45 46 47
30 28 27 26 25 24 24 28 30 28 26 25 25 26 27 30 32 32 32 33 34 34 34 36 37 37 36 35 33 33 34 32 32 32 30 31 32 33 33 33 31 31 33 34 35 36 36 36 36 38 39 39 40 41 42 42 42 44 45 46 47 48 47
34 33 32 30 28 28 31 33 32 29 28 28 28 29 30 33 34 35 35 34 35 34 34 36 37 38 38 37 36 36 35 32 31 33 32 31 33 35 36 34 32 33 34 35 36 36 37 38 39 40 41 40 40 41 41 42 44 45 46 47 49 49 48
36 36 35 33 31 31 32 32 31 31 31 33 33 34 35 35 34 34 35 35 35 35 35 36 38 39 40 40 39 39 38 34 32 32 32 32 34 37 38 35 32 34 36 36 36 37 38 39 40 41 41 41 40 40 41 43 45 46 47 48 49 49 49
37 38 37 35 34 32 30 29 31 33 34 37 39 39 39 38 36 35 35 35 35 34 35 37 38 39 40 41 41 40 38 35 33 31 30 31 36 39 39 35 33 35 37 37 36 38 39 40 41 42 41 41 41 41 43 45 46 47 48 49 50 50 49
38 39 38 37 37 35 32 33 36 38 39 41 42 42 42 42 41 39 38 37 36 34 34 35 36 38 39 38 40 41 39 36 34 31 31 33 37 38 35 34 34 36 37 37 37 38 40 41 42 42 41 41 42 43 45 46 47 47 48 49 49 50 49
39 39 38 38 39 38 39 42 44 44 45 45 44 44 44 45 44 43 42 42 39 35 33 34 35 37 38 39 40 40 38 37 35 32 32 34 35 34 33 33 34 36 38 38 38 39 41 41 42 42 41 41 43 45 46 45 46 46 47 48 49 49 49
39 40 38 37 39 41 43 45 46 47 48 48 47 47 47 46 45 45 45 44 41 37 36 37 38 39 40 40 40 38 36 37 37 35 34 34 34 33 33 34 35 37 38 38 38 39 40 42 43 41 40 44 47 46 42 41 44 45 46 48 48 48 48
40 40 38 37 40 44 46 46 47 49 52 50 49 49 48 46 45 45 44 42 40 39 39 39 40 40 40 39 39 38 36 36 37 37 34 32 33 34 34 35 35 37 38 38 39 39 39 42 42 40 41 46 45 40 39 43 46 47 47 48 48 47 46
39 39 39 41 45 49 50 50 49 52 53 51 49 48 46 44 43 41 39 38 38 38 38 39 40 42 43 41 39 37 34 33 36 36 33 32 34 36 36 35 35 36 38 39 38 37 38 42 42 39 41 42 39 40 47 51 50 49 49 49 48 46 45
41 43 44 47 49 51 52 52 53 53 51 48 45 44 42 41 41 40 39 39 38 36 36 39 40 41 41 39 35 33 32 32 33 34 34 35 37 37 36 36 35 36 38 38 37 36 39 42 42 41 43 43 43 47 51 51 50 51 51 50 48 47 46
44 46 47 47 50 53 54 54 52 49 45 42 40 40 41 41 41 41 42 41 39 37 38 39 39 39 37 35 32 31 31 32 33 34 36 38 38 36 36 35 34 36 37 37 36 37 41 43 43 44 46 46 48 50 49 49 53 54 52 51 50 48 47
46 47 48 49 51 53 52 49 46 42 39 39 39 39 40 41 41 42 42 40 39 38 37 36 36 36 34 33 34 34 32 34 36 37 39 39 37 35 34 34 35 36 37 36 37 40 43 44 44 46 48 48 49 50 51 53 55 55 53 52 50 49 48
47 47 49 51 52 51 47 43 40 38 38 39 39 39 40 40 40 40 40 41 39 35 34 32 31 30 31 34 38 39 37 37 38 38 39 39 37 34 34 34 36 37 37 38 39 41 43 44 45 47 49 49 50 50 52 54 55 54 53 51 50 49 49
45 45 48 51 52 50 46 41 39 38 39 39 39 39 40 40 40 40 41 42 39 34 33 32 30 29 32 35 39 41 40 39 38 38 40 40 36 34 34 36 37 37 37 39 41 42 43 44 45 47 49 50 50 51 52 53 54 53 52 50 50 49 48
47 48 51 52 51 50 47 44 41 40 39 38 38 38 39 41 42 41 40 40 38 35 34 34 33 32 34 37 41 44 43 40 38 40 43 40 35 34 36 37 37 35 36 40 42 44 44 45 45 47 50 51 50 51 53 53 53 52 50 49 48 47 46
51 53 53 50 48 47 47 46 44 43 41 40 38 38 39 40 42 41 40 38 38 38 36 35 33 33 35 39 40 40 39 39 39 41 42 38 35 36 37 37 36 36 39 42 44 44 45 46 48 49 50 51 51 52 53 53 52 51 49 47 46 44 44
51 51 48 44 43 44 45 46 46 45 43 41 39 38 38 39 40 40 40 39 39 40 39 36 34 34 36 36 35 35 37 41 41 41 39 36 35 37 36 36 37 40 42 45 46 46 47 49 50 50 50 50 51 52 53 52 51 49 47 45 43 42 41
45 43 41 41 43 44 45 45 44 43 41 40 39 38 37 37 38 38 39 40 42 41 39 37 36 35 34 33 37 39 42 41 39 38 37 35 34 34 35 36 39 41 44 47 48 48 49 50 50 50 50 51 51 52 52 51 49 47 45 43 41 41 40
41 40 40 40 41 42 42 42 41 39 37 37 37 37 37 37 37 37 37 37 38 37 35 35 35 34 32 33 38 40 38 37 39 39 37 34 33 33 35 36 37 41 46 48 48 48 49 50 49 49 50 51 51 51 51 49 47 45 43 41 40 40 40
41 40 39 37 37 37 39 40 40 38 37 36 36 36 36 35 35 34 33 31 31 33 36 38 38 37 36 36 38 39 39 40 42 41 36 33 33 35 36 36 39 44 47 47 47 48 48 48 48 49 49 50 51 50 49 47 46 44 42 41 40 40 40
40 40 37 36 35 36 37 38 39 38 37 36 35 35 34 34 33 33 32 32 32 35 41 43 41 41 42 43 43 44 46 45 41 36 33 33 34 36 38 40 42 45 46 46 47 47 47 47 48 48 49 49 50 49 47 46 45 43 41 40 39 39 39
39 37 35 34 34 34 35 36 36 36 35 34 34 33 34 34 35 34 35 35 34 36 41 44 43 42 44 47 47 46 45 41 34 31 31 33 36 39 40 42 43 45 45 46 46 46 46 47 48 48 48 49 47 46 45 45 43 40 38 38 37 37 37
33 31 31 32 33 33 34 34 34 33 33 33 33 33 34 36 36 37 37 37 36 36 39 43 44 45 46 46 43 38 34 30 28 30 36 40 42 42 43 43 44 45 45 46 47 47 48 48 48 48 48 46 45 45 45 44 41 38 36 36 35 35 35
30 30 31 32 32 33 33 33 33 33 33 33 34 35 36 37 37 37 36 36 37 37 36 39 41 43 40 37 34 33 33 34 36 41 48 49 46 44 45 45 45 46 46 47 48 49 49 49 48 48 46 44 44 45 44 41 37 35 34 34 33 33 34
32 33 33 33 33 33 33 34 34 34 34 35 36 37 38 38 38 37 37 38 40 39 37 38 39 40 41 43 45 44 45 47 48 50 51 49 46 46 46 46 47 48 48 49 50 50 50 49 48 47 45 43 43 43 41 38 35 34 33 33 32 32 32

ECMWFFLT1_500_spd_003.txt.gz
Wind_Speed
15 14 11 10 10 12 14 14 15 18 19 19 19 20 21 19 19 20 21 21 21 21 21 21 21 20 19 20 21 20 19 19 20 21 21 21 21 22 23 25 26 26 27 28 28 28 28 27 26 26 25 24 22 21 22 23 24 25 27 28 30 31 33
15 14 11 10 11 10 13 16 17 19 20 20 20 21 21 20 20 21 21 21 20 20 20 20 20 18 17 17 18 18 18 19 21 22 21 20 20 21 23 25 26 27 28 28 28 27 26 26 25 25 24 23 23 22 22 24 26 27 29 30 31 33 34
15 12 11 11 12 11 13 16 19 21 21 20 19 20 21 21 21 21 20 19 18 19 19 19 19 19 19 20 20 20 20 21 22 23 23 22 21 20 22 23 25 27 28 28 27 26 26 26 26 24 23 23 23 23 24 26 27 29 30 31 32 34 35
14 12 12 12 14 14 15 17 20 22 22 22 20 21 22 22 20 18 17 18 18 19 19 19 20 21 23 23 24 23 23 24 25 26 25 24 23 21 21 23 25 27 27 27 27 27 26 27 26 25 24 24 24 25 26 27 29 30 31 32 33 34 35
15 14 12 11 12 13 15 17 18 19 20 20 18 18 19 18 17 16 16 17 18 18 19 19 20 21 23 25 26 27 27 26 26 28 28 26 25 24 24 24 26 28 28 27 27 27 27 27 27 26 25 25 25 26 27 29 30 31 32 33 35 36 36
17 16 12 10 9 9 10 12 15 17 18 17 16 15 15 15 14 14 15 15 16 18 19 19 20 21 22 24 26 28 29 29 29 30 30 29 27 26 26 27 28 28 28 27 27 27 28 28 28 27 26 26 26 27 28 30 30 31 33 34 36 36 37
18 17 11 8 8 6 6 8 9 12 14 14 14 14 14 14 13 14 14 15 16 18 20 21 22 23 23 25 26 27 28 30 33 32 31 31 29 26 25 27 28 27 27 27 27 27 29 29 29 28 28 28 27 28 29 30 31 32 33 35 36 37 38
19 16 10 8 9 7 7 9 8 8 9 9 9 10 11 11 12 13 14 15 17 19 20 22 22 23 24 26 27 27 28 31 33 33 33 33 31 27 25 26 28 28 29 29 28 28 29 29 29 29 29 29 30 30 31 31 31 33 35 36 37 38 40
18 14 10 9 11 8 9 10 9 7 7 7 7 7 8 10 11 13 14 16 17 18 20 22 23 24 25 27 28 28 30 32 34 34 34 34 31 29 29 30 31 30 30 31 30 29 29 29 29 29 29 30 32 32 32 32 33 34 36 37 38 39 41
18 15 10 10 11 9 9 11 10 8 6 7 9 9 10 11 13 15 16 17 17 19 21 24 25 26 28 29 30 30 32 35 36 36 35 33 31 32 33 33 33 32 32 33 32 31 30 29 29 29 30 31 33 33 33 33 34 36 37 39 39 40 42
18 15 11 13 14 10 8 8 8 8 8 9 12 12 12 13 15 16 17 17 18 20 23 26 27 29 30 31 32 33 35 37 38 38 37 33 31 34 35 34 33 33 33 34 33 31 31 30 29 29 30 32 33 34 34 34 36 38 39 39 40 40 41
17 15 13 15 18 15 11 10 9 9 11 14 15 14 13 14 15 16 17 19 21 23 26 28 29 30 31 33 35 36 37 39 40 39 38 34 33 35 36 35 34 33 34 35 34 32 31 30 29 29 30 32 33 34 35 36 37 38 39 40 39 39 40
16 16 15 18 21 20 17 15 15 15 16 18 17 14 14 15 17 19 21 24 25 27 29 30 31 32 33 34 36 38 39 40 41 40 38 37 35 36 37 37 35 33 34 37 37 35 32 30 29 31 32 33 34 34 36 37 38 39 39 39 38 39 41
18 18 19 21 23 23 22 21 21 20 19 18 18 17 18 20 22 25 27 29 31 32 33 34 34 34 34 35 37 39 40 42 43 43 40 38 38 38 38 37 35 34 36 38 37 35 33 31 31 32 33 34 35 36 37 38 39 39 38 38 40 42 42
21 21 21 22 24 25 26 26 26 25 23 22 21 22 24 26 29 30 32 34 36 36 37 37 37 36 37 38 39 41 41 42 44 45 43 40 38 38 40 38 35 34 35 35 35 34 33 32 32 33 35 35 36 37 38 39 39 37 38 41 42 39 38
23 24 23 24 26 27 27 28 28 28 27 26 26 27 29 30 32 34 36 39 41 40 40 40 39 39 39 39 41 43 42 42 45 46 43 40 39 40 41 39 35 34 35 34 33 33 32 32 33 35 36 37 37 37 38 38 37 37 38 38 36 34 38
25 26 25 26 27 28 28 28 29 30 31 31 31 31 31 33 35 37 39 43 45 44 42 40 40 41 40 41 43 43 41 43 47 46 41 39 40 40 40 38 35 34 34 33 32 31 31 32 34 35 36 38 38 38 37 37 36 36 36 35 35 40 45
26 27 27 28 29 30 30 30 30 32 34 35 35 35 35 37 39 40 42 45 47 45 42 40 42 42 41 42 42 42 43 46 47 45 42 42 42 40 38 36 37 36 34 32 30 31 32 33 33 34 36 38 39 38 37 36 37 36 37 38 42 45 46
27 29 29 30 31 32 32 31 32 34 36 38 39 38 38 40 41 42 45 47 47 45 43 42 43 43 41 41 41 42 45 46 45 44 45 44 44 45 42 39 39 40 37 33 30 31 33 33 33 34 36 39 40 38 37 38 39 38 39 41 44 46 47
28 31 32 33 34 34 33 33 35 37 39 40 40 40 41 42 42 44 47 48 46 43 42 42 42 42 42 41 42 43 43 43 44 45 46 46 47 48 44 41 41 40 37 33 31 32 33 33 33 34 36 39 39 38 38 40 41 41 41 43 46 48 49
31 33 34 36 36 35 34 36 38 39 40 41 41 42 43 43 44 46 46 45 43 41 41 42 42 43 44 44 44 43 43 43 44 45 47 47 47 48 47 43 39 35 34 33 32 32 33 33 34 35 37 38 37 37 39 41 42 42 43 45 47 49 50
34 36 38 39 37 34 35 38 40 40 41 42 42 43 44 45 46 47 46 42 40 40 41 42 42 44 45 45 44 42 44 46 44 44 46 47 49 53 50 40 33 31 33 35 34 34 34 34 34 35 37 37 37 39 41 42 41 42 44 46 49 50 50
38 39 39 39 36 35 37 40 41 43 44 43 42 43 45 46 47 47 45 43 41 42 43 43 43 44 44 44 42 42 47 49 46 46 47 46 49 51 43 32 30 31 33 35 36 35 34 33 34 36 37 36 37 38 39 40 40 42 45 48 49 50 49
40 39 38 38 38 38 40 42 44 45 45 44 44 46 47 48 47 47 46 45 44 44 45 45 45 45 45 44 43 45 49 48 45 46 46 42 40 38 31 28 31 34 35 36 36 34 33 33 35 36 36 36 37 37 39 42 44 46 47 48 49 49 48
42 39 37 38 39 40 43 44 45 46 45 44 46 49 50 49 48 47 47 46 45 45 46 46 46 46 47 47 46 46 46 41 38 41 41 36 32 30 30 32 37 39 38 35 33 32 32 33 35 35 35 36 39 39 41 44 46 47 48 49 48 48 49
43 40 39 41 42 44 46 46 46 47 46 46 48 50 51 50 48 48 49 48 48 48 47 47 47 47 48 49 47 43 40 36 34 36 38 35 30 31 33 34 36 34 31 31 33 32 32 33 34 34 34 36 39 40 43 45 47 48 49 49 48 49 49
43 42 44 46 48 49 48 46 46 48 48 48 50 51 52 52 50 49 49 48 49 49 48 47 46 46 47 49 47 41 37 35 34 36 37 34 31 34 38 37 35 33 35 39 41 38 35 34 35 35 35 36 39 43 46 47 48 48 48 48 49 49 48
44 45 48 50 52 52 50 49 48 49 49 50 52 53 54 53 50 48 47 48 49 48 47 45 43 43 44 45 42 37 35 36 37 37 38 37 39 44 46 44 41 41 43 44 41 37 35 34 33 35 37 39 42 46 47 47 47 48 48 48 48 48 48
46 49 52 52 53 53 53 52 51 50 50 52 53 54 53 51 48 47 48 48 47 45 43 42 40 39 39 37 34 33 34 35 36 37 37 39 42 44 43 41 40 39 37 34 31 32 33 32 32 35 39 42 45 45 45 45 46 47 47 47 47 48 48
49 52 53 53 54 54 55 56 55 54 52 51 50 49 48 47 47 47 45 43 40 38 37 37 37 37 35 31 31 35 35 34 34 35 37 39 39 36 34 34 33 33 32 32 32 34 34 33 35 39 42 43 44 43 44 45 46 46 46 47 48 49 49
51 53 54 54 55 56 58 58 57 54 50 47 45 46 46 46 46 43 40 38 36 35 35 35 35 34 32 31 32 34 34 34 36 38 42 43 39 34 33 32 33 37 39 39 36 34 33 35 40 43 44 43 43 44 45 45 45 46 47 49 50 51 49
56 55 55 56 57 59 60 59 56 52 48 44 44 45 45 45 44 41 38 36 35 34 34 34 33 32 31 31 31 31 32 35 38 42 46 48 46 42 39 40 45 47 44 40 35 33 34 39 43 43 43 43 43 44 45 45 46 48 50 51 51 49 47
57 57 56 57 58 58 57 56 53 47 43 42 43 44 44 43 42 39 37 35 34 34 33 34 34 33 32 33 33 32 33 36 40 44 48 51 51 48 46 48 51 48 42 36 34 35 40 45 44 41 41 42 43 45 45 47 49 50 51 51 49 46 43
52 53 54 54 55 54 54 55 52 44 39 40 43 43 43 42 40 38 36 34 33 33 33 34 34 34 34 34 33 33 35 39 44 48 51 54 54 51 49 48 47 43 40 37 36 41 52 54 47 44 44 44 46 48 48 50 51 51 50 48 45 43 40
50 51 51 52 53 53 53 52 48 42 38 39 40 40 40 40 39 38 37 35 34 34 34 35 35 35 35 33 30 32 36 40 43 45 45 45 44 43 43 42 41 41 42 41 44 52 60 57 51 48 47 47 49 50 50 51 51 49 47 44 42 40 38
54 54 54 54 53 51 46 41 38 36 35 35 36 38 39 40 40 39 38 37 36 36 36 35 35 34 34 32 33 36 38 39 38 35 33 32 34 39 42 44 44 46 48 50 53 57 57 53 49 47 47 49 51 51 51 51 49 46 44 42 40 38 37
49 50 49 47 44 39 35 32 31 31 32 33 35 38 39 40 40 40 39 39 39 39 39 38 37 35 35 36 37 38 38 37 37 36 35 37 42 48 49 49 49 50 51 53 54 54 51 48 46 46 48 51 51 50 50 48 46 44 42 40 38 37 36
36 36 35 34 32 30 30 30 31 31 32 34 36 37 39 41 42 41 41 40 41 41 42 42 41 40 40 40 41 40 39 39 40 41 43 45 48 51 52 51 49 48 48 49 50 49 47 46 45 47 50 51 50 48 48 47 45 43 41 39 38 37 36

ECMWFFLT1_500_spd_006.txt.gz
Wind_Speed
14 12 13 14 13 13 14 13 15 17 17 16 17 19 20 19 19 19 19 19 18 17 17 18 20 20 20 20 20 20 19 19 20 20 20 21 22 23 24 25 26 27 28 28 27 27 26 25 24 24 24 24 24 24 25 25 24 23 23 23 24 25 26
11 13 14 13 12 12 14 14 14 16 17 17 17 19 20 20 20 20 20 20 18 17 16 17 19 19 19 18 18 18 18 18 19 20 20 21 22 22 23 24 25 27 29 29 28 28 27 27 27 26 25 24 24 25 26 26 26 25 25 25 25 26 27
13 14 14 14 13 14 16 16 15 16 17 19 20 21 21 21 21 20 20 20 18 16 15 16 18 18 18 17 17 18 19 19 19 20 21 22 23 23 23 24 25 26 28 29 28 27 28 28 28 27 26 24 24 25 27 28 27 27 27 27 26 27 28
14 14 15 14 14 16 17 17 16 16 17 18 20 21 22 22 21 20 19 19 17 16 16 16 17 17 16 17 17 19 20 22 22 21 22 23 23 24 25 25 25 25 27 28 27 26 26 27 28 28 26 24 24 25 27 28 29 29 28 28 28 28 28
14 15 15 14 16 18 17 14 13 13 16 18 19 20 21 22 21 19 17 17 16 16 16 16 16 16 16 17 18 19 20 22 24 24 24 24 24 26 27 28 27 26 27 28 27 25 25 26 27 27 27 26 25 25 27 29 30 29 29 29 29 29 29
15 16 15 15 17 18 16 13 11 8 10 13 16 17 18 17 16 15 15 15 16 16 16 16 16 16 18 19 20 20 21 22 23 24 25 26 28 28 28 29 30 29 28 27 26 25 25 26 27 27 27 27 25 25 27 29 30 30 30 30 30 29 30
17 17 16 16 17 17 15 13 10 7 5 6 9 12 13 13 13 14 15 15 15 15 15 15 16 18 19 20 21 22 23 25 25 25 26 28 31 32 32 31 31 31 28 26 26 26 27 29 30 28 28 28 27 26 27 28 29 30 30 30 30 29 30
20 19 19 18 17 16 15 13 10 7 5 3 4 6 9 10 12 13 13 14 14 15 16 16 18 19 21 22 24 25 27 29 29 28 29 29 31 33 34 34 33 32 29 27 27 28 29 31 31 30 28 28 28 27 27 28 29 30 30 30 29 29 31
22 20 20 19 17 15 13 13 11 7 4 3 2 2 5 7 9 11 12 14 15 16 17 18 20 22 23 25 27 29 31 32 33 32 32 31 32 34 35 35 35 33 31 30 30 30 31 32 33 32 29 28 28 28 28 28 29 30 30 30 30 30 32
22 20 21 20 18 15 12 10 9 7 4 4 3 3 4 5 7 10 12 13 15 16 18 20 21 23 25 27 29 30 32 33 34 34 33 32 33 35 36 36 36 34 32 33 33 32 32 33 35 34 30 28 29 29 29 29 29 30 30 30 30 31 31
23 23 23 21 18 15 12 8 6 5 3 4 6 6 7 7 7 8 9 11 13 15 17 19 21 23 26 28 30 31 32 33 35 35 35 34 34 36 38 38 38 36 33 34 35 34 33 33 36 36 32 30 31 31 30 30 30 31 30 30 31 31 31
25 25 25 22 19 15 12 9 7 6 5 6 8 9 8 6 6 7 8 11 14 16 18 20 23 26 28 30 32 33 33 35 36 37 37 37 37 38 38 38 38 36 33 34 36 36 35 34 35 36 34 33 33 32 32 32 31 31 31 32 32 31 31
26 25 24 22 19 15 12 10 9 8 7 8 9 9 9 8 8 9 12 15 18 20 21 24 28 30 31 33 35 34 35 35 37 40 41 40 41 40 39 38 38 36 34 34 36 37 36 35 35 35 34 33 34 35 34 33 32 33 33 33 33 31 31
22 22 23 21 17 13 12 11 10 10 9 9 9 9 9 9 11 13 16 19 21 23 25 27 29 31 32 35 35 34 34 36 39 42 42 41 42 42 43 43 42 40 38 37 36 37 37 36 35 34 33 32 34 35 34 33 33 34 34 34 34 32 31
19 20 20 19 14 12 13 13 13 13 13 13 11 11 11 12 14 16 18 20 23 25 27 29 29 30 31 33 33 34 35 38 42 42 41 43 45 43 45 45 43 43 44 42 39 37 38 37 34 33 32 32 33 34 34 35 34 34 35 35 35 33 33
19 19 18 16 13 13 15 16 16 17 18 19 18 17 17 17 19 20 21 23 24 26 27 28 29 29 30 31 32 33 35 40 43 41 42 47 45 41 43 44 42 42 45 47 44 38 35 34 33 31 31 31 31 33 34 35 35 34 35 36 36 35 35
21 18 15 15 16 17 19 20 20 20 21 23 24 24 23 24 25 26 26 27 28 29 30 30 31 31 31 31 33 35 37 40 41 39 41 45 44 41 42 42 41 43 47 50 50 44 37 33 32 32 33 32 32 34 35 35 36 35 35 36 36 35 36
20 17 15 16 19 20 22 23 23 23 24 25 26 27 27 29 30 30 30 31 32 32 32 33 33 34 34 34 36 38 39 42 43 42 43 45 45 45 43 40 40 44 47 50 51 51 45 39 36 37 38 37 36 36 35 35 36 36 35 35 35 34 36
19 18 18 19 21 22 24 26 26 26 26 27 28 29 31 32 32 32 33 34 34 34 35 35 35 36 37 38 39 41 42 44 46 47 49 49 48 48 47 45 46 47 47 48 49 52 49 43 41 42 42 40 39 36 35 37 37 36 35 35 35 35 36
22 21 22 22 23 24 26 28 29 29 29 29 30 31 32 33 34 34 35 36 36 36 37 37 37 37 39 41 43 44 46 47 48 51 53 51 50 51 50 49 51 54 54 53 52 53 53 47 42 41 39 37 37 36 37 38 37 36 36 36 36 35 35
26 26 25 24 25 27 29 31 33 32 31 31 31 32 34 35 36 37 37 38 38 38 39 39 39 40 41 43 45 47 48 50 51 53 53 51 50 50 49 48 51 53 54 57 57 55 51 44 38 37 36 35 35 35 38 38 37 37 36 36 36 36 35
28 28 27 26 28 31 33 34 35 34 33 33 33 35 36 38 39 40 40 41 41 40 40 41 41 43 44 45 47 50 51 51 52 52 54 54 50 46 45 47 49 48 50 57 57 49 41 35 32 35 38 37 35 35 37 37 36 36 36 37 38 37 37
31 31 31 32 33 35 36 36 36 35 34 35 36 38 40 41 42 43 44 44 43 42 43 43 43 45 48 50 51 52 52 52 51 51 53 55 52 48 46 44 45 49 54 52 41 31 27 27 30 37 40 37 34 34 35 34 34 34 35 37 37 37 39
36 37 37 36 36 37 38 38 38 37 37 38 40 41 42 43 43 44 46 46 45 44 45 45 46 49 52 52 52 51 51 52 52 51 51 52 52 50 44 40 44 51 50 38 27 24 26 29 32 36 37 34 34 35 33 32 33 33 34 36 37 39 42
39 39 38 38 39 40 40 41 41 41 41 42 43 44 44 44 44 44 46 46 46 47 47 47 50 54 54 52 50 50 51 53 53 51 49 49 48 46 42 39 41 42 35 28 30 33 35 33 31 31 32 35 37 37 33 32 32 31 32 35 38 41 42
39 38 39 40 41 42 42 43 43 43 42 43 44 46 46 46 44 44 44 46 47 49 49 50 53 54 51 50 50 51 53 55 52 48 46 43 41 42 42 38 36 36 36 37 39 39 37 32 28 29 33 34 35 35 33 32 30 29 32 36 39 40 40
36 37 39 40 41 42 43 43 43 43 43 44 45 46 47 47 47 46 46 46 48 50 51 53 54 52 50 49 51 52 53 53 48 43 41 37 32 33 38 38 39 42 41 39 39 38 36 31 29 32 36 34 32 33 32 29 28 31 36 38 38 39 40
40 40 40 40 41 42 43 44 45 45 45 46 46 46 47 49 50 49 48 48 51 54 54 54 54 52 51 50 50 50 51 50 45 38 36 34 31 33 37 40 41 41 39 38 39 39 37 35 37 39 40 38 35 33 30 29 32 37 40 39 39 40 40
44 44 42 42 43 45 45 45 45 45 45 47 49 49 50 50 51 51 51 52 55 57 56 55 55 53 51 49 48 48 49 49 45 39 36 35 34 34 35 36 37 38 39 40 41 39 38 40 43 43 42 37 33 31 31 33 36 41 44 42 41 41 40
43 43 42 42 44 45 46 45 44 44 46 49 51 52 53 53 54 54 54 55 57 58 57 56 52 49 47 46 46 46 47 47 45 41 37 36 36 34 34 34 35 38 41 40 38 37 39 41 43 42 38 33 30 32 36 38 40 44 46 44 42 41 41
40 40 40 41 44 45 44 43 43 45 48 51 53 55 57 58 58 57 57 58 58 57 54 50 45 43 43 44 44 44 44 44 44 41 38 37 37 36 34 35 36 40 44 43 39 40 43 44 42 37 31 30 32 36 39 41 43 47 48 46 45 44 44
39 38 38 40 42 42 42 42 43 46 49 52 55 57 59 60 59 59 59 58 55 52 49 45 43 43 43 43 43 42 41 41 41 41 39 38 36 35 35 37 38 40 41 42 43 44 43 39 35 31 31 34 37 39 41 44 47 50 51 50 47 46 46
38 38 38 39 41 42 43 43 44 46 49 52 55 57 58 58 59 58 56 52 50 49 47 45 44 43 42 41 40 40 39 39 39 39 40 38 36 36 38 39 39 37 34 36 40 40 34 30 32 37 41 43 44 45 46 48 49 51 51 49 47 47 48
45 44 42 42 43 45 46 46 48 50 52 54 56 58 58 60 59 55 50 46 45 44 43 42 41 39 38 38 38 38 39 39 39 38 39 39 39 41 42 41 40 36 30 28 31 32 31 35 43 48 48 48 47 46 46 47 47 48 47 47 47 48 48
49 48 45 43 45 46 47 47 48 50 52 55 58 60 60 58 53 47 41 39 38 37 37 38 38 37 37 37 37 38 38 39 39 40 40 41 41 42 43 42 40 37 32 30 31 35 39 45 49 50 50 48 46 44 44 44 45 46 47 49 49 47 45
46 47 46 45 45 45 45 45 45 46 48 50 51 51 48 43 37 34 33 34 35 36 38 39 38 38 38 37 37 38 38 39 40 41 42 42 43 43 43 43 42 40 39 37 38 40 44 47 49 49 48 46 43 42 43 45 47 49 49 48 46 43 43
45 45 45 44 42 41 41 41 41 42 43 41 38 34 32 30 30 31 33 35 37 38 39 39 40 40 39 38 37 38 39 40 42 43 44 44 45 45 44 44 43 43 42 42 42 44 46 47 48 48 47 46 45 45 46 48 48 47 45 43 42 43 46
42 40 39 39 39 39 39 38 38 38 38 37 33 31 31 31 32 33 35 37 38 38 38 40 41 42 41 40 38 38 40 43 44 45 46 46 46 47 46 45 44 43 42 43 45 46 47 47 47 47 46 46 46 46 47 46 44 42 41 43 44 46 47

ECMWFFLT1_500_spd_009.txt.gz
Wind_Speed
18 16 13 11 12 13 13 14 14 15 15 14 16 20 21 21 20 19 17 15 13 14 15 16 16 16 17 16 15 15 16 16 16 16 16 17 17 17 17 18 18 18 19 20 20 20 20 21 21 22 22 21 21 21 21 21 21 21 20 20 20 21 22
18 14 11 11 12 12 13 15 17 17 16 15 16 18 20 20 18 17 17 16 15 16 16 15 15 16 16 15 14 14 15 15 15 16 16 16 17 18 18 18 18 18 19 21 21 21 21 22 23 24 24 23 21 21 21 22 23 23 23 23 22 22 24
14 11 11 12 12 13 15 16 18 18 17 16 16 17 18 19 19 18 18 17 17 17 16 14 14 15 15 14 14 14 14 15 16 17 17 17 17 18 19 19 19 18 19 20 21 21 22 23 24 25 25 24 22 22 22 23 24 25 26 25 24 24 25
11 11 13 14 13 14 16 16 18 18 17 17 17 17 18 20 21 20 19 18 17 16 15 14 14 14 14 14 14 14 15 16 17 18 19 19 19 20 20 21 21 20 21 21 21 22 23 23 24 25 25 25 24 23 24 24 25 26 27 27 26 26 26
13 14 14 14 14 14 15 16 17 16 16 16 16 16 17 19 19 19 18 17 16 16 15 14 13 13 14 14 14 15 16 17 18 19 20 22 22 23 23 24 24 24 24 24 24 23 23 23 24 25 26 26 27 26 26 25 26 27 27 28 28 28 28
13 14 15 14 14 15 16 17 16 15 15 15 15 15 16 16 15 14 15 15 15 15 14 12 12 13 14 14 15 16 17 17 19 20 22 23 24 24 24 24 26 28 29 28 28 27 25 24 25 26 27 28 29 30 28 26 26 27 28 29 30 30 30
13 14 15 15 16 17 17 17 16 15 14 14 13 13 13 12 11 11 11 12 13 14 13 12 13 13 14 15 16 17 18 19 21 22 23 24 24 24 24 23 25 29 31 30 30 30 28 27 26 27 28 29 31 32 30 28 27 27 27 28 30 30 30
15 15 17 18 19 19 18 17 17 16 14 13 12 10 9 9 9 10 11 12 13 13 12 12 12 13 14 16 18 19 20 21 22 23 25 25 25 24 25 25 27 30 32 33 34 33 31 31 31 29 29 30 31 33 33 30 28 28 28 28 29 30 30
17 17 19 23 23 20 18 18 18 17 15 14 12 10 9 9 9 10 10 11 11 11 11 12 12 14 15 17 18 20 21 23 24 26 27 27 27 27 27 27 27 29 31 34 36 36 35 36 35 32 30 31 32 33 34 33 32 30 30 29 29 31 31
19 19 22 25 24 21 19 19 19 18 17 15 14 13 11 10 9 9 9 10 10 10 12 12 12 14 15 17 19 21 23 25 27 29 29 28 29 31 31 30 29 30 31 33 37 38 40 41 38 34 32 33 34 34 34 35 35 34 32 31 30 31 32
22 23 23 24 24 22 20 20 20 19 18 17 16 15 15 13 11 11 10 10 10 11 12 12 12 14 16 19 21 23 25 28 30 32 31 31 32 34 35 34 33 32 32 33 37 39 41 43 42 39 38 36 36 35 35 35 36 36 34 32 31 30 31
24 24 23 23 23 22 22 22 21 20 19 17 16 15 15 14 14 13 12 11 10 11 11 12 15 17 18 21 22 24 27 30 32 32 32 33 35 37 38 38 38 37 35 34 36 38 41 43 44 44 44 42 39 37 36 36 37 36 34 32 31 30 30
24 23 23 23 23 23 24 23 21 21 20 18 16 14 13 13 13 13 12 11 11 11 13 15 17 19 20 22 23 25 29 31 30 30 30 31 32 33 36 37 37 38 37 37 38 40 41 42 45 47 47 45 44 42 40 38 38 38 35 33 32 30 30
25 25 24 24 24 25 25 23 22 21 20 20 17 14 12 12 12 12 12 11 12 12 14 16 18 20 21 22 24 27 29 30 29 30 32 33 32 30 32 34 33 34 36 37 38 39 41 41 44 48 48 45 45 46 44 40 39 38 36 34 32 32 31
23 25 25 25 25 25 24 23 23 21 20 20 18 15 13 12 12 13 13 13 13 14 16 17 18 20 21 23 25 27 28 29 30 33 37 42 42 38 37 36 34 34 36 38 40 41 43 43 43 47 48 46 47 49 46 41 40 38 35 33 33 34 33
21 23 24 24 24 24 23 22 22 22 20 19 18 17 15 13 13 14 15 16 16 17 17 18 19 20 21 24 26 27 29 30 32 35 40 46 48 45 43 41 38 37 40 44 45 44 45 46 47 48 49 48 50 52 49 44 40 36 33 34 35 36 35
19 21 22 23 23 23 22 21 22 23 21 18 19 19 18 17 16 16 16 17 18 18 18 19 19 21 23 26 28 29 30 31 33 36 41 47 51 49 46 42 40 41 43 44 45 44 43 44 45 49 54 55 53 53 53 48 39 33 34 37 38 38 37
20 21 23 24 23 22 21 21 22 23 23 22 22 21 21 20 20 20 20 20 19 19 19 20 22 24 26 29 30 32 33 34 35 38 43 49 53 52 46 42 42 44 43 43 44 43 43 42 41 46 54 57 56 53 51 48 40 36 38 40 39 38 37
22 24 25 24 21 20 20 21 22 24 25 25 26 25 24 23 23 24 24 24 23 22 22 23 25 27 29 31 32 33 35 37 38 41 46 50 53 51 46 42 43 44 44 45 44 43 44 44 43 46 50 51 53 51 47 43 40 39 41 41 38 37 37
25 27 27 24 20 20 22 23 24 27 28 28 30 29 27 25 25 26 26 27 27 27 27 27 28 30 31 32 34 35 37 39 40 43 47 51 53 53 50 47 45 46 48 49 46 45 46 45 46 50 48 44 44 42 38 37 37 40 43 41 37 36 36
26 28 29 27 23 23 25 25 26 29 31 32 33 32 29 27 27 27 28 29 31 32 32 32 32 32 34 35 36 37 38 40 41 44 48 51 52 53 53 52 51 51 51 48 46 47 47 45 45 45 42 39 39 36 31 32 37 42 44 41 36 34 34
28 31 32 30 27 26 27 27 28 32 34 36 36 34 31 30 30 29 30 31 33 34 35 35 36 36 37 38 39 39 39 41 43 46 49 50 51 52 52 54 54 52 49 48 49 47 43 40 38 33 32 37 40 35 30 33 38 41 43 42 37 33 32
32 34 34 32 30 30 31 32 34 36 38 38 38 36 34 34 33 32 33 34 34 36 37 38 39 39 40 41 42 42 43 44 45 48 50 51 51 52 52 53 53 50 48 47 45 39 35 36 35 30 30 34 33 30 30 33 38 41 43 41 35 30 31
35 36 36 35 35 36 37 37 38 39 39 39 39 38 37 37 36 35 35 36 35 36 38 39 40 42 42 44 45 45 46 47 49 51 52 52 51 51 52 53 51 48 45 41 38 36 37 38 35 32 32 31 30 30 31 33 37 40 38 35 32 31 32
37 38 38 38 39 40 40 41 41 42 42 42 41 40 40 40 39 38 38 38 37 38 38 39 41 43 44 45 46 47 48 49 52 54 54 53 52 50 51 51 50 46 41 38 39 41 42 39 35 34 33 32 33 36 33 33 37 38 35 32 30 30 29
38 39 40 41 41 41 42 43 43 44 45 44 43 42 42 43 42 41 40 40 41 40 39 39 42 44 46 46 47 48 49 51 53 54 54 53 50 47 48 49 48 43 38 37 40 41 40 38 36 35 35 35 37 36 30 30 34 34 32 30 29 27 26
40 40 41 42 42 42 42 43 44 45 45 45 44 43 43 44 43 42 42 43 44 44 41 41 44 45 46 47 48 48 50 51 52 53 52 50 47 45 46 47 46 41 35 35 37 38 38 38 37 36 36 36 35 29 24 26 30 29 27 29 32 31 29
40 40 41 42 42 42 42 43 44 44 43 43 42 42 43 44 44 44 45 46 47 47 44 44 46 48 47 48 49 49 50 51 51 51 50 47 45 45 46 46 45 41 37 35 36 37 37 37 37 37 36 34 32 27 26 30 32 29 27 31 35 34 34
41 41 41 42 43 42 43 44 44 44 43 42 42 42 44 45 46 46 48 50 50 48 46 47 49 49 48 49 49 49 50 50 49 49 48 47 46 46 46 44 42 40 37 35 35 35 35 36 37 37 36 35 33 31 31 31 31 30 30 33 34 35 40
42 42 43 44 45 45 46 46 46 46 45 44 43 45 46 48 49 48 48 49 48 48 47 49 50 50 50 49 49 49 50 49 48 48 48 47 46 45 43 41 39 38 36 35 34 33 34 36 36 36 36 35 33 32 33 31 29 29 31 34 36 39 42
44 44 44 44 44 44 46 48 50 50 49 46 45 46 48 49 50 49 48 47 46 47 48 49 50 51 51 50 49 50 50 49 47 46 45 45 44 42 40 38 37 36 36 35 34 34 35 36 35 35 34 33 31 32 33 31 30 33 37 39 40 40 40
44 43 42 41 40 40 41 43 45 47 47 46 46 48 48 48 47 48 49 49 48 48 47 47 48 50 50 49 49 49 47 45 42 41 40 40 39 38 36 36 35 36 37 37 37 38 38 37 36 34 32 29 29 31 33 33 36 42 45 45 43 41 41
42 41 40 38 38 37 37 37 38 40 42 45 46 47 48 47 47 48 49 49 48 46 45 45 45 45 45 45 45 43 40 37 36 35 36 36 36 36 35 35 36 37 38 38 39 39 39 38 37 35 30 26 27 32 35 38 42 46 47 46 44 43 43
39 38 37 35 35 35 36 37 40 42 45 47 48 48 47 47 48 48 48 48 47 46 44 41 39 40 39 38 37 35 34 33 34 35 36 36 36 36 36 36 37 38 39 39 40 40 39 38 36 35 32 29 30 34 38 41 45 46 46 44 43 42 42
36 35 34 34 36 38 40 42 44 45 46 46 46 46 46 46 48 48 48 48 47 43 38 35 34 34 33 32 33 33 34 34 35 37 38 39 39 39 38 38 38 39 40 41 41 40 39 38 37 36 35 34 35 37 39 42 43 42 41 40 40 41 41
35 34 35 36 38 41 43 44 43 43 44 44 44 45 47 48 48 47 46 44 41 36 33 32 32 32 32 34 35 36 36 36 37 38 39 41 42 41 40 40 40 41 42 42 41 40 39 39 39 38 38 37 38 38 38 38 38 37 38 38 39 40 41
35 34 35 36 38 41 43 44 44 45 46 47 47 48 49 47 45 43 42 40 38 35 35 35 34 34 36 37 37 37 37 38 38 39 40 42 43 42 42 41 41 42 43 42 40 40 40 40 40 40 39 39 39 39 38 38 38 38 39 40 40 41 40
34 35 35 36 38 41 43 44 46 47 48 48 48 48 47 44 42 40 40 39 37 36 36 36 36 37 38 38 39 39 39 40 40 41 41 42 41 40 40 41 42 43 43 42 41 41 41 41 41 40 40 40 40 40 39 39 40 41 41 41 41 42 42

ECMWFFLT1_500_spd_012.txt.gz
Wind_Speed
22 21 23 20 17 17 15 13 12 12 12 13 13 14 14 14 15 16 16 17 17 17 16 16 15 14 14 14 13 12 12 12 12 12 12 12 12 13 13 13 14 14 14 14 15 16 17 17 18 18 18 18 19 20 20 20 20 20 20 20 21 22 22
23 23 24 20 15 15 14 13 13 13 13 13 13 14 14 14 13 14 16 17 17 17 17 16 14 14 14 14 12 11 11 12 12 12 12 12 13 13 13 14 15 15 15 15 16 17 19 20 21 22 22 22 22 22 22 22 22 22 22 22 23 24 24
21 24 25 21 16 16 16 15 15 14 14 14 13 12 13 13 13 14 16 17 17 17 16 15 14 14 14 13 12 12 12 12 13 13 13 13 13 13 13 14 16 17 17 17 17 18 20 21 23 24 24 24 25 24 24 24 24 24 25 26 27 27 27
18 22 24 20 17 17 17 17 16 15 15 14 12 11 12 13 14 14 15 16 16 16 15 15 15 15 14 13 13 13 13 14 14 14 14 15 15 15 16 17 18 18 18 19 19 20 21 22 23 24 24 24 25 26 26 26 26 27 28 29 29 29 29
18 20 20 19 18 18 19 18 16 16 16 15 13 11 11 14 15 14 14 14 15 16 16 17 16 15 14 14 14 14 14 14 15 15 16 16 17 18 19 20 21 21 21 20 21 23 25 25 25 26 25 25 27 27 27 27 28 29 30 31 30 30 30
19 20 19 19 19 19 19 18 18 18 17 16 13 11 12 13 14 14 13 13 14 15 17 17 16 15 15 15 15 14 15 15 16 17 17 18 20 20 21 22 24 24 23 22 23 25 27 29 30 30 29 29 30 29 29 29 30 31 33 33 32 31 31
19 19 19 19 20 20 20 19 20 19 17 16 14 12 12 13 12 13 13 13 14 15 16 16 16 15 16 15 15 15 15 16 17 18 19 20 21 21 22 23 24 25 25 25 26 27 28 30 32 32 32 33 34 32 32 33 34 34 34 35 34 33 33
20 17 17 18 20 20 20 21 21 20 18 17 14 12 12 12 11 12 13 14 14 15 15 15 15 15 15 15 15 15 16 18 18 18 20 22 22 23 22 22 24 26 26 28 29 30 31 31 32 33 34 35 36 34 35 38 39 37 35 36 36 36 36
20 18 17 19 21 20 21 23 23 21 20 18 15 13 12 11 11 11 12 13 13 13 14 14 14 15 15 15 15 16 17 18 18 19 21 23 23 23 23 23 24 25 27 29 31 33 34 34 34 35 36 37 36 35 37 39 41 41 40 38 38 38 38
22 20 19 20 21 21 22 24 23 22 21 19 17 15 13 12 12 12 12 12 12 13 14 14 14 15 15 15 16 17 17 17 18 20 20 21 20 21 22 23 25 27 29 31 31 33 35 36 36 36 37 36 35 37 39 39 40 42 43 43 42 42 41
21 19 18 19 21 21 23 23 23 23 23 21 19 16 14 13 14 15 14 14 14 14 14 14 15 15 15 16 16 16 17 18 18 18 19 19 20 23 25 26 27 29 30 30 31 33 36 37 34 33 34 35 36 39 41 41 41 42 44 47 48 47 45
19 18 18 20 22 22 23 23 23 24 24 23 21 18 15 14 16 17 17 17 16 16 15 15 16 16 15 16 16 16 16 17 17 18 20 23 25 28 31 32 31 31 33 36 37 38 40 41 37 36 38 40 40 40 42 44 45 44 46 50 51 51 51
19 19 20 22 23 23 23 22 23 24 24 24 22 20 18 17 17 17 17 18 18 17 17 17 17 17 16 16 16 16 15 16 18 20 24 27 28 30 31 31 33 36 40 43 44 43 43 42 38 38 41 42 41 40 40 43 45 46 48 51 52 54 56
19 19 20 23 23 23 22 23 24 24 24 23 22 21 20 19 18 18 17 18 18 18 18 18 18 17 16 16 16 16 16 18 20 23 27 29 29 33 36 35 37 39 39 40 40 39 37 35 35 38 40 40 41 40 40 42 45 47 48 50 53 56 59
19 19 21 24 24 23 23 24 25 25 25 24 23 22 21 21 20 19 19 19 18 17 17 17 17 16 16 16 16 16 17 20 23 25 29 30 31 35 37 34 33 34 33 33 36 36 35 34 35 39 40 41 42 41 40 41 45 48 49 51 56 61 62
20 21 23 24 25 24 24 26 26 26 26 26 23 21 21 21 21 20 20 19 17 17 17 18 18 18 18 17 16 17 19 22 25 27 30 32 33 35 35 31 29 31 32 33 35 37 38 38 39 41 40 40 41 38 36 38 41 44 46 47 51 57 60
22 23 24 25 25 24 25 27 26 27 28 26 23 22 21 21 22 21 21 19 18 17 17 16 17 17 17 17 17 19 22 23 26 28 30 32 34 35 35 34 34 35 36 37 37 39 40 40 40 40 38 38 37 33 31 33 34 35 37 38 39 44 50
24 24 25 25 25 25 26 26 26 27 28 26 24 24 24 23 23 22 22 21 22 21 18 16 15 15 17 19 20 22 24 25 27 29 31 33 36 38 38 38 39 40 42 44 44 44 43 40 40 40 39 36 32 29 30 30 28 29 31 31 31 32 37
25 25 25 25 25 26 26 26 27 28 27 25 25 26 26 27 26 24 23 24 24 24 21 19 18 18 20 22 23 24 25 26 28 31 33 35 38 41 42 43 43 44 46 47 48 47 44 41 41 41 37 30 26 26 28 27 26 28 28 28 29 30 31
27 27 27 26 26 28 28 27 27 28 26 26 27 28 29 30 29 27 26 25 24 24 24 23 22 22 23 24 25 25 26 27 29 32 34 36 39 41 43 45 46 47 48 49 49 48 44 40 39 38 33 28 26 26 26 25 26 29 28 27 29 30 31
29 29 30 28 28 30 29 26 26 27 27 28 29 30 31 31 31 32 29 25 24 25 26 26 26 26 26 27 27 27 28 29 31 33 36 37 39 41 44 46 47 48 49 49 48 46 41 37 37 36 34 32 29 26 24 25 26 27 28 29 31 32 31
31 32 31 29 30 31 29 26 27 29 30 30 31 32 33 34 35 35 31 26 26 29 30 30 29 29 29 29 29 30 31 31 32 35 36 38 39 41 43 45 46 48 48 47 46 43 39 37 36 35 34 32 29 26 25 25 26 27 30 33 34 33 30
33 34 33 31 31 32 30 29 30 31 30 31 33 35 37 38 37 35 33 31 30 31 33 34 33 32 31 31 31 32 33 34 35 37 38 40 41 42 43 44 46 47 46 44 42 41 39 37 35 34 33 32 30 28 26 25 26 28 30 31 31 29 27
35 36 35 34 33 33 33 33 33 33 33 35 38 39 40 40 39 38 36 35 34 35 36 38 37 36 35 35 35 35 35 37 40 42 43 44 45 45 44 45 45 45 44 42 40 40 40 37 34 31 31 31 29 27 26 26 26 27 28 28 27 25 24
37 37 37 36 35 35 36 35 35 37 39 40 41 41 41 41 41 41 40 39 39 39 39 40 40 39 38 38 38 38 38 38 41 45 47 49 49 49 46 44 44 43 43 41 41 41 41 39 35 31 30 30 29 27 27 27 27 28 29 29 29 26 24
39 39 39 38 36 37 38 37 37 39 41 43 43 43 43 44 44 44 44 44 44 43 43 42 42 42 42 41 41 41 41 40 43 47 49 51 52 52 48 44 43 43 42 42 42 41 40 38 35 32 30 29 28 28 29 29 29 30 30 29 29 28 25
41 40 41 39 37 37 38 39 38 40 42 43 43 44 44 45 46 47 47 47 47 46 45 44 44 44 44 43 43 44 43 44 45 48 51 52 54 53 49 45 43 43 43 42 41 39 37 36 34 31 30 29 29 30 31 31 31 31 30 28 27 27 26
43 41 40 40 39 39 39 40 40 42 44 44 44 44 45 46 47 48 48 48 48 47 46 47 47 46 46 46 46 46 45 45 47 49 50 53 54 51 47 45 44 43 42 41 39 37 35 34 32 31 31 31 32 32 32 32 32 31 30 27 24 25 25
43 42 41 41 41 41 41 41 41 42 44 45 45 46 46 47 47 48 48 49 49 49 50 49 48 47 47 48 49 48 47 46 46 48 49 51 51 48 44 42 42 41 39 38 36 35 34 34 33 33 34 34 35 35 34 34 33 30 28 25 23 24 24
42 43 42 42 42 41 42 42 41 41 42 44 46 47 48 48 48 49 50 51 51 51 51 51 49 48 47 49 51 51 49 47 46 47 48 49 49 45 41 38 37 37 36 35 35 35 35 35 35 36 37 38 39 39 37 36 34 29 26 24 26 28 28
41 43 43 42 42 41 41 41 40 40 40 42 43 46 47 47 47 48 49 50 51 51 50 49 49 48 47 49 51 50 49 47 47 47 47 47 45 42 38 35 33 33 33 34 36 36 37 38 38 39 40 41 41 41 39 38 35 28 24 25 29 31 31
40 41 42 42 42 41 40 41 41 40 41 42 43 44 44 44 44 45 45 45 45 46 46 48 49 48 46 46 47 47 48 48 47 45 44 44 41 37 35 32 31 32 34 35 37 38 39 40 41 42 42 42 41 41 40 38 33 26 23 26 30 33 36
41 42 42 42 42 41 42 43 44 43 43 44 44 44 43 42 42 43 43 42 43 44 45 47 48 46 45 45 46 47 47 46 45 43 42 41 38 35 33 33 33 34 35 36 38 39 41 42 43 44 44 42 41 40 39 36 32 27 25 28 31 34 37
42 43 43 43 43 42 43 45 45 45 44 42 40 39 39 39 40 42 43 44 44 45 46 46 45 45 45 47 48 47 46 44 43 42 41 39 37 35 35 36 36 36 37 38 39 41 43 44 44 44 44 42 41 41 39 36 32 29 29 30 32 34 35
42 42 42 43 43 42 43 45 45 42 39 37 36 37 38 40 42 43 44 45 46 46 45 45 45 46 47 48 47 45 43 43 42 41 40 39 38 37 38 38 38 38 38 39 41 42 43 43 42 42 42 42 42 41 38 35 32 32 33 34 34 34 34
42 43 42 42 42 42 43 45 43 39 36 36 37 38 39 41 42 43 44 46 46 45 45 46 47 48 48 47 45 44 43 42 41 40 40 39 39 39 39 39 39 39 40 41 43 43 43 42 40 40 42 42 40 38 37 36 37 37 36 34 33 33 33
44 44 43 42 42 41 41 41 40 38 37 37 37 38 39 41 42 44 45 46 46 47 47 47 48 49 48 46 44 43 42 41 40 39 39 39 39 40 40 41 41 41 42 43 43 43 42 42 42 42 44 43 41 40 41 41 41 39 36 34 34 34 35
44 43 42 41 40 39 39 39 38 37 36 37 38 38 39 41 43 45 46 47 48 49 49 48 48 48 47 45 43 42 40 39 39 39 39 39 40 41 42 43 44 44 44 44 44 43 43 43 43 44 44 44 44 43 42 41 40 38 35 34 35 36 37

ECMWFFLT1_500_spd_015.txt.gz
Wind_Speed
26 22 20 16 10 10 12 11 13 14 16 18 17 16 16 16 17 19 20 21 21 21 19 18 18 18 18 18 17 15 15 15 14 14 15 16 15 14 13 12 13 13 13 14 15 16 16 17 17 18 20 20 20 20 20 20 20 21 22 23 24 25 25
22 21 20 15 8 8 11 11 13 14 14 14 14 14 14 14 15 16 19 21 22 22 20 19 19 19 19 18 16 15 15 15 15 15 15 15 14 13 12 13 13 14 14 15 16 17 17 18 18 19 21 22 23 23 23 24 24 24 25 25 25 26 27
22 22 21 15 9 9 11 12 13 14 13 13 12 12 12 12 13 14 17 19 21 21 20 18 18 19 19 18 17 16 16 15 15 15 15 14 13 13 13 14 14 15 16 17 17 18 18 19 20 20 22 24 24 26 27 28 28 28 28 29 28 28 28
24 24 22 16 14 15 14 13 13 13 13 12 12 12 11 11 12 13 15 17 18 19 17 17 18 18 18 18 17 17 16 16 16 15 14 14 13 13 14 15 16 16 16 17 18 18 18 19 20 21 23 25 26 27 29 30 31 31 32 32 32 31 31
24 23 22 18 18 20 17 13 12 13 13 13 13 12 10 11 12 11 11 14 16 17 17 18 18 18 18 18 17 18 17 16 15 15 14 14 14 14 15 16 17 18 18 18 19 20 21 21 22 23 25 27 28 29 31 31 31 32 34 35 35 35 35
22 21 20 18 20 22 19 15 14 13 14 14 14 13 11 11 11 10 9 11 14 16 18 19 19 18 19 19 19 18 17 16 15 15 15 14 15 15 16 17 18 20 20 20 21 23 23 24 25 26 29 30 30 32 33 35 36 36 36 38 39 39 38
24 25 21 19 21 22 22 19 16 15 15 16 15 12 11 11 11 10 9 10 13 15 17 19 20 20 21 21 20 18 17 16 16 15 15 14 15 15 17 19 20 22 22 22 23 24 25 27 28 28 30 32 32 33 34 36 38 36 36 37 39 39 38
24 26 23 21 22 23 24 22 18 17 16 17 14 11 12 12 12 11 9 9 12 14 15 18 19 20 21 21 20 18 17 17 16 15 15 15 15 16 19 21 22 22 22 22 24 25 26 29 29 29 33 37 37 36 36 35 34 34 35 37 37 36 36
23 25 23 23 23 23 23 20 18 16 16 16 14 13 14 14 13 13 10 9 10 11 13 15 17 18 20 19 18 18 17 16 15 15 15 16 17 19 20 21 22 21 22 25 27 27 28 30 31 33 36 38 37 36 34 33 32 33 35 36 36 36 37
27 29 26 25 24 22 21 20 18 17 16 16 16 16 16 17 15 14 13 10 8 10 12 13 14 16 17 17 17 17 17 15 14 15 16 18 18 18 19 20 21 22 24 28 30 30 30 31 31 32 33 32 31 31 30 30 32 33 35 35 35 37 38
28 27 27 27 24 22 22 22 21 19 18 17 18 18 18 19 18 15 15 13 10 11 13 13 14 14 14 15 16 15 15 14 14 16 18 19 17 16 17 19 20 21 24 26 26 26 27 27 26 27 29 29 30 31 31 32 33 34 35 36 37 38 39
25 22 27 29 25 24 25 24 23 21 20 19 19 19 19 20 21 18 16 14 12 14 15 15 15 14 13 14 14 14 14 14 16 18 18 18 15 14 15 18 20 21 23 22 21 22 23 25 27 29 31 32 33 33 33 33 34 35 35 35 36 37 38
32 25 29 31 28 28 27 26 25 23 22 21 20 20 20 21 22 20 16 14 14 15 16 16 16 15 14 15 15 14 14 17 18 18 17 16 15 14 15 18 20 21 23 23 23 24 26 29 31 33 35 36 36 36 36 35 35 33 32 32 33 35 36
37 34 33 33 32 31 30 28 27 24 23 22 21 21 21 21 23 20 17 14 14 16 16 16 15 15 16 16 15 15 16 18 19 18 18 17 16 15 15 18 20 20 22 24 26 28 29 31 33 34 36 37 38 38 37 37 37 33 30 30 32 33 34
37 38 38 37 35 33 32 30 26 25 24 22 21 21 21 22 23 21 18 16 15 16 16 15 15 16 16 16 15 16 18 19 18 18 18 17 17 16 16 18 19 20 22 25 28 30 32 33 35 36 37 37 39 39 37 37 36 31 28 29 31 33 33
37 38 39 39 37 34 33 29 25 24 23 22 22 22 22 23 22 20 19 17 15 15 15 15 16 15 15 16 17 18 19 18 18 18 18 18 19 19 19 20 22 23 24 26 28 31 33 34 36 38 38 37 37 37 35 32 28 25 27 30 31 32 33
40 39 38 37 36 35 32 28 25 24 23 22 23 23 24 24 22 20 20 19 16 15 15 16 16 16 16 17 18 18 18 17 17 18 18 19 20 21 22 23 25 26 27 28 30 32 34 35 38 40 39 37 36 36 32 28 25 25 29 30 30 32 34
41 39 36 34 35 35 32 28 25 23 22 23 24 25 25 24 23 21 21 20 17 16 17 18 18 18 19 18 18 17 16 16 17 18 19 20 21 22 23 25 26 27 29 31 33 35 36 39 41 41 39 36 35 34 31 29 27 28 29 28 29 32 33
39 37 36 36 37 36 32 28 25 23 23 24 26 26 25 25 24 23 23 22 20 19 20 21 21 22 24 24 22 20 18 19 20 21 21 22 23 24 25 26 28 30 32 34 36 38 40 43 44 43 40 37 34 32 31 30 27 27 28 28 29 30 31
38 38 40 41 40 38 34 27 24 25 25 25 27 26 27 27 26 25 26 26 25 23 23 23 23 23 26 27 26 23 22 23 24 25 25 26 26 27 28 29 32 34 36 38 40 43 45 47 47 44 41 38 34 32 32 31 28 27 28 29 30 30 31
39 41 43 42 38 36 32 28 26 28 27 26 28 29 29 29 27 27 28 28 28 26 24 23 23 23 25 26 26 26 25 26 27 28 29 30 31 31 32 33 35 37 40 42 45 48 50 50 48 47 44 41 37 34 33 31 29 28 28 29 30 31 31
40 44 45 42 38 34 30 29 30 31 29 28 30 31 30 30 29 29 30 30 30 29 26 24 23 23 24 26 27 27 28 29 30 31 32 33 34 35 36 37 38 41 43 46 49 52 53 51 50 49 47 44 40 37 34 31 29 28 29 30 30 30 30
44 47 45 42 39 34 31 32 33 33 31 30 32 33 32 31 30 30 32 33 33 30 29 27 26 26 26 27 28 29 30 32 33 34 35 36 37 38 38 39 41 43 46 49 52 54 54 53 52 52 49 46 42 38 33 31 30 30 29 29 30 29 30
46 47 44 40 38 35 34 35 36 35 33 32 34 36 34 32 31 33 35 35 34 33 33 32 31 31 31 31 31 33 34 35 36 38 38 38 39 40 41 41 43 44 47 50 53 55 56 55 56 53 49 45 41 35 32 30 29 29 29 29 29 30 31
43 44 43 42 40 37 35 36 37 36 34 34 35 36 35 33 35 37 37 36 36 37 37 36 35 35 35 36 37 38 38 38 39 41 41 41 42 43 43 44 45 46 48 49 52 55 56 57 57 52 46 42 37 32 30 30 28 27 29 29 30 31 32
43 43 43 43 42 39 37 38 39 38 36 35 35 35 37 38 40 39 38 37 38 39 40 39 39 39 39 40 41 41 41 42 42 43 44 44 45 45 46 47 47 48 49 49 50 54 56 56 54 48 42 38 34 30 29 29 28 28 29 30 31 32 33
43 41 41 44 44 42 39 39 40 40 39 37 36 37 40 42 41 39 39 40 41 41 42 42 42 42 43 43 43 44 45 46 46 47 46 47 48 49 48 48 49 51 51 49 49 52 55 55 51 44 38 34 31 30 30 30 30 30 31 32 33 34 35
42 41 42 45 45 42 41 41 43 43 42 40 39 40 43 43 41 41 42 43 43 43 43 43 43 44 44 45 46 47 48 50 51 51 48 47 49 51 50 50 51 52 50 48 48 51 53 52 47 40 35 33 31 31 31 32 32 32 33 35 36 37 38
42 43 44 45 44 43 43 44 45 45 43 42 42 42 43 43 43 43 44 44 44 43 43 43 44 45 46 47 48 49 51 55 57 54 49 46 48 49 49 48 48 48 46 46 48 50 51 49 43 38 36 34 34 34 34 35 35 36 37 39 40 40 39
40 42 43 44 45 45 45 46 47 47 46 45 44 43 43 43 44 45 45 44 44 44 44 45 46 46 48 50 49 47 49 51 51 50 48 46 46 46 45 45 46 45 45 46 48 49 49 45 41 38 37 37 36 36 36 37 39 40 41 41 41 41 39
38 39 42 44 46 46 47 47 48 48 47 45 44 43 43 44 45 46 45 45 45 45 46 47 47 48 50 51 49 48 47 46 44 45 47 46 44 44 45 46 47 46 46 46 47 48 46 43 41 40 39 39 39 38 38 39 40 40 40 39 39 40 39
36 37 40 42 43 45 46 47 48 48 46 45 44 44 44 45 45 45 45 44 44 45 46 46 47 48 49 49 49 49 48 45 43 45 48 47 45 45 47 47 47 46 45 45 46 45 44 43 42 42 40 40 40 39 39 40 40 40 39 38 38 39 38
35 36 38 39 41 42 45 47 49 49 48 47 46 45 45 45 45 45 45 44 44 44 45 45 47 49 49 49 49 48 47 45 44 45 47 48 48 47 47 46 46 45 45 45 45 44 44 44 44 43 41 41 41 41 41 42 42 41 41 40 39 39 38
35 37 38 39 40 41 43 45 48 49 49 47 46 46 47 46 46 46 46 46 45 45 45 47 48 49 50 50 48 46 46 47 47 47 47 49 49 47 46 45 44 44 45 45 45 45 45 45 45 43 42 42 43 43 44 44 43 43 42 41 40 40 39
36 37 38 39 40 40 41 43 45 48 48 48 48 48 48 47 47 48 48 47 46 46 47 47 46 47 49 49 48 46 46 47 48 47 49 50 49 47 45 44 43 44 45 46 46 45 45 45 44 44 44 44 45 45 45 44 44 44 43 42 41 41 40
37 38 39 39 40 41 42 43 45 46 48 48 49 49 48 46 47 47 47 45 45 45 45 44 45 45 47 48 48 47 47 47 48 49 50 51 49 46 44 43 43 44 44 44 44 44 44 44 44 45 45 45 45 45 45 45 45 44 43 42 42 42 41
40 40 41 41 42 43 44 45 46 47 48 49 49 48 47 46 46 46 45 45 45 44 42 43 44 46 47 48 48 48 47 48 49 50 51 50 47 44 43 43 43 43 43 43 43 43 44 44 45 45 45 45 45 45 45 45 44 43 43 43 43 42 41
42 42 43 44 44 45 47 48 48 49 50 50 49 47 46 45 44 44 44 45 44 43 43 44 45 46 48 48 48 48 49 49 50 51 50 47 45 43 42 43 43 43 44 44 44 44 44 45 45 45 45 44 44 44 44 43 43 43 43 43 42 41 40

ECMWFFLT1_500_spd_018.txt.gz
Wind_Speed
27 26 24 24 24 23 21 20 19 20 20 17 12 11 12 14 16 18 19 20 21 23 23 23 22 21 21 20 21 21 21 20 19 19 19 20 19 17 15 14 14 13 12 12 13 14 14 15 15 17 17 18 19 20 20 21 22 23 24 25 26 26 26
25 23 23 25 25 22 20 19 18 17 16 12 9 7 8 11 13 15 17 19 21 23 24 24 23 22 22 22 23 23 22 20 19 19 20 20 19 16 15 15 14 13 13 14 14 14 14 15 16 17 18 19 19 20 22 24 25 26 27 27 28 28 29
22 20 22 24 23 21 20 18 16 14 12 9 6 5 7 8 11 12 14 17 19 21 24 24 24 24 23 23 24 24 22 20 20 20 20 20 18 17 16 15 14 14 15 15 15 15 15 15 15 16 17 17 19 21 22 24 27 29 29 29 29 29 30
23 21 20 19 19 21 21 19 16 14 11 8 5 5 7 7 9 11 12 13 15 18 20 23 24 25 25 25 25 24 22 21 20 20 20 19 18 17 17 15 15 15 16 15 14 14 15 15 16 16 17 18 21 22 22 25 29 31 31 31 31 30 29
25 22 17 15 18 22 22 21 18 14 11 8 6 6 7 8 9 10 11 11 12 15 17 20 23 24 25 24 23 22 21 21 21 20 20 19 19 18 17 16 15 15 15 14 14 14 15 15 16 17 18 20 21 22 24 28 29 30 31 31 30 29 27
27 24 16 18 22 24 24 23 21 17 14 12 9 8 8 9 8 9 10 11 12 13 15 18 21 22 22 23 22 22 22 21 20 20 20 19 19 18 17 16 14 14 14 14 14 15 14 14 16 18 19 21 22 22 24 25 25 25 28 29 28 27 27
30 28 17 20 23 23 24 26 25 21 18 16 13 11 10 9 7 8 10 11 12 13 14 16 18 20 21 22 22 21 21 20 20 20 19 19 18 17 16 15 14 14 14 15 16 16 15 16 18 19 20 20 20 20 21 22 23 23 25 28 29 29 28
36 34 23 22 25 25 25 25 25 23 20 18 15 12 10 8 7 8 9 11 12 12 13 14 15 17 19 20 20 20 20 20 19 19 18 17 16 16 15 14 14 15 16 16 17 17 17 18 18 17 16 17 17 19 20 21 23 24 24 26 29 29 30
37 35 29 27 27 26 25 24 24 23 22 22 17 12 10 8 7 8 10 11 12 12 12 13 13 13 15 16 17 18 19 19 18 18 17 15 15 15 14 14 15 16 16 16 16 16 17 16 15 15 16 17 18 20 21 22 24 26 26 27 28 29 30
32 31 32 31 27 25 26 26 25 23 22 19 15 11 9 8 9 10 11 12 12 13 13 12 10 10 11 13 14 16 17 17 16 16 15 14 14 14 14 15 15 16 16 16 16 16 16 16 16 17 19 20 21 23 25 26 27 29 30 30 30 30 31
33 35 36 35 30 25 25 27 25 22 21 17 13 12 11 9 11 12 12 14 13 14 15 13 10 8 9 12 13 14 14 15 15 14 13 13 13 14 14 14 15 16 17 17 17 17 18 19 20 22 23 23 24 25 27 28 29 31 32 33 33 32 33
37 39 38 34 30 26 25 28 27 24 23 19 16 15 14 12 13 14 14 15 15 15 16 16 13 10 10 13 14 13 14 14 14 13 13 13 14 14 14 15 15 17 18 19 19 19 21 22 24 25 26 26 27 27 28 30 32 35 37 37 36 34 34
37 36 35 33 32 28 27 30 31 28 26 23 20 18 18 16 15 15 15 16 16 16 17 17 16 12 11 14 14 13 13 14 13 12 13 13 14 14 15 16 16 15 16 18 20 21 22 23 24 25 27 29 30 31 33 35 37 40 41 41 39 37 35
36 31 32 33 30 27 29 34 35 31 29 27 24 22 21 19 17 16 16 17 18 18 17 17 16 13 12 14 14 12 13 13 13 12 12 13 15 15 16 16 16 15 14 16 20 22 23 22 22 24 27 30 32 34 35 37 39 40 41 41 40 38 35
38 35 35 34 30 28 31 35 36 33 31 30 28 25 23 21 19 18 18 18 18 19 18 15 14 13 13 14 14 12 13 13 11 11 12 14 15 17 17 17 16 16 15 16 19 21 23 24 24 26 29 31 33 34 35 36 38 38 39 39 38 37 36
35 35 36 35 33 33 34 35 36 35 34 34 31 28 26 24 21 19 18 19 19 20 19 15 13 13 14 14 13 12 12 11 10 11 13 15 16 17 18 17 17 17 17 18 19 22 24 27 28 29 31 33 34 35 36 36 37 38 38 37 37 37 37
35 32 32 33 34 37 38 39 39 38 37 37 35 32 30 26 23 20 20 21 20 20 20 17 14 13 15 14 13 12 11 11 11 13 14 15 15 16 16 17 17 18 20 21 23 24 27 29 30 32 34 35 35 36 37 38 38 38 38 37 36 38 38
42 37 32 32 35 37 38 40 41 41 40 39 37 35 32 29 25 22 21 21 21 20 21 19 15 14 15 15 13 13 12 11 11 13 14 14 15 16 16 18 19 21 23 25 26 28 29 31 32 35 37 38 38 39 40 41 41 41 40 38 38 38 39
42 43 39 38 38 36 36 38 41 42 40 40 39 36 34 31 27 24 22 22 22 22 22 21 18 15 16 16 15 14 15 15 15 16 16 17 17 18 19 21 22 24 25 27 29 30 31 33 35 37 40 41 42 43 43 44 45 45 43 40 38 38 39
38 44 46 44 41 41 39 38 39 41 40 40 40 38 36 34 29 25 23 24 25 23 22 22 20 17 16 18 18 18 19 19 19 20 19 19 20 21 22 24 26 27 28 30 31 33 34 35 37 39 41 44 45 46 46 47 48 49 45 39 36 36 37
37 41 46 46 44 46 45 39 36 37 39 40 41 39 38 37 32 27 26 26 26 24 24 24 22 19 18 19 20 20 20 19 19 20 20 20 22 23 25 27 29 30 32 33 34 35 36 37 39 41 43 45 47 48 49 50 51 50 46 39 35 35 35
47 48 49 46 42 43 43 38 33 33 37 40 41 40 40 39 35 29 27 27 27 26 26 26 25 22 20 19 20 20 19 17 18 19 21 23 24 26 28 30 32 34 35 36 37 38 38 39 40 42 44 46 47 48 49 51 51 49 45 40 37 35 33
58 60 59 53 48 48 50 44 38 36 38 40 40 41 41 41 37 31 28 29 29 27 27 28 27 24 22 21 21 20 19 18 20 22 24 26 28 30 32 34 36 37 39 40 41 42 42 42 42 44 46 46 47 48 48 50 50 46 43 40 37 35 32
61 61 60 56 54 58 58 49 43 42 41 40 41 42 42 43 40 34 32 31 31 29 29 30 28 26 25 24 24 23 22 22 25 27 28 30 32 33 35 37 39 41 43 45 46 48 48 46 46 48 48 47 47 47 47 48 48 44 40 38 36 34 32
57 58 57 53 49 52 54 49 46 47 44 41 43 44 43 43 41 37 35 34 32 31 31 31 30 28 27 27 27 26 26 27 29 31 33 34 35 36 38 40 41 44 46 47 49 54 54 48 45 45 43 42 43 44 44 46 46 43 39 37 35 34 33
50 54 55 51 46 50 56 52 47 48 46 44 46 46 43 41 39 38 37 35 33 32 33 33 32 30 30 30 30 28 28 30 33 35 36 37 38 39 41 42 43 46 48 47 49 52 50 44 42 42 39 39 41 42 43 44 44 41 38 37 37 36 36
43 48 52 50 47 50 56 52 46 46 46 46 47 48 44 41 38 38 38 35 33 34 35 35 33 33 33 33 31 30 31 34 36 38 38 39 40 41 43 44 46 48 48 49 50 50 45 42 43 43 42 43 44 44 44 44 42 40 38 38 38 37 38
41 44 48 47 45 48 51 47 45 47 47 48 49 48 45 42 40 39 38 37 36 36 36 35 35 35 35 33 32 33 35 37 39 39 40 41 42 44 45 47 49 49 48 51 52 49 45 44 45 45 45 45 45 44 43 42 40 39 39 39 40 39 39
44 43 44 42 42 49 51 44 40 44 48 50 50 47 44 44 42 40 40 40 39 38 36 36 36 36 35 35 35 37 38 39 40 41 42 43 44 45 47 48 48 49 50 51 50 49 47 46 46 47 46 45 43 41 40 39 39 39 40 41 41 40 40
47 44 42 40 41 46 48 41 38 44 50 50 48 46 45 45 43 42 42 42 42 40 37 36 36 36 37 38 39 41 41 41 41 42 43 44 46 47 48 48 48 50 51 49 47 48 48 46 47 48 45 43 41 39 39 39 40 41 42 42 42 41 40
48 44 40 41 42 43 43 42 43 47 50 49 47 47 47 46 44 44 44 44 42 41 39 38 38 39 40 42 43 43 42 42 43 44 45 46 48 49 49 49 49 51 52 50 48 47 47 46 48 48 44 41 40 40 40 41 41 42 43 42 42 42 41
46 44 42 43 44 44 43 43 45 48 50 49 48 47 47 46 46 45 45 44 42 41 41 41 42 42 43 44 44 44 44 44 45 45 46 48 50 50 50 50 51 51 52 51 48 46 46 48 49 46 43 42 41 41 41 42 42 42 43 43 43 43 42
46 46 46 45 46 47 46 44 45 47 48 49 48 48 48 47 46 45 44 44 44 44 44 44 44 45 45 46 45 45 45 45 46 47 48 50 51 52 52 51 50 52 52 50 47 46 47 49 48 45 43 42 41 41 42 42 42 43 43 44 44 44 43
45 46 44 42 43 45 45 44 43 45 47 49 49 49 49 48 47 46 46 46 47 46 46 45 45 45 45 45 45 45 45 46 46 48 49 51 53 54 53 51 50 52 51 48 47 48 49 49 47 44 42 41 41 41 42 42 44 45 45 45 44 44 44
47 45 40 36 36 37 38 39 40 42 45 49 50 50 50 50 49 48 48 48 48 47 46 46 45 45 46 46 45 44 45 46 47 48 51 53 54 54 53 52 51 51 50 48 48 50 49 48 45 42 41 41 41 42 43 44 45 45 45 45 45 45 45
43 41 38 36 36 35 36 37 38 40 43 46 48 50 51 51 50 49 49 48 48 48 47 47 47 47 47 47 46 45 45 46 47 48 50 52 52 52 53 52 49 48 49 50 51 51 49 46 44 42 41 41 42 43 45 45 46 46 46 47 46 45 45
36 37 37 38 38 37 37 38 38 39 41 42 45 47 48 49 49 50 50 50 50 49 49 49 48 48 48 48 48 48 48 47 48 49 50 50 51 53 53 51 49 48 49 51 52 50 47 44 42 42 41 41 43 44 45 46 47 47 47 47 46 45 44
32 35 36 39 39 37 37 37 38 39 41 42 43 44 46 47 48 50 51 51 51 51 51 51 50 50 50 49 50 49 48 47 48 50 51 52 54 54 52 50 50 50 51 52 51 47 44 42 41 41 41 42 44 45 46 47 47 47 46 45 44 44 44

ECMWFFLT1_500_spd_024.txt.gz
Wind_Speed
23 21 20 21 21 21 20 19 20 21 21 20 19 20 20 20 19 18 17 17 18 19 20 20 20 20 20 20 21 20 19 18 17 16 15 13 12 11 11 11 11 11 12 13 13 12 10 9 9 9 9 9 9 10 11 12 14 16 17 17 17 17 18
24 22 21 20 20 20 20 19 21 23 22 20 20 20 20 20 19 17 17 18 19 20 20 21 22 23 23 22 22 22 21 20 19 18 17 15 14 13 12 12 12 12 13 14 14 12 10 9 9 9 9 9 9 10 11 13 15 16 16 16 16 16 17
24 23 23 22 22 20 19 20 21 22 22 21 21 21 21 20 18 18 18 18 19 21 21 22 24 25 26 25 24 23 23 22 21 20 20 19 17 15 13 13 13 13 14 15 14 12 9 8 8 8 9 9 10 10 11 14 15 14 14 15 16 17 18
24 24 23 23 24 22 20 21 22 22 23 22 21 22 22 20 19 18 18 18 19 20 21 23 24 26 27 27 26 24 24 24 23 23 22 21 19 16 14 14 14 14 16 16 14 12 9 8 7 8 9 9 10 11 12 14 14 13 13 14 16 18 19
20 23 24 24 23 22 21 21 22 23 23 22 22 23 23 21 18 17 18 18 18 19 21 22 23 25 27 28 27 26 25 25 25 25 24 22 19 16 15 16 15 16 17 16 14 11 9 8 7 7 8 9 10 11 12 13 14 14 15 16 18 19 20
16 18 23 26 24 22 21 20 21 22 21 22 23 24 24 20 17 16 17 18 18 19 20 20 21 23 26 27 28 27 26 25 25 26 25 22 19 17 17 17 17 17 18 16 13 10 9 8 7 7 7 8 9 11 13 14 15 16 17 18 19 20 21
17 16 18 24 26 25 22 21 21 22 21 22 24 25 24 20 17 16 16 17 18 19 19 19 20 21 23 26 28 27 26 26 26 27 26 23 20 19 19 18 18 19 19 15 12 10 9 8 7 6 7 8 10 12 13 14 15 17 18 19 20 20 20
21 18 16 20 25 25 23 22 23 23 22 22 22 23 21 19 18 17 16 16 17 18 19 18 19 19 20 23 25 26 26 26 27 27 26 22 19 19 19 19 19 20 19 14 11 10 9 8 7 7 8 9 11 12 13 14 15 17 18 19 20 21 21
23 22 17 18 22 23 22 22 22 22 22 20 19 20 20 20 20 19 17 16 16 17 16 17 17 18 18 19 20 22 24 24 24 24 21 19 17 18 20 20 21 21 18 14 12 11 9 8 8 8 9 10 11 11 12 13 14 16 18 19 20 22 23
22 23 20 17 19 20 21 22 22 22 22 20 19 18 19 20 21 21 20 18 16 16 16 16 18 17 16 16 16 18 19 20 20 19 18 17 17 18 20 21 22 21 18 14 12 11 10 9 9 9 9 10 11 11 11 11 13 16 18 19 20 22 24
23 24 22 19 20 22 24 24 25 24 22 21 20 18 17 18 21 22 22 19 17 17 17 18 19 18 17 15 14 14 15 17 17 17 18 18 18 19 21 22 22 21 17 14 13 12 10 10 10 9 10 11 11 11 11 13 16 18 20 21 22 24 26
26 25 23 21 21 24 29 30 28 26 24 22 21 19 18 19 21 23 23 21 19 19 19 20 21 20 19 17 14 12 14 16 17 17 18 19 20 21 22 23 22 20 17 15 15 13 11 11 11 11 11 11 12 13 13 15 18 20 23 24 25 27 29
26 23 23 23 21 23 31 36 33 28 25 24 23 22 21 21 23 25 24 22 22 22 22 23 23 22 21 19 16 14 15 16 17 18 20 21 23 23 23 23 22 20 18 17 15 14 13 12 12 12 12 12 13 14 14 16 19 22 24 26 27 29 30
27 24 23 25 23 21 27 34 35 32 30 28 26 25 24 23 24 25 25 24 25 25 24 25 24 23 22 22 19 17 17 18 18 19 21 23 24 24 24 23 23 21 19 18 16 15 14 12 12 13 13 14 14 14 15 17 20 22 24 26 28 29 30
29 26 24 25 24 22 24 29 33 34 33 31 30 29 28 25 24 25 25 26 27 26 25 25 23 20 20 22 22 21 21 21 21 21 23 24 24 23 23 23 23 22 20 18 17 16 14 12 13 14 14 14 14 14 16 18 21 23 25 27 29 31 33
32 33 31 29 26 23 23 26 29 32 33 32 32 33 31 27 24 24 25 25 26 27 26 25 22 18 17 19 22 24 26 25 24 24 25 25 24 23 23 23 24 23 20 19 18 16 14 13 14 15 15 15 15 16 18 20 22 25 27 29 31 33 33
35 38 36 30 25 23 24 27 30 33 34 35 36 36 33 29 25 24 25 26 28 29 28 26 23 19 16 17 20 25 28 27 25 26 26 25 25 25 25 25 25 23 21 20 18 16 14 14 14 14 15 15 16 17 19 22 24 26 27 29 31 32 32
32 33 32 30 28 28 29 30 34 36 37 37 38 36 32 30 28 26 27 29 31 32 31 27 25 22 18 18 21 24 27 28 27 26 27 27 27 27 26 26 25 24 21 19 17 16 15 14 13 13 14 15 16 18 20 22 24 25 27 29 31 33 33
33 34 36 36 36 35 33 34 36 39 38 38 37 34 32 32 31 31 32 31 32 34 33 29 27 25 23 22 23 25 27 28 28 27 28 28 29 29 28 27 26 23 21 19 17 17 16 15 14 13 14 15 16 18 21 23 25 27 28 29 31 33 34
40 41 41 43 43 41 38 36 37 39 38 37 35 33 33 34 36 37 36 34 33 34 33 30 28 28 26 25 25 25 27 29 29 28 29 30 31 31 30 28 26 24 22 20 19 19 17 16 16 15 15 16 17 19 21 24 26 28 28 29 31 32 33
46 46 44 45 47 47 44 41 39 39 38 37 36 36 37 39 40 41 41 39 36 35 34 32 30 30 30 28 27 26 27 28 28 29 31 32 33 33 31 28 27 25 23 22 21 20 19 18 17 16 16 17 19 20 22 25 27 28 29 30 32 34 34
46 48 47 47 48 48 49 46 42 40 40 39 40 40 41 44 45 44 43 43 42 41 39 35 32 32 32 32 30 28 28 28 28 30 33 35 35 34 31 29 27 26 24 23 22 22 20 18 17 16 17 18 20 22 24 26 28 29 30 32 34 36 37
42 43 44 45 45 45 46 46 45 44 44 44 44 44 45 47 47 46 44 43 41 42 41 37 33 32 33 34 34 31 30 30 30 31 34 36 36 34 31 29 28 26 25 24 23 21 19 18 17 17 18 19 21 23 25 27 29 31 33 34 35 37 39
45 42 41 41 41 42 42 44 46 47 47 48 49 49 49 50 50 50 48 44 40 39 39 36 34 33 34 35 36 34 33 33 33 33 35 37 36 33 32 30 28 27 25 24 22 20 19 19 18 18 19 21 22 25 27 29 31 33 35 37 38 39 40
48 46 45 44 43 43 44 45 45 46 47 48 49 51 52 53 53 53 52 48 44 41 39 37 36 35 35 36 38 38 37 37 36 35 36 37 35 33 32 31 29 27 26 25 22 20 19 19 18 19 21 22 23 26 28 30 33 35 37 39 41 42 42
55 52 51 50 49 48 48 47 46 46 47 49 50 50 52 55 56 54 52 51 50 46 43 40 38 37 37 38 40 41 40 40 40 38 37 37 35 32 32 31 30 29 28 25 22 20 20 19 20 21 22 22 24 27 29 32 34 37 39 41 42 43 43
59 59 59 58 56 54 52 52 51 50 50 51 52 52 52 54 56 54 50 50 50 48 46 44 42 40 40 42 43 42 42 43 41 39 38 37 34 32 33 33 32 30 28 25 22 22 21 21 21 22 23 24 26 28 31 33 36 38 40 41 42 42 42
51 56 60 63 63 61 59 58 57 57 56 55 55 56 56 57 58 57 53 52 51 50 49 48 46 43 44 46 46 43 43 44 43 41 39 38 36 34 34 34 33 31 28 26 25 24 23 23 23 23 24 25 27 29 32 35 37 38 40 41 40 40 42
46 47 51 55 60 63 64 64 64 63 63 62 61 60 60 60 61 61 60 59 59 56 53 52 51 49 48 49 48 45 44 45 46 44 41 39 37 36 35 36 35 33 31 29 28 27 25 24 24 24 25 27 29 31 33 36 37 39 40 40 40 41 43
46 46 46 46 50 54 58 61 64 65 67 68 68 66 65 64 64 65 64 64 63 61 58 56 54 52 52 51 49 47 46 46 47 47 44 41 40 38 37 39 38 36 34 32 32 31 27 25 26 26 26 28 29 32 35 36 38 39 41 42 42 42 43
46 47 48 47 47 48 50 52 56 59 63 65 67 67 68 69 69 68 66 64 63 63 63 61 57 55 55 54 49 48 49 49 49 50 47 44 42 41 40 41 42 40 38 37 38 36 29 26 27 27 27 29 31 33 35 37 39 41 42 43 43 44 44
49 50 50 50 50 49 50 50 51 53 54 55 56 58 62 67 71 72 71 70 68 65 64 64 62 59 61 60 55 51 51 52 52 53 52 49 48 46 45 45 46 46 45 44 44 38 29 26 28 28 29 31 33 34 35 37 39 41 43 44 44 45 46
53 54 54 53 52 52 53 53 52 51 50 49 49 50 53 57 62 65 68 72 74 71 69 69 68 66 66 68 67 61 56 56 56 56 56 56 54 50 49 50 51 52 50 47 42 35 29 28 29 30 31 34 36 36 36 38 40 41 42 44 44 46 46
54 56 57 56 56 56 56 55 55 55 54 52 52 52 51 52 54 55 56 59 63 67 69 73 76 76 72 73 77 74 65 60 61 60 58 58 57 53 54 56 56 54 49 42 35 32 30 30 31 33 34 36 38 38 38 39 40 41 42 44 45 46 46
51 53 56 58 57 57 57 58 59 59 58 57 57 57 57 57 57 56 55 54 55 57 61 68 76 79 74 68 72 78 75 67 62 61 59 60 60 58 58 60 57 51 43 35 31 29 30 32 34 35 36 38 39 39 39 40 41 41 42 44 45 46 46
50 50 52 55 56 55 55 57 60 62 63 62 62 62 63 63 62 61 61 61 59 58 59 63 70 77 77 67 59 64 72 71 63 62 64 65 63 62 61 60 56 49 39 31 29 29 31 34 36 37 38 40 41 41 41 41 41 42 44 45 45 46 45
51 51 52 54 54 52 51 52 56 59 62 65 66 66 67 67 65 64 64 65 65 64 65 65 67 71 75 73 63 58 64 71 68 66 68 68 65 65 62 55 49 44 36 31 30 32 34 36 38 38 41 43 42 42 42 42 42 44 45 45 46 46 43
48 49 51 52 51 50 49 49 50 51 55 59 62 64 65 65 64 65 66 66 67 68 69 70 68 66 68 73 74 66 63 70 70 67 67 65 62 63 61 53 43 37 33 31 32 34 36 38 40 41 43 44 43 43 43 43 44 45 46 46 46 44 41

ECMWFFLT1_500_spd_027.txt.gz
Wind_Speed
14 14 14 16 18 20 22 22 21 20 20 20 18 18 20 20 19 19 19 18 18 18 18 18 17 17 17 17 17 17 16 16 15 14 14 15 14 14 14 14 14 15 15 14 13 13 11 10 10 10 8 8 7 7 8 9 9 11 13 14 14 14 15
16 14 13 15 18 20 22 24 23 21 22 22 20 19 20 20 20 19 19 18 18 18 18 17 17 17 18 19 19 19 18 18 17 16 16 16 16 16 16 16 16 16 16 15 14 13 11 11 11 10 9 8 8 7 8 8 9 11 13 14 15 16 17
16 14 12 15 17 19 21 23 23 21 21 22 21 20 19 19 20 19 19 18 18 17 15 15 16 17 19 20 21 20 20 20 19 18 18 18 19 19 18 18 18 18 17 16 15 14 13 13 12 11 9 9 8 8 7 7 9 11 13 14 15 17 18
15 11 11 13 15 18 20 22 23 21 21 21 20 19 18 19 21 20 19 18 16 14 14 14 15 15 17 19 20 22 22 22 22 21 21 21 22 21 20 20 20 20 19 18 17 15 14 14 13 11 10 9 8 8 7 7 9 11 12 14 16 17 18
12 10 10 10 11 16 20 22 23 22 21 21 20 19 19 21 23 22 20 17 14 14 14 14 14 14 15 16 18 21 22 23 24 24 23 24 24 22 21 22 22 22 22 20 18 16 15 15 14 13 11 10 9 8 8 8 9 11 13 14 15 16 18
12 12 10 7 8 13 18 22 23 22 22 21 20 20 21 23 24 23 20 17 15 15 15 14 14 14 14 15 16 19 21 23 24 25 25 25 25 23 23 24 24 24 24 22 20 18 17 16 16 14 12 10 9 9 8 8 10 11 13 13 14 15 16
14 14 12 7 6 10 16 22 22 21 22 23 22 22 23 24 25 23 20 18 17 17 16 15 15 15 14 14 15 17 19 22 24 25 26 26 26 25 25 26 25 26 27 24 21 19 18 18 17 15 12 10 10 10 9 9 11 12 12 11 12 14 16
16 16 13 9 8 10 15 21 23 22 23 24 25 24 25 25 25 24 21 19 19 18 17 15 15 15 15 15 15 16 18 21 23 25 26 26 27 26 27 27 26 27 28 26 22 20 19 19 18 15 13 11 11 11 10 10 11 11 10 10 12 14 16
17 17 14 12 11 12 16 20 23 23 24 25 25 25 25 26 26 23 20 20 20 19 17 16 15 15 15 14 14 15 17 19 21 24 26 27 28 28 28 28 28 28 28 27 24 21 20 21 19 16 14 13 12 11 11 11 11 10 10 11 13 15 17
18 17 14 14 13 14 17 19 22 25 25 26 25 24 25 26 24 22 21 22 21 20 18 17 17 16 15 14 14 15 16 16 18 21 23 26 27 28 29 29 28 28 28 28 25 22 22 22 19 17 15 14 13 12 12 12 11 10 10 12 14 16 18
20 18 16 16 16 16 18 19 21 24 26 25 23 22 23 23 23 22 23 22 21 21 21 20 18 17 16 15 15 16 15 15 16 17 19 23 25 27 29 29 28 27 28 28 25 22 23 22 19 17 16 15 14 13 13 12 10 10 12 13 15 18 20
23 21 19 18 18 18 18 20 22 24 25 24 22 21 21 21 22 22 21 21 21 22 22 21 20 19 18 16 16 16 16 15 14 14 15 19 22 25 28 28 27 27 29 29 25 23 23 22 19 17 17 16 15 13 12 11 10 11 13 14 17 19 22
25 23 21 20 21 20 19 21 23 24 25 25 24 23 22 21 21 20 19 20 21 22 21 21 22 21 19 18 16 16 16 15 14 13 13 16 21 25 27 27 27 27 29 29 26 24 24 21 19 19 18 16 15 13 12 10 10 11 13 15 18 20 23
26 24 23 22 23 23 22 23 24 25 26 27 27 26 24 23 23 21 19 20 22 23 22 22 23 22 20 19 17 16 16 17 16 14 14 16 21 26 28 28 28 28 30 31 27 24 24 22 21 21 19 16 14 13 11 10 10 12 14 16 19 21 23
26 26 26 25 25 26 26 24 24 25 28 30 31 30 27 25 25 24 22 21 22 23 22 23 25 25 22 19 16 15 16 18 19 18 17 17 20 25 27 29 29 29 31 32 28 24 24 24 23 21 18 15 14 13 11 10 11 12 15 17 19 22 24
28 28 28 27 26 27 28 26 24 24 29 34 34 32 30 27 27 26 24 23 22 21 22 24 26 26 24 19 15 16 18 19 20 21 21 20 20 23 26 29 30 31 32 32 28 26 26 25 23 20 17 16 15 14 12 11 12 14 16 18 19 22 24
32 31 30 30 29 28 28 28 25 23 27 34 36 35 34 31 29 29 28 26 23 21 21 23 25 26 25 21 18 20 20 19 20 21 23 24 24 24 25 28 31 32 33 32 30 27 27 25 21 19 17 17 16 14 13 12 13 14 17 19 21 23 23
36 34 32 29 26 25 25 26 26 24 25 29 32 35 38 37 33 32 31 28 24 22 22 22 23 24 25 23 23 23 23 22 22 21 22 24 26 27 27 28 31 33 34 33 30 28 27 24 21 19 18 18 16 14 13 13 13 15 18 21 22 22 22
39 35 31 26 24 23 23 24 27 28 27 27 28 29 33 37 36 33 31 28 26 25 25 23 23 24 25 26 27 26 25 25 25 23 22 23 25 28 30 30 31 32 34 34 31 29 27 24 21 20 19 18 17 16 15 15 15 16 19 20 20 21 22
41 37 33 31 29 28 26 25 26 28 29 28 26 24 26 31 33 32 31 29 29 29 27 26 26 25 26 28 30 30 29 28 29 27 25 25 27 28 30 31 31 31 33 34 32 30 27 24 22 21 20 19 19 19 18 17 16 18 19 19 20 21 23
43 40 38 36 35 33 30 29 28 28 28 27 25 26 27 28 31 32 32 31 31 31 30 29 28 27 27 28 30 32 32 31 30 30 29 29 29 30 30 30 31 32 33 33 33 30 28 25 23 22 22 22 22 21 19 17 17 18 19 19 20 22 24
41 41 41 38 36 35 34 33 33 32 31 29 29 30 31 31 31 32 33 34 34 33 32 31 30 29 30 30 31 32 33 32 32 32 33 33 32 31 30 30 31 32 33 33 33 32 30 27 25 24 25 24 23 22 19 16 17 19 19 19 21 23 25
39 41 41 39 38 38 37 36 36 35 34 34 34 34 34 34 34 34 35 37 37 35 34 34 34 34 34 33 33 33 35 35 34 33 34 35 35 33 32 31 31 33 34 34 34 34 32 29 27 27 27 26 24 22 18 17 18 19 19 20 22 24 26
41 41 43 43 41 40 40 39 39 38 38 37 37 37 35 35 35 36 38 40 39 38 38 38 38 38 37 35 34 35 36 36 36 34 35 37 36 35 34 32 31 32 34 34 34 34 33 31 29 30 29 27 25 22 19 18 19 19 20 21 23 25 27
44 44 45 46 45 43 43 42 42 42 42 41 41 40 38 37 37 38 39 42 43 43 41 39 39 40 39 37 36 35 34 36 37 37 37 37 37 36 36 35 32 32 34 35 34 34 35 34 33 33 31 29 26 23 21 19 20 20 21 22 24 26 28
48 49 48 48 47 47 46 46 45 45 44 44 44 43 42 42 42 43 44 45 46 46 43 41 41 44 43 42 41 37 34 35 38 38 38 38 38 37 38 37 34 34 35 35 35 36 38 37 35 34 33 30 27 24 21 21 21 22 23 23 25 27 29
49 50 51 51 50 50 49 48 47 46 45 44 43 43 43 42 43 45 45 46 47 48 46 43 43 46 46 46 45 42 37 36 38 39 40 40 39 39 40 40 37 36 36 37 37 39 39 38 37 36 34 31 28 25 23 22 23 23 24 25 27 29 30
50 51 52 53 53 52 52 49 47 47 47 44 43 43 43 44 44 45 45 46 47 47 46 44 44 46 46 45 45 44 40 38 39 40 42 43 42 41 42 42 41 39 39 39 39 40 40 39 39 38 35 33 30 27 25 25 25 25 25 26 28 30 31
50 52 52 53 54 53 53 52 51 51 51 49 48 47 47 47 47 47 47 48 47 47 47 47 46 47 47 47 47 47 45 41 41 42 43 44 45 44 43 43 44 42 41 41 42 42 42 41 41 40 38 36 34 31 29 29 28 26 26 27 29 30 32
46 49 51 53 55 56 55 54 54 54 55 54 53 53 52 52 51 51 51 51 50 50 51 51 50 50 51 52 52 52 50 46 44 45 45 45 45 45 45 45 46 46 44 44 45 44 44 44 45 44 42 40 39 36 34 33 30 25 24 27 29 31 33
43 43 45 47 50 53 54 54 54 55 55 55 55 55 55 54 54 55 54 54 54 54 54 54 53 53 54 54 55 55 55 54 53 51 48 46 45 47 48 49 49 50 49 48 47 47 47 47 48 48 47 46 46 44 39 34 29 25 25 27 30 32 35
43 42 42 42 42 44 47 48 49 50 51 52 52 53 53 54 54 54 53 54 56 57 57 57 56 56 56 55 56 57 58 60 61 60 57 53 49 50 52 52 52 53 53 51 50 49 49 48 50 52 50 49 51 53 47 36 28 25 26 27 30 34 36
44 43 43 43 43 43 43 44 45 46 46 47 49 51 52 52 52 52 53 54 55 57 58 58 59 60 61 60 60 61 61 62 63 64 63 61 58 55 55 56 56 56 56 56 53 51 51 51 54 55 53 51 54 59 57 46 32 26 27 29 32 35 35
47 46 45 46 47 47 47 47 47 48 47 47 48 49 51 51 50 50 51 52 54 55 57 59 60 62 63 64 64 64 64 63 64 64 64 66 66 63 60 58 58 58 58 58 57 57 57 57 58 59 56 55 57 60 59 51 37 28 29 31 33 35 36
50 49 49 49 50 50 50 49 49 49 49 49 49 49 50 50 49 50 50 51 52 53 55 57 59 60 62 62 62 62 61 61 62 63 63 64 67 69 67 63 61 60 60 61 62 65 65 64 64 63 60 60 62 60 56 52 43 34 32 33 34 36 38
54 53 53 53 54 53 53 53 53 53 53 52 52 53 52 52 52 52 51 51 52 53 54 56 58 59 59 59 59 59 61 62 62 62 62 61 62 66 67 66 65 64 65 66 67 69 71 71 69 66 64 65 65 61 56 52 45 37 34 35 37 39 41
58 58 57 57 58 57 55 55 56 57 57 57 57 57 57 58 57 55 53 52 52 54 55 55 57 59 60 61 62 63 64 66 66 66 65 63 61 62 65 68 69 69 71 72 69 66 67 71 70 67 65 67 66 60 54 50 44 38 36 37 40 42 42
62 62 61 60 60 58 56 55 55 55 55 54 54 54 56 57 58 57 56 55 55 56 56 57 60 62 65 68 70 70 71 71 70 69 68 67 66 65 65 65 67 69 73 76 74 67 61 62 66 67 66 65 62 57 51 46 42 39 38 39 42 44 41

ECMWFFLT1_500_spd_030.txt.gz
Wind_Speed
21 20 18 14 12 12 12 13 14 14 15 15 14 15 15 14 14 14 14 14 14 15 14 14 13 13 13 13 14 15 15 15 14 13 14 14 14 14 14 15 15 16 16 14 13 11 11 11 11 10 10 11 12 10 8 6 5 5 6 7 9 10 12
23 21 19 17 14 12 11 13 16 17 18 18 18 18 18 17 16 14 14 15 16 16 16 15 15 14 15 15 16 16 16 16 16 16 16 16 15 15 16 17 17 17 17 15 13 12 12 13 13 11 11 12 12 10 8 7 6 5 5 7 8 10 12
21 19 17 16 14 12 10 13 17 19 19 19 20 20 20 19 17 16 16 17 17 17 16 14 14 14 15 16 17 17 18 18 18 18 18 18 18 18 18 19 19 19 18 16 14 12 13 15 15 13 13 13 13 11 9 7 6 6 5 6 8 10 11
20 18 17 15 14 14 13 14 18 20 21 20 20 21 20 20 19 19 19 18 17 16 14 14 15 15 15 15 16 17 19 20 20 20 20 20 21 21 20 20 21 21 19 17 15 14 14 15 16 15 14 14 14 12 10 8 7 6 5 6 8 9 10
17 18 19 18 17 16 15 15 16 19 22 21 19 21 21 21 21 21 20 18 17 16 15 15 15 14 14 14 15 17 19 21 22 23 23 23 24 23 21 21 22 23 21 19 17 15 15 16 17 17 16 16 15 13 11 9 8 6 5 6 7 8 8
15 16 19 20 18 16 13 12 14 18 22 22 20 20 21 22 23 22 21 19 16 16 16 15 14 13 13 14 15 17 18 21 22 23 24 24 25 24 22 23 24 24 23 21 18 16 15 16 18 18 18 18 17 14 13 11 9 7 6 6 6 6 8
15 14 18 21 18 15 13 11 12 17 21 23 22 22 23 25 24 23 22 20 18 17 16 15 14 13 14 14 14 15 17 19 21 22 24 24 25 24 23 24 24 25 24 23 20 17 17 17 18 19 19 19 18 16 14 12 10 8 6 6 6 6 8
16 15 18 21 18 15 13 10 12 16 20 24 25 24 25 25 25 24 23 20 19 18 16 15 14 14 15 14 14 13 14 16 18 20 22 23 24 24 24 24 25 26 25 23 21 19 18 18 19 19 19 20 19 17 16 13 11 9 7 6 6 7 9
19 18 20 22 20 17 14 11 14 16 19 24 25 25 26 26 25 25 23 22 21 18 16 15 15 16 16 14 13 12 12 12 14 16 18 20 22 23 25 25 27 27 26 24 22 20 19 19 19 19 19 20 20 19 17 15 12 10 8 7 6 8 10
21 20 23 24 22 21 17 13 15 18 20 22 25 25 26 26 26 25 23 23 22 19 16 16 18 18 16 14 13 12 11 10 11 13 15 17 19 22 25 27 28 28 27 26 24 21 20 21 20 19 19 20 21 20 18 16 14 11 9 8 7 10 11
23 23 24 25 25 24 21 16 16 19 19 19 22 24 25 26 26 25 23 22 22 20 19 19 20 18 16 15 14 13 12 11 10 10 11 13 14 18 23 27 29 29 28 27 25 23 22 22 21 19 19 20 22 21 19 18 15 12 10 9 9 11 12
24 24 25 26 26 25 25 21 19 20 19 17 19 22 24 25 25 25 23 21 21 22 22 22 21 19 18 17 14 13 13 12 11 10 10 10 11 14 18 24 29 31 30 29 27 24 23 23 22 20 19 21 23 23 20 19 17 14 12 11 12 13 12
25 25 26 27 26 25 25 24 22 22 20 16 16 19 22 24 24 23 22 20 21 23 23 23 22 20 19 17 15 13 13 13 11 11 11 11 12 13 15 19 25 30 31 30 28 26 24 24 22 21 21 22 24 23 21 20 18 15 13 14 15 14 13
24 26 27 28 28 26 26 26 25 24 22 18 17 18 20 23 23 22 21 20 22 23 23 23 22 21 19 18 16 13 13 13 13 13 13 13 14 13 14 17 21 25 29 29 28 27 25 24 23 22 22 23 24 23 22 21 19 16 15 16 16 15 14
23 24 25 27 27 26 26 27 26 25 23 19 18 18 20 23 23 22 21 21 22 22 22 22 22 20 19 18 15 13 14 15 15 15 15 15 16 15 15 16 19 22 25 26 26 26 26 25 24 23 23 24 25 24 22 21 19 17 17 17 17 15 14
23 23 24 26 27 26 27 28 27 25 23 20 18 19 21 23 23 23 22 21 21 20 19 20 20 18 17 17 15 15 17 17 17 18 18 17 17 17 17 18 18 20 22 23 25 26 26 25 24 24 24 25 25 24 23 22 20 18 18 18 17 16 15
25 25 26 26 27 27 27 27 26 24 23 21 19 20 22 24 25 25 24 22 22 20 20 20 18 16 15 15 16 19 20 19 19 19 19 19 18 18 19 20 20 20 21 22 24 26 26 26 24 23 25 26 26 25 24 23 21 20 20 18 17 16 17
28 28 27 27 28 28 27 27 26 23 20 19 19 20 21 24 26 27 27 26 24 23 23 22 20 17 15 15 18 21 20 19 19 20 20 20 20 20 21 21 21 21 21 22 23 24 26 26 25 24 25 26 26 25 25 24 23 22 20 18 17 18 18
30 29 28 28 29 30 28 27 27 25 21 19 20 19 18 21 24 26 27 27 27 27 26 24 23 21 18 17 19 20 19 18 18 19 20 21 22 23 24 23 21 21 21 21 22 23 24 25 25 25 26 27 26 26 26 26 24 23 21 19 19 19 20
32 31 30 30 31 31 30 28 27 27 24 22 22 21 20 20 22 25 30 31 31 31 29 25 25 24 21 20 20 20 20 19 18 19 22 24 25 26 26 25 23 22 22 21 21 21 22 24 24 24 26 28 27 27 28 27 25 23 22 21 21 21 22
33 33 32 32 32 32 30 28 27 27 25 24 24 24 24 23 22 25 29 31 31 31 29 26 25 24 23 22 22 22 22 21 20 21 23 25 27 28 28 27 25 24 23 22 21 21 21 23 24 24 26 28 29 29 30 28 26 24 23 23 23 24 24
34 35 35 34 34 32 30 29 29 29 27 26 27 26 25 24 24 25 27 28 28 27 26 25 25 25 24 24 24 24 24 23 23 23 24 25 26 27 28 29 28 26 25 24 23 22 21 23 24 24 26 29 31 31 31 29 27 26 26 25 25 25 25
36 36 36 36 36 34 32 31 32 32 31 30 29 28 26 26 27 27 28 29 28 26 26 26 26 26 26 26 26 25 25 26 27 27 27 27 27 28 28 29 30 29 28 26 24 23 23 23 25 25 27 30 32 32 31 30 29 28 28 27 27 27 25
38 37 37 37 38 36 34 34 34 34 34 34 32 31 29 28 28 29 30 31 30 29 28 27 26 27 28 28 29 28 26 27 30 31 31 31 31 31 31 32 31 31 31 28 26 26 25 25 26 27 28 30 32 33 32 32 31 31 30 30 29 28 26
39 38 38 38 39 39 37 37 38 38 38 38 38 36 33 31 29 29 30 31 31 30 29 27 27 29 29 29 31 30 28 30 34 36 35 34 35 35 35 35 34 35 35 32 29 29 29 28 27 28 29 31 33 34 35 35 34 33 33 32 31 29 27
39 39 39 39 40 40 39 39 40 40 40 40 40 39 37 34 32 31 31 31 30 30 30 28 28 30 30 31 32 33 32 34 37 38 37 36 37 37 36 35 35 36 37 36 32 31 32 31 30 30 30 32 34 37 37 37 37 36 35 35 33 31 29
40 40 40 41 41 41 41 41 40 40 41 41 41 41 40 38 37 36 35 34 33 32 31 30 30 31 32 34 36 36 36 37 38 38 38 38 39 40 37 35 34 35 37 38 36 35 35 34 34 33 33 33 35 38 40 40 39 38 38 37 35 34 31
42 42 42 43 44 44 43 43 43 42 42 42 42 42 42 42 40 39 38 38 36 34 33 33 34 35 36 38 39 38 38 38 39 39 38 38 40 40 39 38 38 39 40 40 39 39 39 37 36 37 37 36 37 38 40 41 41 41 41 39 38 36 34
42 44 44 44 46 47 46 46 46 45 44 43 43 43 44 44 42 41 40 39 37 35 35 35 36 37 38 39 39 39 39 39 40 40 40 40 41 42 44 45 44 42 43 44 43 43 43 41 40 41 41 40 39 39 40 42 43 44 44 42 40 39 37
42 44 45 45 47 49 49 49 49 48 47 46 45 45 45 45 44 44 43 41 40 39 38 38 38 39 40 40 40 41 41 41 41 42 42 42 43 44 47 50 50 47 44 44 44 45 46 44 43 44 44 43 42 41 41 42 44 46 46 44 43 43 42
42 42 44 45 46 48 50 50 50 50 50 49 48 47 47 47 47 47 46 45 44 44 43 43 43 43 44 44 44 44 44 43 44 45 46 46 47 47 48 50 52 52 51 50 48 47 46 46 46 47 47 46 45 44 44 46 47 48 48 47 46 46 46
43 42 43 43 44 46 49 50 51 51 51 51 51 50 50 51 50 50 50 49 49 49 48 48 48 47 47 47 46 47 47 47 47 48 49 49 50 51 50 51 52 52 52 54 55 53 49 47 46 48 49 49 49 48 48 50 52 51 50 50 49 49 49
44 43 42 42 42 43 44 46 48 49 50 50 51 51 51 52 52 53 53 53 53 53 52 50 49 48 46 45 45 45 47 48 48 49 50 51 52 53 53 53 54 54 53 54 56 56 55 53 50 49 50 51 51 52 53 54 55 55 54 52 51 51 52
44 44 43 42 41 41 41 43 45 47 47 48 48 48 48 49 49 50 51 51 51 50 48 47 46 45 44 43 44 45 47 48 49 50 51 53 54 56 57 57 58 58 58 56 56 56 57 57 54 51 50 51 54 55 57 60 60 59 57 55 54 54 55
46 46 45 44 43 41 41 43 45 46 46 45 45 45 45 45 45 45 45 46 46 45 45 45 45 46 46 46 47 48 49 50 51 52 53 55 56 57 59 60 60 61 61 61 59 58 58 60 60 57 55 57 59 60 62 64 63 61 59 59 60 60 60
51 49 48 48 47 44 43 44 46 47 47 45 44 44 44 44 44 45 45 46 46 47 47 47 47 47 48 49 50 51 52 52 53 54 55 56 57 58 58 59 60 61 61 60 60 59 59 60 62 62 61 63 65 64 64 63 62 62 63 65 65 66 65
54 53 52 51 50 47 44 43 45 47 47 46 45 45 45 45 46 47 47 47 48 48 48 48 48 48 48 49 51 52 53 53 54 55 56 57 58 58 59 60 61 62 63 63 64 64 63 62 61 60 61 66 69 67 64 62 61 61 65 67 67 69 68
58 56 54 52 51 49 46 44 43 44 46 47 47 47 48 48 48 48 49 48 49 49 49 50 49 49 49 49 49 50 51 52 53 55 56 57 57 59 61 62 63 65 66 67 69 70 69 69 66 61 61 67 72 70 66 65 64 64 65 65 64 66 67

ECMWFFLT1_500_spd_033.txt.gz
Wind_Speed
25 23 21 22 22 21 20 18 17 16 15 15 16 16 16 15 14 14 13 14 15 16 16 16 15 15 14 14 15 15 15 15 14 13 13 14 14 15 14 15 15 16 17 16 14 13 12 11 10 10 10 10 10 10 9 9 8 8 7 5 3 2 3
27 24 22 21 21 21 21 20 20 19 17 16 16 16 16 15 14 13 13 14 14 15 15 16 16 16 16 17 17 17 17 17 16 15 15 14 15 16 16 17 17 17 18 17 16 14 13 13 12 11 10 10 11 11 10 9 9 9 8 7 4 2 3
28 25 22 21 19 19 19 20 21 20 19 19 18 17 16 15 14 14 15 15 16 16 16 16 16 16 17 18 18 18 18 18 18 17 17 17 17 18 18 18 18 18 19 18 17 16 15 14 14 13 11 10 11 12 11 11 11 11 10 8 5 3 2
28 26 24 21 17 17 18 19 21 21 22 21 20 20 18 18 17 17 17 17 17 17 17 17 18 18 19 19 19 20 20 20 20 20 20 20 20 20 19 19 19 19 20 20 19 17 16 16 15 14 12 11 11 12 12 12 12 12 11 9 6 4 3
26 26 25 22 19 18 17 18 18 19 20 20 21 21 21 21 21 20 19 18 18 18 18 19 19 19 19 19 19 19 20 21 22 22 23 23 23 22 21 20 20 21 22 22 20 19 17 17 17 16 14 13 12 12 13 13 13 13 13 11 8 6 5
25 25 24 22 20 20 19 17 16 16 17 19 20 20 21 22 23 22 21 20 19 19 19 18 18 17 18 17 18 19 20 21 22 23 24 24 25 24 22 23 23 23 23 23 22 20 19 18 18 18 16 15 14 13 13 14 15 15 14 13 11 9 8
25 25 24 22 19 20 20 19 16 15 16 18 20 21 22 24 24 24 23 22 21 21 20 18 17 17 18 18 19 19 20 21 22 23 24 25 25 25 24 25 25 24 24 24 23 21 20 20 20 19 18 16 15 14 14 14 15 16 16 15 13 11 10
26 25 25 22 20 21 23 21 17 16 17 18 21 23 23 24 25 25 24 22 22 21 20 19 18 18 19 20 20 19 19 19 20 22 23 24 25 25 26 26 26 26 26 25 24 23 21 21 21 21 19 18 16 15 15 15 16 16 17 17 15 13 12
28 27 25 22 21 24 26 23 19 19 20 21 22 24 25 25 26 25 24 23 23 22 20 19 19 20 21 21 19 18 17 17 17 18 19 21 23 24 25 26 27 27 27 26 26 24 23 22 22 22 20 19 18 17 16 15 16 17 18 18 17 15 14
30 28 27 24 25 28 29 26 23 21 23 25 26 26 27 27 27 26 25 24 23 22 21 21 21 22 22 21 20 18 16 14 13 14 14 17 19 21 23 25 26 27 27 27 27 26 25 24 23 22 21 20 19 18 18 17 17 17 19 19 18 16 16
30 30 29 27 28 30 31 30 27 23 26 29 29 27 27 28 28 28 26 24 23 22 23 22 22 23 22 21 20 18 15 13 11 10 11 13 14 16 19 22 24 26 27 27 27 27 26 25 24 23 22 21 20 20 20 19 18 19 20 20 19 18 17
31 33 32 30 30 32 33 32 30 27 28 31 29 27 27 28 29 28 26 24 23 23 24 23 23 23 23 22 21 18 15 13 10 9 9 11 11 13 14 16 18 21 24 27 28 28 28 27 25 24 22 22 22 22 22 21 20 20 21 21 20 19 18
30 33 32 31 33 34 35 34 32 30 29 29 28 26 26 28 29 28 27 24 22 23 25 24 24 23 23 22 21 18 15 13 11 9 9 9 10 10 11 11 12 13 15 20 23 26 28 28 27 25 23 23 24 24 24 23 21 21 22 22 20 19 19
26 28 30 32 34 35 36 35 33 32 30 30 29 26 25 28 29 29 28 25 23 24 25 24 24 24 23 22 20 17 15 14 12 10 9 9 8 8 9 10 11 11 11 11 12 15 20 24 26 26 26 25 25 26 26 24 22 22 23 22 20 20 20
24 26 28 31 33 35 36 36 35 33 31 30 31 29 26 27 29 29 29 26 24 24 24 24 25 24 23 21 19 17 16 16 14 11 11 10 8 7 8 10 11 11 12 11 11 10 10 13 16 20 23 25 26 27 26 24 22 22 23 23 21 21 21
25 25 25 27 30 32 34 35 34 31 29 28 30 31 28 27 28 28 26 24 22 22 22 24 25 23 21 19 16 16 17 17 15 13 12 11 10 9 10 11 11 11 11 11 12 11 10 9 9 11 15 19 23 25 26 24 22 23 25 24 23 23 22
26 25 23 24 27 30 32 33 32 31 30 28 29 30 28 25 26 26 23 21 21 20 21 22 22 21 19 17 15 17 18 18 16 14 13 12 12 11 12 14 13 11 10 10 11 11 11 11 10 11 13 15 19 22 24 24 23 24 26 26 25 25 23
27 26 24 24 26 28 30 31 31 30 30 28 28 29 25 22 24 25 22 20 19 19 20 21 20 20 20 18 17 18 18 17 16 14 14 14 14 13 14 16 15 12 10 10 11 11 10 9 10 12 13 15 17 19 22 24 25 26 27 28 27 27 25
29 28 28 27 27 27 29 30 30 29 28 27 27 25 22 20 21 21 19 19 19 20 21 21 21 21 20 19 19 18 18 17 16 15 14 15 15 14 15 16 16 15 13 13 13 13 10 9 10 12 13 14 15 17 19 23 26 28 28 29 29 28 27
31 31 31 31 29 28 28 29 29 28 28 28 26 24 21 19 19 18 19 21 22 22 22 23 23 23 22 21 20 19 18 18 17 16 16 16 16 16 17 17 17 18 18 17 16 15 13 12 12 13 13 14 15 16 18 22 26 29 30 31 31 30 30
34 33 32 31 30 29 28 28 28 28 29 30 28 26 23 21 20 21 22 24 25 25 26 27 27 26 25 23 22 21 21 20 19 18 18 19 19 19 19 20 20 21 22 22 21 19 17 16 15 15 14 14 15 16 18 20 25 29 32 32 32 32 33
35 34 33 32 31 31 30 29 29 28 29 29 29 27 26 24 24 25 26 27 27 28 29 30 29 28 27 26 25 24 24 23 23 23 23 23 23 22 22 23 23 22 22 24 24 23 21 20 19 17 16 17 17 17 17 19 24 29 31 33 34 34 34
35 35 34 33 33 32 31 31 29 29 29 29 29 28 28 28 28 29 30 30 29 29 29 30 29 27 26 27 27 26 26 28 28 28 27 26 26 25 25 25 25 24 23 23 25 26 26 25 23 21 20 20 19 19 18 19 22 27 31 33 34 35 35
36 36 36 35 34 33 33 32 31 30 30 29 29 30 30 30 31 32 33 33 31 30 30 29 28 25 24 26 27 29 32 33 33 32 30 29 29 29 28 28 29 28 27 27 27 28 30 30 29 27 26 24 22 21 20 21 23 27 30 33 35 36 36
36 36 36 36 36 35 34 34 33 32 31 30 30 31 31 32 32 32 32 31 31 31 31 31 29 25 22 24 28 32 34 34 34 35 34 34 34 33 31 31 32 32 32 31 31 33 34 35 34 33 30 28 27 25 24 24 25 27 29 32 35 37 37
37 36 35 36 37 36 36 35 34 34 33 32 32 32 32 33 33 32 30 29 29 29 29 30 30 27 25 27 30 33 34 34 35 37 37 36 36 35 34 34 34 35 35 34 34 34 34 34 34 36 35 32 30 29 28 28 28 29 30 32 35 37 38
39 37 36 36 37 37 36 36 36 35 35 34 34 34 34 34 35 34 33 32 32 29 28 29 31 30 30 32 33 33 33 34 36 36 36 36 35 34 34 34 34 35 36 36 36 35 32 30 30 32 35 35 33 32 32 33 33 32 32 33 36 38 39
40 38 37 37 38 38 37 37 37 37 37 36 35 36 36 36 37 37 38 37 36 34 33 32 32 32 33 34 34 32 32 33 33 34 35 36 35 34 34 34 34 34 35 37 37 36 34 32 31 30 32 34 36 36 37 37 38 38 36 35 36 38 40
41 39 38 37 37 38 39 38 39 39 39 39 37 37 37 38 39 40 41 41 40 39 38 36 35 34 34 35 34 33 33 33 33 33 33 34 35 35 34 35 35 36 36 37 37 37 36 37 36 36 35 34 35 38 41 42 43 42 40 39 39 39 40
43 41 40 38 37 38 39 40 40 41 41 41 40 39 39 40 41 42 42 42 42 40 39 39 38 37 36 36 35 35 35 34 33 33 33 33 34 35 35 37 39 39 39 40 41 41 41 41 41 41 41 39 37 36 39 44 48 47 43 41 41 42 43
45 44 42 40 37 37 38 40 42 43 43 43 43 42 41 41 41 43 43 43 43 42 41 41 40 39 38 37 36 36 36 36 35 34 34 34 36 37 38 40 42 43 43 44 45 45 45 45 44 44 44 44 42 40 38 41 46 49 46 44 45 45 46
46 45 44 42 39 36 37 38 41 43 45 46 46 46 45 43 42 43 44 44 44 44 43 42 41 39 38 38 38 38 38 38 37 37 37 38 39 40 41 42 43 44 45 47 48 48 48 48 48 48 47 46 46 46 45 41 40 42 46 48 48 49 49
46 45 44 43 41 39 37 37 39 41 44 46 48 49 48 46 45 44 45 46 46 45 45 44 43 42 41 41 41 41 41 40 40 40 41 42 42 43 43 44 45 46 47 48 50 50 51 51 51 50 50 48 48 50 51 49 44 42 44 47 49 50 51
44 45 44 43 42 41 39 38 39 40 42 43 45 46 48 48 47 47 47 48 48 48 47 47 46 46 46 45 45 45 44 44 45 45 45 45 46 47 47 47 47 48 49 49 50 51 52 53 53 53 53 53 53 53 54 54 53 51 50 51 52 53 55
44 44 45 45 44 42 41 39 38 39 40 41 42 42 44 45 46 48 49 50 50 50 50 50 50 50 50 50 49 48 47 46 46 46 46 46 47 48 48 48 49 49 49 49 51 52 54 56 57 57 57 56 57 57 56 55 56 55 55 57 58 59 59
45 46 46 46 46 44 42 40 39 38 39 40 41 41 42 43 43 45 46 48 49 50 50 49 49 49 50 49 48 48 47 46 45 46 46 47 48 49 49 49 50 51 51 52 53 55 57 59 59 59 60 60 60 60 59 57 56 56 59 64 66 65 64
47 47 47 47 46 45 43 40 40 39 39 39 40 40 41 42 42 42 43 44 44 45 45 44 44 44 45 45 45 45 45 45 45 46 48 49 50 50 51 52 52 54 55 56 57 59 61 61 61 62 63 64 64 63 62 62 61 59 61 67 69 67 66
49 48 48 48 48 47 44 42 42 42 41 40 41 41 41 42 43 43 43 44 44 44 44 43 43 43 43 44 44 45 46 46 48 49 49 50 51 52 53 54 55 57 59 60 62 63 64 64 64 65 66 67 67 67 66 66 66 64 63 66 70 70 68

ECMWFFLT1_500_spd_036.txt.gz
Wind_Speed
29 27 25 24 24 23 21 21 21 22 22 21 21 21 21 21 21 21 22 22 23 23 23 23 23 22 21 21 21 20 19 18 18 18 18 18 18 17 18 18 19 19 19 18 17 15 13 12 11 10 8 7 5 5 5 6 6 7 8 9 10 10 10
29 28 27 26 25 24 23 23 23 24 24 23 23 22 22 21 21 21 21 22 22 22 23 23 23 23 23 23 22 21 20 20 19 19 18 18 18 18 18 18 18 18 19 18 17 16 14 13 12 12 10 9 7 6 6 6 7 8 8 10 10 11 11
30 29 28 27 25 25 24 24 24 24 25 24 24 24 22 21 21 21 21 22 22 22 22 22 22 22 22 23 23 22 21 20 20 19 19 18 19 19 19 18 18 18 18 18 18 17 15 14 13 13 12 11 9 8 7 7 8 8 9 10 11 12 12
31 29 28 26 25 25 25 24 24 24 25 25 25 25 24 23 22 22 22 22 22 22 21 22 22 22 23 23 22 22 21 20 20 20 20 20 20 20 19 19 19 19 18 19 19 18 17 15 14 14 14 13 11 10 9 8 9 9 10 11 12 13 13
32 31 28 26 24 24 24 24 23 22 23 24 24 25 25 25 25 24 23 23 22 22 22 23 24 24 23 23 22 22 21 21 21 21 21 21 21 21 20 21 21 20 20 20 19 18 18 17 16 15 16 15 13 12 11 10 9 10 11 12 13 13 14
34 32 29 26 25 23 22 21 20 20 20 21 22 23 24 26 26 25 25 23 23 22 22 23 23 22 22 22 22 22 22 22 21 22 22 22 22 22 22 23 23 23 22 22 21 20 19 18 17 17 17 17 15 14 13 12 11 11 12 13 14 14 15
34 32 29 28 27 23 21 20 19 20 21 22 23 24 25 26 26 26 26 25 24 24 23 23 22 22 23 23 23 23 23 23 23 23 23 23 24 24 24 25 25 25 25 24 23 22 21 19 18 18 18 18 17 16 15 14 13 13 13 14 15 16 16
34 32 30 30 28 25 24 22 20 21 21 23 24 25 26 26 26 27 26 26 26 26 25 23 22 22 23 23 23 23 24 24 24 24 23 23 24 24 25 26 27 27 27 26 26 25 24 21 20 19 19 19 18 18 17 16 15 15 14 15 16 17 17
35 33 32 32 30 28 27 26 24 21 20 22 24 25 27 27 27 27 27 27 28 26 25 24 23 22 23 24 23 24 24 24 23 22 22 22 22 23 24 25 26 28 28 28 28 28 26 24 22 21 20 21 20 19 19 18 17 16 16 16 17 18 18
36 34 34 34 32 30 30 29 27 25 24 23 25 27 28 28 28 28 28 29 28 27 26 26 24 23 23 23 24 24 24 22 21 20 19 20 20 21 22 23 24 26 27 28 29 28 27 26 24 22 22 22 21 20 20 20 19 18 17 18 19 19 20
37 35 36 36 35 34 34 32 31 31 30 28 27 28 29 28 27 27 27 27 27 27 27 27 25 23 23 24 25 25 23 21 19 18 18 18 18 18 19 19 20 22 23 25 27 27 28 27 26 24 23 23 22 22 22 22 21 20 19 20 20 21 21
38 37 37 37 37 37 36 36 35 34 34 32 30 29 29 28 26 25 25 26 26 27 28 28 25 23 24 25 25 24 22 20 19 17 17 18 17 17 16 15 15 15 17 19 21 24 26 27 27 26 25 25 25 24 24 24 24 22 21 22 22 22 22
40 39 39 39 38 38 38 38 37 36 36 34 31 30 31 29 25 24 25 25 26 28 29 28 25 23 24 25 25 24 22 21 19 18 18 18 18 17 15 13 11 10 10 11 12 14 18 21 25 26 26 27 26 26 26 25 25 24 23 23 23 23 23
40 41 41 41 41 41 41 40 38 37 37 36 33 31 31 30 27 25 25 25 26 29 30 28 25 23 23 24 24 23 22 21 21 21 19 18 18 16 13 11 10 8 7 6 6 7 8 12 17 22 25 27 27 27 27 26 26 26 25 25 24 24 24
39 41 42 43 44 44 43 40 38 37 38 38 36 32 30 31 29 26 25 25 26 28 29 28 26 24 23 23 22 22 23 23 23 22 21 19 17 14 12 10 8 7 6 5 5 5 5 6 8 12 17 21 25 26 27 27 27 26 26 26 25 25 25
36 39 42 44 45 45 43 40 39 39 39 39 38 34 32 32 31 28 26 26 26 26 28 29 27 25 23 22 21 22 25 25 25 23 21 20 17 14 12 11 8 7 6 4 3 3 4 6 6 7 10 13 17 20 23 24 25 26 27 27 26 26 27
32 35 38 41 43 43 42 41 40 40 40 40 39 38 37 35 33 31 28 27 26 26 27 29 28 26 24 22 22 24 26 26 25 23 21 19 17 15 14 12 10 8 7 5 4 3 4 5 6 7 9 10 12 14 16 18 21 25 27 28 27 28 28
30 30 31 34 36 38 39 40 40 40 40 40 40 40 39 37 36 33 29 27 27 26 27 29 29 27 25 23 22 24 25 26 25 23 22 20 18 16 15 15 13 11 9 7 6 6 6 5 6 7 9 10 12 13 14 15 17 21 25 28 28 28 29
30 30 29 28 29 30 32 36 39 39 39 39 39 39 39 38 36 31 25 24 26 28 28 28 27 26 25 23 23 23 24 26 26 23 21 21 20 19 18 18 16 14 11 10 10 10 9 8 8 9 10 11 12 13 15 16 16 19 23 27 28 29 29
30 29 29 28 27 26 27 29 33 35 36 36 36 37 37 36 32 26 22 22 25 27 28 26 25 24 24 23 23 24 25 26 25 23 22 21 22 22 21 20 19 17 15 15 14 13 12 12 12 12 11 12 13 14 15 16 17 19 22 25 28 28 28
30 30 29 28 27 26 25 26 27 29 31 32 33 33 33 32 30 26 22 21 23 25 27 26 25 24 24 24 24 24 26 26 25 24 23 22 23 23 23 23 22 20 18 18 17 17 16 17 17 16 15 15 15 15 15 15 16 19 22 25 27 29 29
32 31 31 29 28 27 27 26 26 26 27 28 29 30 30 30 29 27 24 22 22 24 25 25 24 24 24 23 23 23 24 24 24 24 23 23 23 23 24 25 23 22 21 21 20 20 21 22 22 20 19 19 19 18 17 17 17 18 21 24 27 30 31
34 34 33 31 30 29 28 28 27 26 26 27 27 28 29 29 29 28 26 24 23 23 24 24 23 23 22 21 20 20 21 22 23 24 24 24 24 24 25 26 25 25 24 23 23 24 25 26 26 25 25 24 24 22 21 20 20 20 21 24 27 30 32
36 36 35 33 31 30 29 29 28 28 27 27 28 29 29 29 29 29 28 27 25 24 25 24 23 23 21 21 21 20 21 23 25 27 27 28 27 27 26 26 26 26 26 26 27 28 28 28 29 29 29 28 28 27 26 26 25 24 24 26 28 30 32
38 37 36 35 33 31 30 30 30 30 28 28 29 30 30 30 29 29 29 29 28 27 26 24 24 24 24 24 24 23 24 28 31 32 32 32 31 30 29 29 29 30 30 31 31 31 30 30 30 31 31 30 29 29 29 30 31 30 28 28 30 31 32
38 38 37 37 35 33 33 32 31 31 30 29 30 31 32 31 30 30 30 30 30 29 28 27 27 27 27 28 28 27 29 31 32 32 31 31 31 32 33 34 34 35 35 35 35 35 34 33 32 32 32 31 31 31 30 30 32 34 35 35 34 34 36
38 38 37 37 36 35 34 33 32 32 32 31 31 32 33 33 31 31 32 32 32 31 31 31 31 30 30 31 30 30 31 30 29 28 27 28 31 33 35 37 37 38 41 41 39 37 36 36 35 34 33 34 35 34 32 31 31 32 36 39 39 38 38
39 38 37 37 36 36 35 33 33 33 33 32 32 33 34 33 32 33 34 34 34 34 33 33 33 33 33 32 31 31 31 30 29 29 29 30 32 33 34 35 35 36 40 42 40 36 36 37 37 35 35 35 35 35 34 34 32 31 31 36 41 42 41
40 39 38 38 37 36 35 35 34 34 33 33 32 33 34 34 33 34 35 36 36 35 35 34 33 33 33 32 31 31 31 31 31 32 33 34 34 33 33 34 34 33 34 37 37 37 37 37 36 36 36 36 36 35 35 35 35 34 30 30 36 41 44
41 41 40 39 38 37 36 36 35 35 34 33 32 33 33 34 34 35 36 36 37 36 36 35 34 35 34 34 33 33 33 33 33 34 35 35 35 35 35 35 35 35 33 34 36 38 39 38 37 38 38 38 38 39 38 38 37 37 34 31 32 36 41
40 42 42 41 40 39 38 37 36 36 36 35 33 33 33 34 34 35 36 37 38 38 38 37 37 37 37 37 36 35 35 36 36 36 37 37 37 38 38 37 36 36 35 35 37 38 39 39 40 41 41 42 42 42 42 42 41 40 39 37 36 36 38
39 40 42 42 42 40 39 37 36 35 36 36 35 34 34 35 35 36 36 37 39 40 40 40 40 39 39 39 39 39 38 38 38 39 39 40 40 40 39 39 39 37 37 38 39 39 40 41 43 44 44 45 45 44 45 46 47 46 44 42 41 41 41
40 40 40 41 41 40 39 37 36 36 36 37 37 36 36 36 37 37 37 38 39 40 41 41 42 42 41 41 41 41 40 40 40 41 42 42 41 41 40 41 41 40 40 41 41 41 42 44 46 48 49 49 48 48 49 51 51 51 49 47 46 45 45
41 40 40 40 40 39 38 37 36 36 37 37 38 38 38 38 38 38 38 39 40 40 40 40 41 41 42 42 42 42 42 42 42 43 43 43 42 42 42 42 43 43 43 43 44 44 46 47 49 51 52 53 53 54 54 55 55 53 52 51 50 49 50
43 41 40 40 40 40 38 37 37 37 37 37 38 38 39 39 39 39 40 40 41 40 40 40 41 41 42 43 43 44 44 44 45 45 45 45 44 44 44 44 44 44 45 46 47 48 49 50 52 53 54 55 56 57 57 57 57 55 54 54 54 53 54
45 43 41 41 41 41 40 39 38 37 36 35 36 36 37 39 39 40 40 41 41 41 41 42 42 44 45 45 46 47 47 47 48 47 47 47 47 47 47 47 46 46 47 49 50 51 52 52 53 53 54 55 57 58 58 58 57 56 57 59 59 59 59
46 45 44 42 41 41 41 41 40 39 37 36 35 35 36 37 38 39 40 41 41 41 41 42 43 45 47 48 49 49 50 50 50 50 50 49 49 48 48 48 48 49 50 52 52 53 54 54 54 55 56 57 58 59 60 60 60 59 60 62 63 64 65
47 46 45 44 42 42 42 42 42 41 40 39 38 37 36 37 37 38 39 40 41 42 42 43 43 44 45 46 46 46 47 47 47 47 47 47 47 47 47 47 48 49 50 52 53 54 55 56 57 58 59 60 61 62 63 64 64 63 64 65 66 67 68

ECMWFFLT1_500_spd_039.txt.gz
Wind_Speed
31 29 27 26 25 24 22 19 20 22 22 22 21 22 24 24 24 23 23 23 24 23 23 23 23 23 22 22 22 22 21 21 21 21 21 21 20 19 19 18 18 17 16 16 14 13 12 11 11 10 10 9 8 7 7 8 8 9 9 8 7 7 7
30 29 28 27 25 23 21 20 21 22 22 22 23 23 24 24 24 23 24 24 25 24 24 24 24 24 24 24 23 23 22 21 21 21 21 21 21 21 20 19 19 18 17 16 14 13 12 12 12 11 11 11 9 8 8 8 9 10 10 10 8 7 7
29 28 28 26 23 23 22 22 22 22 22 22 23 22 22 22 22 23 24 25 25 25 25 24 24 25 25 24 24 23 22 21 21 21 21 21 21 21 21 19 19 18 18 17 15 14 13 12 13 13 13 12 11 10 9 9 10 10 11 11 10 9 8
32 29 29 26 24 24 24 23 23 22 22 22 22 22 21 21 23 23 24 24 25 24 24 24 24 24 24 23 23 22 21 20 20 21 21 22 22 21 19 19 19 18 18 17 16 15 14 14 13 14 14 14 13 12 11 10 10 11 11 12 13 11 9
36 31 28 26 27 26 24 23 23 22 22 22 22 22 21 22 23 23 23 24 23 23 23 23 23 23 23 22 22 21 20 19 19 20 21 21 21 20 19 19 19 18 18 18 17 17 16 16 15 15 15 16 16 15 14 12 11 11 12 13 14 14 12
39 32 27 27 29 26 22 22 23 22 22 22 23 23 23 23 23 23 23 23 23 23 23 22 22 21 21 21 20 20 20 20 19 19 20 20 20 20 20 20 20 19 19 18 18 18 18 18 18 17 17 17 17 17 16 15 14 13 12 13 14 15 14
38 32 28 28 27 22 21 23 24 24 24 24 24 24 24 24 24 24 24 24 24 24 23 22 22 21 21 21 20 20 20 21 21 21 21 21 21 21 22 22 21 21 21 20 20 20 19 19 20 20 19 19 19 19 18 18 17 15 14 14 15 15 16
37 29 27 27 24 22 24 26 26 26 25 24 24 24 24 24 24 24 24 24 24 24 23 23 23 22 22 22 21 21 22 22 23 23 23 23 23 22 23 23 22 23 23 22 23 23 22 22 22 22 22 21 21 21 20 20 19 18 16 15 16 16 16
38 31 27 26 26 28 29 27 26 26 25 24 24 25 26 26 25 25 24 24 24 24 23 23 23 23 23 23 23 23 24 24 24 24 24 23 23 22 22 22 22 22 22 22 23 24 24 24 24 24 24 23 23 22 22 21 21 21 19 18 18 18 18
40 37 32 29 29 30 29 26 25 24 24 26 27 27 28 28 27 26 25 25 24 24 24 24 24 24 24 23 24 25 25 25 24 24 24 23 22 22 21 21 20 20 20 21 22 23 24 25 25 25 25 25 25 24 24 23 23 23 22 21 20 20 20
40 36 34 33 32 30 27 25 24 25 26 27 28 28 28 29 29 28 27 26 25 25 26 27 26 25 24 24 25 25 24 24 24 24 23 22 22 21 20 19 19 19 19 20 21 21 22 23 24 24 25 26 26 26 25 25 25 24 24 23 23 23 22
37 31 33 35 33 32 31 29 28 28 29 29 28 28 27 28 29 29 29 28 26 26 26 27 27 26 25 25 25 24 23 24 23 22 22 22 21 20 19 19 19 19 19 19 19 19 19 20 21 22 23 25 26 27 27 26 25 25 25 25 25 25 24
34 32 35 36 35 35 35 34 33 32 33 32 30 28 27 27 28 29 28 27 27 27 26 26 27 26 24 25 24 23 22 23 23 22 22 22 21 20 20 19 19 19 18 18 17 17 17 17 18 19 20 23 25 27 27 27 26 26 26 26 26 26 26
34 34 35 36 37 37 37 37 35 35 35 34 32 30 28 26 27 27 27 27 27 27 26 26 26 25 25 25 25 22 21 22 23 23 23 23 22 21 20 20 19 19 17 16 15 15 14 14 15 15 16 19 22 25 27 27 27 26 26 27 27 27 27
37 36 35 36 36 37 38 38 37 36 37 35 34 33 31 29 28 27 27 27 26 26 26 25 25 25 25 26 25 23 22 23 24 23 24 24 22 21 20 20 19 18 16 15 14 13 13 13 12 12 12 13 16 20 23 25 26 26 25 26 27 27 27
39 38 37 37 37 38 39 39 38 38 38 37 36 35 34 32 31 30 29 28 27 26 25 25 25 24 25 26 26 24 25 25 25 24 24 24 22 22 21 21 19 17 15 14 13 13 13 12 11 11 11 11 11 13 15 18 21 24 25 26 28 28 28
41 41 42 41 41 41 40 39 39 39 38 39 39 37 36 35 34 34 32 31 29 27 26 26 24 23 23 24 26 26 27 26 26 25 25 24 23 22 22 21 20 18 16 15 14 13 13 12 11 10 10 10 11 11 11 12 14 18 22 25 27 29 29
40 41 41 41 41 41 40 40 40 40 39 40 40 39 37 36 36 36 34 32 31 29 28 26 24 22 21 22 26 27 27 27 27 26 25 24 24 23 22 22 21 19 17 16 15 14 14 12 11 10 10 10 10 11 11 12 13 14 17 21 24 27 27
36 36 37 38 39 40 40 40 40 40 40 40 40 39 37 36 37 37 36 35 33 31 29 27 26 24 22 22 25 27 27 28 28 27 26 25 25 25 24 23 22 21 19 18 17 17 16 14 12 11 11 10 10 10 11 11 12 14 16 19 21 24 26
33 34 34 34 34 34 35 36 37 37 37 38 38 38 37 37 37 37 37 36 35 33 31 29 28 28 25 22 22 24 27 28 29 28 27 26 26 26 25 24 23 22 21 20 20 18 17 16 14 13 13 12 12 12 11 11 11 12 15 18 21 23 25
31 31 32 31 30 30 30 31 34 34 35 35 36 37 38 38 38 38 38 37 36 35 32 29 27 27 26 23 22 23 26 27 28 29 29 28 28 27 26 24 24 24 23 22 21 20 20 18 17 16 15 15 15 15 13 13 13 13 14 17 19 22 25
30 30 31 32 31 29 27 28 29 29 30 32 34 36 37 38 39 40 39 38 37 35 32 28 25 24 23 21 20 22 24 26 28 29 29 28 28 27 25 25 24 25 25 25 24 24 23 22 20 19 19 19 20 19 18 17 18 17 16 18 20 23 26
33 33 33 32 30 29 28 27 26 25 26 28 30 33 35 38 39 40 40 38 37 35 31 26 23 22 20 20 20 22 23 25 26 26 25 25 24 24 24 24 25 26 27 27 27 27 26 25 23 23 23 23 24 25 23 22 22 22 21 22 23 26 28
35 34 33 31 30 30 28 26 25 25 24 25 26 28 31 35 37 39 39 38 37 35 29 24 22 21 20 20 21 22 22 23 23 22 21 21 20 21 22 24 26 27 28 29 30 29 28 28 27 26 27 28 28 28 28 27 27 26 25 25 27 29 31
36 35 34 33 32 31 29 27 27 26 25 25 25 25 27 30 33 36 36 36 36 34 29 24 22 21 20 20 21 21 21 21 21 20 20 19 19 20 23 25 27 28 29 30 30 30 30 30 30 30 31 31 31 30 31 31 30 28 26 26 27 29 33
37 37 36 35 33 32 31 30 29 28 27 26 26 26 26 27 29 31 32 33 34 32 29 26 24 23 22 22 22 22 22 21 20 20 20 20 21 22 24 26 28 30 31 31 31 31 32 32 33 33 33 34 33 32 32 32 32 30 28 28 29 30 33
39 39 38 36 34 33 33 32 31 30 29 28 27 27 27 27 27 28 29 30 32 31 30 28 27 26 25 24 24 24 22 21 20 22 23 23 24 25 25 26 28 29 31 32 32 33 33 33 34 35 35 36 36 36 35 35 34 34 32 32 32 32 34
40 40 39 38 36 35 34 33 32 31 29 28 28 29 29 28 28 28 28 29 30 31 31 30 29 28 27 26 26 25 24 23 23 25 25 25 26 26 26 27 28 28 29 30 31 32 32 33 34 34 35 36 38 39 38 37 36 36 35 34 33 33 34
40 40 40 40 38 37 36 34 33 32 30 29 29 29 30 30 29 29 29 29 30 31 32 31 30 29 29 28 27 27 26 26 26 27 27 27 27 27 27 28 29 30 30 31 31 32 32 32 33 34 35 35 36 36 36 36 36 36 36 35 35 35 35
40 40 41 41 40 39 38 37 35 34 32 31 30 30 31 31 30 30 30 30 30 31 32 32 31 31 30 30 29 29 28 28 29 30 30 30 30 29 29 30 31 32 33 33 33 33 33 33 35 36 35 36 36 36 35 36 37 38 38 36 36 38 38
40 40 41 42 41 41 40 38 37 36 34 33 31 31 32 31 31 31 31 31 31 31 32 33 33 33 33 33 33 32 31 31 32 32 32 32 32 32 31 32 32 33 34 35 35 36 36 37 38 38 38 37 37 37 37 38 39 40 40 40 39 39 40
41 41 41 42 41 41 41 40 38 37 36 35 33 33 32 32 32 32 32 32 32 32 32 33 34 35 36 36 36 35 34 34 34 34 35 35 35 35 34 35 35 36 36 37 38 39 40 41 41 42 41 40 39 39 40 40 41 42 42 42 42 42 43
42 41 41 41 41 42 42 41 40 39 38 37 36 34 33 33 32 32 32 33 33 33 32 33 35 36 37 38 38 38 37 37 37 37 38 38 38 38 38 38 38 38 39 40 41 42 43 43 43 43 44 44 44 44 44 44 44 44 45 45 46 46 46
44 43 41 41 41 42 42 41 41 40 39 38 37 36 35 34 33 33 33 33 34 34 34 34 35 36 38 39 40 40 40 39 39 39 39 39 40 40 41 41 42 42 42 43 44 45 46 46 45 45 46 46 47 47 47 46 47 47 48 50 52 52 51
45 45 43 42 41 41 41 41 41 41 40 39 38 37 37 36 35 34 34 34 34 34 35 35 36 36 38 39 40 41 41 41 41 41 41 41 42 42 43 44 44 45 46 46 47 47 48 48 48 48 48 48 48 49 49 49 49 51 52 53 56 57 56
47 46 46 44 43 42 42 41 41 40 40 39 38 38 38 37 37 36 35 34 35 35 36 37 37 37 38 39 40 40 41 41 41 41 42 42 43 44 44 45 45 46 48 48 48 49 49 50 50 50 50 51 51 51 52 53 53 54 56 57 59 60 60
48 48 47 46 45 44 43 42 41 40 40 39 38 37 37 37 37 37 36 36 36 37 38 38 39 39 39 40 40 40 41 41 41 42 43 44 45 46 45 46 47 48 49 50 50 51 51 51 52 52 52 53 53 54 55 57 57 58 59 60 60 61 62
49 48 48 47 46 45 45 43 42 41 40 40 39 37 37 37 37 37 37 37 38 38 39 40 41 41 41 41 42 42 42 43 43 44 45 47 48 48 48 49 50 51 51 52 52 53 53 53 53 53 54 55 56 57 58 59 60 61 61 61 62 62 63

ECMWFFLT1_500_spd_042.txt.gz
Wind_Speed
29 31 25 22 22 21 20 19 18 20 23 24 22 19 18 19 19 19 18 17 17 18 19 20 21 21 21 21 20 19 18 18 18 19 19 18 17 16 15 14 14 13 12 12 10 10 9 9 9 9 9 8 7 6 5 5 5 6 7 8 9 9 8
28 31 28 23 22 22 20 18 18 21 23 22 20 18 18 19 20 20 20 19 20 20 20 20 21 21 21 21 20 19 18 18 18 18 18 17 16 15 14 13 13 12 12 11 10 10 10 10 10 10 10 9 9 8 7 6 6 6 7 8 9 10 10
26 30 31 24 20 20 19 17 19 23 23 20 17 15 16 18 20 21 21 22 22 22 22 22 21 21 21 21 20 19 18 18 18 18 18 17 16 14 13 12 12 11 11 11 10 10 9 10 10 11 11 11 10 10 9 8 8 7 7 8 9 10 10
24 26 29 24 19 19 19 17 19 23 23 18 14 12 14 17 20 22 22 22 22 22 22 22 22 21 21 20 19 18 17 16 16 17 17 17 16 14 13 12 12 12 11 11 11 10 10 10 11 11 12 12 12 12 11 10 10 9 8 8 9 10 10
23 24 25 24 20 18 18 18 20 22 21 16 13 12 14 17 20 22 22 23 22 22 21 21 21 20 19 18 17 16 16 15 15 16 16 16 16 15 14 13 13 13 12 12 12 12 12 12 12 12 13 14 14 13 13 13 12 12 11 10 10 10 11
26 24 26 27 22 17 17 18 20 23 22 17 16 13 14 17 19 20 21 22 21 21 20 20 18 18 17 17 16 15 15 14 13 13 14 14 15 14 14 14 14 14 13 14 14 14 14 14 15 15 15 15 16 16 16 15 15 15 14 13 12 12 12
28 25 26 28 24 17 16 19 20 23 23 20 18 16 15 16 17 19 20 20 20 20 19 19 17 17 17 16 16 15 14 13 13 13 12 13 13 13 14 15 15 15 15 15 16 16 16 17 17 18 18 18 18 18 18 18 18 17 17 16 15 15 14
28 25 26 29 26 19 18 22 22 22 22 21 17 15 14 15 16 18 19 20 20 20 19 19 18 18 18 17 16 15 15 15 14 14 13 13 14 14 15 16 16 17 17 18 18 18 19 19 20 20 21 21 21 20 21 21 21 20 19 19 18 17 17
26 27 25 27 27 22 20 23 22 22 23 22 17 13 13 15 16 17 19 20 21 20 20 19 19 18 18 18 17 16 16 16 15 15 15 15 15 16 16 17 18 18 19 19 19 19 19 20 20 21 22 23 23 23 23 22 23 22 21 21 21 20 19
25 28 23 21 25 22 20 21 22 22 23 22 17 14 14 16 17 18 19 21 21 21 21 20 20 19 18 17 17 17 16 16 16 17 17 17 17 18 18 19 19 19 18 18 18 17 17 18 19 20 21 22 23 24 24 24 24 24 23 22 23 22 21
27 28 22 21 26 23 19 20 22 23 21 18 16 16 16 18 19 19 20 20 21 22 22 22 20 19 18 18 18 17 17 17 17 17 18 19 19 20 20 19 19 18 17 16 16 15 16 17 17 18 20 21 22 24 25 25 25 25 24 23 23 24 23
28 26 23 25 27 22 20 22 24 24 22 19 18 18 18 19 19 19 20 21 22 23 23 22 21 20 20 20 19 17 17 17 17 18 18 19 20 20 20 19 17 17 16 16 15 15 16 17 17 17 17 19 20 21 23 24 25 25 25 24 23 23 24
27 26 22 21 23 21 20 22 24 25 24 22 19 18 17 18 18 18 19 20 22 23 23 23 22 21 21 20 19 18 17 18 18 19 19 19 20 20 19 18 17 16 16 16 15 16 16 16 16 15 15 16 17 17 19 21 22 23 24 24 23 23 24
28 27 23 20 21 20 18 21 25 25 24 22 20 19 19 18 18 18 18 19 21 22 22 22 21 20 20 19 19 18 18 19 20 20 20 20 19 19 18 18 17 16 16 16 16 16 16 15 14 14 14 14 14 14 14 16 19 20 21 22 23 22 23
31 29 26 23 23 22 19 19 23 23 23 22 22 22 21 21 21 20 20 19 20 20 21 22 21 20 20 20 20 20 20 20 20 21 21 21 20 19 18 18 18 17 16 16 16 16 15 14 13 13 13 12 12 13 12 12 14 16 18 20 22 23 23
32 29 27 25 25 25 23 21 21 23 24 25 24 24 23 23 22 22 22 21 21 21 21 22 22 22 22 22 22 22 22 22 21 21 21 21 20 19 19 19 19 18 17 16 17 16 15 13 13 13 13 12 11 12 11 10 10 12 14 16 19 21 22
33 31 29 28 29 29 27 26 24 24 26 27 27 26 25 25 24 23 23 22 21 21 22 22 23 23 23 21 21 22 23 23 22 21 21 21 21 20 20 20 20 18 17 17 17 16 15 14 13 12 12 12 11 11 11 10 10 10 11 13 14 16 18
37 35 31 30 31 30 30 30 28 27 28 29 29 28 27 27 27 25 24 22 22 21 21 22 22 22 22 21 20 20 21 22 23 23 22 22 22 21 21 21 20 19 18 17 17 16 15 14 13 13 13 12 11 11 10 10 10 10 11 12 14 15 16
34 35 32 30 30 28 28 30 30 30 31 30 30 30 29 28 28 27 26 24 24 22 21 22 23 23 22 21 20 19 19 21 23 23 23 23 22 22 23 22 21 19 18 18 17 17 16 15 14 14 14 13 12 12 11 11 10 10 11 13 14 16 17
29 33 34 33 31 28 27 28 28 27 26 27 29 29 28 28 28 29 28 26 25 24 23 23 25 25 24 22 21 20 20 21 22 22 23 23 23 23 23 22 21 20 19 19 18 17 16 16 16 16 15 15 15 14 12 11 11 11 11 13 15 17 18
28 31 33 33 31 28 27 27 25 23 23 25 27 27 27 27 27 28 28 27 27 26 25 24 25 27 27 26 23 22 21 21 22 22 23 24 23 23 22 22 22 22 21 20 19 18 18 18 18 18 17 18 17 16 15 13 13 13 13 15 17 19 20
28 30 31 33 32 28 25 25 24 22 24 27 29 28 28 28 28 28 29 29 28 28 27 26 26 27 28 27 26 24 22 21 22 22 22 23 23 23 22 22 23 24 23 21 19 19 19 20 20 20 20 20 20 20 18 17 16 16 16 18 21 22 24
31 31 32 34 31 24 21 23 24 24 26 28 29 29 29 30 30 30 30 30 30 30 29 28 28 28 28 27 26 24 20 19 20 22 22 23 22 22 22 23 24 24 24 22 21 20 20 21 22 22 22 22 23 23 22 21 21 20 19 20 23 25 27
31 32 33 32 26 20 20 24 25 26 27 27 27 27 27 29 29 30 32 32 32 32 31 30 30 29 29 27 25 22 18 17 18 20 21 21 20 21 22 23 23 22 23 23 22 22 21 21 22 22 22 23 24 25 25 24 25 24 23 23 24 27 28
32 33 32 30 24 20 22 25 26 25 25 25 24 24 25 26 28 29 31 32 33 33 32 32 31 31 30 28 24 21 19 18 18 19 20 20 20 20 21 21 21 21 22 23 23 23 22 22 22 22 23 24 25 26 27 27 27 27 27 27 28 29 29
35 34 32 30 27 24 25 27 26 26 26 25 23 22 23 24 25 26 27 29 31 32 33 33 33 32 31 28 25 22 20 19 19 19 20 20 20 21 21 21 21 22 22 22 23 23 23 23 24 25 26 27 27 28 28 29 30 30 30 30 31 32 33
37 35 34 32 30 29 29 28 27 27 26 25 24 24 24 24 24 24 25 26 28 30 32 33 34 34 31 28 27 24 21 20 20 20 20 20 20 21 22 22 22 22 22 22 23 24 24 25 26 28 28 28 28 28 29 30 31 32 32 33 33 35 37
40 38 36 35 34 33 32 31 29 28 28 26 25 25 25 24 24 24 24 25 25 27 29 30 31 32 31 28 28 27 24 22 21 22 21 21 21 22 22 22 22 22 22 23 24 25 25 26 27 27 27 26 26 27 28 29 30 31 30 31 31 33 35
40 39 38 38 37 35 34 33 32 30 29 28 27 27 26 25 25 25 25 25 25 26 27 27 27 28 29 28 28 28 27 25 25 24 23 23 24 25 23 23 23 23 23 24 26 26 27 27 28 28 27 27 26 27 28 29 29 29 29 29 30 31 32
40 40 40 41 39 37 36 36 34 32 30 30 30 29 28 27 26 27 27 27 27 27 27 26 25 25 27 28 28 29 28 27 27 26 25 26 27 26 24 24 25 25 26 26 27 28 28 28 29 29 29 29 30 30 31 31 31 31 31 30 31 32 33
41 41 43 43 42 40 39 38 36 33 32 31 31 30 29 28 28 28 29 28 28 27 28 28 27 25 26 27 29 29 29 28 28 28 28 29 28 27 26 27 27 28 28 28 28 29 29 29 30 30 31 31 32 33 34 34 34 34 34 33 34 35 35
42 42 44 44 43 42 42 41 39 36 35 34 33 32 30 29 28 28 28 28 28 28 29 30 28 27 26 28 29 30 30 30 30 30 30 30 29 29 29 29 30 30 31 30 30 31 31 31 32 32 33 34 34 35 36 36 36 37 37 38 38 38 38
43 42 43 44 44 43 44 44 42 39 38 37 36 35 33 31 29 29 29 29 29 29 30 30 29 28 28 29 30 31 32 33 32 32 32 32 32 32 31 32 33 33 32 33 33 33 33 34 35 35 36 36 37 38 38 38 39 40 42 43 42 42 42
44 43 42 43 44 44 44 45 44 42 40 39 38 38 36 34 32 31 31 31 31 30 30 30 30 29 29 30 31 32 34 35 35 35 35 35 35 35 35 35 35 35 35 35 36 36 36 37 38 39 40 40 40 41 41 42 42 44 46 47 47 47 47
45 44 43 43 43 43 44 45 44 43 41 40 40 39 38 37 36 34 33 33 33 33 32 32 32 31 31 32 33 33 35 36 37 37 38 38 38 38 38 38 38 38 38 38 38 39 39 40 41 42 43 43 43 44 45 46 47 48 49 51 51 52 52
47 45 44 43 42 42 43 43 43 43 42 41 41 41 40 39 38 37 36 35 35 35 35 34 34 34 33 33 33 34 35 36 37 39 40 41 41 41 41 41 40 40 40 40 40 41 41 42 44 45 45 46 46 47 48 50 50 51 53 54 55 56 56
49 47 45 44 43 43 43 42 42 42 42 42 42 42 41 41 40 39 39 38 38 38 37 36 36 36 35 35 34 34 35 36 38 40 42 43 42 42 43 43 42 42 42 42 43 43 43 44 45 46 47 48 49 50 51 52 53 54 55 56 58 58 59
50 49 47 45 45 44 43 43 42 42 41 42 42 42 42 42 41 41 41 40 40 40 39 39 38 38 37 37 36 36 37 37 39 40 42 43 43 43 43 43 43 44 44 44 44 45 45 46 47 48 49 50 51 52 54 55 56 57 58 59 60 60 60

ECMWFFLT1_500_spd_045.txt.gz
Wind_Speed
15 14 16 19 20 18 15 14 13 13 13 13 16 18 21 22 22 22 21 21 21 21 20 19 17 17 17 17 16 16 14 14 14 14 14 12 11 10 9 9 8 8 7 7 6 6 6 6 6 5 5 5 5 5 5 5 6 7 8 8 7 7 7
12 12 15 17 19 19 17 16 15 13 13 14 16 18 20 22 22 23 22 22 22 21 21 20 18 17 17 17 15 14 13 13 13 14 13 12 11 10 10 9 8 8 7 7 6 6 6 7 7 6 6 6 6 6 6 6 6 6 7 8 8 8 7
13 13 16 16 17 18 18 17 15 14 14 15 16 17 19 21 23 24 23 23 23 22 22 21 20 18 17 16 14 13 12 12 12 12 12 11 11 10 9 8 8 8 7 7 7 7 7 7 7 7 7 7 7 8 7 8 8 7 7 8 9 9 8
16 16 18 17 16 18 19 19 17 16 15 16 17 17 19 22 25 25 24 23 22 22 21 21 20 19 18 16 14 13 12 11 11 11 11 10 9 8 8 8 8 8 8 8 7 7 7 7 7 7 7 7 8 9 9 9 9 9 9 10 10 10 10
19 17 18 18 16 17 20 21 19 16 14 17 18 17 18 21 24 25 24 23 22 21 21 21 21 20 18 17 15 14 12 12 11 10 10 10 9 8 8 8 8 8 8 7 7 7 7 7 7 8 8 8 9 10 10 10 11 11 11 12 12 12 12
22 20 19 18 15 18 21 21 18 15 14 16 17 16 16 18 21 23 23 22 21 20 20 19 18 17 16 15 14 13 12 11 9 9 9 9 9 9 10 9 8 8 8 8 7 7 7 7 7 8 9 10 10 11 12 12 12 13 13 14 14 14 14
26 23 21 18 16 19 22 19 16 15 15 16 17 15 13 14 18 21 22 22 21 20 18 16 15 15 14 13 12 11 10 9 9 9 10 10 10 11 11 10 9 9 9 8 8 8 8 9 9 9 10 11 12 13 14 14 15 15 15 16 16 16 16
27 24 20 17 18 19 19 18 17 16 16 16 15 14 11 12 15 18 20 22 22 20 17 16 15 15 15 14 13 12 11 11 11 11 11 11 11 11 11 10 10 10 9 9 10 10 10 11 12 11 11 12 13 14 15 16 17 17 17 17 17 17 17
27 24 19 17 20 20 19 19 17 15 14 14 15 15 13 13 13 14 17 21 22 20 18 17 16 15 14 14 13 13 12 12 12 12 12 11 11 11 11 10 10 10 10 10 11 11 11 12 12 11 11 11 12 14 16 17 18 19 19 19 18 18 18
25 23 19 18 19 20 22 21 17 15 13 14 16 16 15 14 12 13 17 20 22 21 19 18 17 16 14 14 13 13 12 12 11 11 11 11 11 10 10 10 10 10 10 11 11 11 11 11 10 10 11 12 13 14 16 17 19 19 20 20 19 19 18
22 21 20 18 15 19 24 22 16 14 14 15 17 16 14 13 13 15 18 20 22 21 19 18 17 16 15 15 14 13 13 12 12 11 10 10 10 10 10 10 10 10 10 11 10 10 10 10 9 10 12 13 15 15 15 16 17 18 19 19 19 19 18
20 20 18 13 12 19 22 21 19 17 16 16 18 16 14 13 14 16 19 21 21 21 19 17 16 16 15 15 14 14 13 12 11 10 10 9 9 10 10 10 9 10 10 10 10 9 9 9 10 11 11 12 13 14 14 14 15 15 16 17 18 18 18
18 19 16 10 14 20 21 22 22 20 18 18 19 17 16 14 14 16 18 20 21 20 18 16 15 15 15 14 13 13 12 11 10 10 10 10 10 10 10 10 9 9 9 9 9 9 9 10 10 10 10 10 10 11 11 11 11 12 13 14 15 16 16
19 20 16 9 10 15 20 23 21 18 16 18 20 18 16 15 14 14 16 17 18 19 17 15 14 13 13 13 12 11 11 11 11 11 11 11 11 11 10 10 10 10 10 9 9 9 10 10 9 9 9 9 8 8 7 7 8 8 9 10 12 13 15
21 20 16 9 6 9 16 20 18 16 16 17 18 18 16 16 15 14 13 13 12 13 13 12 10 9 10 10 10 11 11 12 12 13 14 13 13 13 12 11 11 11 11 10 10 10 10 9 8 8 7 7 7 6 6 6 6 7 7 8 9 10 11
24 22 17 10 7 8 12 15 15 16 17 18 18 17 17 18 17 15 14 12 9 8 8 8 7 7 7 8 10 11 12 12 13 14 15 15 15 15 14 13 12 12 12 12 11 11 9 8 8 7 6 6 6 6 6 6 6 6 6 7 7 8 8
25 22 19 14 10 10 12 13 14 15 17 18 17 17 18 20 19 18 16 13 11 9 8 8 8 8 8 8 10 11 11 12 14 14 14 15 16 16 16 14 13 12 12 12 12 11 10 9 8 7 6 5 6 6 6 6 7 7 7 7 7 7 7
26 24 23 21 18 16 15 15 16 15 16 18 18 18 19 21 21 19 17 14 13 12 11 11 11 11 10 10 10 11 11 12 13 14 14 15 16 17 17 16 14 13 12 12 12 11 10 9 8 7 6 5 6 6 7 7 7 8 8 8 8 7 7
30 29 28 26 23 20 18 17 18 18 19 19 19 19 20 21 21 19 17 16 15 14 13 13 13 13 12 11 11 11 11 12 12 13 14 15 16 18 19 18 15 14 13 14 13 12 10 9 8 8 7 6 6 7 7 8 9 9 9 10 10 10 9
31 32 29 25 21 19 19 19 18 18 20 20 21 21 21 21 21 19 18 17 16 15 14 14 14 12 11 11 12 11 12 13 13 13 14 15 16 17 18 18 16 15 15 15 14 12 11 11 10 9 7 7 7 8 8 9 10 10 10 11 12 12 11
28 29 26 22 20 20 21 19 16 15 16 18 19 21 21 21 20 19 18 17 15 15 15 15 14 13 12 12 13 13 14 14 15 16 16 17 18 17 17 18 18 17 16 15 14 14 13 13 11 10 8 8 8 9 9 10 11 12 12 13 14 15 14
24 26 25 23 23 23 24 22 18 14 14 14 15 16 17 18 18 18 18 17 16 16 16 16 15 14 14 14 14 15 15 16 16 18 18 18 19 17 17 17 18 17 17 16 16 15 15 14 12 11 11 11 10 9 9 11 12 13 13 14 16 18 19
25 24 24 24 24 23 23 22 18 16 15 16 15 15 16 17 17 18 18 18 17 17 17 16 15 15 15 15 16 16 17 17 17 18 19 19 19 18 17 17 18 18 18 17 17 16 15 15 14 14 13 12 11 11 11 12 14 14 15 16 18 19 20
26 25 24 24 22 21 20 18 16 16 16 17 17 17 18 19 19 19 19 19 18 19 18 17 17 17 17 17 18 18 18 19 18 17 18 19 19 19 18 18 18 18 18 18 18 17 17 17 17 16 15 13 12 12 13 14 15 15 16 17 19 20 20
27 27 26 24 22 21 19 17 16 16 17 18 19 20 21 21 21 21 21 21 21 21 20 20 20 21 20 19 20 20 20 20 19 17 16 17 18 19 19 19 19 19 19 19 19 18 18 18 17 16 15 14 13 13 13 14 16 17 17 18 20 21 22
30 29 27 25 24 22 21 19 18 19 19 19 19 20 20 20 20 20 20 21 22 22 22 23 24 25 24 22 22 22 21 20 19 17 16 17 18 19 19 20 20 20 20 20 20 20 19 18 17 16 15 15 15 15 16 16 18 19 20 21 23 23 24
31 30 28 27 26 25 23 22 21 21 20 19 19 20 20 20 19 19 19 20 21 21 22 24 26 26 26 24 24 23 22 21 20 18 18 19 19 19 19 20 21 21 21 21 21 20 20 19 18 17 16 16 16 17 18 20 21 21 23 24 26 26 27
33 32 31 30 29 28 26 24 23 23 21 20 20 21 21 20 20 19 20 20 21 21 22 23 24 25 25 25 25 24 24 23 22 19 19 20 20 20 20 21 22 22 22 22 21 21 20 20 19 18 17 18 19 19 20 21 21 21 22 24 25 26 27
36 36 34 33 32 31 29 27 26 26 24 22 22 22 22 21 21 20 21 20 20 21 21 21 22 22 23 25 26 26 26 26 24 22 21 21 22 21 21 22 22 23 23 22 22 21 21 20 20 20 20 20 21 21 21 21 21 22 23 24 25 26 27
38 39 38 37 35 34 32 30 28 27 26 24 23 23 23 23 22 21 21 21 20 21 21 20 21 21 22 23 25 27 28 28 26 24 23 24 25 24 23 24 25 25 24 23 23 23 22 22 22 22 22 22 22 22 23 23 23 25 26 26 27 27 28
39 41 41 40 38 36 34 32 30 28 28 27 26 26 25 24 23 23 22 22 22 22 22 22 22 22 22 23 24 26 27 27 27 26 26 27 28 26 25 27 28 27 26 25 25 25 24 23 24 24 23 23 23 24 24 25 25 27 27 27 28 29 30
39 41 41 42 41 38 37 36 33 31 30 29 29 28 27 26 25 24 24 24 24 24 25 25 24 24 24 24 24 25 26 27 27 28 28 29 30 29 29 30 30 29 28 27 27 27 26 26 26 26 25 25 25 25 26 27 29 30 29 28 29 31 32
40 40 41 42 42 41 39 38 36 35 33 32 31 30 29 28 27 26 26 26 26 27 28 27 26 25 25 25 25 26 26 27 28 29 29 30 31 32 31 31 30 29 29 29 29 28 29 29 29 28 28 28 27 28 30 31 32 32 32 31 32 33 34
40 40 41 41 42 42 41 41 39 37 36 34 33 32 31 30 29 28 27 27 28 28 29 29 28 27 26 27 27 27 27 28 29 29 30 31 32 32 32 31 31 30 30 29 29 29 30 31 31 31 31 31 31 32 34 34 35 35 36 36 37 37 38
42 42 41 41 42 42 42 42 41 39 38 37 36 35 34 32 31 30 29 29 28 29 30 31 30 29 28 29 29 29 29 29 30 30 31 31 32 32 32 32 32 31 31 30 31 31 32 33 33 34 34 34 35 36 37 37 38 39 40 41 41 42 42
44 43 43 42 42 42 42 42 42 41 40 39 38 37 36 35 34 33 32 31 31 31 31 32 32 31 31 30 30 30 30 30 30 31 32 32 33 34 34 34 33 33 32 33 33 34 34 35 36 36 36 36 37 38 39 40 41 42 42 43 44 44 45
47 46 45 44 44 43 43 43 43 43 42 41 40 39 38 38 37 36 35 35 34 33 34 34 34 33 33 32 32 32 32 32 32 33 33 33 34 35 35 35 35 35 35 35 36 36 37 38 38 39 39 40 40 41 41 42 43 44 44 45 46 46 47
48 48 47 46 45 44 43 43 44 44 43 43 42 40 40 39 39 39 38 38 37 36 36 36 36 36 35 35 35 35 35 35 35 35 35 35 35 36 37 37 37 37 38 38 38 39 39 40 41 41 42 42 43 43 44 44 45 46 47 47 48 49 50

ECMWFFLT1_500_spd_048.txt.gz
Wind_Speed
14 20 21 19 17 15 14 13 11 10 9 8 12 15 16 17 18 20 20 19 19 18 17 16 17 19 20 21 20 18 17 15 15 15 14 13 12 12 12 11 10 9 8 7 6 5 4 3 2 2 2 2 2 2 2 2 3 5 6 6 7 7 7
15 20 20 18 17 16 14 14 13 11 10 9 11 14 16 16 17 19 20 20 20 20 20 20 20 20 21 22 21 19 18 17 16 16 14 13 12 12 13 12 11 10 9 8 7 6 6 5 4 3 3 3 3 3 3 3 4 4 5 5 5 6 6
16 21 20 18 18 16 14 14 13 12 12 11 11 13 14 16 16 18 20 21 21 21 22 22 21 22 23 23 21 20 19 18 18 16 15 14 14 13 13 12 11 10 10 9 9 8 7 6 4 4 4 4 4 4 5 5 5 6 6 6 6 5 6
16 20 19 18 18 16 15 14 14 14 14 12 12 13 14 15 16 18 20 21 21 20 20 21 22 23 23 22 21 20 19 19 19 17 16 15 14 13 13 12 11 10 10 10 9 8 7 6 4 4 4 4 5 5 6 7 7 7 8 8 8 7 7
16 18 18 18 17 16 14 14 15 16 16 14 14 14 14 14 15 17 20 20 20 19 20 21 22 23 23 22 22 21 21 21 20 19 18 16 15 14 14 13 12 12 11 9 8 8 7 6 5 4 4 5 6 6 7 8 9 9 10 10 10 10 9
17 17 19 19 18 16 15 15 16 18 18 16 15 15 13 12 14 16 19 20 19 19 19 19 20 21 22 22 22 22 22 21 20 19 18 17 17 16 16 15 13 12 11 9 9 8 7 6 5 5 5 6 7 8 9 9 10 11 11 11 12 12 11
15 17 20 20 18 17 16 15 18 20 21 19 18 17 14 12 13 16 18 19 19 19 18 17 18 19 20 21 22 22 22 21 20 19 18 17 17 18 17 15 14 13 12 10 9 8 7 6 6 6 7 7 9 10 10 11 11 12 13 13 13 13 13
15 18 20 21 19 18 16 16 20 23 23 21 19 16 14 13 14 15 16 17 18 19 18 17 18 19 20 20 20 21 21 21 20 19 18 17 17 17 16 15 14 13 12 11 10 9 8 8 8 8 8 9 10 11 12 12 13 13 14 14 14 13 13
17 18 19 20 20 18 17 17 20 23 22 21 18 16 16 16 15 15 16 17 18 19 19 18 19 20 21 21 20 20 20 20 20 19 18 18 17 16 15 14 14 13 12 11 10 9 8 8 8 9 9 9 10 11 12 13 14 14 15 15 15 14 14
19 19 19 20 20 18 18 19 21 23 22 20 17 17 18 17 16 16 16 17 18 19 20 20 20 21 20 21 21 21 21 20 20 19 19 18 17 16 14 14 13 12 11 10 9 8 9 9 8 8 9 10 11 12 13 14 14 15 15 16 16 15 14
19 18 19 21 21 20 20 22 23 22 20 18 18 18 18 18 17 16 14 16 18 19 20 20 20 21 21 21 21 20 20 19 19 19 18 18 16 15 14 13 11 11 10 9 9 9 9 9 8 8 9 10 11 12 13 14 14 15 15 15 15 15 14
18 17 18 20 21 23 24 23 22 21 18 18 19 19 19 20 19 16 14 15 16 18 19 20 20 22 22 22 21 20 20 19 18 18 18 18 17 15 14 12 11 10 10 10 10 10 9 9 9 9 10 10 11 12 13 13 13 14 14 14 13 13 12
17 17 17 18 20 24 26 25 23 21 20 19 20 20 21 21 19 16 14 14 15 17 19 20 21 22 22 21 21 21 21 20 20 20 19 18 17 16 14 13 12 11 11 11 11 10 10 10 10 9 9 10 11 11 12 12 12 11 11 11 11 10 10
16 17 18 19 19 19 24 28 27 25 23 21 21 22 22 21 19 16 14 13 15 17 19 20 20 21 21 21 20 20 20 21 21 20 19 17 15 14 13 13 12 12 12 11 11 11 11 11 10 9 9 10 10 10 10 10 10 9 8 8 8 7 7
16 16 18 19 17 16 23 29 31 29 26 24 23 24 23 20 18 16 14 14 16 18 19 20 20 20 20 19 20 20 20 20 19 17 16 14 13 13 12 12 13 13 12 12 12 12 12 11 9 8 8 9 9 9 9 8 7 6 5 4 4 4 4
17 16 17 18 16 18 25 29 31 31 28 25 25 25 23 20 17 15 13 12 14 17 19 20 20 20 19 18 19 19 20 19 17 15 14 13 13 13 13 13 13 13 12 13 13 13 12 11 9 9 9 9 8 8 8 7 6 5 3 3 2 1 1
19 16 17 18 17 21 26 28 29 30 27 24 24 24 23 20 17 15 14 12 13 16 17 17 18 18 18 17 18 18 19 19 17 15 14 13 13 14 14 14 14 14 13 13 13 12 12 11 10 10 9 9 9 8 7 6 5 4 3 3 3 2 1
19 18 18 20 20 23 26 26 27 27 24 21 21 21 22 20 18 17 14 13 12 13 14 15 15 15 16 16 16 17 17 18 18 16 14 13 13 14 15 15 15 15 14 13 12 13 13 12 11 11 10 9 9 8 7 6 5 4 4 4 4 3 2
18 18 18 21 22 24 26 26 26 26 25 23 21 21 21 21 19 18 16 15 14 13 13 13 13 14 14 13 13 13 14 15 15 14 13 12 13 14 14 15 16 15 14 14 14 14 14 13 13 12 10 10 10 9 8 7 6 5 5 5 4 4 3
20 21 21 23 24 25 26 28 28 28 27 26 24 24 24 24 22 22 21 20 18 16 15 14 14 14 14 13 12 12 12 13 13 12 12 13 13 13 14 15 16 17 17 16 16 15 14 14 13 13 12 11 11 10 8 8 7 7 6 5 5 4 3
22 23 24 24 26 27 28 30 31 30 29 28 27 27 27 27 26 26 25 23 22 20 19 18 18 17 16 14 14 13 13 13 13 14 14 15 15 14 14 15 17 18 19 18 17 16 16 16 15 14 13 12 12 11 9 9 8 7 7 7 7 6 6
21 21 21 22 23 25 27 29 30 31 30 29 29 29 29 30 29 29 27 26 25 24 23 22 20 19 18 16 15 15 14 14 14 15 15 15 16 16 15 16 17 19 21 20 19 19 18 17 16 14 13 13 13 11 10 10 9 9 9 10 10 9 7
20 19 19 19 19 19 20 22 23 25 26 27 28 29 30 31 31 31 30 30 28 26 25 23 22 20 19 18 16 16 15 15 15 15 15 16 16 16 16 18 19 20 22 22 21 20 19 18 17 16 16 16 14 12 12 12 11 11 11 12 13 13 11
21 19 18 17 18 18 18 17 18 19 21 23 25 26 27 27 28 29 29 28 27 26 25 23 21 20 20 19 18 17 17 17 16 16 16 16 15 15 17 20 21 22 23 24 23 22 21 20 20 20 19 17 15 14 15 14 13 13 13 14 15 16 16
24 21 19 17 17 17 17 17 17 18 19 20 21 22 23 23 24 24 24 24 24 23 22 21 20 20 20 19 19 18 18 18 18 17 16 16 16 15 17 20 23 24 24 24 24 23 23 23 22 21 19 18 16 16 16 15 15 14 14 15 16 17 17
27 25 22 19 18 17 17 18 18 18 18 19 20 20 21 21 22 22 23 23 23 22 21 20 21 21 21 21 20 19 20 20 20 19 17 17 17 16 16 18 22 25 24 24 24 24 24 24 22 21 20 19 18 17 17 16 16 16 16 17 18 18 19
29 28 26 23 21 20 20 20 19 19 19 19 20 21 22 23 23 24 24 24 24 23 23 23 23 23 22 22 21 20 20 21 21 21 19 19 19 17 16 16 19 22 23 23 24 25 24 24 23 22 21 21 20 19 18 18 18 19 19 20 20 21 21
32 31 29 26 25 24 23 22 21 20 20 20 22 24 25 25 25 25 25 25 25 25 25 25 25 25 24 23 23 22 21 22 23 23 21 20 19 18 17 16 16 19 21 22 24 24 24 24 24 23 23 23 22 21 21 21 22 22 22 22 21 21 21
31 31 30 29 28 28 26 25 24 22 21 21 23 25 26 26 26 25 25 25 25 26 26 25 25 25 25 25 25 24 24 24 25 25 24 22 21 20 19 18 17 18 19 20 22 22 23 23 23 23 24 24 24 24 24 24 24 23 22 22 22 22 22
30 30 29 29 30 29 27 26 24 23 22 22 23 24 25 25 26 26 25 25 25 26 26 26 26 27 27 27 27 27 27 27 28 28 27 25 23 22 21 20 20 19 19 20 20 20 21 21 22 22 23 23 24 25 25 25 25 24 23 23 23 23 24
34 32 31 30 30 30 28 27 26 24 23 23 23 23 23 23 24 25 25 26 26 26 26 26 27 27 28 28 29 29 29 29 30 30 29 29 27 26 24 23 23 22 21 21 20 20 20 20 21 22 22 22 23 24 24 25 25 24 24 24 24 25 26
39 37 35 34 34 34 32 31 30 27 25 25 24 24 23 23 23 23 24 25 26 26 26 26 27 27 27 28 28 28 29 30 31 32 32 32 32 31 29 27 26 25 24 24 23 22 22 22 22 23 23 23 24 24 25 26 26 25 24 25 26 27 28
41 39 38 39 40 40 38 36 34 32 30 29 27 26 26 25 24 24 24 24 25 25 26 26 27 27 27 27 27 27 28 29 31 32 33 34 35 34 32 30 29 28 27 27 26 25 25 25 25 26 26 26 26 27 28 28 27 27 27 28 29 30 30
41 39 39 42 44 44 43 41 39 36 34 33 31 29 28 28 27 26 25 25 25 25 26 26 26 27 26 26 26 26 27 28 29 30 32 33 34 34 33 32 32 30 30 30 30 29 29 28 28 29 29 29 30 31 31 31 30 30 30 31 32 33 34
40 36 35 39 44 45 44 43 42 40 37 36 35 32 30 29 29 28 27 27 26 26 26 27 27 27 27 27 27 27 27 27 28 29 30 30 31 31 32 32 33 32 32 33 33 33 32 31 31 31 32 32 33 34 34 34 33 33 34 35 36 37 37
41 37 35 36 39 42 42 42 43 42 40 39 37 36 33 32 31 30 29 29 28 27 27 28 28 28 28 29 28 29 29 29 29 30 30 30 30 30 31 31 32 33 34 34 35 35 35 35 34 34 34 35 35 36 36 36 36 37 37 37 38 38 39
43 41 38 37 38 39 40 40 41 42 42 41 39 38 37 34 33 32 31 30 30 29 28 29 29 29 29 30 30 30 30 30 30 30 31 31 30 30 31 31 32 33 34 35 36 36 37 37 37 37 37 37 37 37 38 38 39 39 39 39 40 40 41
45 43 40 37 37 38 38 39 40 41 42 43 42 40 39 37 35 34 33 32 32 31 30 30 30 30 30 31 31 30 30 31 31 31 31 31 31 31 32 33 33 34 35 35 36 37 38 38 39 39 39 39 39 39 40 40 41 41 41 42 42 43 44

ECMWFFLT1_500_spd_051.txt.gz
Wind_Speed
24 24 24 22 21 19 18 18 17 15 14 13 14 16 18 19 20 20 20 19 18 17 16 16 17 17 18 19 20 20 20 19 18 18 17 16 16 16 17 17 17 16 14 12 11 9 8 7 6 6 5 4 4 3 3 4 4 5 5 6 7 8 9
28 28 26 24 23 20 20 21 20 18 15 14 14 16 18 20 20 20 20 19 19 19 18 17 17 18 19 20 20 20 20 19 19 18 17 16 16 16 18 18 17 17 15 13 11 10 9 8 7 6 5 4 4 3 2 1 1 2 2 3 4 5 6
29 30 28 26 24 22 22 23 21 18 16 14 13 15 17 19 20 20 20 20 20 20 19 19 18 19 20 21 21 21 21 20 20 19 18 17 17 17 18 18 18 17 15 13 12 11 10 9 8 7 6 5 4 3 3 3 2 2 1 1 2 2 3
27 29 28 26 25 24 23 24 22 19 17 15 13 14 17 20 21 22 22 22 21 20 20 19 20 20 21 22 22 22 22 21 21 20 19 19 19 19 19 19 18 17 16 15 14 13 12 10 9 8 7 6 5 4 3 4 4 4 4 4 4 4 4
23 26 27 26 25 26 26 25 24 22 19 17 15 15 18 21 23 23 23 23 22 21 21 22 22 22 22 22 22 22 22 22 22 22 21 20 20 20 20 19 19 18 18 17 16 14 13 11 10 9 8 7 6 5 5 5 5 5 5 5 5 5 5
19 23 26 26 26 27 26 25 24 23 20 18 17 16 17 20 21 22 22 22 22 22 22 23 23 23 22 21 22 22 22 23 23 22 21 20 19 19 20 20 20 20 19 18 16 15 13 12 11 10 9 8 7 6 6 6 7 7 7 6 6 6 6
18 21 25 27 28 27 25 25 24 23 21 19 19 19 19 19 20 21 22 22 22 22 22 21 21 21 22 22 22 22 22 23 23 22 21 20 19 20 21 21 20 20 19 18 16 15 14 12 12 11 9 8 8 7 7 8 8 8 8 8 7 7 7
20 21 24 27 27 26 25 25 24 22 22 21 22 21 19 18 20 21 21 22 22 23 22 20 19 19 21 22 22 22 23 24 24 23 22 20 20 21 21 21 20 19 17 17 16 15 14 13 12 11 10 9 9 8 8 8 9 10 10 9 9 8 7
21 22 24 27 27 26 26 26 23 22 22 23 23 21 18 18 19 20 21 22 23 23 22 20 19 19 21 22 22 23 24 25 25 24 22 21 21 22 21 20 19 18 17 17 16 15 14 13 13 12 11 10 9 9 9 9 10 11 11 11 10 10 9
23 22 24 29 30 28 27 26 24 24 23 24 23 20 19 19 20 20 22 24 24 24 23 22 20 21 21 22 23 24 25 25 25 23 22 21 22 21 21 20 19 18 18 18 16 16 15 14 12 11 10 10 10 10 10 10 11 11 11 12 12 11 11
26 24 24 30 34 31 29 27 26 26 25 25 24 20 19 20 21 22 22 23 24 24 24 23 22 22 22 23 24 24 24 24 23 22 21 22 22 22 21 21 20 20 19 18 17 16 15 14 13 12 12 12 11 11 11 11 12 12 13 13 13 12 11
29 28 27 32 36 34 31 28 27 26 25 25 23 21 21 22 23 22 22 23 25 25 24 23 22 22 23 24 25 24 24 24 23 22 23 23 23 22 21 21 21 20 20 18 17 16 15 14 14 13 14 14 13 12 11 12 12 13 13 13 13 12 12
31 31 30 32 35 34 32 29 26 26 26 25 24 23 23 23 23 22 22 23 24 24 24 23 22 22 23 25 25 26 25 25 25 24 25 24 23 22 21 21 21 20 19 18 17 17 16 15 15 15 16 15 13 12 12 12 12 13 13 12 12 12 11
31 33 32 32 32 32 32 29 27 27 27 26 26 26 25 24 23 23 23 23 23 23 22 22 22 22 24 25 26 26 26 26 26 26 26 25 23 22 21 21 20 20 19 18 18 18 17 17 17 17 16 14 13 12 12 11 11 11 11 10 10 10 11
28 30 32 32 31 30 30 29 28 28 28 28 27 27 25 24 24 24 23 22 21 21 21 22 22 23 25 26 26 26 26 27 27 27 26 25 23 22 22 21 21 20 20 19 19 18 18 18 18 17 15 14 14 13 12 11 10 10 9 9 9 9 10
24 25 28 29 29 29 29 29 30 30 29 28 27 26 25 26 26 24 22 21 20 20 21 22 23 24 25 26 26 27 28 28 28 28 27 26 24 23 23 22 21 21 21 20 20 20 20 19 18 16 16 15 15 13 12 10 9 8 8 8 8 8 9
23 23 25 27 29 30 30 30 32 32 29 27 26 24 25 27 26 23 21 20 19 19 21 22 23 24 25 26 27 28 28 28 28 27 27 26 25 24 23 22 22 22 21 21 20 21 21 19 18 17 17 17 16 14 12 10 9 8 8 8 8 8 8
22 23 24 27 30 31 32 34 35 33 30 28 26 24 26 28 26 23 20 19 19 20 22 23 24 24 26 27 28 28 27 27 27 26 25 25 24 23 23 23 23 22 21 20 20 21 20 19 18 19 19 18 16 14 12 11 10 9 9 9 9 8 8
20 21 24 28 30 30 31 34 35 33 30 29 27 25 27 28 25 22 21 19 20 21 21 23 24 25 26 27 27 27 26 26 26 25 25 24 24 24 24 23 22 21 21 21 21 20 19 19 20 20 19 17 15 14 13 12 11 11 10 10 9 9 10
19 22 25 29 30 27 27 30 33 33 31 30 28 27 29 29 26 24 25 24 23 22 22 22 24 25 26 26 25 25 25 25 25 25 25 24 24 23 22 21 21 22 22 21 20 19 19 20 20 20 19 17 16 15 14 13 13 13 13 12 11 11 11
19 24 30 31 29 27 27 29 31 32 32 32 31 30 31 31 29 28 28 27 25 25 24 23 24 25 25 23 23 22 22 23 23 23 23 22 22 20 19 19 20 21 22 22 21 21 21 21 21 20 19 19 18 17 16 15 15 16 15 14 14 13 12
20 24 31 33 32 30 29 29 30 32 34 34 33 32 33 33 31 30 29 28 26 26 25 24 24 25 24 22 21 20 20 20 20 20 20 19 19 19 18 18 19 21 22 23 23 22 21 21 21 21 20 19 19 18 17 17 17 17 17 17 16 14 12
22 26 31 34 34 34 33 32 33 34 35 36 35 35 35 34 34 32 30 29 27 26 26 25 24 24 23 22 21 20 19 19 19 19 18 18 18 18 18 18 19 20 22 23 24 24 23 22 23 23 21 21 19 18 18 19 19 19 18 18 17 15 13
25 27 32 35 37 39 38 37 37 37 37 38 38 36 35 34 34 32 30 29 28 27 27 26 25 25 24 22 22 21 21 20 20 20 19 18 18 19 19 19 19 21 22 23 25 26 26 26 26 25 24 23 21 20 20 21 21 20 19 19 18 17 16
27 28 30 34 37 41 41 39 38 38 38 39 37 34 33 34 34 32 31 30 29 28 28 27 27 27 27 26 24 23 22 21 21 21 20 20 19 20 21 21 20 21 22 24 25 27 29 29 28 28 27 25 23 22 22 22 22 21 20 19 19 18 18
29 29 28 29 31 35 37 37 36 36 36 36 35 34 34 35 35 34 33 32 31 30 29 29 29 29 28 28 27 25 24 23 23 23 22 21 21 21 22 21 21 22 23 25 27 29 30 31 30 29 28 26 25 24 23 23 22 22 21 20 19 18 18
31 31 29 27 25 26 29 32 32 32 32 32 33 34 35 35 36 36 36 36 34 33 32 32 31 31 30 29 28 27 26 25 26 25 24 23 23 23 22 22 21 21 22 25 28 30 31 31 31 30 29 28 27 25 24 24 24 23 23 21 20 20 20
32 33 32 28 25 24 25 27 28 29 30 32 33 34 34 35 36 37 38 38 37 36 35 35 33 32 31 30 29 29 28 27 27 27 27 26 25 24 23 22 21 20 21 23 27 30 30 30 30 30 30 30 28 27 26 27 26 25 25 24 23 23 23
33 33 32 30 28 26 25 26 28 30 31 32 33 34 35 36 37 37 38 39 39 38 38 37 35 34 32 31 30 30 29 29 28 28 28 28 27 26 25 23 21 21 20 20 23 27 29 29 29 29 29 29 28 28 28 29 29 29 28 27 26 26 25
34 34 32 30 29 27 27 27 28 29 31 31 33 34 35 36 37 38 38 39 40 40 39 39 38 37 36 35 34 33 33 32 31 30 29 29 29 28 27 26 24 22 21 20 20 23 26 28 29 29 28 28 29 30 30 30 31 31 30 29 28 27 27
35 34 32 30 29 28 28 28 28 28 29 30 32 33 34 36 37 38 38 39 40 41 41 41 40 39 39 38 37 36 36 35 34 32 31 30 31 31 31 30 29 26 23 21 20 19 22 25 27 28 29 29 30 30 31 32 32 31 31 30 30 29 29
34 33 31 29 29 29 30 30 29 28 28 28 29 32 33 35 36 36 37 38 39 40 41 41 42 41 41 40 39 38 38 37 36 35 34 34 34 34 34 33 32 30 27 24 22 20 20 21 24 26 28 29 29 30 31 32 32 31 31 31 32 32 32
35 34 33 31 30 31 31 32 31 30 28 27 27 29 31 33 34 35 36 36 37 38 39 40 41 42 42 42 41 40 39 39 39 39 39 38 37 37 37 36 35 33 30 28 25 23 22 22 22 23 24 26 28 29 30 30 30 30 31 32 33 33 33
38 37 35 34 33 32 31 32 32 31 30 28 27 28 30 31 32 32 33 33 35 36 37 38 39 40 41 42 42 42 42 42 42 42 42 42 41 40 39 39 38 35 33 31 30 28 26 25 25 24 25 25 26 28 28 28 28 28 30 31 32 32 32
41 40 38 36 36 34 33 32 33 33 33 32 30 29 30 30 30 30 29 30 30 32 33 35 36 37 38 40 41 41 42 42 42 42 42 42 42 42 42 41 40 39 37 36 35 33 31 29 28 28 28 28 29 29 28 28 29 30 31 32 32 33 33
45 43 41 39 38 37 35 35 34 35 35 35 34 32 31 30 30 29 27 27 28 29 29 30 32 33 34 35 36 37 37 37 37 37 37 38 39 40 41 41 41 41 40 40 40 38 36 34 32 31 32 32 32 32 32 32 33 34 34 35 35 36 36
48 45 43 42 40 39 38 37 36 35 35 36 36 35 33 31 30 29 27 26 27 28 28 29 30 30 31 32 32 33 33 33 32 32 32 33 34 35 36 37 38 39 39 39 39 39 38 37 36 36 35 35 35 35 36 36 36 37 37 37 38 38 39
50 48 46 44 43 41 40 39 37 36 37 38 39 38 36 33 32 31 30 29 28 29 29 30 30 30 30 31 31 31 31 31 31 31 31 31 31 32 33 34 35 36 36 37 37 37 38 39 39 39 39 39 39 39 38 38 38 39 39 39 39 40 41

ECMWFFLT1_500_spd_054.txt.gz
Wind_Speed
22 22 22 23 23 22 21 19 18 18 16 16 17 18 19 21 22 23 22 20 19 18 19 20 21 21 21 22 23 23 22 20 19 19 18 16 15 14 14 16 17 16 15 14 13 12 12 12 11 11 10 9 9 9 9 9 9 10 10 10 11 11 11
29 27 25 25 25 23 22 22 22 20 19 18 18 18 19 20 21 22 23 22 21 19 20 21 21 22 22 23 24 23 22 21 20 20 18 15 14 14 15 18 18 17 16 15 14 13 13 12 12 11 10 10 9 8 7 7 7 7 7 7 7 8 8
33 31 29 28 27 24 22 23 24 22 21 20 18 17 18 19 21 23 23 24 23 21 21 21 22 23 24 24 24 24 23 22 22 21 19 16 15 16 17 19 19 19 17 16 15 15 14 13 12 11 10 10 9 8 7 7 6 5 4 4 4 4 4
33 32 31 30 29 26 23 24 25 24 23 21 19 18 19 20 21 23 24 25 25 23 22 22 23 24 25 25 25 24 24 23 23 22 20 18 17 17 18 19 19 19 18 17 16 16 15 13 12 11 11 10 9 9 8 7 6 6 5 4 3 2 2
32 33 33 31 30 28 26 26 27 26 24 22 21 20 20 22 23 24 25 26 26 25 25 24 25 26 26 26 26 26 25 25 25 24 22 20 19 18 19 20 20 20 19 18 17 17 15 14 13 12 11 11 10 9 9 8 7 7 6 5 4 4 3
30 31 32 31 29 28 28 29 29 28 26 24 23 22 21 22 23 23 25 26 27 27 27 27 26 26 27 27 27 27 27 26 26 26 24 22 20 19 20 21 21 21 21 19 18 17 16 14 13 13 12 11 11 10 9 9 8 7 7 6 6 5 4
26 29 31 31 30 28 29 31 31 30 28 26 25 25 24 23 23 24 25 26 27 27 27 26 25 25 25 27 28 28 27 27 26 26 25 22 20 20 21 21 22 22 21 20 19 18 16 14 14 13 12 12 11 11 10 9 9 8 7 7 7 6 6
22 25 28 30 29 29 29 32 33 32 31 30 29 27 26 25 24 24 24 25 26 27 26 26 26 25 25 26 27 27 27 28 27 27 25 23 21 21 21 22 22 22 21 20 19 18 16 15 14 14 13 13 12 11 10 10 10 9 8 8 7 7 7
21 22 24 25 26 28 29 31 34 34 34 33 30 28 26 25 24 24 24 25 26 25 25 26 27 27 26 26 25 26 27 28 28 27 26 24 23 22 22 23 23 23 22 21 20 18 17 16 15 15 14 14 13 12 11 11 11 10 10 9 8 8 8
25 23 22 22 23 25 29 32 33 34 34 33 31 29 27 25 24 24 25 26 26 26 26 27 28 28 27 26 26 26 27 27 27 27 25 24 24 24 24 24 24 23 23 22 20 19 18 17 17 17 15 15 14 13 13 13 12 12 10 9 9 9 9
28 27 25 24 24 24 28 31 32 32 33 32 32 31 28 26 25 25 25 26 26 27 28 28 28 28 27 27 27 27 27 27 27 27 26 25 25 25 26 25 25 24 23 22 21 20 19 19 18 17 16 16 15 14 14 13 13 13 12 11 11 10 10
31 31 30 29 29 28 29 31 31 31 32 32 32 31 28 27 26 25 26 27 28 29 30 30 29 27 27 27 27 27 27 27 27 26 26 26 26 27 27 26 25 24 23 23 23 22 21 20 19 18 17 17 16 15 15 14 14 13 13 12 12 12 12
37 37 34 33 34 34 32 31 31 31 32 33 33 32 30 28 27 26 26 27 28 30 31 31 30 28 27 26 26 26 27 26 26 26 26 27 27 28 28 27 26 25 25 25 24 23 22 21 20 19 18 17 17 16 16 14 14 14 13 13 14 14 14
41 40 38 36 38 39 36 33 31 32 32 34 34 33 32 30 28 28 27 28 29 31 32 31 30 29 27 26 26 26 26 27 27 28 28 29 29 29 29 27 27 26 26 26 25 24 23 22 21 20 19 18 18 17 16 14 14 15 15 15 15 15 15
38 39 40 41 42 42 39 35 34 34 33 33 34 34 33 32 30 30 29 29 29 30 32 32 31 29 27 26 25 26 27 28 29 29 30 30 30 30 29 28 28 27 27 26 25 24 24 23 21 20 19 19 18 17 15 15 15 16 16 16 16 16 16
36 39 41 43 44 43 39 37 37 36 34 34 34 34 34 33 32 30 29 29 29 30 31 31 31 29 27 25 25 27 28 30 30 30 30 30 30 30 29 29 28 27 27 26 26 25 24 22 21 20 20 20 19 17 16 16 16 16 16 16 16 16 15
34 38 41 43 43 42 39 38 39 38 36 34 34 34 34 33 31 29 29 28 28 29 30 30 29 28 26 26 26 28 30 31 31 32 32 31 31 31 30 29 28 27 27 27 26 25 24 22 21 21 21 21 20 19 18 18 17 16 16 16 15 15 15
33 38 41 42 41 39 37 37 39 38 35 33 33 34 34 33 30 29 29 28 27 28 29 30 29 28 27 27 28 29 30 31 32 32 32 32 32 31 30 28 27 26 26 26 25 24 23 22 22 22 22 21 20 19 19 19 17 15 15 15 15 15 15
31 35 38 40 39 37 36 36 36 36 34 32 33 34 33 31 29 28 27 26 27 28 29 29 29 28 28 28 28 29 30 32 32 32 32 32 31 30 29 27 26 25 25 24 24 24 23 22 22 22 21 20 20 20 20 18 17 15 15 15 15 15 15
29 31 33 36 36 36 36 35 34 34 34 33 33 33 32 31 30 30 29 28 28 29 28 28 28 28 29 28 28 29 30 31 31 31 31 31 30 29 27 25 24 24 24 24 23 22 22 22 22 21 20 20 21 21 20 19 17 16 16 16 16 16 15
30 30 30 31 34 36 36 35 33 33 34 34 34 34 33 32 33 33 32 31 29 29 28 27 27 28 28 28 28 29 30 30 30 30 30 29 29 27 26 25 25 25 25 24 23 22 22 22 21 21 21 21 21 21 21 19 18 18 17 17 17 16 15
29 28 28 29 31 33 34 34 34 35 36 36 36 35 34 33 35 35 33 31 30 29 28 28 28 28 29 29 29 29 29 29 29 29 29 28 28 27 26 26 26 26 26 25 24 23 23 22 21 21 22 22 22 21 21 21 20 19 19 19 18 16 15
27 25 26 28 30 32 34 35 36 37 39 39 38 36 34 34 36 37 34 32 30 29 29 29 28 29 29 29 29 29 29 29 29 28 28 28 27 27 26 26 25 25 25 25 24 24 24 23 23 23 23 23 22 22 23 22 22 21 21 21 19 16 15
26 23 25 28 30 33 35 37 38 38 40 41 40 37 35 35 38 38 35 32 30 29 29 28 28 29 29 28 28 28 27 28 28 27 27 26 25 24 24 24 24 24 24 24 24 25 25 25 25 25 24 24 24 25 25 25 24 23 23 22 20 17 17
27 22 23 28 31 34 36 36 35 36 39 41 41 39 38 38 39 39 36 33 32 30 29 28 28 29 29 28 27 26 26 25 25 25 24 23 23 23 23 23 23 23 23 23 24 25 26 27 26 26 26 25 26 27 27 26 26 24 23 23 21 19 20
29 22 23 29 33 34 35 34 33 34 36 38 40 41 40 39 39 38 35 34 33 32 30 30 30 30 29 28 27 25 24 24 24 23 23 23 23 23 24 24 24 24 24 23 23 24 26 27 27 27 28 28 28 28 28 28 27 25 24 24 23 21 22
29 23 24 31 35 35 35 34 34 34 34 35 38 41 40 38 36 35 35 34 33 32 31 31 30 30 29 28 26 25 24 23 23 23 23 23 24 23 23 24 25 25 25 24 24 24 25 26 27 28 30 30 30 30 29 29 28 27 26 26 24 23 23
27 24 27 34 38 37 37 36 36 35 34 34 37 40 40 36 34 34 35 34 33 33 32 32 32 31 30 29 27 26 25 25 24 24 25 25 25 24 24 24 24 25 25 25 25 24 24 25 27 29 30 31 32 31 30 29 29 29 28 27 26 25 25
28 26 29 37 40 40 39 38 38 38 36 35 36 39 38 35 33 34 35 34 34 33 33 33 33 33 33 32 31 30 28 27 27 26 26 27 27 27 26 26 25 25 25 25 24 23 23 24 25 28 30 31 31 31 31 31 31 31 30 28 28 27 26
30 28 31 37 41 42 42 42 42 41 38 36 36 37 37 35 35 36 36 36 37 36 36 35 35 34 35 35 35 33 32 30 30 29 28 29 29 29 29 28 27 26 26 25 23 22 21 22 23 25 27 29 30 31 32 33 33 32 32 31 30 29 28
32 31 33 38 41 43 45 45 45 43 40 38 36 35 34 35 36 36 36 37 38 37 38 39 38 37 37 38 37 37 35 34 33 32 32 32 31 31 31 31 30 28 27 26 24 22 21 21 21 22 24 27 29 30 31 33 33 33 33 32 32 30 29
35 33 35 39 41 42 43 42 41 40 39 37 35 33 34 35 35 35 36 37 37 37 38 40 41 41 41 41 40 40 38 37 36 35 35 35 34 33 33 33 31 30 29 28 26 24 23 22 21 21 22 25 27 29 30 31 31 32 32 33 32 31 30
37 36 38 40 42 41 39 36 34 34 34 34 34 34 35 36 36 37 38 39 40 40 41 41 42 43 43 43 43 43 42 40 39 38 37 37 37 36 35 34 33 31 31 31 30 28 26 25 24 22 22 23 25 28 30 30 30 31 32 33 33 32 33
39 38 40 42 43 43 40 38 35 33 32 32 34 35 37 38 39 40 40 40 42 43 43 43 44 44 44 44 44 45 44 43 42 41 40 40 39 39 37 36 34 33 33 33 33 33 31 30 28 26 25 24 25 26 28 29 29 30 31 33 33 33 33
42 40 40 42 44 44 42 40 38 36 33 32 33 35 36 38 39 39 40 41 43 43 44 44 45 46 46 46 46 45 45 44 44 43 43 43 42 41 40 39 37 36 35 36 36 37 36 35 33 31 30 29 28 27 26 26 27 29 30 31 32 32 32
45 43 42 43 44 44 43 41 39 37 34 33 33 34 34 35 36 37 38 40 41 42 42 43 44 46 47 48 48 48 47 47 46 46 46 46 46 44 43 43 42 41 40 39 39 39 39 38 37 35 34 33 31 30 29 28 28 29 29 30 30 31 32
47 46 45 44 44 43 42 40 38 35 33 33 34 34 33 33 33 34 35 37 39 40 41 42 43 45 46 47 48 48 49 49 49 49 49 49 48 47 47 47 47 46 45 44 43 42 42 41 41 39 38 36 35 33 32 32 32 32 32 32 32 32 33
48 47 47 46 44 43 42 40 37 35 34 34 35 35 34 34 33 33 33 34 36 37 38 40 42 43 44 45 45 46 47 48 48 48 49 48 48 49 49 48 48 48 47 47 46 45 44 43 43 42 41 40 39 38 36 35 34 34 34 34 35 35 36

ECMWFFLT1_500_spd_057.txt.gz
Wind_Speed
31 30 29 28 25 22 18 16 15 16 18 17 16 18 20 23 26 27 25 23 23 23 24 26 27 27 27 27 27 27 26 23 21 21 19 16 15 14 15 16 16 15 15 14 13 13 13 14 14 14 14 14 15 14 14 14 14 13 13 12 12 12 11
33 32 31 30 28 24 21 20 19 19 20 18 17 18 20 22 25 27 26 25 24 24 25 26 27 28 28 28 28 27 26 24 23 23 20 17 14 13 14 17 17 16 16 15 14 14 14 15 15 15 15 14 14 14 14 13 13 12 11 11 11 11 10
36 34 33 32 30 26 24 23 21 21 21 19 17 16 18 21 24 27 28 26 26 25 26 27 28 29 30 30 29 28 27 25 25 24 22 19 16 15 16 17 18 18 17 16 15 15 16 16 15 15 15 14 13 13 13 12 11 10 9 9 8 8 8
37 35 34 34 32 29 27 26 24 23 22 21 18 17 19 22 25 28 28 27 26 26 26 27 29 30 31 31 31 29 28 27 27 26 24 22 19 17 17 18 19 19 18 18 17 17 17 17 16 15 15 14 14 13 12 11 10 9 8 7 6 6 5
37 36 35 35 33 31 30 29 28 26 25 24 22 20 21 24 26 28 29 28 27 27 28 29 30 31 32 32 32 31 30 29 29 28 26 24 20 18 18 18 19 20 19 19 19 19 18 18 17 16 16 15 14 13 12 11 10 9 8 7 6 5 5
37 37 36 35 34 32 30 30 30 28 27 26 24 22 23 25 27 28 30 30 29 28 28 29 30 31 32 33 33 33 32 31 30 30 28 25 22 20 19 20 21 21 20 20 20 20 19 18 17 16 15 15 14 13 12 11 11 10 9 8 7 7 6
38 38 36 35 34 32 30 30 30 30 29 28 27 26 26 27 28 29 30 30 30 29 28 28 28 30 31 32 33 33 33 32 31 31 29 26 23 22 21 21 21 22 22 21 21 20 19 18 17 16 16 15 14 13 12 12 11 10 10 9 8 8 8
39 38 37 36 34 31 30 30 30 31 31 31 31 29 28 28 28 30 30 30 30 30 29 28 28 28 29 30 31 32 33 33 33 32 31 28 25 23 23 22 22 22 22 22 22 21 20 19 18 17 17 16 15 14 13 13 12 11 11 10 10 9 9
38 38 37 36 35 33 31 31 31 32 33 33 32 31 29 29 29 30 30 30 30 30 29 29 29 28 29 29 30 32 33 34 34 33 32 29 27 25 24 24 23 23 22 23 23 22 21 20 18 18 18 17 16 15 15 14 13 13 12 11 11 10 11
38 37 37 36 35 34 32 32 32 33 34 33 33 33 31 30 30 30 31 30 30 29 30 31 30 30 29 29 30 32 33 33 34 34 32 30 28 27 26 25 25 24 24 24 24 23 22 20 19 19 19 19 18 17 17 16 15 14 13 12 11 11 12
37 36 35 36 35 33 32 32 32 31 32 33 34 35 33 31 31 31 31 30 29 29 30 31 32 31 30 30 30 31 32 32 33 33 32 31 29 28 28 27 26 25 25 25 25 24 23 21 20 20 21 21 20 19 18 16 16 15 13 12 12 12 12
38 36 36 36 34 32 31 31 31 30 30 32 35 36 34 32 30 30 31 30 30 30 30 31 32 32 31 31 30 30 30 31 32 32 32 31 31 30 29 28 27 27 27 26 26 25 24 22 22 22 23 22 21 19 18 17 16 15 14 13 12 12 13
40 39 37 36 33 31 30 30 30 30 30 32 35 37 35 32 30 30 30 31 31 31 31 31 32 33 33 32 31 30 30 30 30 31 32 32 32 32 31 29 29 28 28 27 27 26 24 24 24 24 24 23 21 20 18 17 16 15 14 14 13 14 14
44 43 40 37 35 33 31 30 30 30 31 31 34 37 36 34 32 31 31 31 32 32 31 32 32 33 34 33 32 31 29 29 30 31 32 34 34 33 32 31 30 30 29 29 28 27 26 25 25 25 25 23 21 20 19 17 16 15 15 15 15 15 16
48 46 43 41 39 36 34 33 32 32 31 31 33 35 35 34 33 32 32 33 33 33 33 33 33 33 34 34 32 32 31 31 31 31 33 34 34 33 32 31 31 31 30 29 28 28 27 27 27 26 25 24 22 20 19 17 16 16 17 17 16 16 17
49 48 47 45 42 40 37 36 35 35 33 32 32 33 34 34 34 34 34 34 34 34 34 33 34 34 34 34 33 33 33 33 33 32 33 33 33 32 32 32 32 32 30 30 29 29 29 28 27 27 26 24 22 21 19 17 17 18 18 18 17 17 17
50 50 49 48 47 46 42 39 38 38 37 34 33 33 33 34 34 34 36 36 35 35 34 34 34 34 34 34 34 34 35 34 33 33 33 33 33 32 32 32 33 32 31 30 30 30 30 28 27 27 26 24 23 21 19 19 19 19 19 18 17 17 17
50 49 50 51 51 49 46 44 42 41 39 37 35 34 33 34 35 35 37 38 36 35 35 34 34 34 33 34 35 35 35 34 33 33 33 34 33 33 32 33 33 32 31 31 30 30 30 28 28 28 26 24 23 21 20 20 20 19 19 18 17 17 18
49 50 52 52 50 46 45 45 45 43 40 38 37 35 33 34 36 35 36 37 37 36 35 34 33 33 34 35 36 35 34 34 33 33 34 34 34 34 33 33 32 32 31 31 31 30 29 28 28 27 25 24 23 21 21 21 20 19 19 18 18 18 18
49 50 50 48 46 44 44 46 46 45 41 39 39 36 33 35 37 36 36 38 38 36 35 34 33 34 34 36 36 35 34 34 33 33 34 35 35 35 34 33 32 32 31 31 30 29 28 27 27 26 24 23 23 22 21 21 21 20 20 19 18 18 18
44 43 41 40 40 41 43 46 48 47 44 41 39 36 35 38 38 35 36 38 38 36 35 34 34 34 35 36 36 35 34 33 32 32 33 35 35 34 34 33 33 31 30 29 28 27 26 26 26 24 24 23 23 21 21 22 22 21 20 20 19 18 18
33 32 32 34 35 36 40 44 47 48 46 42 39 37 38 39 36 34 36 39 39 37 35 35 35 35 36 36 36 35 34 32 31 32 33 34 34 33 33 32 31 29 28 27 26 26 25 25 24 24 23 23 22 21 21 22 23 22 21 21 20 19 18
27 27 29 32 33 34 36 40 45 48 46 42 39 38 39 39 36 35 38 39 38 37 36 36 35 35 35 35 35 34 33 32 31 31 32 32 32 32 31 30 29 28 27 26 25 25 24 24 24 24 24 23 22 21 22 24 24 23 22 23 21 20 19
27 26 27 29 31 32 34 37 42 45 44 42 39 39 39 38 36 37 39 39 38 37 36 36 35 35 34 34 34 34 32 31 30 30 30 30 30 30 30 30 29 28 27 26 26 26 25 26 26 25 24 23 22 22 23 24 25 24 24 24 22 21 20
27 26 26 27 27 28 31 35 39 42 42 40 38 37 38 38 37 38 38 38 37 37 36 35 34 34 33 33 34 33 32 30 29 29 29 29 30 30 30 30 30 29 28 28 28 28 27 27 27 26 25 25 24 24 24 25 26 25 24 24 23 21 21
27 25 24 25 26 28 31 35 37 39 39 38 36 36 38 38 38 38 38 37 37 37 36 35 34 34 33 33 33 32 31 30 29 29 29 29 30 31 31 31 30 30 29 28 28 28 28 28 27 27 27 26 26 26 26 26 27 26 26 25 24 22 21
29 25 24 23 25 28 32 34 35 37 37 36 37 38 40 39 39 38 38 38 37 36 36 35 35 33 32 31 31 30 30 30 30 30 30 30 31 31 31 30 29 28 28 28 28 28 27 27 27 27 28 28 28 27 27 28 28 28 27 26 25 23 22
32 29 26 24 24 27 32 34 35 37 37 38 39 40 40 40 40 39 38 37 35 35 35 34 33 31 30 29 29 29 29 29 29 30 30 30 30 29 29 28 27 27 27 27 27 26 26 26 26 26 27 27 27 28 28 29 30 30 29 28 26 24 22
35 32 29 26 24 26 31 34 36 37 38 39 39 39 40 40 40 40 37 34 33 34 34 32 29 28 27 27 27 28 27 27 28 28 28 28 28 27 27 27 26 26 27 27 26 26 26 26 26 26 26 26 26 27 28 30 31 32 31 30 28 26 24
37 35 33 29 24 26 31 34 36 37 38 38 37 36 37 39 41 40 36 31 32 33 32 30 28 27 27 27 27 27 27 26 27 27 27 27 27 27 27 27 26 26 26 27 27 27 26 27 27 27 26 26 26 26 28 29 31 32 32 32 31 29 27
41 38 37 31 26 28 32 35 36 37 37 37 34 32 32 36 40 40 35 32 33 34 34 33 32 31 30 29 29 29 28 28 28 28 28 28 28 28 27 27 27 26 26 25 25 25 25 26 26 26 26 26 26 26 27 29 29 30 32 32 32 31 29
44 42 39 33 29 31 36 38 38 38 38 36 33 29 28 30 33 35 35 35 35 36 37 37 36 34 33 32 32 31 31 31 30 30 30 30 29 29 29 30 29 28 27 27 25 25 25 25 25 25 25 26 26 26 27 28 28 28 30 31 31 31 31
47 45 42 36 32 34 39 41 41 40 40 37 32 28 27 27 28 31 35 36 37 38 39 40 38 37 35 35 35 35 34 34 34 33 33 32 31 32 32 31 31 30 29 28 28 27 27 27 27 25 25 25 25 25 26 26 26 27 28 29 29 29 29
49 46 43 37 34 36 41 44 44 42 41 38 34 31 28 26 27 31 35 36 37 37 38 39 39 40 40 39 38 38 38 38 38 37 36 35 35 34 34 33 32 32 31 30 30 30 30 30 30 29 28 27 27 26 26 25 25 25 26 28 28 27 27
50 47 43 39 36 37 42 46 46 45 44 42 38 35 32 30 29 31 33 35 36 36 37 38 38 40 42 43 43 41 41 41 42 41 40 39 38 37 36 36 35 34 33 33 33 32 32 32 32 32 32 31 30 29 28 27 26 25 26 27 27 28 27
51 48 44 40 39 39 42 47 48 46 46 45 42 38 36 34 31 31 32 34 35 36 37 38 38 39 40 42 44 45 45 45 45 45 44 43 42 40 38 38 37 36 36 36 35 35 35 34 34 34 34 33 32 32 31 31 30 29 28 28 28 28 29
53 49 45 42 41 41 43 47 49 48 47 47 45 42 39 37 35 33 33 35 36 38 39 40 40 41 41 41 42 44 46 48 48 47 47 47 45 43 41 40 39 39 38 38 38 37 37 37 37 36 36 35 34 34 34 35 35 34 33 32 31 31 31
54 51 47 44 43 43 44 47 49 49 49 48 47 44 42 39 37 36 36 37 39 41 41 42 43 43 43 42 42 42 44 46 47 47 47 47 47 46 45 44 42 41 40 40 40 41 41 40 40 40 39 38 37 37 37 38 38 38 37 36 35 34 34

ECMWFFLT1_500_spd_060.txt.gz
Wind_Speed
34 34 35 33 30 29 25 20 18 17 16 15 15 17 21 23 26 28 28 27 27 27 28 30 31 31 32 32 32 31 28 24 22 22 20 19 19 18 18 18 18 18 17 16 14 13 13 12 12 12 12 12 12 12 11 11 10 10 9 9 9 9 8
35 36 36 34 31 30 27 23 22 21 19 17 15 15 18 21 25 28 30 29 28 27 28 30 32 32 33 33 33 32 29 26 25 23 21 19 18 18 18 18 18 18 18 16 15 14 14 13 13 13 13 13 13 13 13 12 12 11 11 10 10 9 8
35 37 36 34 32 31 28 26 23 22 20 18 16 14 16 20 24 28 31 31 30 29 29 31 32 33 34 34 34 33 31 28 26 25 23 21 19 19 19 19 19 19 18 17 16 16 15 15 14 14 15 15 15 14 14 13 13 12 11 10 9 8 7
37 38 37 35 33 32 30 27 25 23 22 19 17 15 16 19 24 28 31 32 31 30 30 30 32 34 35 35 34 33 32 29 28 27 26 24 22 20 20 20 20 20 19 18 18 18 18 17 17 16 17 16 16 15 14 14 13 12 10 9 8 6 5
38 38 38 36 34 33 31 29 27 25 24 22 20 18 17 18 22 27 31 33 32 31 31 32 34 35 36 36 35 34 33 31 30 29 27 25 23 20 20 21 22 21 21 20 20 20 20 19 19 18 18 17 16 15 15 14 13 11 10 8 7 5 4
39 39 40 37 35 33 32 30 29 26 25 24 22 20 19 18 20 25 30 33 32 32 33 34 35 36 36 37 36 35 34 33 32 31 29 26 23 22 22 23 23 23 23 22 22 22 22 21 21 20 19 18 17 16 15 14 13 12 10 9 8 6 6
40 41 41 40 37 34 33 32 31 28 27 27 26 24 22 21 20 24 30 33 33 32 32 33 33 35 36 37 37 36 35 34 34 32 30 28 25 23 23 24 24 24 24 23 23 23 23 22 22 21 20 18 17 16 15 14 14 13 12 10 9 8 7
41 42 43 42 39 36 34 34 33 31 30 30 30 27 24 22 21 23 28 32 34 32 31 32 32 33 35 36 36 36 35 35 35 34 32 30 27 25 24 24 24 25 24 24 24 24 24 23 22 21 20 19 19 18 16 16 15 14 13 11 10 9 9
42 43 43 42 40 38 36 35 35 35 33 33 32 29 26 24 22 22 26 31 34 33 31 31 32 33 34 34 34 35 35 35 35 35 34 32 29 27 25 25 25 25 25 25 25 25 24 24 23 22 21 20 20 19 18 17 16 15 14 13 11 10 10
43 43 42 41 41 40 38 37 38 37 35 34 33 32 29 27 24 23 25 30 34 34 33 32 32 33 33 33 33 35 35 35 35 35 35 33 31 29 27 27 26 26 25 26 25 25 25 25 24 22 22 21 20 20 19 18 18 17 15 14 12 11 11
45 43 42 41 41 40 39 39 39 37 35 33 34 33 31 29 27 25 25 28 32 35 35 34 33 32 32 32 33 34 34 34 34 35 35 34 33 31 30 28 27 26 26 26 26 26 26 25 24 23 22 22 22 21 21 20 19 17 16 14 13 12 12
46 44 43 41 40 40 40 39 38 36 35 34 33 33 32 30 29 27 26 27 31 35 36 36 34 33 32 32 33 32 32 32 33 35 35 35 35 33 32 30 28 28 27 27 27 27 27 26 25 24 24 24 23 23 22 21 19 18 17 15 14 13 13
47 46 44 42 41 41 40 39 38 36 35 33 33 33 33 32 31 30 28 27 29 34 36 37 36 35 34 33 32 31 31 31 32 34 35 36 36 35 33 31 30 29 29 28 28 28 27 27 26 26 25 25 25 24 23 22 20 19 18 16 15 14 14
51 49 48 46 45 43 41 39 38 35 33 33 34 34 34 33 33 32 30 28 29 32 35 37 37 36 35 34 33 31 31 31 32 34 35 36 36 35 34 32 32 31 30 30 29 28 28 28 28 27 27 26 25 25 24 23 21 20 19 17 16 15 15
53 51 50 48 46 44 42 41 40 37 34 34 35 35 34 34 34 33 32 30 29 29 32 36 37 37 37 36 33 32 32 33 33 34 35 36 36 35 35 34 33 32 31 30 30 29 29 29 29 28 27 26 26 26 25 24 22 21 20 18 17 16 16
55 53 52 50 47 46 44 43 42 39 36 36 36 36 35 34 33 33 32 31 29 28 29 33 36 37 37 36 34 34 34 34 34 34 35 35 35 35 35 35 34 33 32 30 30 31 31 30 30 30 29 28 27 27 26 25 24 22 21 19 18 17 16
57 56 55 53 51 49 47 46 44 41 38 38 38 37 36 35 33 33 33 32 31 30 29 30 33 36 37 37 36 36 36 36 35 35 35 35 35 36 36 36 35 34 33 32 31 32 32 32 32 31 31 29 28 28 27 26 25 24 22 20 19 18 17
59 58 57 55 53 52 51 49 46 43 40 39 38 37 37 37 36 35 34 33 32 32 31 30 30 33 36 37 38 38 38 37 37 36 35 35 35 36 36 36 36 35 34 33 32 32 32 32 32 32 32 31 29 28 27 27 26 24 22 20 19 19 18
60 59 58 56 55 54 52 50 48 45 42 40 38 36 36 37 37 35 33 33 34 34 33 32 31 32 34 36 38 38 38 38 37 37 36 35 35 36 37 37 36 35 34 33 33 33 33 32 32 32 32 31 29 28 28 27 26 24 23 21 20 20 19
60 60 59 58 56 54 53 51 48 45 43 41 38 36 35 36 37 35 34 35 35 35 34 34 34 33 34 34 35 38 39 38 37 36 36 36 36 37 37 36 36 35 34 34 34 33 33 32 32 32 31 30 29 29 28 27 26 25 23 21 21 20 20
59 59 58 57 56 56 55 52 49 47 44 41 38 37 37 38 37 37 37 36 36 35 35 35 35 35 34 34 34 36 37 37 37 37 36 36 37 37 37 36 36 35 34 34 34 33 32 32 31 31 31 30 29 29 28 27 26 25 23 22 21 21 20
57 58 57 57 57 57 55 52 49 48 45 42 41 39 38 38 38 38 38 37 36 36 36 35 36 36 35 34 34 34 35 36 36 37 37 36 36 35 35 36 36 35 34 34 34 33 33 31 30 30 30 30 29 28 27 27 26 25 23 22 21 20 20
56 57 56 56 57 56 55 53 50 49 46 43 42 40 38 38 39 38 38 38 37 37 37 36 36 36 35 34 34 33 33 33 34 36 36 36 35 33 33 34 36 36 35 34 34 33 31 30 30 30 30 30 29 28 27 27 26 25 23 23 21 21 20
53 56 56 57 56 54 53 53 51 49 48 45 43 41 40 40 39 38 38 39 39 38 37 36 36 36 34 33 33 33 32 32 33 34 36 35 34 32 32 33 35 35 35 34 33 31 30 30 30 30 30 29 28 27 27 28 27 25 24 23 22 21 21
49 54 56 57 54 52 51 51 51 51 50 48 45 44 43 43 40 39 40 41 40 38 36 34 35 35 33 33 33 32 32 32 32 33 35 34 33 32 32 33 34 34 34 33 32 31 30 30 29 29 29 28 27 27 28 28 27 25 25 24 23 22 22
48 51 54 53 51 50 49 50 52 52 51 49 48 47 47 45 42 42 43 44 42 38 35 34 35 34 33 34 34 33 32 32 32 32 33 34 33 33 32 33 33 33 32 31 31 30 30 29 28 28 28 28 28 28 28 28 27 26 26 25 25 24 23
47 48 47 45 44 44 45 46 48 48 48 48 48 49 50 48 46 46 47 44 41 38 35 34 35 34 34 34 34 32 31 31 31 32 33 33 33 33 32 32 32 31 30 30 30 29 29 28 28 28 28 28 28 28 28 28 28 27 27 26 25 24 24
43 41 40 38 37 38 39 40 41 42 44 45 46 47 50 51 50 50 48 43 39 37 36 36 36 35 34 34 32 31 30 30 30 31 32 33 33 32 31 31 31 30 30 29 29 28 28 28 28 29 29 29 29 28 28 29 28 28 28 27 26 25 24
38 37 36 35 35 35 35 34 35 36 39 42 43 45 48 51 52 50 46 41 38 37 37 37 35 34 33 32 31 29 29 28 29 30 31 32 31 31 30 30 30 29 29 28 28 28 28 29 29 29 29 29 29 29 29 29 29 29 29 28 28 27 26
38 37 36 35 35 35 33 31 31 34 37 39 41 43 47 49 49 46 42 38 38 38 37 35 33 32 31 30 29 28 28 28 29 30 31 31 31 30 29 29 29 28 28 28 28 28 28 29 29 29 29 29 29 29 29 30 30 29 29 29 28 28 27
39 39 38 36 35 35 32 29 30 32 33 35 38 41 44 46 44 40 37 36 36 36 35 33 31 29 29 30 29 28 28 28 29 29 30 30 30 29 28 28 28 27 27 27 27 27 27 28 28 28 28 28 29 29 29 29 29 28 28 28 27 27 26
42 41 40 38 36 34 32 30 29 30 31 34 37 39 40 41 40 36 34 34 35 35 34 32 29 28 29 30 29 28 27 28 29 29 29 29 29 29 29 29 28 28 27 27 27 27 27 27 27 27 27 27 27 28 28 29 29 29 28 27 27 26 26
45 43 41 39 36 34 32 31 30 31 34 37 38 38 38 38 36 35 35 35 35 36 34 31 29 29 30 30 30 29 29 30 30 30 30 30 30 30 30 30 29 29 29 28 28 28 27 28 27 27 26 26 26 27 28 28 28 29 28 28 27 27 27
48 46 44 41 38 34 32 32 32 34 36 39 39 38 37 37 36 35 35 36 37 37 35 32 31 32 33 33 33 32 31 30 30 30 30 30 31 31 31 30 30 30 29 30 30 29 28 28 27 27 27 26 26 26 26 27 27 27 27 26 26 26 27
51 49 45 44 41 37 34 34 35 36 38 38 38 38 38 37 36 36 34 34 36 38 37 35 34 35 35 35 35 34 32 32 32 31 31 31 32 32 32 32 31 31 31 31 31 31 30 30 29 28 28 28 28 27 27 27 27 27 27 26 26 26 25
54 50 47 45 44 40 36 34 35 37 39 39 39 39 38 37 36 34 32 32 34 38 40 40 37 37 37 38 38 37 35 34 34 34 33 33 34 34 34 34 34 33 33 33 33 33 33 32 31 30 29 29 29 28 28 28 28 28 29 29 28 27 26
55 52 48 46 45 43 39 36 35 37 39 40 40 39 38 37 34 32 30 31 33 37 40 41 40 39 39 41 42 41 39 38 37 37 37 37 36 36 36 37 36 36 35 35 34 34 34 34 33 32 31 31 31 31 30 30 31 31 31 31 31 31 30
57 55 51 47 47 45 42 38 38 39 41 42 41 40 39 37 35 32 31 30 31 34 36 38 39 40 40 41 41 40 40 41 41 41 40 39 39 38 39 39 39 38 37 37 36 36 37 36 36 35 35 34 34 33 33 33 33 33 33 33 33 33 33

ECMWFFLT1_500_spd_063.txt.gz
Wind_Speed
34 34 31 28 27 25 24 21 17 14 13 14 14 15 18 20 22 24 26 26 26 27 28 29 29 30 30 30 30 29 27 24 21 19 19 20 20 19 18 17 16 15 14 14 13 12 11 11 11 11 11 11 10 9 8 7 7 6 5 4 4 4 3
34 33 31 29 27 26 25 23 19 16 15 15 15 15 16 19 21 24 26 27 27 27 28 29 29 30 31 31 31 30 28 25 23 21 21 20 20 20 19 18 17 16 16 15 14 13 13 12 12 12 11 11 10 9 9 8 7 6 6 5 5 4 4
32 31 32 30 28 27 26 23 20 18 17 16 15 14 14 17 20 23 26 29 29 29 28 29 30 31 32 32 32 31 29 26 24 23 22 21 20 20 20 19 19 18 17 16 15 14 14 14 13 12 12 11 11 10 9 8 8 7 7 7 6 4 4
35 33 32 31 29 29 29 26 23 21 19 18 17 15 15 16 20 22 25 28 29 29 29 29 30 31 32 33 33 32 30 27 25 24 24 22 21 21 20 20 20 19 18 17 17 16 16 15 14 13 13 12 12 11 10 9 8 8 8 7 6 4 3
40 37 35 33 32 32 32 30 28 25 22 20 19 18 17 17 19 21 23 26 28 29 29 30 32 33 33 34 34 33 31 29 27 26 25 23 22 21 20 20 21 20 19 19 19 18 17 17 16 15 14 13 12 11 10 10 9 9 8 7 6 4 2
42 40 38 35 33 33 32 30 29 26 23 21 21 20 19 17 17 19 22 25 27 29 30 31 32 33 34 34 34 34 33 30 28 28 27 25 22 21 20 21 22 22 22 21 20 20 19 19 17 16 15 14 13 12 11 11 10 9 8 7 6 4 3
43 42 41 38 35 35 33 31 29 28 25 23 23 22 21 19 18 19 21 24 26 29 30 30 30 32 33 35 35 35 34 32 30 30 29 26 24 22 21 22 22 23 23 22 21 21 21 20 19 18 17 15 15 14 13 12 11 10 9 8 7 6 5
42 43 41 40 38 37 36 33 31 29 27 25 25 24 22 20 19 18 19 21 25 28 29 30 30 30 32 34 35 35 35 34 33 31 30 28 26 24 23 22 23 23 23 23 23 23 23 22 21 20 18 17 16 15 14 14 13 12 11 10 9 8 7
41 43 42 41 39 37 36 34 32 31 30 28 26 24 23 21 20 18 17 19 22 26 29 30 30 30 31 33 34 35 36 35 34 32 31 30 28 26 25 24 24 24 24 24 24 24 25 24 23 22 20 19 18 17 16 15 15 14 13 12 10 9 9
41 41 42 43 40 37 35 34 33 33 33 31 27 24 24 23 21 20 19 19 20 23 28 30 31 31 31 32 33 35 36 36 35 33 32 31 30 28 27 26 25 25 25 25 25 25 26 25 24 23 22 20 20 19 18 17 16 15 14 13 12 11 11
40 41 44 44 41 39 38 37 35 34 33 31 27 25 26 25 24 22 21 20 19 21 26 30 32 31 31 31 32 34 35 35 35 34 33 33 32 31 29 28 27 27 27 27 26 26 27 26 25 24 23 22 22 21 20 19 18 16 15 14 13 12 12
37 40 44 43 41 42 41 40 38 37 35 31 27 27 28 27 27 25 23 22 21 21 24 29 32 32 31 31 32 32 32 33 33 33 33 33 33 33 31 30 28 28 28 28 27 27 28 28 27 26 25 24 23 22 21 20 19 17 16 15 14 13 13
39 42 45 44 44 45 42 40 40 39 36 32 31 31 30 30 30 28 26 24 23 22 22 26 30 32 32 32 31 30 30 30 30 31 32 33 34 34 33 31 29 29 29 29 28 29 29 29 28 27 27 26 25 23 21 20 19 19 18 16 15 15 15
42 44 45 43 42 44 42 39 37 37 37 35 34 34 32 32 32 31 28 27 26 24 22 24 27 30 32 32 31 30 29 29 29 29 31 32 33 34 34 32 31 30 29 29 29 29 29 29 29 29 28 27 25 23 22 21 20 20 19 18 17 17 17
42 42 43 41 41 42 42 40 38 38 38 37 37 35 34 33 33 32 30 28 27 25 23 23 25 28 32 33 31 30 29 29 29 29 30 32 33 33 34 34 33 32 30 29 29 29 30 30 30 29 29 28 26 24 22 21 21 21 20 20 19 19 18
42 42 44 44 44 44 43 43 42 41 40 39 38 37 36 35 33 32 32 30 28 26 24 23 23 25 29 32 32 31 31 30 30 30 30 31 32 33 33 34 35 33 32 31 30 30 30 30 30 30 30 29 27 25 23 22 23 23 23 22 20 20 19
47 48 50 51 51 51 48 47 45 43 42 41 40 38 37 35 33 32 32 31 29 27 25 23 22 22 25 30 32 33 32 31 31 30 30 31 31 32 33 34 35 35 34 33 32 31 30 30 30 30 30 30 29 27 25 24 24 24 25 24 22 20 19
50 52 53 52 53 53 51 50 48 45 44 42 41 39 37 36 34 34 34 33 30 28 26 24 22 21 23 27 31 33 33 33 32 31 31 31 31 31 32 33 34 34 34 34 33 32 31 31 30 30 31 31 30 29 27 25 25 25 26 25 23 21 20
51 52 52 50 51 51 50 49 48 47 44 43 42 39 37 35 34 33 33 33 32 30 29 26 24 24 24 25 27 29 31 33 33 32 32 32 31 31 32 32 33 33 33 34 34 34 32 31 31 31 31 30 30 30 29 27 26 26 27 27 24 22 20
50 53 54 52 52 52 51 49 48 47 45 44 43 40 37 36 34 32 33 34 34 33 31 29 27 26 25 24 24 25 27 30 32 33 33 32 32 32 32 31 31 32 33 34 34 34 33 33 32 32 31 31 30 30 30 28 27 27 28 27 25 23 21
51 54 55 53 52 52 52 51 50 48 47 46 43 41 39 37 36 34 34 36 36 35 33 31 30 29 27 26 24 23 24 27 29 31 33 33 32 32 31 31 31 31 32 33 34 34 33 34 34 33 32 32 31 30 30 29 28 27 28 28 26 24 21
53 54 54 53 52 53 53 51 50 49 48 46 44 42 40 38 37 36 35 35 37 36 35 34 33 31 29 28 26 24 24 25 27 28 30 31 32 32 32 31 31 31 32 32 33 34 34 35 35 34 33 33 31 30 30 30 28 28 29 29 27 24 21
51 53 55 56 56 56 55 54 52 52 50 47 45 44 41 39 39 38 36 35 37 38 37 36 35 33 30 28 27 25 24 25 26 25 26 28 30 32 32 32 31 31 32 32 33 33 33 34 34 34 34 33 31 30 30 30 29 28 29 28 26 23 21
48 52 56 58 58 58 58 57 56 54 51 48 46 45 43 41 41 39 38 37 36 37 37 36 35 33 30 29 28 26 25 26 26 25 24 24 27 29 31 32 32 31 32 32 33 33 33 33 34 34 33 33 31 30 30 29 28 28 28 27 25 24 21
46 51 56 59 60 60 60 59 57 54 52 50 47 46 45 44 42 41 40 38 36 36 37 36 35 33 30 29 29 27 26 26 26 26 24 23 24 27 29 31 32 32 33 32 32 33 33 33 33 33 32 32 31 30 29 29 28 27 27 26 25 24 22
45 48 54 59 61 60 60 59 57 54 53 51 49 47 47 47 45 43 41 39 37 36 34 33 33 32 31 31 31 29 27 26 27 27 24 23 25 27 28 29 32 33 33 32 32 32 32 32 32 32 32 31 30 29 28 28 28 26 26 26 25 24 24
46 47 50 55 59 60 60 58 56 54 53 52 50 50 49 49 47 45 43 41 38 34 32 31 33 33 33 33 31 29 27 27 28 27 25 24 26 27 27 28 30 32 32 32 31 31 31 31 31 31 31 30 29 28 28 28 27 25 25 25 25 25 25
46 46 47 51 56 59 59 58 55 53 51 51 50 50 51 51 49 46 45 42 37 34 33 33 34 34 34 33 31 28 27 28 28 27 26 26 27 27 27 28 29 31 32 32 31 29 29 30 30 30 30 29 28 27 27 26 26 25 24 25 25 25 25
46 45 46 48 52 56 57 57 54 53 51 49 49 50 52 52 50 48 46 42 37 35 36 35 35 34 33 32 31 28 28 29 29 28 27 27 26 27 27 27 29 30 30 30 29 29 28 29 29 29 28 28 27 26 25 25 25 24 24 24 25 26 26
46 44 45 47 49 52 54 55 54 53 50 49 48 49 52 53 52 49 46 42 39 40 39 37 36 35 33 32 31 30 30 31 30 29 28 26 26 26 26 27 28 28 28 29 28 27 27 27 27 27 26 26 26 25 25 25 26 26 25 26 27 27 27
45 44 45 46 47 49 51 52 52 51 50 49 48 48 51 53 52 49 47 45 45 45 42 40 39 38 35 34 32 32 32 32 30 29 28 26 24 24 25 25 26 27 27 28 27 26 26 26 26 25 25 25 25 25 26 26 27 27 27 27 28 28 28
45 44 44 44 45 46 48 49 50 49 49 49 49 49 51 51 50 49 49 49 50 48 45 44 42 40 39 37 34 33 33 31 29 28 27 24 24 23 23 25 26 27 27 27 27 26 25 25 25 25 25 25 25 26 26 27 27 27 27 27 27 27 27
45 44 43 43 43 44 46 45 44 44 45 46 48 48 48 48 47 48 50 52 52 51 49 47 45 43 41 39 35 34 32 30 29 28 26 24 24 24 24 26 27 28 28 27 26 26 25 25 25 25 25 25 25 25 26 26 26 26 27 27 27 27 27
45 44 43 42 42 42 42 41 41 42 43 44 44 43 43 43 45 46 49 51 52 52 51 50 47 45 43 39 35 33 31 30 29 28 26 25 25 25 26 27 28 28 27 27 27 26 26 26 25 25 25 25 25 26 26 26 26 27 27 27 26 27 28
45 44 43 42 41 40 40 41 41 41 41 40 39 40 42 45 47 48 49 49 49 50 51 50 48 45 41 37 33 31 31 30 30 29 28 27 28 27 27 28 28 28 28 28 28 27 27 27 27 27 28 28 28 28 27 27 26 26 26 25 23 23 24
46 46 45 43 41 40 40 41 40 39 38 38 39 41 44 46 48 49 49 48 48 49 50 49 46 42 37 34 32 31 32 32 31 30 30 29 28 28 27 27 28 28 28 28 29 28 28 28 29 29 29 29 29 28 27 26 26 25 24 23 21 21 20
49 48 47 44 42 41 41 41 41 39 38 38 38 40 41 43 45 46 46 47 47 48 49 47 43 38 35 33 32 32 33 33 32 31 31 30 28 27 27 28 29 29 30 30 30 30 30 30 30 31 31 30 29 28 27 26 25 25 24 23 23 22 21
51 50 49 46 43 43 43 43 42 40 38 38 37 37 38 40 41 43 43 44 45 45 45 43 38 35 34 35 35 35 35 34 33 32 32 30 29 28 29 30 31 32 32 32 32 32 32 32 32 32 32 32 31 29 28 28 27 26 26 25 25 25 24

ECMWFFLT1_500_spd_066.txt.gz
Wind_Speed
30 30 29 27 23 19 19 19 15 15 15 14 14 15 16 18 20 20 21 22 22 22 22 23 24 25 25 24 23 22 20 17 15 14 14 15 14 13 13 12 11 11 11 11 11 11 11 11 11 11 10 8 7 6 4 3 2 2 1 1 0 2 4
29 28 27 26 23 21 21 21 17 16 16 16 15 15 15 17 19 20 21 22 23 22 22 22 24 25 26 26 25 23 21 18 16 16 15 15 15 15 14 14 13 12 11 11 12 11 11 11 11 11 9 8 7 5 4 3 2 2 2 1 2 4 5
28 26 27 27 25 22 22 21 19 18 18 17 15 14 13 15 19 21 22 23 24 24 23 23 23 25 26 27 26 25 23 20 18 17 17 17 17 17 16 15 14 13 13 12 12 12 12 11 11 10 9 8 7 6 5 4 3 3 3 3 3 4 5
25 21 23 27 26 24 24 23 23 22 22 20 17 15 14 16 19 21 22 23 24 24 23 23 24 25 26 27 27 26 25 22 20 18 18 18 18 18 17 17 16 15 14 14 14 14 13 12 12 11 10 9 8 7 6 5 4 4 4 4 4 4 4
24 21 20 22 23 24 25 24 24 24 23 21 18 16 15 16 18 19 20 21 22 23 24 25 26 27 27 28 28 28 26 25 23 21 20 19 18 18 17 17 17 17 16 16 16 15 14 14 13 12 11 10 9 8 7 6 6 6 6 5 4 3 3
31 26 24 22 21 22 23 23 23 23 22 20 18 17 17 18 18 18 18 19 20 22 24 25 25 26 27 28 28 29 28 27 24 22 21 20 19 17 17 18 18 18 18 17 17 17 16 15 15 13 12 11 10 9 8 8 7 7 6 6 4 3 2
35 31 30 30 27 24 22 22 23 25 24 22 20 19 18 19 20 19 19 18 18 20 22 24 24 24 25 27 28 29 29 28 26 24 23 22 20 18 18 19 19 19 19 18 18 18 18 17 16 15 14 12 11 11 10 9 9 8 7 6 5 4 3
34 33 34 35 31 27 24 23 24 26 26 25 24 21 19 20 21 20 18 17 17 17 19 22 23 23 23 25 26 28 29 29 28 27 25 23 22 20 19 19 19 20 19 19 19 19 19 19 18 16 15 14 13 13 12 11 10 9 9 8 6 5 4
31 32 34 34 31 27 26 27 27 27 28 27 25 23 22 22 22 20 17 15 16 15 17 20 22 23 24 24 25 27 29 30 29 28 26 25 23 22 21 20 20 20 20 20 20 20 20 20 19 18 16 15 15 14 13 12 12 11 10 9 7 6 6
29 31 33 35 32 27 26 28 30 29 29 29 26 24 24 23 22 19 17 14 13 14 15 18 22 24 25 24 24 26 28 29 30 29 27 26 25 24 23 22 21 21 21 21 21 21 21 21 20 19 17 16 16 15 15 14 13 13 11 10 8 8 7
26 29 34 36 34 29 27 30 33 31 29 29 26 24 24 23 20 18 16 15 13 13 14 15 19 22 24 25 25 25 26 28 29 29 28 27 27 27 26 24 23 22 22 22 22 22 22 22 21 20 19 18 17 17 16 16 15 14 13 11 10 9 9
25 29 33 35 33 32 30 30 33 33 30 29 28 25 25 24 21 18 17 18 16 14 13 12 14 19 23 25 25 25 25 26 27 27 28 28 28 28 28 26 25 23 23 23 23 23 23 23 22 22 21 20 19 19 18 17 16 15 14 13 12 11 11
22 27 30 31 30 31 31 29 30 32 31 29 28 27 27 26 23 20 20 20 19 17 14 11 11 15 20 24 25 24 24 24 24 25 26 27 28 29 29 28 27 25 24 23 24 24 24 24 24 23 23 22 21 21 20 19 17 16 15 14 13 13 13
24 26 29 32 31 32 32 28 28 31 32 30 29 30 29 28 25 23 24 24 22 21 17 12 11 12 16 21 23 23 23 23 23 24 25 26 28 29 29 29 28 27 26 25 24 24 24 24 25 25 24 24 23 22 21 19 17 16 16 16 15 15 14
32 32 32 33 33 34 33 29 30 32 33 32 33 33 32 29 27 26 26 27 25 24 19 14 12 13 14 17 20 22 23 23 23 23 23 25 26 27 28 29 29 28 27 26 25 25 24 25 25 25 25 25 24 22 21 19 18 17 17 17 17 17 16
40 39 38 35 32 32 31 29 30 33 35 35 36 36 34 31 29 29 29 29 28 25 21 15 13 13 14 15 18 21 23 24 22 22 22 22 23 24 26 28 29 29 28 27 27 26 26 25 25 25 25 25 25 24 22 20 19 18 18 19 19 18 18
46 45 43 39 35 34 34 34 34 36 38 39 39 39 38 35 34 33 33 33 30 27 23 18 14 13 14 15 17 19 21 23 22 22 21 21 21 23 24 27 28 29 28 28 28 28 27 26 25 25 25 25 25 25 24 22 21 20 20 20 20 20 19
46 48 46 43 40 38 38 39 40 40 41 43 43 43 42 41 40 40 38 34 30 27 24 19 14 14 15 17 17 18 19 21 22 22 21 21 21 21 23 25 26 27 27 27 28 29 29 27 26 25 25 25 25 25 25 23 23 22 21 21 22 21 20
42 47 46 46 44 41 38 39 40 41 42 43 44 43 42 43 44 42 38 34 30 28 25 20 16 16 17 18 18 18 18 19 21 22 22 21 21 21 22 22 23 24 25 26 27 29 29 29 28 27 26 25 25 25 25 24 23 23 23 23 23 23 22
40 43 44 45 43 40 38 37 36 39 41 42 44 44 43 43 40 37 36 34 32 30 27 22 20 20 19 19 19 18 18 18 19 20 22 22 22 22 21 21 21 22 23 24 25 27 28 29 29 29 28 27 26 25 25 24 23 23 24 25 25 24 23
40 40 42 44 42 40 38 36 36 38 40 41 42 42 43 42 39 37 36 34 32 30 28 26 24 22 21 21 21 20 19 18 18 19 20 21 22 22 22 22 21 22 22 22 23 24 26 28 29 29 29 28 28 27 26 25 23 23 24 25 26 25 24
41 39 40 43 44 44 42 41 39 39 39 39 39 40 42 42 41 39 36 32 29 28 29 28 26 23 22 22 22 21 20 18 18 18 18 19 20 20 21 22 22 22 22 22 22 22 24 25 26 27 28 28 28 28 27 26 25 24 24 26 26 26 24
42 41 41 42 44 45 45 44 43 41 40 39 38 40 43 42 40 38 33 28 27 27 27 28 26 23 21 21 22 22 21 20 18 18 18 17 17 18 19 21 22 22 23 23 23 23 23 24 25 25 26 28 28 28 28 28 27 26 26 27 27 25 24
42 41 41 43 44 45 45 45 44 43 42 39 38 40 41 39 39 36 31 27 27 26 27 27 25 22 20 21 22 22 22 22 21 20 19 18 17 17 18 20 21 22 23 23 23 24 24 25 25 25 25 26 27 28 28 28 28 28 27 28 27 25 23
44 42 41 42 44 45 46 45 44 43 42 41 41 41 41 40 39 36 32 30 29 28 27 25 25 23 20 21 23 23 23 24 23 22 21 19 19 18 18 19 21 22 23 23 23 24 25 26 26 26 25 25 26 27 27 27 27 28 28 28 27 25 24
42 42 40 40 43 44 44 44 44 44 44 43 43 42 42 42 41 38 35 33 31 30 27 24 24 24 22 23 25 24 24 24 24 23 22 20 20 20 20 20 21 22 23 23 24 25 25 26 26 26 25 25 26 26 26 26 26 27 28 28 27 26 25
43 42 40 40 41 43 44 44 44 46 46 45 44 44 43 42 41 39 36 34 33 30 28 26 25 24 23 25 26 25 24 24 24 24 22 22 22 22 21 21 21 22 23 24 25 25 25 25 26 26 26 25 25 25 26 26 26 26 27 28 27 26 25
50 48 45 43 42 42 44 45 45 47 47 46 45 45 44 43 43 40 37 36 35 31 29 29 27 25 23 25 26 26 25 25 25 24 23 23 23 23 21 21 22 23 24 24 25 25 25 25 26 26 26 25 25 24 25 26 27 26 26 27 27 26 25
53 52 49 47 44 43 43 45 46 47 47 47 46 46 46 45 45 43 42 40 36 33 32 32 30 26 24 24 25 26 26 26 25 24 24 24 24 23 22 22 23 24 24 24 25 25 24 24 25 25 25 25 24 24 24 26 27 26 26 26 26 25 24
49 50 51 49 46 44 43 43 45 47 46 46 47 46 47 47 46 46 45 41 37 36 36 36 33 29 26 25 26 26 26 26 26 24 24 24 24 24 23 23 24 25 24 24 25 24 24 23 24 24 24 24 24 24 24 25 26 26 25 25 25 25 24
51 48 49 49 47 45 44 43 43 45 46 47 46 46 47 47 47 47 45 41 38 39 40 38 36 34 30 27 27 28 27 27 27 25 24 25 25 25 23 24 25 25 24 24 25 24 23 22 23 23 24 24 24 24 24 24 25 25 25 25 25 25 24
60 53 49 48 48 47 46 44 42 43 45 46 46 47 48 47 46 47 45 42 40 42 43 41 38 37 35 32 31 30 29 29 28 27 25 26 26 25 24 25 25 25 24 24 25 24 23 23 23 24 24 24 23 23 24 25 25 26 25 25 25 25 25
60 58 53 48 48 48 47 45 43 42 43 45 46 47 47 47 47 47 45 43 42 44 44 43 41 40 38 36 35 34 32 30 30 28 26 26 26 25 25 26 25 24 24 24 25 25 24 23 23 24 24 23 23 24 25 26 26 26 25 25 25 25 26
56 57 55 51 49 49 48 46 43 42 42 43 45 47 47 47 48 47 44 42 42 44 45 44 42 41 40 40 39 38 35 33 31 29 28 27 26 25 26 26 25 25 25 25 26 26 25 24 23 24 24 24 24 25 26 27 26 25 25 26 26 25 25
54 55 56 53 51 50 49 47 44 42 41 43 45 46 46 47 47 46 43 42 43 44 45 43 42 42 42 42 42 40 38 35 33 31 31 29 28 26 26 26 26 26 26 26 27 27 26 25 25 25 25 25 26 27 27 26 26 26 26 26 25 24 24
50 52 54 53 51 51 49 47 45 43 42 43 45 46 46 47 46 45 43 42 44 45 45 44 43 43 44 44 43 42 40 38 36 35 34 32 29 28 27 27 28 28 27 27 27 27 26 26 26 26 26 27 28 28 27 26 26 27 26 25 23 23 22
48 48 51 52 50 49 49 48 47 45 43 43 45 46 47 46 45 44 43 43 44 46 46 45 43 44 45 45 45 43 42 41 40 38 36 33 30 29 29 30 30 29 28 27 27 28 27 27 27 27 28 28 28 27 27 26 26 26 25 23 22 21 21
50 48 49 50 49 48 48 48 47 46 45 44 45 47 47 45 43 42 42 43 44 46 46 44 44 45 47 47 47 46 45 44 43 40 37 34 32 31 31 32 30 29 28 27 27 28 28 28 28 28 28 27 26 25 25 25 25 25 24 22 21 21 21

ECMWFFLT1_500_spd_069.txt.gz
Wind_Speed
18 21 23 22 21 20 19 19 18 16 14 13 12 11 11 12 15 17 18 20 22 22 22 22 23 23 23 22 21 19 17 15 14 13 13 12 12 12 11 11 11 10 10 10 10 10 9 9 9 9 8 7 6 5 3 3 3 4 6 7 8 8 9
17 19 21 21 22 21 20 19 18 17 15 14 13 11 10 10 13 17 18 20 22 23 23 23 24 24 24 24 23 21 18 16 15 14 13 13 12 12 12 12 12 12 11 11 11 11 10 10 10 9 8 7 6 4 3 2 3 4 5 7 8 8 9
17 17 19 20 20 21 21 19 18 17 16 15 14 11 9 9 11 15 18 20 22 24 24 24 25 25 25 25 24 22 20 17 16 15 14 14 13 13 14 13 13 13 12 12 12 12 12 11 10 10 8 7 6 4 3 2 3 4 5 7 8 8 8
17 14 15 19 20 20 22 21 18 18 17 16 15 13 10 10 11 14 17 19 21 24 24 25 26 26 27 26 25 24 22 19 17 16 16 15 14 14 14 14 14 14 14 14 14 13 13 12 12 11 9 8 6 5 3 3 3 4 6 7 7 7 7
25 19 18 19 19 18 21 21 18 18 18 18 17 15 13 11 10 11 14 16 19 22 25 27 29 30 29 28 26 25 24 22 19 18 17 16 15 14 14 14 14 15 15 16 15 15 14 14 13 12 11 9 7 6 5 4 4 5 6 6 6 6 7
30 23 18 16 14 13 17 20 19 19 19 19 18 16 13 11 9 9 10 13 15 19 24 26 28 29 29 28 27 26 25 23 21 19 18 17 15 14 14 14 14 15 16 16 17 17 16 16 15 13 12 10 8 7 7 6 6 6 6 6 5 5 6
30 22 17 16 12 10 13 18 20 20 21 20 19 17 15 12 11 10 9 9 11 14 19 22 24 25 26 27 27 27 25 24 23 21 20 18 17 15 15 14 14 15 16 16 17 17 17 17 16 15 13 11 10 9 8 8 7 6 6 6 5 4 5
29 24 23 24 20 16 15 17 17 18 20 21 20 19 17 15 13 12 10 10 11 12 14 18 21 23 24 26 27 26 26 25 25 24 21 20 18 17 16 15 15 15 15 15 16 17 17 17 17 15 14 12 11 10 10 9 8 7 7 6 5 4 4
28 26 28 28 26 22 21 21 19 18 19 21 21 20 19 17 15 13 13 13 12 12 13 15 18 22 23 25 26 27 27 27 26 25 23 21 19 18 17 16 15 15 15 16 16 16 17 17 17 15 14 12 11 11 10 10 9 8 7 6 5 4 3
27 28 30 28 27 26 25 25 23 22 21 21 21 21 19 17 16 14 13 12 11 11 13 14 16 20 23 24 26 27 28 27 26 25 24 22 20 19 18 18 16 15 16 16 17 17 17 17 17 15 14 12 11 11 11 10 10 9 8 6 6 5 4
27 27 28 27 27 27 26 26 25 24 22 21 21 21 20 20 18 16 14 14 13 11 11 12 14 17 22 25 26 28 28 27 26 25 23 22 22 21 21 20 18 17 16 16 17 18 18 18 17 16 15 14 13 12 12 11 11 11 9 8 7 6 5
28 27 27 26 26 24 23 25 25 25 24 23 22 22 22 22 20 19 17 16 15 14 11 11 12 15 20 24 26 27 27 27 25 24 23 23 23 23 23 22 21 19 17 17 17 18 18 18 18 17 17 16 15 14 14 13 13 13 11 9 8 7 7
21 26 28 27 26 24 24 25 25 26 26 24 24 25 25 24 23 22 20 19 17 16 14 12 11 13 17 21 25 26 26 26 25 24 23 23 24 24 24 23 23 21 20 18 18 17 17 18 18 19 18 18 17 16 15 14 14 13 12 11 10 9 9
16 22 26 25 24 23 25 26 26 26 26 26 27 27 27 26 26 25 23 22 20 18 16 14 13 13 14 17 21 24 25 24 24 24 23 23 24 24 24 24 23 23 22 21 19 18 18 18 19 19 19 19 18 17 16 14 13 13 13 12 12 12 11
22 24 29 29 28 26 27 29 28 26 26 26 28 29 29 28 28 28 27 25 23 21 19 17 15 14 13 14 17 22 25 25 24 23 22 21 22 22 23 23 23 24 24 23 21 20 19 20 20 20 20 20 19 18 16 14 14 14 14 14 14 14 13
32 32 35 35 33 33 32 32 31 29 28 29 29 30 31 31 31 31 29 27 26 24 21 19 17 16 15 14 15 19 24 25 24 22 21 19 19 19 20 22 23 23 24 24 23 23 22 22 21 21 20 20 20 19 17 15 15 15 15 15 15 15 15
35 33 35 37 37 35 33 32 32 33 33 34 35 35 35 35 34 34 33 31 30 27 25 22 20 18 17 16 16 17 20 23 23 22 20 18 17 17 17 19 21 22 23 23 24 24 24 24 23 22 22 21 20 19 18 17 17 17 16 16 16 16 16
33 29 31 37 40 37 34 33 35 36 36 37 39 40 40 40 40 39 37 35 33 31 29 26 23 21 19 19 20 18 18 21 22 22 20 18 17 16 16 17 18 19 20 22 23 24 25 25 24 24 24 23 21 20 19 18 18 18 18 17 17 17 16
39 36 35 37 40 39 37 36 36 37 38 40 42 42 42 42 41 40 40 38 36 35 33 30 28 26 25 24 23 20 19 20 21 21 20 19 18 17 15 15 15 16 17 19 21 23 24 24 24 25 25 24 23 21 20 19 19 19 19 18 18 18 17
44 45 43 39 38 39 40 39 36 36 39 42 43 44 43 41 40 40 41 40 37 35 32 29 28 28 28 29 28 25 21 19 19 20 21 20 19 18 16 14 14 14 15 16 18 19 21 22 24 24 25 25 25 23 22 21 20 19 20 20 20 19 19
45 44 46 44 41 41 42 39 36 36 38 38 38 40 40 38 37 40 40 36 35 33 30 27 27 28 28 26 24 22 21 19 19 19 19 20 19 18 17 16 15 15 15 15 15 16 18 20 22 23 24 25 26 26 25 23 22 21 21 21 21 20 20
48 48 49 47 45 46 46 41 37 37 37 36 34 33 32 32 34 37 37 33 31 30 28 25 26 28 27 23 20 18 18 18 18 17 18 18 18 18 18 17 17 17 17 17 16 17 18 19 20 21 23 24 25 26 26 25 24 23 22 23 23 22 20
48 50 51 49 48 49 49 45 42 40 38 36 33 30 28 29 31 34 34 31 28 27 25 23 23 26 29 28 24 21 19 17 17 17 17 17 16 16 16 17 18 19 19 19 19 18 18 19 19 21 22 23 23 24 25 25 26 25 25 25 25 23 21
48 49 50 50 51 51 51 48 45 42 40 38 35 32 30 30 32 34 34 32 30 27 24 21 20 26 31 31 27 20 19 19 18 17 17 16 16 16 16 16 17 18 19 20 20 20 21 21 21 21 21 22 22 22 23 24 25 26 26 26 26 24 23
49 49 49 50 50 50 51 50 48 45 42 40 39 37 34 33 35 36 35 32 30 28 24 20 19 22 25 26 25 21 21 23 22 19 18 17 17 17 16 16 17 18 19 20 21 21 22 22 22 22 22 21 21 22 23 23 24 25 25 25 25 25 24
53 52 52 51 50 48 48 49 49 48 46 41 39 37 36 34 33 33 31 30 28 27 24 20 19 20 22 24 25 24 24 25 24 22 21 20 19 19 18 18 18 18 19 19 21 22 23 23 23 23 22 22 22 22 22 22 22 23 24 24 24 24 24
57 57 55 53 52 49 48 49 49 49 48 44 40 38 36 34 32 30 30 29 28 27 24 22 22 22 24 25 25 25 25 26 26 25 23 22 22 21 20 20 20 20 20 20 21 21 22 23 23 23 23 23 22 21 21 21 21 22 23 24 24 24 24
59 59 57 55 54 51 49 49 49 49 49 47 44 42 40 38 35 33 32 32 30 28 26 26 25 25 26 27 26 26 26 27 27 26 25 25 24 23 22 21 21 21 21 22 22 22 22 22 23 23 24 24 23 22 22 22 21 21 22 23 24 24 24
58 59 58 56 54 53 51 50 49 48 47 46 45 44 44 43 41 38 36 34 31 29 29 29 28 28 28 27 26 26 26 26 26 27 27 27 26 25 24 24 23 22 23 24 24 23 23 22 22 23 24 24 24 23 23 23 22 22 22 23 24 25 24
58 59 60 58 55 54 52 50 48 46 45 44 44 44 44 43 42 40 37 34 31 31 32 32 31 31 30 28 26 25 26 26 26 27 28 29 28 27 27 26 25 24 24 25 25 24 23 23 22 23 23 24 24 24 24 24 23 23 24 24 25 26 25
60 60 60 60 57 55 53 50 47 44 42 41 42 42 43 43 41 40 37 34 32 32 34 34 34 33 32 29 27 25 25 25 26 26 27 28 29 29 28 28 27 26 26 26 26 25 24 23 22 23 23 24 24 25 25 25 25 24 25 26 26 26 26
64 62 61 61 59 57 54 50 45 42 40 39 39 40 41 42 42 39 37 35 35 35 36 36 35 34 33 31 28 27 26 26 27 27 27 28 29 29 29 30 29 28 27 27 27 26 24 23 23 23 23 24 25 26 26 27 26 25 26 27 28 27 25
65 64 62 62 60 57 54 49 45 42 40 38 38 40 40 41 42 41 37 36 37 38 38 38 37 35 34 32 31 30 28 28 28 28 28 28 29 29 30 31 31 30 29 28 27 26 24 23 23 24 24 24 26 28 28 28 27 26 27 28 28 27 27
64 62 60 60 59 56 52 48 44 43 43 43 42 41 40 41 42 42 39 38 39 40 40 40 39 37 35 34 33 32 31 30 30 30 30 29 29 30 31 32 32 31 29 28 27 26 25 25 25 25 26 27 28 29 29 28 27 26 27 28 29 29 29
67 63 60 59 57 54 51 47 46 46 46 46 46 44 42 40 41 41 40 40 41 41 41 40 39 38 36 35 35 35 34 33 32 32 32 32 32 31 32 32 33 32 29 28 27 27 27 27 27 27 27 29 30 30 29 28 27 27 28 30 31 31 30
73 69 64 61 59 57 53 48 46 47 47 47 47 46 43 41 41 41 41 41 41 42 41 40 39 38 37 37 37 37 36 36 35 35 35 35 35 34 33 33 33 32 30 28 28 28 29 29 28 29 30 30 30 30 28 28 29 30 30 31 31 30 29
76 76 72 66 62 61 58 52 48 47 47 46 45 45 43 42 41 41 40 41 41 42 42 41 39 38 38 38 38 38 38 38 38 38 38 39 39 38 36 35 34 31 29 29 29 30 31 31 30 31 31 31 30 30 29 29 30 30 30 30 31 30 29
73 78 77 73 68 65 63 59 54 51 49 47 44 43 44 43 42 41 41 40 40 41 42 41 40 39 39 40 40 41 41 42 42 43 44 44 42 40 38 36 34 31 30 30 31 32 33 33 32 32 32 31 31 30 30 30 30 30 29 30 31 31 30

ECMWFFLT1_500_spd_072.txt.gz
Wind_Speed
13 13 15 17 18 17 17 16 15 15 13 12 12 13 13 13 14 16 18 20 22 22 22 23 23 22 21 21 19 18 17 17 16 15 14 15 14 14 13 12 12 11 11 11 11 11 11 11 11 11 10 9 9 8 8 8 9 11 12 13 13 12 11
13 13 14 16 18 19 18 17 16 15 14 12 12 13 12 12 14 16 19 21 23 23 23 23 24 24 23 22 21 20 18 18 17 16 15 14 14 14 14 14 13 12 12 11 11 12 12 12 12 11 10 10 9 8 8 8 9 11 13 13 13 12 11
14 14 13 14 17 19 19 18 17 16 14 13 12 12 11 11 13 16 19 22 24 24 24 24 25 25 25 23 22 21 19 18 17 17 16 15 15 16 16 15 15 14 13 12 12 12 12 12 12 12 11 10 9 8 8 8 10 12 13 13 13 12 11
17 14 13 13 15 18 20 19 18 17 16 14 13 13 13 12 13 15 18 21 23 24 24 24 26 27 26 25 23 22 20 19 18 17 17 17 16 16 16 16 16 15 15 14 13 13 12 12 12 12 11 10 9 8 8 9 10 12 13 13 13 12 11
21 19 16 14 14 15 17 19 19 18 16 15 14 14 14 14 13 13 15 17 20 23 25 26 27 29 28 26 24 23 21 20 19 18 18 17 17 16 16 16 16 16 16 16 15 14 13 13 12 12 11 9 9 8 8 9 10 12 13 12 12 12 11
25 24 19 15 14 12 13 17 19 19 18 17 15 16 16 15 13 12 13 14 17 20 24 25 26 26 27 27 25 24 23 21 20 19 19 18 17 16 16 16 16 16 16 16 16 15 15 14 13 12 11 9 8 7 8 9 10 11 12 12 12 12 11
24 24 23 21 18 14 13 17 20 20 20 20 18 18 18 16 14 13 13 13 15 17 20 22 23 23 24 26 26 25 24 23 22 20 20 19 18 17 17 16 16 16 16 16 16 16 15 15 14 13 11 9 8 7 7 8 9 10 11 12 12 12 11
24 24 24 22 19 17 15 16 20 22 22 21 19 18 18 16 15 14 13 13 14 16 17 19 21 21 22 24 25 25 25 24 24 22 22 20 19 18 17 16 16 16 16 16 16 16 16 15 15 13 11 9 8 7 7 7 8 9 10 11 12 12 11
23 25 24 20 18 19 17 14 17 21 22 21 19 18 18 18 17 15 14 13 14 16 18 20 21 21 22 23 24 26 27 26 25 24 23 21 20 19 18 17 17 17 16 16 16 16 15 15 14 13 11 9 8 7 7 7 8 8 9 9 10 11 11
18 21 23 22 23 24 22 17 16 18 20 20 19 19 20 20 19 18 16 13 13 15 18 21 22 23 22 22 23 26 27 27 26 25 24 22 21 21 20 19 18 17 17 17 17 16 16 15 14 13 11 10 9 8 8 8 8 8 9 9 9 10 10
19 19 21 25 28 29 28 23 19 19 20 18 18 20 21 21 21 20 17 15 14 15 17 19 20 21 22 23 24 25 25 26 26 25 24 24 23 23 22 21 19 18 17 17 17 17 17 16 15 14 13 12 11 10 9 9 10 10 9 9 9 9 9
22 20 21 25 29 30 30 28 24 22 22 20 19 20 21 21 21 21 19 17 16 17 17 18 18 19 20 22 23 24 24 25 25 25 26 26 25 25 25 23 21 20 18 17 17 17 17 17 16 16 15 14 13 12 11 11 11 11 10 9 9 8 8
27 27 24 26 29 30 30 29 27 26 25 24 23 22 22 22 23 23 21 18 18 19 18 18 18 18 19 20 22 23 24 24 25 26 27 28 28 28 27 25 24 22 21 19 18 18 17 16 16 16 16 16 15 14 13 12 12 11 10 9 9 9 9
31 35 34 33 35 35 34 33 32 31 29 27 27 25 23 23 24 25 24 21 21 21 19 18 18 18 18 19 20 21 23 24 26 27 28 29 30 30 29 27 26 25 23 22 20 19 18 17 17 17 17 16 16 15 14 13 12 11 11 10 10 10 10
28 33 36 37 39 39 38 37 37 37 35 33 32 30 28 27 27 27 26 25 24 23 21 21 19 18 17 17 18 20 23 25 26 27 28 30 31 31 30 29 28 27 26 24 22 21 20 19 18 18 17 17 16 16 15 13 13 13 12 12 12 12 12
30 30 34 37 40 40 40 39 39 39 39 38 37 36 34 33 31 30 29 28 27 26 25 24 22 20 18 17 17 20 23 25 27 28 29 29 30 30 31 31 31 30 28 26 25 24 22 21 20 18 18 17 17 16 15 15 15 15 15 15 14 14 13
31 30 34 38 41 42 42 41 41 40 40 41 40 39 38 37 36 35 34 33 32 30 29 27 24 23 21 19 19 20 22 24 27 28 28 28 29 30 31 32 32 31 30 29 28 26 25 24 22 20 20 19 18 17 16 16 16 17 17 17 16 16 15
33 31 33 37 42 44 43 41 42 42 41 41 41 40 40 40 40 39 39 38 36 35 33 30 27 25 23 22 22 21 19 20 23 26 27 28 29 29 30 32 32 32 32 31 30 28 27 26 24 23 23 22 20 19 17 17 18 19 19 18 18 17 17
37 36 33 35 40 44 45 44 43 44 44 43 42 41 41 41 42 41 40 40 39 38 36 33 31 29 26 25 22 18 14 13 15 21 25 27 28 29 30 31 31 31 31 31 31 30 29 28 27 26 25 24 23 21 20 19 19 19 19 19 19 18 18
41 40 38 38 41 43 46 48 47 47 46 45 43 41 39 40 42 43 41 39 38 37 36 34 32 30 27 24 19 15 14 13 13 17 24 28 29 30 30 29 29 30 30 31 31 31 29 28 28 27 26 26 25 25 23 22 21 21 20 20 20 19 19
44 43 42 44 46 45 44 47 48 47 46 43 42 41 39 37 38 40 40 38 37 36 35 33 32 29 27 23 19 17 18 18 16 17 22 27 30 29 28 28 29 29 29 29 29 29 29 29 28 28 27 27 27 27 26 24 24 23 22 21 20 20 20
46 45 45 45 45 44 44 44 44 44 44 41 39 41 42 38 35 36 37 38 38 38 37 35 33 30 27 24 21 20 20 21 20 18 20 25 29 29 27 28 29 29 29 29 28 28 29 29 28 27 27 27 27 27 26 26 26 25 24 23 22 21 20
50 48 47 47 43 41 42 43 41 40 42 41 39 41 43 40 36 36 38 38 38 39 39 37 35 31 28 25 24 23 23 24 23 21 20 23 27 28 29 29 30 30 30 30 28 28 27 27 27 27 27 27 27 27 26 27 27 27 26 26 25 24 22
51 52 51 50 47 44 42 40 38 36 38 41 42 42 43 41 38 39 40 39 38 39 41 39 35 31 28 27 27 27 28 28 27 25 22 23 26 29 31 31 31 31 31 30 29 28 28 28 28 28 28 27 26 26 26 27 27 28 28 28 28 27 25
51 55 56 53 51 49 46 43 42 40 40 42 43 43 43 41 39 39 41 43 42 40 39 38 36 32 30 29 30 31 32 32 31 28 25 24 26 29 32 33 32 32 31 31 30 30 29 29 28 28 27 26 25 25 26 26 27 28 28 29 29 28 27
53 53 55 55 55 54 52 51 50 47 45 44 44 43 42 40 38 37 38 42 45 43 39 37 37 35 33 33 33 33 33 34 33 29 27 25 27 29 31 32 33 32 32 31 31 31 30 29 28 27 26 26 26 25 25 25 26 26 27 28 28 28 27
61 56 53 53 56 56 55 55 53 51 49 48 46 44 43 40 38 36 32 30 35 40 41 38 37 36 36 35 35 33 33 35 35 31 29 28 29 30 31 31 31 32 31 32 32 32 31 30 28 28 27 27 27 26 26 26 25 26 27 27 26 26 26
67 65 59 55 56 58 58 57 54 52 53 52 49 48 47 43 39 36 32 27 28 33 37 36 34 34 34 35 34 33 32 34 36 35 32 32 32 32 30 30 30 30 31 31 31 31 31 30 29 28 28 28 28 27 27 27 27 26 27 26 26 26 25
67 68 67 61 57 56 57 58 56 54 54 52 50 50 50 47 42 37 33 30 30 33 35 35 34 33 33 33 33 31 29 31 34 35 35 35 35 33 32 32 31 30 30 30 30 30 30 29 28 28 28 28 27 27 27 28 28 28 28 28 27 26 25
71 71 72 68 62 57 55 57 57 56 55 53 51 50 50 49 46 41 35 32 34 37 37 37 37 36 34 33 32 29 28 29 32 34 36 37 36 35 35 34 33 32 31 30 30 29 29 28 27 27 26 26 26 26 26 27 28 28 29 29 29 28 27
74 75 76 74 68 61 58 58 58 57 56 56 53 52 51 50 48 45 39 35 36 39 40 40 40 39 36 35 33 30 29 30 32 34 37 38 37 36 35 35 35 34 33 31 31 30 29 29 28 27 26 26 25 25 25 26 27 28 29 30 30 29 29
73 75 77 76 71 64 59 59 60 59 57 57 56 54 53 52 50 48 43 39 39 41 42 42 42 41 39 37 35 32 31 31 33 34 36 37 36 35 35 35 36 35 34 33 32 31 30 30 29 28 27 26 25 25 26 27 27 28 29 30 31 31 30
73 73 75 76 74 69 62 58 59 60 58 56 56 56 53 52 51 49 47 45 43 42 42 42 42 42 41 39 37 35 34 33 33 33 34 35 35 35 36 37 37 36 36 35 33 32 31 31 30 29 27 25 25 26 27 28 28 28 28 30 31 31 31
76 73 72 73 74 73 68 61 58 58 58 57 57 56 54 52 50 49 48 48 47 45 43 41 42 43 43 42 40 39 37 35 34 33 33 34 34 35 36 37 38 37 37 36 34 33 33 32 31 29 28 27 27 29 29 29 29 28 29 30 31 32 33
81 78 74 72 71 71 69 66 62 59 58 59 59 59 57 54 51 49 48 48 48 48 45 44 44 45 45 44 43 42 41 39 37 36 35 35 35 35 36 37 38 38 38 37 37 35 34 33 32 30 30 30 31 32 32 30 29 29 31 32 33 34 36
85 84 80 76 73 70 66 65 65 64 61 59 60 60 59 56 52 49 47 46 47 48 47 47 46 47 47 47 46 46 44 43 42 40 39 38 37 36 36 36 37 38 38 38 37 36 34 33 33 33 33 34 34 33 32 30 30 32 35 36 36 37 38
84 86 85 80 76 73 69 66 66 67 66 63 60 60 59 57 53 49 46 46 46 47 47 48 48 48 49 49 49 49 48 47 46 45 43 42 41 40 38 37 36 37 38 38 37 37 35 34 34 35 36 36 35 34 33 32 31 34 36 37 38 38 38
83 84 84 82 78 75 73 70 68 68 68 66 62 60 59 57 53 49 46 44 44 44 44 45 48 49 50 50 51 51 51 50 50 49 48 47 46 45 42 40 38 38 37 37 37 37 36 35 36 38 38 37 36 35 34 33 33 35 36 38 39 39 38

ECMWFFLT1_500_spd_075.txt.gz
Wind_Speed
14 16 18 19 18 18 18 17 16 15 15 14 14 13 13 13 13 14 16 19 20 20 21 24 25 23 22 21 20 18 17 16 15 15 15 15 15 14 13 13 13 13 13 13 12 11 11 11 10 9 9 9 10 10 10 11 11 11 11 11 10 9 8
9 12 16 18 18 18 18 18 17 16 15 15 15 15 14 14 14 14 16 18 21 21 22 24 25 24 23 22 21 19 18 17 16 15 15 15 15 14 14 14 13 13 13 13 12 12 12 11 11 10 10 10 10 10 11 12 12 13 12 12 10 9 8
13 10 12 16 18 19 19 19 18 17 16 15 14 14 14 14 14 15 16 19 21 23 23 23 25 25 25 23 21 20 19 18 17 15 15 15 15 15 15 15 15 14 13 13 12 12 12 12 11 10 10 10 10 11 11 13 14 14 13 12 11 9 8
19 13 11 14 18 20 21 20 19 18 17 15 15 15 15 15 16 16 17 19 21 23 24 24 25 26 26 25 23 21 19 19 18 17 16 16 16 16 16 15 15 15 14 14 14 13 13 12 11 11 11 11 11 11 12 14 15 15 14 13 11 10 9
21 18 15 14 15 17 20 20 19 18 17 16 16 16 17 17 17 16 15 17 21 23 25 26 27 28 28 27 25 23 21 20 19 18 17 17 16 16 16 16 15 16 16 16 15 15 14 14 13 12 12 12 11 11 13 14 15 14 14 13 12 11 10
22 20 17 15 12 13 17 19 19 19 18 18 18 18 18 18 16 15 14 15 19 23 25 27 27 28 28 28 27 26 24 22 21 20 18 17 17 16 16 16 16 16 17 17 16 16 15 15 14 13 12 12 11 11 12 14 15 14 14 14 13 12 11
23 20 19 18 15 12 15 17 19 20 20 20 21 21 20 19 17 15 13 14 17 21 23 24 25 26 27 28 29 27 26 24 22 21 20 18 17 17 17 16 16 17 17 17 17 16 15 15 14 13 13 12 11 11 11 13 14 14 14 14 14 13 12
23 21 20 21 20 17 16 17 17 20 22 23 23 22 21 19 18 16 13 13 15 18 20 22 25 26 27 28 29 28 27 26 25 23 21 20 19 18 18 17 17 17 16 16 17 16 16 15 14 13 13 12 11 11 11 13 14 15 15 15 15 14 13
25 24 23 23 23 22 20 18 17 19 23 24 24 22 21 20 18 16 14 13 14 17 19 21 24 27 28 29 29 29 29 28 27 25 23 21 20 20 19 19 18 18 17 17 17 17 16 16 15 14 13 12 11 11 12 13 15 16 16 16 16 16 14
27 28 28 26 25 25 25 23 20 20 23 25 25 24 22 21 19 18 16 14 13 16 20 23 25 28 29 29 29 31 31 30 29 27 25 23 22 22 21 21 20 19 19 19 18 17 17 16 15 14 13 13 12 12 13 14 15 16 17 18 18 17 16
31 32 32 30 29 30 30 26 22 21 23 26 26 25 23 22 21 19 17 15 14 16 20 23 26 28 29 30 30 30 30 30 30 28 27 25 24 24 23 22 21 20 20 20 19 18 18 17 16 14 14 14 13 13 13 14 15 16 17 18 18 18 17
34 35 34 33 32 34 34 32 28 26 27 28 29 28 26 24 23 22 20 18 16 16 18 21 24 27 29 30 30 30 29 29 29 28 28 28 27 26 26 25 23 21 21 21 21 20 19 18 17 16 15 15 15 14 14 14 15 16 16 17 17 17 17
35 36 36 35 34 34 35 35 33 31 31 33 34 33 30 28 27 26 24 22 20 19 19 20 23 25 28 30 30 30 29 29 28 29 29 29 29 29 28 27 26 24 22 22 22 22 21 20 19 18 18 17 16 16 15 14 14 15 15 15 16 17 17
36 36 36 36 35 36 36 36 34 32 32 35 37 36 35 34 33 31 29 27 25 24 22 21 22 24 26 28 29 29 29 29 29 30 30 30 31 31 31 29 28 27 25 24 23 23 23 22 21 21 20 19 18 18 17 15 14 14 14 15 16 17 17
36 37 37 36 36 37 39 39 38 35 33 34 36 36 36 36 36 35 34 32 31 28 26 25 25 25 26 27 28 28 29 30 31 31 32 32 32 32 32 31 30 29 28 26 25 24 24 24 24 23 21 20 20 19 18 16 15 14 14 15 16 17 18
37 38 38 37 37 38 40 42 42 40 37 35 35 36 36 36 37 37 36 35 34 32 30 29 28 27 27 27 27 28 30 31 32 32 33 33 33 32 33 33 32 31 30 28 27 26 25 25 25 24 22 22 21 20 19 18 17 17 16 17 17 18 19
38 38 37 38 39 39 41 44 45 44 42 40 38 37 37 36 37 37 37 37 36 34 32 32 31 30 28 28 29 30 31 32 32 32 32 32 32 33 33 34 34 33 32 30 29 28 27 26 25 24 23 23 22 21 20 19 19 19 19 19 19 19 19
40 40 39 40 41 42 42 44 46 47 46 44 42 41 40 39 37 38 38 38 38 37 35 34 33 31 30 30 31 31 31 31 31 31 31 31 30 31 32 33 34 34 33 32 31 30 29 27 25 25 24 24 23 22 21 21 21 21 21 21 21 21 21
43 43 42 42 43 44 43 43 45 48 47 46 45 44 43 42 41 40 40 41 40 40 38 37 36 34 32 32 31 30 29 29 29 29 29 29 28 29 30 31 32 32 33 33 33 32 31 29 28 27 26 25 25 24 23 22 23 23 23 23 23 22 22
47 46 44 43 44 45 44 43 45 48 49 48 47 46 45 45 44 43 43 42 42 41 41 40 39 37 35 33 31 29 28 27 26 26 27 28 29 29 29 28 29 30 32 33 34 34 33 32 31 30 29 28 27 26 25 25 24 25 24 24 24 24 23
51 49 48 47 46 46 45 43 44 47 50 49 48 48 48 47 47 46 45 44 43 42 40 40 39 37 36 36 32 29 27 25 24 25 26 28 29 30 29 28 28 30 31 33 34 35 34 34 34 33 32 31 31 30 28 27 27 27 26 25 25 25 24
56 55 53 51 50 50 50 47 44 46 49 50 50 51 51 50 50 49 48 46 44 41 39 39 39 35 32 33 31 28 27 26 25 26 26 28 30 30 30 29 29 30 32 33 34 35 36 36 36 35 35 34 33 32 30 30 30 30 29 27 27 26 24
60 60 60 57 54 53 54 51 48 47 49 51 52 52 52 51 50 49 48 47 44 41 40 40 40 35 31 30 29 27 27 27 27 27 27 28 30 31 31 31 31 32 33 34 34 35 36 36 36 36 36 36 35 34 33 33 33 33 32 30 29 27 25
61 65 64 61 57 56 55 53 52 52 52 52 52 51 50 49 49 49 48 46 44 42 41 41 40 37 35 33 31 30 29 29 29 29 28 27 28 30 32 33 33 34 34 34 35 35 35 36 37 37 37 37 36 35 34 35 36 36 35 33 32 30 27
57 61 64 63 59 57 56 54 53 53 53 53 53 51 49 49 49 48 46 45 43 42 42 43 41 39 37 36 35 34 32 31 30 30 29 28 27 28 32 34 35 36 36 35 35 35 36 37 38 37 37 37 37 36 36 36 37 37 36 35 34 32 30
55 53 59 64 61 58 57 55 53 52 53 54 53 51 51 49 47 45 45 43 42 41 41 44 44 40 38 38 38 36 34 32 32 32 30 29 29 29 32 34 36 37 37 36 36 36 37 37 37 37 37 37 37 37 37 36 37 37 36 35 35 34 32
60 51 55 62 61 59 59 58 55 54 53 53 52 51 50 49 46 45 45 44 42 41 41 44 45 42 40 41 40 38 35 34 34 34 32 31 31 32 33 34 36 38 38 37 37 37 37 37 37 37 36 36 36 36 36 35 35 35 34 34 34 34 34
66 57 56 59 58 58 60 59 56 55 54 53 51 50 50 49 48 46 45 44 45 44 44 44 45 44 43 43 42 40 39 38 38 37 35 32 32 33 34 34 36 37 39 39 39 38 38 37 37 36 36 36 35 34 34 34 34 34 33 33 33 33 33
69 64 62 60 56 56 60 61 57 54 54 54 53 52 51 50 48 47 46 46 47 47 46 45 45 45 46 45 44 43 42 41 42 40 38 35 34 34 35 35 35 36 38 39 39 39 38 38 37 36 36 35 34 34 33 33 34 33 33 33 32 32 32
73 70 69 66 59 53 55 59 59 56 54 54 54 53 53 50 46 43 42 44 46 47 47 46 45 47 48 47 46 46 46 45 44 41 39 38 38 37 36 36 34 34 36 38 39 40 39 39 38 37 36 36 35 34 34 34 34 34 34 33 33 32 32
75 74 73 72 66 57 51 53 57 58 57 55 54 54 53 51 47 42 39 41 44 46 47 47 46 46 48 49 47 48 49 48 45 41 39 39 40 40 38 37 36 35 35 37 38 39 39 39 39 38 37 36 35 34 34 34 35 35 35 35 34 34 32
77 76 74 73 71 66 58 53 54 58 59 58 57 56 56 53 49 45 42 42 45 44 43 43 42 41 45 50 49 48 50 49 45 41 40 39 41 42 41 39 39 38 37 37 37 37 37 37 37 37 36 35 34 33 33 34 35 35 36 36 36 35 34
79 78 77 74 72 72 69 62 57 57 59 62 61 59 58 56 52 48 45 45 47 45 40 39 38 36 39 48 51 49 48 48 45 43 41 40 42 44 45 44 43 41 40 38 37 36 36 36 35 35 34 33 32 32 33 33 34 34 34 35 36 36 36
83 81 80 78 75 74 73 71 65 60 58 60 61 60 59 59 56 52 48 45 47 47 43 40 37 34 35 44 50 50 48 47 45 44 42 41 42 45 48 49 47 44 42 40 39 38 36 36 35 34 33 32 32 33 34 33 33 32 32 34 36 37 37
88 85 83 81 79 77 75 74 72 67 62 58 57 58 60 61 59 55 50 48 48 49 47 44 41 37 37 42 47 49 48 46 45 44 43 41 41 43 45 47 47 45 43 42 41 40 38 38 37 35 34 34 35 35 36 35 33 32 33 36 38 38 37
92 90 88 85 82 80 78 76 74 72 69 63 59 57 57 58 57 54 52 52 52 51 49 48 45 41 40 42 46 47 48 47 46 44 43 43 42 42 43 45 46 45 43 42 42 41 40 40 39 37 37 37 37 37 37 35 34 35 37 39 39 38 37
92 92 91 89 86 82 81 80 78 75 72 69 66 62 58 56 55 54 52 53 54 53 51 51 50 46 43 44 47 48 49 49 48 46 45 45 44 43 43 43 43 43 42 41 41 41 40 40 39 39 39 39 38 38 37 36 37 39 41 41 40 39 39
92 92 92 92 90 87 83 82 81 79 75 72 70 68 65 60 57 55 54 54 56 56 54 53 52 50 47 47 49 50 51 51 51 50 49 47 46 45 44 42 41 40 38 38 38 38 38 38 38 39 41 40 39 39 38 38 40 42 43 43 42 42 41

ECMWFFLT1_500_spd_078.txt.gz
Wind_Speed
16 16 17 20 22 20 18 17 16 16 16 15 15 15 13 12 12 15 18 19 19 21 25 27 26 25 23 22 20 17 16 16 16 16 16 16 15 14 14 14 13 13 12 11 11 10 10 10 9 8 8 9 9 10 10 11 11 10 10 9 8 8 8
14 14 14 17 21 23 21 19 17 16 16 16 17 16 15 13 13 14 18 20 21 22 25 27 27 26 25 23 21 19 18 17 17 16 16 15 15 15 15 14 14 13 13 12 11 11 11 10 10 9 9 9 9 10 10 11 11 11 10 10 9 8 8
15 14 13 15 19 23 24 22 19 17 17 17 17 16 15 15 14 15 17 21 23 23 25 27 28 28 27 25 23 21 20 19 18 16 16 16 16 16 15 15 14 14 13 13 13 12 11 11 10 10 10 10 10 10 11 11 12 12 11 10 9 9 8
16 15 15 17 19 22 24 23 21 20 18 18 17 17 16 16 17 17 17 20 23 24 25 27 29 30 29 27 24 22 21 20 19 18 17 17 17 16 16 15 15 15 14 15 14 13 12 12 11 11 11 11 11 11 12 12 13 12 11 10 9 9 8
20 17 16 18 18 19 21 22 22 21 20 20 18 18 18 18 19 18 17 18 21 25 27 29 31 31 30 29 27 24 23 22 21 20 18 18 17 16 16 15 15 15 16 16 15 15 14 13 12 12 12 12 13 12 13 13 13 13 12 11 10 9 9
24 21 17 16 16 16 17 20 21 22 23 24 22 20 20 19 18 18 17 17 19 24 27 29 30 31 31 31 29 27 25 24 22 21 19 18 17 16 17 16 16 16 17 17 16 16 15 14 13 13 13 14 14 13 14 14 14 14 13 12 11 10 10
27 25 21 18 17 16 16 19 22 24 25 26 25 23 21 20 18 18 17 16 17 21 25 28 29 30 31 31 31 30 28 26 25 23 21 19 18 17 17 17 16 16 17 17 17 17 16 15 14 14 14 14 14 14 14 15 15 15 14 13 12 12 11
28 27 25 24 22 20 18 20 23 25 27 26 24 23 22 20 19 18 16 16 16 18 22 26 28 30 31 32 32 31 30 28 27 25 23 21 19 18 18 17 17 17 16 16 17 18 17 16 15 15 15 15 15 14 14 15 16 16 16 15 14 13 12
30 28 29 29 28 25 23 23 26 29 29 28 26 25 24 22 20 18 17 17 16 16 19 24 28 30 31 32 32 32 31 30 29 27 25 22 21 20 19 18 18 17 16 17 18 18 18 18 17 16 16 16 16 15 15 16 17 17 17 17 16 15 14
32 31 31 32 32 30 27 26 28 30 31 31 30 28 27 24 22 21 20 18 16 16 18 23 28 30 31 32 33 34 33 32 31 29 27 25 23 22 22 21 20 19 18 18 18 18 18 18 17 17 17 18 17 16 16 17 18 18 18 19 18 17 16
34 34 34 35 35 34 31 30 29 30 31 33 33 31 30 28 26 24 22 20 18 18 19 23 27 30 31 33 34 35 35 34 32 31 30 29 27 26 26 25 23 22 21 21 20 19 19 19 18 18 18 19 19 19 18 18 19 20 20 20 20 19 18
35 35 36 38 38 36 34 33 32 31 32 33 34 34 32 31 30 28 27 25 23 22 22 24 26 29 32 33 34 35 35 35 34 32 32 31 30 30 29 28 26 25 24 23 22 21 20 19 18 18 19 20 21 20 20 19 20 21 21 21 21 20 19
35 35 36 37 38 38 37 36 35 33 32 32 34 35 34 33 32 31 29 28 26 25 24 25 26 29 32 34 35 35 35 34 34 33 33 33 33 32 31 30 28 27 26 25 24 24 22 21 20 19 20 21 21 21 21 20 20 21 21 21 21 22 21
36 36 36 35 37 38 39 38 38 36 34 33 34 36 37 36 34 33 31 30 29 28 26 25 26 28 31 33 35 35 35 34 34 34 35 35 34 34 32 30 29 28 27 26 25 24 24 23 22 22 21 22 22 22 21 20 20 20 21 21 22 22 22
38 38 36 35 36 38 39 40 39 39 37 35 34 36 38 38 38 36 35 34 32 31 29 27 27 27 29 32 34 35 36 36 36 36 36 36 36 35 33 32 31 30 29 27 25 25 25 25 24 24 23 23 23 23 22 20 20 20 21 21 22 22 23
40 39 38 37 38 39 40 40 40 40 40 37 35 36 38 39 39 38 36 36 35 34 33 30 28 28 29 30 33 36 38 39 39 39 39 38 37 36 35 34 33 32 31 29 27 27 26 26 26 25 24 24 24 23 23 21 21 21 21 22 22 23 24
42 41 40 40 40 41 41 41 40 41 41 40 38 37 38 40 40 38 37 37 37 36 35 33 31 30 29 30 32 36 39 40 41 41 40 40 39 38 37 36 36 34 33 31 30 29 28 27 26 26 26 26 25 24 23 22 22 22 22 22 23 24 24
43 43 42 42 43 43 43 42 41 41 42 41 40 39 40 41 41 40 39 39 39 38 37 36 34 32 31 32 34 37 39 41 42 42 42 41 40 40 39 38 37 36 35 33 32 31 30 28 27 27 27 26 26 24 23 22 23 24 23 23 23 24 24
45 45 45 44 45 45 45 44 43 42 43 43 42 41 41 42 43 43 42 41 41 40 39 37 35 33 32 32 33 34 36 38 40 42 43 42 42 42 41 40 38 37 36 35 34 34 32 30 29 28 27 27 26 25 24 24 24 25 25 24 24 24 24
47 47 47 46 46 47 46 46 45 44 45 46 45 43 42 43 44 44 44 43 43 42 41 39 36 34 33 32 32 31 30 32 34 36 39 41 43 43 43 41 40 38 37 37 36 36 34 33 32 30 29 28 27 26 26 25 25 26 25 25 25 25 25
50 49 49 48 48 47 48 48 47 46 46 47 48 47 45 44 45 46 46 45 45 44 43 41 39 37 36 34 32 30 29 30 30 32 35 39 42 43 43 42 40 39 38 38 38 37 36 36 35 33 32 30 29 28 28 27 27 27 26 26 26 27 27
53 52 51 50 49 49 48 49 48 47 46 47 50 50 48 47 47 47 48 48 48 47 47 45 44 42 39 36 34 33 32 32 32 33 35 37 40 42 42 42 41 40 40 40 40 39 38 37 36 36 35 33 32 31 29 28 29 29 28 28 27 28 27
55 55 54 53 52 51 50 50 50 49 48 47 49 51 52 51 50 50 51 51 50 49 47 46 46 45 43 39 38 37 36 35 35 34 35 36 38 40 41 41 41 42 42 42 41 40 39 39 38 38 37 37 35 34 32 31 32 31 30 30 29 29 28
56 57 57 57 55 54 53 52 52 52 51 50 50 52 54 54 55 55 55 52 48 45 44 45 46 47 46 43 42 41 39 38 36 35 34 35 36 38 40 41 42 43 43 43 42 41 40 39 40 39 39 39 38 36 35 34 34 34 33 32 32 31 29
60 59 59 59 59 57 55 55 54 54 54 53 52 52 54 56 57 58 57 52 46 44 45 46 46 46 47 46 44 42 41 40 38 35 34 33 34 35 38 40 42 43 44 43 42 41 41 40 40 40 39 39 39 38 37 36 36 36 35 35 35 34 32
63 63 63 62 62 61 59 58 57 56 56 55 55 53 54 55 56 57 58 54 47 44 44 45 46 47 47 47 46 44 42 41 40 37 35 33 33 34 36 39 41 42 43 43 42 42 41 41 40 39 39 39 39 39 38 37 37 38 37 37 37 36 35
64 65 65 64 63 64 63 61 60 60 58 57 56 55 54 54 54 56 56 53 49 47 46 45 46 48 46 45 45 44 44 43 42 40 37 35 34 35 35 35 38 40 41 42 42 42 41 40 39 38 37 38 38 38 37 37 37 38 38 38 38 38 37
65 65 66 66 65 65 66 66 64 63 62 60 59 58 57 55 55 54 53 51 50 49 48 46 47 47 45 44 44 43 43 45 45 43 40 39 37 35 34 34 35 36 37 40 40 40 39 38 37 36 35 35 35 35 35 35 36 37 38 38 38 39 38
69 67 67 68 67 65 66 68 69 67 65 63 62 61 60 59 58 56 52 52 53 52 50 49 48 46 42 43 46 44 42 44 46 44 41 40 38 37 35 35 35 35 35 36 37 38 37 36 35 34 33 33 33 32 33 34 35 36 37 37 38 38 37
72 70 68 69 71 68 65 67 70 71 70 67 65 64 63 61 60 57 54 53 53 54 53 52 51 49 45 44 46 44 41 41 44 43 41 40 39 39 38 38 37 37 37 36 35 35 35 35 35 34 33 32 32 31 31 32 33 34 35 35 36 36 35
74 74 72 71 72 73 69 66 68 69 69 70 71 68 65 64 62 58 56 56 55 55 55 54 53 53 51 47 46 45 43 41 41 41 41 42 41 41 41 40 39 38 38 37 36 34 33 33 34 34 33 32 32 31 31 32 33 33 33 34 35 35 34
76 77 76 74 74 74 73 70 68 63 59 61 69 72 69 66 65 63 60 58 56 56 57 56 54 53 52 49 48 46 44 43 43 42 42 42 42 42 43 44 43 42 40 39 36 33 31 31 33 34 34 33 32 32 32 33 33 33 33 33 34 35 35
79 79 79 78 77 77 75 73 73 70 61 54 59 70 74 70 66 66 65 60 55 53 55 56 53 52 51 50 49 48 45 45 46 46 45 44 43 43 42 41 41 42 43 40 36 33 31 31 32 33 34 33 33 33 34 35 34 34 33 34 35 36 37
82 82 81 80 79 80 79 75 75 78 74 62 55 62 71 72 69 68 67 64 57 51 51 54 54 51 50 51 50 48 47 46 47 48 49 48 46 45 43 39 36 36 38 37 35 34 33 33 33 33 33 33 34 34 35 36 35 33 33 35 36 38 39
83 84 84 83 81 81 82 80 77 78 79 72 61 56 57 61 66 68 66 64 61 54 50 52 53 51 50 50 49 48 47 49 50 50 49 49 49 48 48 46 42 39 37 36 35 36 36 36 35 33 33 33 33 34 35 34 32 31 33 36 37 38 39
84 85 85 85 84 83 83 84 82 80 78 77 72 64 55 51 55 63 65 63 60 57 53 52 52 51 50 48 47 47 47 49 52 52 50 49 50 49 49 49 47 43 41 39 38 39 40 39 37 35 34 34 33 34 34 32 31 32 34 36 36 36 37
86 86 86 87 87 86 84 85 86 84 80 77 76 74 68 58 52 56 62 62 59 56 55 54 53 52 49 46 45 45 45 45 48 51 51 50 50 51 51 51 50 47 45 43 42 42 43 43 41 39 37 36 35 35 35 34 33 34 36 36 36 37 37
89 87 87 87 87 87 87 87 88 88 84 80 77 77 76 70 60 55 57 60 59 57 54 54 56 55 51 46 43 44 44 43 43 45 47 48 50 52 53 53 52 50 48 46 44 44 44 45 45 42 40 38 38 38 38 37 36 37 37 37 38 38 38

ECMWFFLT1_500_spd_081.txt.gz
Wind_Speed
24 25 25 25 23 21 21 20 19 19 19 17 15 14 13 12 13 15 17 18 20 22 25 27 27 25 24 22 20 18 17 16 17 16 16 16 15 15 15 16 15 14 13 11 9 9 10 10 10 9 8 8 9 9 9 9 10 9 9 8 7 7 7
22 22 24 24 23 21 21 21 21 21 21 19 18 16 14 13 12 14 17 19 20 22 26 28 28 27 26 24 21 19 18 17 17 16 16 15 15 15 15 16 16 15 14 12 11 11 11 11 10 10 9 9 10 10 11 11 10 10 9 8 8 7 7
19 19 19 21 23 23 23 22 21 22 22 21 19 18 16 14 14 14 16 19 20 22 25 28 29 28 27 25 22 20 19 19 18 17 16 16 16 16 15 15 16 15 15 14 14 14 13 12 11 11 10 10 11 11 12 12 11 11 10 9 8 8 8
20 18 17 18 21 23 23 22 21 22 22 22 21 20 19 18 17 16 17 19 20 22 25 28 30 30 28 26 24 22 21 20 20 19 18 18 18 17 16 15 15 16 16 16 16 16 14 13 12 12 11 11 12 12 13 13 12 12 11 10 9 9 9
21 19 18 17 18 21 23 22 22 22 22 22 23 24 23 22 20 19 18 19 20 22 25 28 31 31 30 28 26 24 23 23 22 21 19 19 19 18 17 17 17 17 18 18 18 17 16 15 14 13 12 12 12 13 13 13 13 13 12 11 10 9 9
23 21 18 17 18 20 24 26 26 25 24 24 25 26 26 24 23 21 20 19 20 22 24 27 30 31 31 30 29 27 25 24 24 22 20 20 20 20 19 19 18 18 19 19 19 18 17 16 15 14 13 13 13 13 14 14 14 14 13 12 11 10 10
26 23 20 19 19 21 24 27 29 29 28 27 28 28 28 27 25 23 22 20 19 20 23 25 28 30 31 31 30 29 27 26 26 24 22 21 21 21 21 20 19 19 19 19 19 19 18 17 16 15 14 14 14 14 14 14 14 14 14 13 12 11 11
28 26 23 21 21 22 24 25 28 29 29 29 29 29 28 28 27 26 24 22 21 20 21 23 26 29 31 32 32 31 29 29 28 26 24 22 22 22 22 21 20 20 20 19 19 19 19 18 17 16 15 15 15 15 14 14 15 15 15 14 14 13 12
31 30 27 24 23 23 24 24 25 28 29 30 29 29 28 28 28 27 26 25 23 21 21 23 26 29 31 33 33 33 32 31 29 28 25 24 23 23 23 22 22 21 20 20 20 20 20 19 18 17 16 16 16 16 15 15 16 16 16 16 15 14 13
34 33 31 29 27 25 25 24 24 26 29 30 30 29 29 29 29 29 28 27 25 24 24 24 26 29 31 32 34 35 34 32 31 30 27 26 25 25 24 24 23 22 21 21 21 20 20 20 19 18 18 17 18 18 17 16 16 17 17 17 16 15 14
37 37 35 33 31 29 28 26 25 25 27 30 30 30 30 30 30 30 29 28 27 27 27 27 28 30 31 33 34 35 35 34 33 31 30 29 28 27 27 26 25 24 23 22 22 21 21 20 20 19 19 19 20 20 19 18 18 18 18 18 17 16 15
39 39 38 37 35 33 32 30 28 27 27 29 31 31 31 30 31 31 30 29 29 29 28 27 28 30 32 34 35 35 36 36 34 33 32 32 31 31 30 29 27 26 25 24 24 23 22 21 20 20 20 21 21 22 21 20 19 19 19 19 19 18 17
41 41 41 39 38 36 35 35 33 30 28 29 30 31 32 32 32 32 31 31 31 30 29 28 28 30 32 35 36 36 36 37 36 36 35 35 34 33 32 31 30 29 28 27 26 25 24 23 22 21 22 22 23 23 23 22 21 21 20 20 20 20 19
42 42 42 41 40 38 37 38 37 34 32 31 30 31 32 33 34 34 33 33 32 31 31 30 29 29 31 34 36 37 37 38 38 38 38 38 37 35 34 33 31 30 30 29 28 27 26 25 24 23 23 23 24 24 24 23 22 22 21 21 21 21 21
42 42 43 42 42 41 39 40 41 40 37 35 34 33 32 33 35 35 35 35 34 32 31 31 30 30 31 33 36 37 38 39 40 40 40 40 39 37 35 34 33 32 32 30 29 28 28 27 26 24 24 24 24 24 24 23 23 23 22 22 22 23 23
41 42 43 43 43 43 41 41 43 44 42 39 38 36 34 33 34 36 37 36 35 34 33 33 32 31 31 32 34 37 39 41 41 42 42 41 40 39 38 36 35 34 33 32 31 30 29 29 27 25 24 24 25 25 24 23 23 24 23 23 23 24 24
40 41 42 42 44 44 42 42 44 45 45 43 41 40 38 36 35 36 38 38 37 36 36 35 34 32 30 30 32 35 38 41 42 43 43 42 41 41 40 38 37 36 35 33 32 31 31 30 28 27 26 26 26 25 24 24 24 25 24 24 24 25 25
40 41 41 41 43 43 43 42 42 44 46 47 45 42 41 40 38 37 38 39 39 38 38 37 35 34 32 31 32 35 37 39 41 42 43 43 42 42 41 40 39 38 36 35 34 33 32 31 29 28 28 27 27 26 25 25 26 26 26 25 25 25 26
41 41 41 40 41 43 43 43 41 41 43 47 47 45 44 43 41 39 39 40 41 41 41 39 37 36 35 33 34 35 35 37 38 40 41 42 42 42 42 41 40 39 38 36 36 35 34 32 31 29 29 28 27 27 26 26 27 28 27 27 27 26 26
42 43 43 42 42 44 44 44 43 41 41 44 47 47 46 45 44 42 41 41 43 44 44 42 41 40 39 38 37 36 36 36 36 37 39 40 41 42 42 42 41 40 40 39 38 37 36 34 33 31 30 29 29 28 27 27 28 29 29 29 29 28 27
45 45 45 44 44 45 46 45 44 43 42 43 45 46 46 47 47 46 44 43 43 45 46 45 44 43 42 41 40 38 37 36 36 36 38 40 41 42 43 43 42 41 41 40 40 39 38 37 36 34 33 32 31 30 28 28 29 30 30 30 30 30 29
47 47 47 47 47 48 48 48 46 45 44 44 45 46 46 47 48 49 47 46 45 45 47 48 47 46 45 44 42 40 39 37 35 35 36 38 40 42 43 43 42 42 42 42 41 41 40 39 38 37 36 35 34 32 30 30 30 30 30 31 31 31 29
48 50 50 49 49 50 50 50 48 47 46 46 46 47 47 47 48 50 50 49 47 46 46 47 47 47 46 44 43 42 40 38 35 34 34 36 38 41 42 42 42 42 42 42 42 42 42 41 41 40 39 38 36 34 32 32 32 31 31 31 32 31 29
50 52 53 52 52 52 53 52 51 49 49 48 48 50 50 48 48 50 51 51 50 49 47 45 45 46 45 43 42 42 41 39 37 36 36 36 38 40 41 41 42 41 41 42 43 43 43 43 43 42 41 39 38 36 34 34 34 33 32 32 32 31 30
51 53 55 55 55 55 55 55 53 52 51 51 51 51 52 51 50 50 51 53 53 52 50 46 44 45 45 45 44 44 43 42 40 39 40 39 38 39 39 40 41 40 41 42 43 43 44 44 43 43 42 41 40 38 37 36 36 36 34 34 34 32 31
53 54 56 57 58 58 58 58 57 55 53 53 53 54 54 54 53 51 52 54 55 54 51 48 47 46 45 45 45 45 45 44 43 42 42 42 41 39 39 41 41 41 41 42 42 42 43 43 42 42 41 41 41 40 39 38 38 39 38 37 36 35 33
56 56 57 59 59 60 60 60 60 58 57 56 56 56 56 55 55 54 53 54 55 54 51 50 50 49 47 45 45 46 46 45 44 44 44 45 44 43 42 42 43 42 42 41 40 41 42 41 41 40 41 41 41 41 40 39 39 40 41 40 39 38 37
59 58 59 60 61 61 62 62 63 62 61 59 58 58 58 57 56 56 55 54 55 55 53 52 51 51 49 47 45 44 45 46 46 46 47 48 48 46 44 44 42 41 42 41 39 39 40 41 41 40 40 40 40 40 39 39 39 40 41 41 41 40 39
62 61 61 61 62 63 63 64 65 65 64 63 61 60 60 59 58 57 56 55 55 55 54 54 53 51 50 49 47 44 44 46 47 47 47 49 50 48 46 44 43 42 42 41 38 37 37 37 38 39 39 39 39 39 38 38 37 38 39 40 40 40 39
64 64 63 63 64 65 65 64 65 66 66 66 65 63 62 61 61 60 58 57 56 56 55 55 54 53 52 51 50 48 46 47 47 47 47 48 49 50 48 46 45 44 43 41 38 36 35 34 35 37 38 37 38 38 38 37 36 36 37 37 38 38 38
68 67 66 65 65 66 67 66 66 67 68 68 67 66 66 65 64 63 61 59 58 57 56 55 55 55 54 52 51 49 49 49 49 48 48 47 47 48 49 49 48 46 44 43 40 37 34 33 33 34 34 35 36 36 36 36 36 35 35 36 36 36 35
70 70 70 69 68 68 69 69 68 67 68 69 70 69 68 68 67 66 64 63 61 59 58 57 56 55 54 53 52 51 50 52 51 49 48 48 46 45 45 47 48 47 46 43 41 38 35 32 31 29 29 31 33 34 35 36 36 35 35 34 34 34 33
73 73 73 72 72 71 70 70 71 70 69 69 71 71 71 70 70 68 67 66 65 63 61 59 57 56 55 55 54 52 51 52 54 51 49 48 47 46 45 45 44 46 46 42 39 39 37 33 30 28 27 28 30 32 34 35 35 35 35 34 34 33 33
74 75 75 75 75 75 73 72 72 72 71 70 71 73 73 73 72 71 70 69 68 67 64 61 58 57 56 56 55 53 51 52 53 52 51 50 47 45 44 44 42 42 44 42 38 37 37 34 31 30 29 28 29 31 32 34 35 34 34 35 36 36 36
76 76 76 77 78 78 77 75 74 74 74 73 72 73 74 75 74 73 72 71 70 69 68 65 61 58 57 57 56 55 54 53 54 54 52 51 50 47 43 42 41 39 40 41 40 38 38 36 34 33 33 32 31 31 31 31 32 34 37 38 38 38 37
81 79 78 78 79 80 80 79 77 76 75 75 74 75 75 75 75 74 72 71 70 70 70 69 67 63 60 59 59 58 56 53 54 57 56 53 54 53 48 43 42 41 39 40 42 40 39 38 38 38 39 37 34 32 31 29 30 34 38 39 38 37 37
84 83 81 80 80 80 82 82 80 79 78 77 77 77 77 76 76 76 74 71 69 67 67 67 68 68 66 64 64 63 60 53 49 54 59 57 54 54 51 46 44 43 42 43 44 43 42 40 38 38 41 41 38 35 32 30 31 34 36 36 36 36 37
81 85 85 84 81 81 82 84 83 82 81 80 79 79 79 79 78 77 76 74 70 67 63 60 61 64 66 67 68 68 67 62 54 51 56 58 54 51 50 47 45 45 45 44 44 45 46 44 39 36 36 39 39 38 35 33 33 35 35 35 35 36 36

ECMWFFLT1_500_spd_084.txt.gz
Wind_Speed
26 26 26 26 25 23 22 22 21 21 20 18 17 17 15 14 14 15 17 17 18 22 26 28 30 29 27 25 21 19 18 18 18 17 16 15 15 16 16 17 17 17 15 13 10 9 8 8 7 7 7 6 6 6 6 6 6 6 6 5 5 5 4
25 25 26 26 25 23 21 21 20 21 21 20 18 18 16 15 15 16 18 19 19 21 25 28 30 30 29 26 23 20 19 19 18 18 17 16 16 17 17 18 18 17 15 13 12 11 10 9 8 8 7 7 8 7 7 6 6 6 6 6 5 5 5
25 25 26 25 25 24 23 21 20 20 22 21 20 19 18 17 17 17 19 21 21 22 24 28 31 31 30 27 24 22 20 20 19 19 18 18 18 18 18 19 18 18 16 15 14 13 12 11 10 9 8 8 8 8 8 7 6 6 6 6 6 5 6
26 26 25 24 24 24 24 23 21 20 22 24 23 22 21 20 20 19 20 22 23 22 23 27 31 32 30 28 26 23 21 21 21 20 20 19 19 19 19 19 19 18 18 17 16 15 14 13 12 10 10 9 9 9 8 8 7 7 7 6 6 5 6
27 26 24 23 23 24 25 24 23 21 22 25 26 25 25 24 23 21 21 22 23 24 24 27 31 33 31 29 27 25 24 23 22 22 21 19 19 20 19 19 19 19 19 18 18 16 15 14 12 11 11 10 10 10 9 8 8 7 7 7 6 6 6
28 26 23 22 22 24 25 25 25 24 24 25 26 26 26 26 24 23 22 22 24 25 26 26 29 32 33 31 29 27 26 25 24 23 22 20 20 21 21 20 20 20 19 19 18 17 16 15 14 12 11 11 11 11 10 9 9 8 8 8 8 7 7
29 26 24 23 22 23 24 25 26 27 26 26 26 27 27 26 25 25 24 23 23 25 26 26 27 31 33 32 30 29 27 26 25 25 23 21 21 21 22 22 21 20 20 20 19 19 18 16 15 14 13 12 11 11 11 10 10 10 10 10 9 9 9
30 27 25 24 22 22 23 25 27 27 26 25 25 26 26 26 27 26 25 24 23 24 25 27 27 29 32 33 32 30 29 28 27 26 25 23 21 22 23 23 22 21 20 20 20 20 19 18 17 15 14 13 13 12 12 12 11 11 11 11 11 10 10
31 29 28 26 23 22 22 23 25 26 25 25 26 26 26 26 27 27 27 26 24 23 24 26 27 29 31 33 34 33 32 30 28 27 26 24 23 22 23 24 23 22 21 21 21 20 20 19 18 17 16 15 15 14 14 14 13 12 12 12 12 12 11
34 32 31 29 26 24 23 23 23 24 25 26 27 27 27 27 27 28 29 28 26 24 25 26 27 28 30 31 34 35 34 32 30 29 28 26 25 24 24 25 24 23 22 22 21 21 21 20 20 19 18 18 17 17 17 16 15 14 14 13 14 13 12
37 35 33 32 29 27 25 25 25 25 25 26 28 28 28 28 29 30 30 29 28 27 27 27 27 28 29 31 33 34 34 33 32 31 29 28 27 27 26 26 25 24 24 23 23 22 22 21 21 20 20 20 20 20 19 19 18 17 16 15 15 15 14
39 37 36 35 33 30 28 27 26 26 26 26 28 29 28 29 30 30 31 31 30 30 30 29 27 28 29 31 32 33 34 34 34 33 32 31 30 30 29 28 27 26 26 25 24 24 24 23 22 22 22 22 22 22 22 21 20 19 18 17 17 16 16
42 39 37 37 36 34 32 30 28 27 26 26 27 27 28 29 29 29 31 32 32 31 31 30 28 28 29 31 32 32 33 34 35 35 35 34 34 33 31 30 29 29 28 27 27 26 25 24 23 23 23 24 24 24 24 23 23 22 20 19 18 18 17
44 42 39 39 39 38 36 34 32 30 28 27 27 27 27 28 29 29 30 32 33 33 31 29 28 28 29 30 31 32 33 35 36 37 37 37 36 35 33 32 31 31 30 29 28 27 27 26 25 25 25 25 25 25 25 25 24 24 23 21 21 20 19
47 45 43 42 42 42 40 38 36 34 32 31 30 29 28 28 28 30 31 31 32 33 32 30 28 28 29 30 30 31 33 36 37 37 38 39 38 37 36 34 33 32 32 31 29 29 28 28 27 26 26 25 26 26 26 25 25 25 25 24 23 22 22
48 48 46 45 45 45 44 43 41 39 37 36 34 33 31 29 29 30 32 32 31 32 33 32 30 30 30 30 30 30 32 36 37 38 39 39 39 39 38 37 35 34 33 32 31 31 29 29 28 27 26 26 26 26 26 25 25 25 26 26 25 24 23
47 48 48 47 47 48 48 47 45 43 41 39 38 37 35 34 32 31 32 34 33 31 31 32 33 32 31 31 31 31 32 34 36 38 39 40 40 41 41 40 38 36 35 34 33 32 31 30 29 28 27 26 26 26 25 25 25 26 27 27 27 26 25
45 47 48 48 49 49 50 49 48 47 45 43 42 41 39 38 38 36 34 35 36 34 32 32 33 34 34 33 33 32 32 33 35 37 39 41 42 42 42 42 41 39 37 36 35 34 33 31 30 29 28 27 26 26 26 25 26 27 28 28 28 27 27
44 45 46 48 49 50 50 51 50 50 48 46 45 45 44 43 42 41 39 38 38 37 36 35 34 34 36 36 35 34 33 33 34 35 37 40 42 42 43 44 43 42 40 39 38 37 34 33 31 30 29 28 27 27 27 27 27 28 29 29 29 29 29
44 44 44 45 47 48 49 50 50 50 50 49 47 47 47 47 46 45 43 42 40 39 39 38 36 36 37 38 38 36 35 36 35 34 35 37 39 42 43 43 43 42 42 42 40 38 36 35 33 32 31 30 29 28 28 28 28 30 30 31 30 30 30
46 45 45 44 45 46 46 47 48 49 49 49 49 48 48 48 49 48 47 45 43 42 41 40 39 38 38 39 40 38 38 38 36 34 34 35 36 38 40 42 43 42 43 43 42 40 39 38 36 34 33 32 31 30 30 29 29 30 31 31 31 32 31
47 47 46 45 45 45 45 45 46 47 48 48 48 49 49 48 48 49 49 48 47 45 44 42 41 40 41 42 42 41 40 40 39 37 35 35 35 35 37 39 41 42 43 44 44 42 41 40 39 37 36 35 34 33 31 30 30 31 32 32 32 33 32
48 48 48 47 46 46 46 45 45 45 46 47 46 46 48 49 48 47 49 50 49 48 47 46 44 44 45 44 42 41 41 40 39 38 37 36 35 34 35 37 39 41 42 43 43 42 41 41 41 39 39 38 37 35 33 33 33 32 32 33 33 32 31
50 50 49 48 48 48 47 47 46 46 46 48 47 44 45 48 49 48 46 47 49 50 49 48 48 48 46 43 40 40 42 42 41 40 39 38 36 34 34 35 36 38 39 40 41 41 41 42 41 40 40 39 39 38 37 36 35 34 33 33 33 31 30
52 51 51 50 49 49 49 49 49 48 47 48 50 48 44 44 47 48 47 45 46 48 49 50 51 50 48 44 41 41 42 43 43 43 42 40 39 37 35 34 34 35 36 37 38 40 40 41 41 40 39 40 40 41 40 38 38 37 36 35 34 32 30
53 53 53 52 51 51 51 52 51 51 50 49 50 51 49 46 45 47 48 48 46 47 49 50 50 50 49 47 46 44 43 43 43 43 43 43 42 39 38 36 35 34 33 34 35 37 38 39 38 38 38 39 40 41 41 40 40 40 39 39 38 36 33
54 54 54 53 53 52 52 53 54 53 53 52 52 52 52 50 48 46 48 49 48 48 49 49 48 47 47 48 48 47 47 46 43 41 41 43 43 43 41 39 37 35 34 34 36 36 36 37 38 37 37 39 39 40 39 39 39 41 42 41 40 39 37
55 56 56 55 55 54 53 54 55 56 55 55 54 54 53 53 52 51 49 48 48 49 50 50 49 48 48 48 48 47 47 48 47 44 41 41 43 44 44 43 41 39 37 37 37 37 37 37 38 38 37 39 40 39 39 39 39 40 41 42 42 42 40
57 57 58 58 58 57 55 55 56 57 58 57 57 57 56 54 54 54 54 52 50 49 49 50 50 50 49 49 48 47 47 48 48 48 46 44 42 43 44 44 43 42 41 40 40 40 39 38 39 38 38 39 40 41 41 40 40 39 40 42 43 43 42
60 59 59 60 60 60 59 57 57 58 59 60 60 59 59 58 56 55 55 56 55 53 51 50 51 51 50 50 50 49 49 48 47 47 47 47 45 43 43 43 44 44 44 43 42 42 41 40 40 40 39 39 41 41 42 42 41 39 39 42 44 44 43
61 62 61 62 62 63 62 61 60 60 61 62 62 62 61 61 60 58 56 57 57 57 55 53 53 52 51 51 51 51 50 50 48 47 46 47 47 46 44 44 43 43 43 44 43 44 44 43 42 41 41 41 41 41 42 42 41 40 40 42 45 45 44
63 64 64 63 64 65 65 64 63 63 63 63 64 65 64 64 63 62 60 59 58 58 57 57 56 55 54 53 52 52 52 51 49 48 48 47 47 47 46 45 44 43 41 42 43 44 45 46 45 43 42 42 42 42 42 41 40 39 39 41 44 46 46
67 66 66 66 66 67 68 68 67 66 66 66 66 67 67 67 66 65 64 63 62 60 59 58 58 58 57 56 54 54 53 52 50 50 49 48 47 47 47 46 46 45 43 41 42 44 45 46 47 46 44 43 42 41 40 39 38 36 36 38 39 43 45
72 71 70 69 69 68 69 70 70 69 68 68 69 70 70 69 69 69 67 67 65 64 62 60 59 59 59 58 57 55 54 53 52 52 50 49 47 47 48 48 48 47 45 44 44 44 43 44 45 47 47 45 43 41 39 38 36 34 35 37 36 37 40
76 75 75 73 72 71 71 71 72 72 71 71 71 73 73 72 72 72 71 70 68 67 66 64 62 61 60 60 59 58 57 57 55 52 50 50 49 48 49 50 50 48 47 47 47 45 43 42 42 45 48 47 45 42 39 36 35 34 34 36 38 40 40
76 78 78 78 77 76 74 73 73 74 74 73 73 74 75 75 75 75 74 73 71 70 68 67 66 64 63 62 61 60 60 60 58 54 51 49 48 49 50 51 50 48 48 49 49 47 44 41 40 42 46 47 45 43 41 39 37 36 34 34 36 38 38
71 76 79 81 81 81 80 78 76 76 76 76 76 76 76 77 77 77 77 77 75 73 71 69 68 67 66 65 64 63 62 62 61 59 56 50 47 47 49 50 50 49 48 49 50 49 46 44 41 41 42 43 44 43 43 43 41 38 36 36 36 34 32
54 64 73 79 82 83 84 83 81 79 78 78 78 78 78 78 78 79 79 79 79 77 74 71 69 67 67 68 67 66 65 64 63 63 62 57 52 49 47 46 47 48 48 49 50 50 48 46 44 42 39 39 41 42 41 42 42 40 40 41 40 37 35

ECMWFFLT1_500_spd_087.txt.gz
Wind_Speed
27 24 19 17 16 19 21 21 20 21 21 20 21 20 19 18 17 18 20 21 20 20 22 27 30 29 28 25 22 19 18 18 19 18 17 16 15 15 15 14 14 13 12 12 11 10 8 8 7 5 4 3 3 2 2 2 2 3 3 3 2 2 2
28 25 20 16 15 15 18 19 21 22 22 22 22 22 21 19 19 20 21 21 21 21 22 26 30 31 30 27 23 21 20 20 20 18 17 17 16 16 15 15 14 14 13 12 12 11 10 8 7 6 5 4 3 2 2 2 2 3 3 2 2 2 2
26 24 20 17 17 18 19 20 22 22 21 21 21 21 22 21 21 22 22 23 23 22 22 25 30 32 31 29 25 22 21 21 20 19 18 18 17 16 16 15 15 15 14 13 13 13 11 10 9 8 6 5 4 3 3 3 3 3 4 3 3 2 2
25 23 21 20 21 22 22 21 22 22 20 20 21 23 23 23 23 24 23 24 24 23 23 25 29 32 31 30 27 24 22 22 22 21 20 19 17 16 16 16 16 15 15 15 15 14 12 11 10 9 8 6 5 4 3 4 4 4 5 4 3 3 3
25 24 23 22 23 23 23 22 22 22 23 24 25 25 25 25 25 24 23 23 24 23 23 25 28 30 32 31 28 26 24 24 24 22 21 19 18 17 17 17 16 16 16 16 16 15 14 12 11 10 9 7 5 4 4 4 5 5 5 5 5 4 3
27 25 24 24 24 24 24 23 21 21 24 28 28 25 25 26 25 24 23 22 22 22 22 23 25 28 30 31 30 27 26 25 25 23 22 20 19 18 18 18 17 17 17 17 17 17 15 14 12 11 10 8 7 6 5 5 5 6 6 6 6 5 4
28 26 25 26 26 25 24 25 23 19 20 26 27 23 23 26 25 23 22 21 21 23 23 23 24 25 28 30 30 28 27 26 26 25 23 21 20 19 19 18 18 18 18 18 18 18 16 15 14 13 11 10 9 8 7 7 7 7 7 7 6 6 5
31 28 27 28 28 26 25 26 26 21 19 23 23 20 21 24 24 23 23 22 22 23 23 23 22 23 26 29 30 29 28 27 26 26 24 22 21 20 19 20 20 20 20 19 20 20 18 17 16 14 13 12 11 10 9 9 8 8 8 7 7 7 6
32 31 29 29 29 27 26 26 26 23 22 22 22 20 20 21 23 24 25 25 25 25 24 22 22 23 25 27 30 31 30 28 27 26 25 23 22 21 21 22 22 22 21 21 22 22 20 19 18 17 16 14 13 12 12 11 10 9 9 8 8 8 7
34 33 32 31 30 28 27 26 25 25 26 25 24 22 19 19 23 26 26 27 29 28 25 22 22 24 25 27 30 33 32 30 28 27 26 25 23 22 22 23 23 23 23 23 24 23 22 21 20 19 18 17 16 15 14 13 12 11 10 9 9 9 8
36 35 34 32 31 29 28 27 26 25 26 27 26 23 21 21 23 25 25 27 30 29 27 25 23 23 25 27 30 33 33 32 30 29 28 27 25 24 24 24 24 25 24 25 25 24 24 23 21 21 20 19 18 17 16 15 14 13 11 10 10 10 10
38 37 36 34 32 31 30 29 27 26 24 25 26 25 25 23 19 19 24 28 30 30 28 25 21 21 24 26 28 31 33 33 32 31 30 29 28 27 25 25 25 26 26 26 26 25 25 24 23 22 22 21 20 19 18 17 16 15 14 12 12 11 11
40 39 38 36 35 33 32 32 30 28 25 25 26 25 28 27 20 19 24 27 27 27 26 25 22 22 24 25 25 27 30 32 33 33 32 31 30 29 28 26 26 26 26 27 27 26 26 25 24 23 23 23 22 21 20 19 18 17 16 15 14 13 13
42 42 40 39 38 36 35 34 33 31 28 27 27 26 27 28 27 27 27 24 23 22 23 26 25 23 23 24 24 25 27 30 32 33 34 33 32 31 30 28 27 27 27 27 27 27 27 26 25 24 24 24 23 22 22 21 21 20 19 18 17 16 16
45 44 43 42 41 39 38 37 36 35 32 30 29 28 27 27 28 31 30 26 22 17 18 22 24 24 24 24 24 25 25 27 29 32 33 34 34 33 32 31 29 28 28 28 27 27 27 27 27 25 25 24 24 24 24 23 23 22 21 21 20 19 18
47 46 45 44 43 42 41 40 39 38 36 34 33 31 30 28 27 29 31 31 26 19 17 21 23 26 27 26 25 26 26 26 27 29 31 33 33 34 34 33 32 30 30 29 28 28 28 27 27 27 26 25 25 25 25 25 25 24 24 24 23 22 21
48 48 47 46 45 44 43 42 42 40 39 38 37 35 33 31 29 28 30 32 31 26 23 24 25 26 29 30 29 28 27 27 26 26 28 31 33 34 35 35 34 33 31 30 29 29 28 27 27 27 27 27 26 26 26 26 26 26 26 26 26 25 24
48 49 49 48 47 47 46 45 44 43 42 41 40 39 37 35 32 31 30 31 32 31 28 28 28 26 25 28 31 31 30 29 28 28 28 29 31 34 36 37 37 35 33 32 31 30 30 29 28 28 27 27 27 26 26 26 26 26 26 27 27 26 26
47 49 50 50 50 49 48 48 47 46 45 44 43 42 41 39 37 35 34 33 34 34 32 30 30 28 25 26 30 32 32 32 31 30 30 30 30 32 35 37 37 36 36 35 34 33 32 30 29 28 28 27 27 26 25 26 26 25 26 28 28 27 27
46 48 50 51 51 51 51 50 49 48 47 46 45 45 44 44 42 40 38 37 36 37 36 33 32 32 31 30 30 31 32 35 35 33 32 32 31 31 33 35 35 35 36 37 36 35 33 32 31 30 29 28 27 26 25 25 25 24 25 27 28 28 28
46 47 49 51 52 53 53 53 52 51 50 48 47 48 47 47 46 44 43 41 40 40 40 38 37 35 35 35 34 32 33 35 37 36 35 35 34 33 32 32 33 34 36 37 37 37 35 35 34 32 31 30 29 27 26 25 25 24 24 26 28 29 29
47 47 48 50 52 53 53 54 54 54 53 52 51 50 50 50 50 49 47 45 44 44 43 42 41 40 39 38 37 36 34 33 35 37 38 37 36 36 35 33 32 33 34 35 37 37 37 37 36 35 34 33 31 30 28 28 27 26 25 26 28 29 28
48 48 48 49 51 52 52 53 54 55 55 55 54 53 53 53 53 52 52 50 49 48 47 46 45 44 43 41 40 40 38 35 34 37 38 37 36 36 37 37 36 34 32 33 35 36 37 38 38 37 36 35 34 32 31 30 30 29 28 28 29 29 28
50 49 49 50 50 51 52 52 53 54 55 56 56 56 56 56 56 55 55 54 54 52 51 50 49 47 47 46 44 43 40 37 36 37 36 34 34 35 36 37 37 36 34 32 32 34 35 37 38 38 38 37 36 35 33 33 32 32 31 31 32 31 30
50 50 50 51 51 51 51 51 52 53 53 54 55 56 57 57 57 57 56 56 55 55 54 52 51 50 49 48 47 44 40 37 39 40 37 34 33 34 35 35 36 38 38 36 32 31 32 33 35 36 37 37 36 36 36 35 35 34 34 34 34 34 33
51 51 51 51 51 51 52 52 52 52 52 53 53 55 56 56 57 57 57 56 55 55 54 53 52 51 50 49 48 45 42 41 42 42 40 38 35 34 35 36 37 39 41 40 35 32 30 30 31 32 34 35 36 37 37 36 36 37 36 36 36 36 36
52 53 53 53 52 52 53 53 53 53 53 53 53 53 54 55 56 56 56 56 55 55 54 53 51 51 51 49 48 46 45 46 48 48 46 43 40 38 37 38 38 40 41 40 37 33 31 29 29 29 30 32 34 36 37 37 37 38 38 38 38 38 38
53 53 54 54 54 54 54 54 53 54 54 54 54 54 54 54 55 55 55 55 55 55 54 53 51 51 50 49 48 48 47 47 47 47 47 47 46 44 43 41 39 38 38 37 35 33 31 30 29 29 29 30 32 34 35 36 37 38 39 39 39 39 39
54 54 54 54 55 55 55 55 55 55 55 55 55 55 56 55 55 55 55 55 55 55 54 52 51 51 51 49 47 47 47 46 45 44 44 46 47 47 46 44 41 38 36 36 36 35 34 33 31 30 30 30 30 31 33 34 36 38 39 39 39 39 40
55 55 55 55 56 56 56 56 56 56 56 56 56 56 57 57 57 57 56 56 56 56 56 54 51 50 51 52 51 48 45 43 44 45 45 44 45 47 47 46 43 40 38 36 36 36 37 37 35 33 32 31 31 31 31 33 35 36 37 38 38 39 40
54 56 57 57 58 57 57 57 57 57 57 57 57 57 58 59 59 59 59 58 58 57 57 57 55 52 51 52 54 54 50 45 44 45 45 44 43 45 47 46 45 43 41 39 38 36 35 37 38 37 36 34 32 32 32 33 33 34 36 37 38 39 40
54 55 56 58 59 59 59 59 60 59 58 58 59 59 59 59 60 61 61 61 60 60 60 59 58 57 55 53 53 53 53 51 48 46 46 46 45 45 44 42 41 40 40 40 40 38 36 35 36 38 38 37 35 34 34 34 34 35 37 39 39 38 39
56 56 56 58 59 60 61 61 62 62 61 60 60 60 60 60 60 61 63 63 63 63 62 62 61 60 59 57 56 54 53 52 50 47 46 45 45 45 44 44 43 42 40 40 40 40 39 37 35 35 36 37 38 38 37 37 37 39 41 41 39 39 40
58 59 59 59 60 61 62 62 63 64 64 63 63 63 63 62 61 62 63 64 65 65 65 64 64 63 61 60 60 59 57 55 54 51 49 47 45 43 41 41 42 40 40 41 42 42 41 40 38 36 35 36 38 38 38 39 41 42 44 42 40 39 41
59 59 60 61 62 63 63 64 64 65 66 66 66 65 65 65 64 63 63 64 65 67 67 67 66 66 65 63 62 61 61 60 59 57 55 53 52 48 44 42 40 37 37 39 40 41 43 42 40 39 38 37 37 38 39 40 40 40 40 40 41 41 40
55 57 58 60 63 65 66 66 66 66 67 68 69 69 68 67 67 66 66 65 66 67 68 69 69 68 68 67 65 64 63 63 62 61 60 58 57 55 52 50 47 44 41 40 38 39 41 41 40 40 39 38 38 39 40 40 39 38 38 40 42 44 43
49 51 54 56 59 63 66 68 69 69 69 69 70 70 71 70 70 69 69 68 68 68 68 69 70 71 70 70 69 67 66 65 64 64 63 61 60 59 57 55 53 50 48 46 42 39 39 39 39 41 41 39 38 40 42 42 40 39 40 40 42 45 46
44 46 48 51 54 57 61 65 68 70 72 72 72 72 73 73 72 72 72 71 71 70 70 70 70 71 72 72 72 71 69 68 67 66 65 64 63 62 60 58 56 53 51 49 46 43 40 38 37 39 41 42 41 40 42 43 42 41 41 40 40 43 46

ECMWFFLT1_500_spd_090.txt.gz
Wind_Speed
14 14 15 16 17 16 17 17 19 20 21 20 18 18 18 19 17 17 18 21 22 22 22 22 23 24 25 23 21 19 17 17 17 16 15 14 13 13 13 12 11 10 9 9 8 7 6 4 3 3 4 5 5 5 5 5 5 5 5 6 5 5 5
17 15 16 17 16 15 16 17 19 21 21 21 20 19 20 20 19 19 19 21 22 23 23 23 23 25 26 25 23 21 19 18 18 17 16 15 15 15 14 13 13 12 11 11 10 9 7 5 4 4 4 4 5 5 4 4 4 4 5 5 5 5 5
20 17 17 19 16 14 16 17 19 21 21 21 20 21 22 22 22 22 21 21 21 22 23 22 22 24 26 27 25 22 20 19 19 18 17 17 16 16 15 14 14 13 12 12 12 10 8 7 6 5 4 4 4 5 4 4 4 5 5 5 5 4 5
23 21 19 18 15 14 15 17 18 19 20 20 21 22 23 24 24 23 22 21 21 21 22 22 21 23 25 27 26 24 22 20 20 19 18 17 17 16 16 15 15 14 14 14 13 11 10 8 7 6 5 5 4 4 4 4 4 5 5 5 5 5 5
24 24 20 18 16 14 13 14 16 17 19 21 22 23 23 23 24 24 24 23 21 21 22 22 21 21 24 27 27 26 23 21 21 20 18 17 17 17 17 17 16 15 15 15 14 13 11 10 8 7 6 5 4 4 4 5 5 5 5 5 5 5 5
25 26 22 19 18 16 12 11 15 18 20 22 24 24 22 24 26 27 27 25 23 22 23 22 21 21 22 26 29 28 26 23 22 21 19 17 17 18 18 18 17 16 16 16 16 15 13 11 10 8 7 7 6 5 4 5 6 6 6 5 4 5 5
25 27 25 21 19 17 15 14 15 17 18 22 25 24 22 25 28 27 26 26 25 24 24 22 21 22 22 25 28 29 28 26 24 22 20 19 18 18 18 18 17 17 17 17 17 16 15 13 11 9 8 8 7 6 6 6 6 6 6 5 4 4 4
25 27 26 24 21 19 18 18 17 16 17 20 22 21 22 24 25 24 25 27 26 26 25 23 22 23 23 23 27 30 30 28 26 24 22 20 19 18 18 18 18 18 18 18 18 18 16 15 13 11 10 9 9 8 7 6 6 6 6 5 5 4 4
27 27 27 26 23 21 20 20 19 18 17 17 16 17 20 23 25 26 28 28 26 25 25 24 23 22 21 21 24 28 30 30 28 25 24 22 20 18 18 18 18 19 19 18 19 19 17 16 14 13 12 11 11 10 8 7 7 7 7 6 6 6 5
29 28 28 27 25 24 21 21 21 19 17 16 14 14 16 20 24 27 30 29 26 25 25 24 22 22 21 21 23 26 28 29 29 27 25 24 22 20 19 19 19 19 19 19 19 19 18 17 16 15 14 13 12 11 10 9 8 8 8 7 7 7 7
31 30 30 29 27 27 24 23 23 20 17 16 16 16 17 19 21 24 28 28 25 26 26 24 22 22 23 23 23 25 27 28 29 29 27 25 24 22 20 19 19 19 20 20 20 20 20 19 18 17 16 15 14 13 12 11 10 9 9 9 8 8 8
32 32 32 31 30 29 27 26 25 22 18 15 17 18 18 18 18 20 23 23 23 25 26 24 22 22 24 25 26 28 28 28 29 29 28 26 25 24 22 20 19 20 20 20 20 20 20 20 19 19 18 17 16 15 14 13 12 11 11 10 10 9 9
34 34 34 33 32 31 30 29 27 25 21 18 19 20 17 16 15 16 18 18 20 24 24 22 22 23 26 27 27 27 27 28 29 29 29 28 26 26 24 22 20 20 21 21 21 21 21 21 21 20 20 19 18 17 16 16 15 14 13 12 12 11 10
36 37 36 35 34 33 32 31 30 28 26 24 23 20 17 16 16 15 15 15 16 18 20 21 22 24 26 27 27 27 28 31 31 29 28 28 28 28 26 24 22 21 21 22 22 22 21 21 21 21 21 20 20 19 18 18 17 17 16 15 14 13 13
38 39 39 38 36 35 34 33 31 30 29 29 28 23 18 16 14 14 16 17 17 16 17 19 21 23 25 26 27 28 30 33 34 31 29 28 29 29 28 27 26 24 24 23 23 23 22 22 22 21 21 21 21 20 20 19 19 19 18 17 16 16 15
39 40 41 40 39 37 36 35 34 32 31 32 32 30 26 21 16 14 16 19 20 20 20 19 19 20 23 24 26 26 27 31 34 33 31 30 29 29 29 29 29 29 28 27 25 24 23 22 21 21 21 21 21 21 20 19 19 19 19 19 19 18 17
40 41 42 43 42 40 39 37 36 35 34 34 35 34 32 28 23 20 19 19 20 21 23 23 20 19 20 22 25 27 26 28 31 32 32 31 29 28 28 30 32 32 31 30 28 27 25 23 21 20 20 20 20 20 19 19 19 19 19 20 20 19 19
40 41 43 44 44 43 41 40 39 38 37 37 37 36 35 31 28 27 26 24 23 22 22 23 23 22 20 20 23 25 25 26 27 30 30 30 29 29 29 30 32 32 32 32 31 30 28 25 23 21 20 20 20 20 19 19 18 18 19 20 20 20 20
39 41 43 45 45 45 44 42 41 40 40 39 39 39 38 35 32 30 30 30 29 26 23 22 23 23 23 22 22 22 22 22 25 29 31 29 29 32 31 29 29 30 30 31 31 32 30 28 26 25 23 22 21 20 20 19 18 17 18 19 21 20 20
40 41 43 45 46 47 46 45 44 43 42 41 41 41 41 39 36 34 33 33 34 32 28 26 25 25 24 24 23 23 21 20 22 27 29 27 28 31 31 28 27 28 28 28 28 28 29 30 29 28 26 24 23 22 21 21 20 19 19 20 21 22 21
41 42 43 45 46 47 48 48 47 46 44 44 43 43 43 42 40 38 37 36 37 37 35 32 31 29 28 26 25 25 23 22 22 24 25 25 25 29 30 29 28 30 30 29 27 27 28 29 30 30 29 28 27 25 23 23 22 21 20 21 23 23 23
44 44 45 46 46 48 48 49 49 48 47 47 46 45 45 45 44 42 41 40 40 40 39 38 36 35 34 32 29 27 26 25 24 25 25 25 25 27 29 31 31 32 32 32 31 29 28 28 30 30 31 31 30 28 26 25 25 24 23 23 25 26 25
46 46 46 47 47 48 49 49 50 50 49 49 49 48 48 47 46 45 44 43 43 42 42 42 41 40 39 38 35 31 29 28 27 26 27 28 28 28 28 30 31 33 34 34 33 32 31 31 32 31 31 32 31 31 30 29 29 27 26 26 27 27 26
46 46 48 48 47 48 49 50 50 51 51 51 51 51 50 49 49 48 47 46 46 45 45 44 44 43 42 42 40 37 35 34 32 30 29 29 30 30 30 30 30 32 35 36 34 34 34 34 33 31 30 30 31 32 33 33 32 31 29 29 30 30 29
46 46 47 48 47 47 49 50 50 51 51 52 52 52 52 52 51 51 50 50 49 48 47 46 46 45 44 45 44 43 42 40 38 36 33 32 32 32 32 31 29 29 32 34 34 35 35 34 33 32 31 30 31 33 34 33 33 34 33 32 33 32 32
47 47 47 48 47 47 49 50 50 51 51 52 53 53 52 53 53 53 53 53 52 51 50 49 49 48 47 47 47 46 46 45 43 41 39 36 35 34 34 33 30 28 28 30 32 34 34 34 34 33 32 32 32 33 32 31 33 35 36 35 35 35 35
48 49 50 50 49 49 50 50 51 52 52 52 53 53 53 53 53 54 54 54 54 54 53 53 52 52 52 51 50 50 49 49 47 45 43 40 38 37 36 35 34 31 29 29 29 31 32 34 35 34 34 34 34 34 33 32 33 36 38 38 38 38 38
49 51 52 53 53 52 51 51 52 53 53 53 53 53 53 53 54 54 55 55 55 56 56 55 55 55 55 54 53 53 52 51 50 47 45 43 40 39 38 38 37 36 34 32 31 30 31 33 34 34 34 34 35 35 34 34 35 37 38 40 41 41 41
50 50 51 52 53 53 52 52 53 54 54 54 54 54 54 54 54 55 55 56 56 57 57 57 57 57 57 56 56 55 54 54 52 48 46 44 41 40 40 39 38 36 35 34 34 34 34 34 32 31 32 34 36 36 36 35 37 38 39 40 42 43 43
52 52 52 52 52 52 51 51 53 54 55 55 55 55 55 55 55 55 55 56 56 57 58 58 57 57 57 57 57 56 55 55 53 50 48 45 43 41 39 38 39 38 36 35 35 35 37 37 34 32 32 33 35 37 37 36 36 38 40 39 39 40 41
52 52 53 53 53 53 52 52 52 53 54 55 55 55 55 56 56 56 56 56 57 57 58 58 57 57 57 56 56 56 55 55 53 51 49 47 45 43 39 37 37 38 37 35 34 34 36 37 37 35 33 32 33 35 38 39 38 40 42 40 36 35 36
51 51 51 52 53 54 53 53 54 54 54 54 55 55 55 56 56 57 57 57 57 57 58 58 57 57 57 56 56 55 55 55 54 52 51 49 47 46 43 40 37 35 35 35 34 34 34 34 35 36 35 34 33 33 36 39 40 41 42 39 34 32 33
51 51 51 52 52 53 54 54 55 55 55 55 55 55 56 56 57 57 57 57 58 58 58 58 58 58 58 57 57 56 55 55 55 53 52 51 49 48 47 47 44 39 37 36 36 35 34 33 33 33 33 34 34 34 34 35 36 37 39 38 34 31 32
51 51 52 52 53 53 53 54 55 55 56 57 57 57 57 57 57 58 58 58 58 58 58 58 58 58 59 59 59 58 56 56 56 55 53 52 51 50 48 49 49 46 43 40 39 39 38 36 35 33 32 33 36 38 38 36 33 31 32 33 34 34 34
52 52 53 53 53 54 54 54 55 55 56 57 58 58 58 58 58 59 59 59 59 59 59 59 59 59 59 60 60 60 59 58 57 57 56 54 53 53 51 49 49 48 47 46 45 42 40 38 37 37 36 36 36 37 38 37 34 32 30 29 30 32 33
53 54 54 54 55 55 56 56 56 56 57 58 59 60 60 60 60 60 61 61 61 61 60 60 60 59 60 60 60 61 61 61 60 59 58 57 56 55 54 53 52 50 48 48 48 48 44 40 38 37 36 34 34 35 34 33 33 34 33 31 31 32 31
51 53 54 55 55 56 57 58 58 58 58 59 60 61 62 63 63 63 63 63 63 63 63 62 62 61 61 61 61 61 62 63 62 61 60 60 59 58 57 57 56 55 53 51 50 50 48 43 39 37 35 34 33 33 32 30 31 32 33 33 35 36 34
47 48 50 52 53 54 55 57 58 59 59 60 61 62 63 64 65 65 65 65 65 65 65 65 64 64 63 63 63 63 63 63 64 64 63 62 61 61 60 59 58 58 58 57 54 53 51 49 45 44 43 41 40 38 36 33 32 32 33 34 35 36 35

ECMWFFLT1_500_spd_093.txt.gz
Wind_Speed
19 19 20 20 19 18 17 17 18 17 17 18 17 15 15 15 15 14 14 16 18 18 18 18 19 20 21 20 19 17 15 14 14 14 13 12 11 10 9 8 7 7 7 8 10 9 8 7 6 5 5 6 6 6 6 6 5 5 5 5 5 4 4
17 17 18 18 18 18 18 17 18 18 17 19 20 18 17 16 16 15 15 16 18 19 19 18 19 20 22 22 21 19 17 16 15 15 14 13 12 12 11 9 9 8 8 9 10 10 9 8 7 6 6 6 6 6 6 6 5 5 5 5 5 4 4
19 16 15 15 16 17 18 17 17 18 17 19 22 22 20 18 17 17 17 17 18 19 19 19 19 19 21 22 22 22 20 18 16 15 15 14 13 13 12 11 10 9 9 9 10 11 10 9 8 8 7 7 6 6 6 6 6 6 6 6 5 5 5
23 20 17 15 17 18 19 18 16 17 20 22 24 23 22 20 18 17 19 19 18 18 19 19 20 20 20 20 23 24 22 20 18 16 16 15 14 13 13 12 11 11 10 10 11 12 11 10 9 9 8 8 7 6 6 6 6 6 6 6 6 5 5
24 24 21 18 18 18 18 17 15 16 19 20 21 21 20 20 18 17 18 20 18 17 17 17 18 19 20 20 22 24 24 22 20 18 17 15 14 14 14 14 13 12 11 11 12 12 12 11 10 9 8 8 7 6 6 6 6 6 6 6 6 5 5
20 21 22 20 19 18 16 16 15 14 17 18 20 22 21 20 20 19 19 20 19 17 16 17 17 19 20 19 20 23 25 24 21 19 17 16 15 15 15 15 14 13 12 12 12 12 13 12 11 10 9 9 8 7 7 6 6 6 6 6 6 6 5
18 18 20 22 22 20 19 17 13 12 17 21 21 22 23 22 23 23 23 22 21 20 20 21 21 20 19 18 18 21 24 25 23 21 18 16 15 15 15 15 14 14 13 13 13 13 14 13 12 11 10 9 9 8 7 7 7 7 7 7 7 7 6
21 19 19 20 21 22 22 20 15 13 18 21 19 18 21 23 24 24 24 24 23 23 23 23 24 22 20 18 18 18 22 25 24 22 20 18 16 16 16 15 15 14 14 14 14 14 14 14 13 12 11 10 10 9 8 7 8 8 8 8 8 7 7
23 22 20 19 20 22 23 22 18 16 19 19 15 14 16 19 20 22 23 22 23 24 24 24 24 23 20 20 19 17 20 24 25 24 21 19 18 17 17 17 16 15 15 15 15 15 15 15 14 13 12 11 11 10 9 9 9 9 9 9 9 9 8
23 22 21 20 20 22 24 24 21 19 18 17 14 13 13 15 17 20 22 22 23 25 25 23 23 23 23 22 21 19 20 23 26 26 25 22 21 20 19 19 18 17 16 16 16 16 16 16 16 15 13 13 12 12 11 10 9 9 9 9 9 9 8
23 23 22 22 22 22 23 24 22 20 19 18 16 14 14 14 15 17 19 22 25 26 24 23 23 25 26 25 23 22 21 23 25 26 27 26 24 23 21 21 21 20 19 18 17 17 17 17 17 16 15 15 14 13 12 11 10 9 9 9 9 9 9
24 23 24 24 23 23 23 23 22 21 21 21 19 16 15 15 15 15 15 19 24 26 26 25 25 25 25 26 24 22 22 24 25 26 27 27 25 24 22 21 21 20 20 20 19 18 18 18 17 17 17 17 16 15 13 12 11 10 9 9 9 9 9
23 23 24 26 26 25 24 24 24 23 23 23 21 19 16 15 14 13 13 15 20 25 26 25 26 26 26 26 26 24 24 25 25 25 26 26 26 25 23 21 21 21 21 20 19 19 18 18 18 18 18 17 16 16 14 13 12 11 10 10 10 10 10
23 24 24 26 27 27 27 26 26 25 25 25 23 21 18 15 13 13 14 14 16 21 25 26 27 27 26 26 26 24 25 27 27 26 26 26 26 26 25 23 22 21 22 21 20 18 18 18 18 18 18 17 17 16 15 14 13 13 12 11 11 11 11
23 24 26 26 27 28 28 28 28 27 27 27 25 23 21 18 15 14 15 15 14 15 20 23 25 25 25 25 25 24 25 28 29 28 26 24 23 25 25 24 23 22 22 23 22 20 18 18 18 17 17 18 17 17 15 14 14 14 14 13 13 12 12
25 24 26 28 29 29 29 29 29 29 29 29 28 26 25 22 19 15 13 14 15 15 17 18 20 21 23 25 26 26 27 28 29 29 26 23 22 22 24 25 24 23 23 24 23 21 19 18 17 17 17 18 18 17 16 15 15 15 15 14 14 14 13
28 27 27 29 31 31 30 30 30 30 31 31 30 29 27 26 24 21 17 14 14 16 17 17 16 16 18 20 23 25 27 27 27 26 24 22 22 22 23 25 26 26 26 25 24 23 21 20 18 17 17 17 18 18 16 16 16 16 16 16 15 15 15
28 29 29 29 31 33 33 32 31 31 32 33 33 31 29 28 27 27 25 21 17 16 16 17 16 14 13 14 17 20 24 25 25 24 23 23 24 24 24 27 28 29 29 28 27 26 24 22 20 19 17 17 18 18 17 17 17 18 17 17 17 17 17
25 28 30 31 32 33 34 35 34 33 33 34 35 33 31 30 30 30 29 26 23 20 18 18 17 15 13 13 14 16 19 22 23 24 24 24 25 26 27 29 31 31 31 31 30 28 26 24 23 22 20 19 18 18 18 17 18 18 18 19 19 19 19
24 26 28 30 32 33 35 35 35 35 35 35 35 35 34 33 32 31 30 28 26 25 24 22 20 17 15 15 15 16 17 19 22 24 25 25 25 26 27 30 32 32 32 32 31 29 27 26 25 24 23 22 21 21 20 19 19 19 19 20 21 21 20
27 26 27 29 31 33 35 36 36 36 36 36 37 37 36 35 34 33 33 31 30 29 28 27 25 23 20 19 18 17 16 17 19 22 23 24 24 24 25 27 30 32 33 33 31 29 28 27 26 26 26 26 25 24 23 23 23 23 22 21 22 23 22
33 32 31 31 31 32 34 35 36 36 36 37 38 39 38 38 37 36 35 34 33 32 31 30 29 27 26 24 23 20 18 18 18 19 20 21 22 22 23 24 26 29 32 33 32 30 29 29 28 27 27 28 28 28 27 26 27 26 25 24 25 25 25
36 35 35 35 34 34 35 35 35 36 36 36 38 39 39 40 39 39 38 38 37 35 35 34 33 31 30 28 27 26 23 21 21 20 20 21 21 21 21 21 22 24 27 31 31 30 29 29 29 28 28 27 27 29 29 28 29 29 29 28 28 28 27
38 37 36 36 37 38 38 37 36 36 36 36 37 38 39 40 40 41 41 40 40 39 38 37 36 35 34 32 31 30 29 27 26 24 23 23 23 22 22 21 21 21 23 25 27 28 29 30 30 30 30 29 28 29 29 29 29 31 32 32 32 31 30
39 38 38 38 39 39 40 40 39 38 38 38 37 38 39 39 40 41 41 42 42 41 40 40 39 38 37 36 35 34 34 33 31 29 28 27 26 25 25 25 24 24 23 22 23 26 28 29 29 30 31 31 31 30 29 29 30 32 33 35 35 33 33
39 39 39 40 40 40 40 41 42 41 40 40 39 39 40 41 41 41 41 42 43 43 43 42 41 41 40 40 39 38 38 37 35 34 33 31 30 29 29 29 28 28 27 26 25 25 26 26 28 30 32 33 33 31 30 30 32 33 35 36 35 34 34
40 39 40 41 41 41 41 42 42 42 42 42 42 41 42 43 43 43 42 43 44 44 44 44 44 43 43 43 42 42 42 41 39 38 36 35 34 32 31 31 31 30 30 30 29 28 27 26 26 27 29 32 34 34 34 34 35 35 35 35 34 35 35
39 39 41 43 43 42 42 42 44 44 44 44 43 43 44 44 44 44 44 44 45 45 46 46 46 46 45 45 45 45 45 45 43 42 40 38 37 36 34 34 33 32 33 33 32 32 31 30 29 27 26 28 32 35 37 38 37 34 34 35 35 35 37
42 42 43 44 45 45 44 44 45 45 45 44 44 44 45 45 45 46 46 46 46 47 47 46 47 47 47 47 47 47 47 47 47 45 44 42 41 40 39 37 36 36 35 34 34 33 33 33 33 31 30 29 31 35 38 39 37 34 34 36 36 37 38
45 44 45 46 46 46 46 47 47 47 46 45 45 45 45 46 46 46 46 47 47 47 47 47 47 47 47 47 47 47 48 48 48 48 47 46 45 44 43 41 40 39 38 36 35 35 35 35 35 35 34 33 34 35 36 35 33 32 34 36 38 39 39
48 47 47 48 48 47 47 48 49 49 49 48 47 47 47 47 48 48 47 47 48 48 48 47 47 48 48 48 48 48 48 48 48 48 48 48 47 46 45 44 43 42 40 38 37 36 36 36 36 37 37 35 35 36 37 35 32 31 33 36 38 39 40
49 48 47 48 48 47 47 48 50 50 50 50 49 48 48 48 49 49 49 49 49 49 49 48 48 48 48 48 48 48 48 49 49 49 49 49 48 47 46 45 44 43 41 40 39 38 37 36 36 38 39 38 36 36 38 38 37 36 36 35 35 35 38
45 46 46 46 47 47 47 48 49 50 50 50 50 50 49 49 49 49 49 49 49 49 49 49 49 49 48 49 49 49 49 49 49 49 49 48 48 47 46 45 44 43 42 41 40 39 39 38 37 37 38 38 38 38 38 37 38 39 39 36 34 33 35
44 45 46 46 47 47 47 47 48 49 50 51 51 51 51 50 50 50 49 49 50 50 49 49 49 49 49 49 49 49 49 50 50 50 49 48 47 47 46 46 45 44 43 42 41 41 40 40 39 38 37 36 35 35 35 35 35 35 35 34 34 35 36
44 45 46 46 46 46 47 47 48 49 49 50 50 51 50 50 50 50 51 51 51 50 50 50 49 49 49 49 49 49 49 50 50 50 50 49 48 48 47 46 45 45 44 43 42 42 42 41 41 41 41 40 39 36 34 34 35 35 33 30 30 33 36
44 45 45 46 46 47 48 48 48 48 48 49 49 50 50 50 50 50 51 51 51 51 51 51 50 50 50 50 49 49 49 49 49 50 50 50 49 48 48 47 46 46 46 45 44 44 44 43 43 43 43 43 43 42 39 37 37 36 34 32 31 33 35
45 45 46 46 47 47 48 48 48 48 48 48 49 50 50 51 51 51 51 51 51 52 52 52 52 51 51 51 51 51 50 50 50 50 50 50 49 48 48 48 48 48 48 48 47 46 46 46 45 45 45 43 43 42 41 40 40 39 36 34 33 32 33
46 46 47 47 47 47 47 48 49 49 49 49 50 50 51 52 52 53 52 52 52 52 53 53 53 53 53 53 53 53 53 52 52 51 51 51 50 49 49 49 49 49 50 50 49 49 48 48 48 48 48 47 45 44 42 40 40 40 38 35 32 31 30

ECMWFFLT1_500_spd_099.txt.gz
Wind_Speed
21 25 27 28 27 25 23 21 20 18 17 16 17 17 16 16 15 14 13 13 14 15 15 15 16 17 17 17 17 17 17 17 17 16 16 16 16 16 16 16 15 14 13 12 12 12 12 13 13 13 12 12 10 10 9 9 9 8 8 8 8 7 7
18 24 28 29 28 27 26 24 22 21 19 19 18 17 16 16 16 15 15 14 14 15 16 16 16 17 18 18 18 17 17 17 17 17 17 17 17 16 16 16 16 15 14 13 13 12 12 13 13 14 13 12 11 10 9 9 8 8 8 7 7 7 7
16 22 27 28 28 28 27 26 26 24 23 22 20 18 17 16 16 16 16 15 14 14 14 15 16 17 17 18 19 19 18 18 17 17 18 18 17 17 17 17 16 16 15 14 13 13 12 12 13 14 14 13 12 11 10 9 9 8 8 7 7 7 7
17 21 23 25 28 29 29 30 29 27 24 22 19 18 17 16 16 16 15 15 14 14 14 15 16 17 16 17 19 20 19 19 19 18 18 18 17 17 17 17 17 16 16 15 14 13 13 12 13 14 14 14 13 12 11 10 9 9 8 8 8 7 7
20 21 23 25 27 30 32 31 28 25 23 21 18 18 18 19 18 18 17 16 15 15 15 14 14 16 17 17 19 20 21 21 20 19 18 18 18 18 18 18 17 17 16 15 15 14 13 13 13 13 13 14 13 13 13 12 11 10 9 9 8 7 7
22 23 24 25 26 27 27 27 26 27 25 22 21 21 22 22 21 21 21 19 17 17 16 15 14 15 17 18 18 20 21 22 21 19 18 18 18 18 18 18 18 17 17 16 15 15 14 13 13 13 13 13 13 13 13 13 12 11 11 10 9 8 8
23 24 25 25 24 23 25 27 30 31 27 24 24 25 26 26 24 23 24 22 21 21 20 19 17 17 17 19 19 20 21 22 22 21 20 18 18 18 17 17 17 17 17 17 16 16 15 15 14 13 13 13 14 13 13 13 12 12 12 11 11 10 9
27 26 26 26 26 26 27 28 29 27 25 25 27 27 27 26 25 25 25 25 26 25 23 21 21 20 20 20 21 21 22 23 24 23 22 20 19 18 17 17 17 17 17 17 17 17 16 16 15 14 13 13 14 14 13 13 13 13 13 12 11 11 10
30 29 28 28 28 28 27 27 25 24 25 27 27 26 24 24 25 26 27 28 29 28 25 23 23 22 21 21 22 22 23 23 23 23 23 23 21 19 18 18 17 18 18 18 17 17 17 17 16 16 15 14 14 15 14 14 14 14 13 13 12 11 11
29 30 30 29 26 25 26 24 24 24 25 26 25 23 23 24 26 27 29 30 30 30 28 26 25 25 23 22 22 22 22 22 21 22 23 24 24 22 21 19 18 18 19 18 18 17 17 17 17 17 16 15 15 16 15 15 15 14 14 14 13 13 13
27 27 29 30 27 26 25 22 22 25 26 24 22 21 22 24 25 26 28 29 29 30 30 29 27 27 26 25 24 22 22 21 21 21 22 24 26 25 24 21 20 19 19 19 18 18 17 16 17 18 18 17 16 16 16 16 16 15 15 15 15 15 15
27 25 26 29 29 29 27 22 20 23 27 25 22 20 20 21 22 24 26 27 27 29 31 32 30 29 29 28 26 24 23 22 22 22 23 25 27 27 26 24 22 21 21 20 19 19 18 17 17 18 18 18 18 17 17 17 16 16 16 16 16 16 17
30 28 27 27 28 29 28 23 17 17 21 22 19 19 20 22 23 24 24 23 23 26 31 33 33 32 32 31 29 28 27 25 24 25 25 26 27 29 29 27 25 24 23 23 23 21 20 20 20 19 20 19 19 19 18 17 17 17 17 17 17 17 18
34 32 29 27 27 27 26 24 20 17 18 19 18 18 20 22 23 22 19 18 19 21 25 29 34 36 35 32 32 33 32 29 28 28 28 27 26 28 29 29 27 25 25 24 24 23 22 22 22 22 21 21 21 21 20 19 18 18 18 18 18 18 18
33 34 31 28 27 27 25 24 23 22 22 21 20 20 21 22 21 18 15 16 18 20 21 24 30 35 35 33 33 35 35 32 31 31 30 28 26 26 28 30 30 28 26 24 24 24 24 23 22 22 22 23 23 23 22 21 20 20 20 20 19 19 19
30 32 31 28 27 27 26 25 24 24 24 23 22 21 20 20 19 18 17 17 18 20 21 22 25 30 34 35 34 36 36 34 32 32 31 29 28 26 26 29 31 30 28 27 26 26 25 24 23 22 22 23 24 25 24 23 23 22 22 22 21 21 21
28 30 29 27 27 28 28 27 26 25 25 25 24 22 20 18 19 20 20 19 18 18 18 19 21 25 29 31 32 34 35 35 35 33 31 29 29 27 26 27 30 31 31 30 29 28 27 26 25 24 23 24 24 25 26 26 26 25 24 23 23 22 22
28 29 28 28 28 29 27 25 26 26 26 26 26 25 23 21 20 18 18 18 18 16 16 17 16 17 20 23 27 30 32 34 35 33 30 28 29 29 28 26 27 30 31 32 31 30 29 28 27 26 25 24 25 25 26 27 28 27 26 25 24 23 23
29 30 30 29 29 28 26 25 25 26 26 26 27 26 25 23 22 21 20 20 18 15 15 14 14 14 15 18 22 26 28 29 31 31 29 29 29 29 28 27 27 29 31 32 33 32 31 30 29 27 26 25 26 26 26 27 28 28 27 27 26 25 25
29 30 30 29 29 29 27 26 26 25 26 26 26 27 26 25 24 24 25 25 23 21 19 15 13 13 14 14 17 21 24 25 27 28 28 28 28 29 29 29 30 31 32 33 33 33 32 32 30 29 27 27 27 27 28 27 27 27 27 27 27 27 26
27 27 27 27 27 28 27 27 27 26 27 27 27 27 28 27 25 24 25 25 25 26 26 22 17 16 16 14 15 17 18 20 22 25 27 28 29 29 30 31 33 34 35 34 33 33 33 33 31 30 29 29 28 28 28 28 28 27 26 26 27 28 27
28 27 27 27 27 27 26 27 28 28 28 28 28 28 28 28 28 26 26 26 24 23 25 24 22 20 17 16 15 16 15 15 16 17 20 25 28 30 33 34 33 34 35 34 32 32 32 32 32 32 31 30 30 30 30 29 29 28 27 27 28 28 28
32 28 28 29 29 29 28 28 29 30 30 30 29 29 29 29 29 28 28 27 26 24 25 25 25 23 20 19 19 19 18 16 15 15 15 17 21 26 30 31 31 31 32 32 31 31 30 29 29 30 31 31 30 31 31 30 30 30 30 29 29 29 29
31 27 26 28 29 29 30 30 30 31 31 32 31 30 30 30 30 30 29 29 28 28 28 28 27 27 27 26 25 25 24 22 20 19 16 14 15 18 20 23 27 29 28 28 29 29 29 28 27 28 29 31 31 32 32 32 32 33 33 32 32 31 31
31 28 27 28 29 30 30 31 31 31 31 31 31 31 31 31 31 31 31 31 30 30 30 30 30 30 30 30 29 28 28 27 25 24 22 18 17 17 15 16 21 26 26 26 26 26 27 28 28 28 29 31 32 33 33 34 34 34 35 35 35 34 34
35 33 32 32 33 33 33 32 32 31 31 30 30 30 30 30 31 32 32 32 32 31 32 32 32 32 31 31 30 29 29 29 28 28 26 24 23 22 19 17 18 20 22 23 24 24 23 24 25 25 26 28 31 33 34 35 36 36 35 35 35 36 36
40 40 38 38 37 36 36 36 35 34 33 32 31 31 31 30 30 31 32 32 32 32 33 33 33 33 33 32 32 32 31 30 30 29 29 28 27 27 26 25 24 22 21 20 21 21 21 21 21 21 20 21 24 28 31 33 35 36 36 35 35 35 36
45 46 44 43 41 40 39 38 37 37 36 35 35 34 33 33 32 32 32 33 33 33 33 33 34 34 34 34 33 33 33 33 32 31 31 31 30 28 28 27 27 27 26 25 23 22 22 22 22 21 20 19 20 23 25 26 28 32 34 35 35 35 35
40 41 42 42 42 41 41 41 41 41 41 40 40 39 38 37 37 36 35 35 35 35 35 35 35 35 34 34 34 34 34 34 33 33 33 33 32 31 30 29 28 28 29 29 28 27 26 26 25 23 23 22 21 23 24 23 24 27 30 31 31 32 35
35 34 34 36 38 39 41 42 42 43 43 43 43 43 42 42 41 41 40 39 38 38 38 38 37 37 36 36 35 35 35 35 35 34 34 34 34 34 34 33 32 31 31 31 31 30 29 28 27 26 25 25 25 26 26 26 26 27 28 28 28 30 33
40 40 40 40 40 41 42 42 42 43 43 44 44 44 44 44 44 43 43 43 42 42 41 40 39 39 39 38 37 37 37 37 36 36 36 36 36 36 36 36 36 35 35 34 34 33 31 30 30 30 29 29 30 30 30 31 31 31 30 29 29 31 31
41 42 44 46 46 47 47 48 48 47 46 46 46 45 45 45 45 45 45 45 44 44 43 43 42 41 40 40 39 39 39 39 39 39 38 38 37 37 37 37 37 37 36 36 36 36 35 34 34 33 33 33 34 34 34 35 35 35 35 33 33 34 33
41 41 43 45 46 47 48 50 50 50 50 49 48 47 47 46 46 46 46 46 45 44 44 44 43 43 42 41 41 40 40 40 40 41 40 40 39 39 38 37 37 37 37 36 36 36 36 36 36 36 35 36 36 36 37 37 37 38 38 37 36 36 36
44 43 43 43 45 46 48 49 50 51 51 51 50 49 48 48 48 48 48 47 47 46 46 45 45 44 43 43 42 42 41 41 41 41 41 41 40 40 40 39 38 38 38 37 37 37 37 36 36 36 36 37 37 38 38 39 39 40 41 41 39 38 38
47 46 45 45 45 46 47 48 50 51 51 51 51 50 49 48 48 48 48 48 48 47 47 47 47 46 45 44 44 43 43 42 42 41 41 41 40 40 40 40 39 39 39 38 38 38 38 38 38 38 37 38 38 38 39 40 40 41 42 42 42 41 40
46 47 47 47 47 47 48 48 49 50 51 52 52 52 52 51 50 50 49 49 49 49 48 48 48 48 47 46 46 45 45 44 44 43 42 42 41 41 41 40 40 40 40 40 40 40 40 40 40 39 39 39 39 40 40 41 41 41 42 43 43 42 41
44 44 46 47 48 49 49 49 49 49 50 51 52 53 53 53 53 52 52 51 51 50 50 50 50 50 49 49 48 47 47 46 46 45 45 45 44 44 43 43 43 43 43 43 43 43 42 42 42 41 41 41 41 41 42 42 42 42 43 43 44 43 42
43 44 45 46 47 48 49 50 50 50 51 51 51 51 52 52 52 52 52 52 52 51 51 50 50 50 51 51 50 50 49 49 49 48 48 48 48 47 47 46 46 45 45 45 45 46 45 45 44 44 44 44 44 44 44 44 44 43 44 44 44 44 43

ECMWFFLT1_500_spd_102.txt.gz
Wind_Speed
25 31 33 32 30 27 24 22 20 19 19 19 19 18 18 17 16 16 16 17 16 16 16 17 18 18 17 17 16 16 16 16 15 14 13 13 12 12 11 10 10 9 10 10 10 10 10 10 11 11 11 10 10 9 9 9 8 8 7 7 7 6 6
20 27 34 35 31 29 26 23 21 21 20 20 19 18 17 17 17 17 17 17 17 16 16 16 17 18 18 17 17 17 17 17 16 15 14 14 14 13 12 12 11 10 9 9 9 9 9 10 10 11 11 11 10 10 10 9 8 8 7 7 7 6 6
16 21 30 33 31 29 27 24 22 22 22 21 19 18 16 16 17 16 16 16 16 17 16 16 16 18 18 18 18 18 18 17 17 17 16 16 16 15 13 13 12 12 11 10 10 9 10 10 10 11 12 12 11 11 10 10 9 8 8 7 7 7 7
17 20 25 29 30 29 28 26 25 24 23 22 20 18 17 16 16 15 15 14 14 15 16 16 17 17 17 18 19 20 19 18 18 18 18 18 17 16 15 15 14 14 13 12 11 10 10 10 11 11 12 12 12 12 11 10 10 9 9 8 8 7 7
19 20 22 26 29 30 30 29 28 26 23 21 20 18 17 16 16 15 15 15 14 14 14 14 15 16 16 17 19 21 21 20 20 19 19 19 18 17 17 17 16 16 15 14 13 12 11 11 11 11 12 12 12 12 12 11 11 10 10 9 9 8 8
17 17 19 25 31 34 34 32 29 26 24 23 22 21 19 18 17 17 16 16 15 15 14 14 14 15 16 17 19 20 22 22 21 21 20 19 19 18 18 18 18 17 16 16 15 13 13 12 12 12 12 12 13 13 12 12 11 11 11 10 10 9 9
17 16 16 22 31 35 34 32 28 27 27 27 26 23 22 22 21 20 19 17 16 16 16 16 16 16 18 19 20 20 22 23 23 23 22 21 20 20 20 20 19 18 18 17 16 15 14 14 13 13 13 13 13 13 13 12 12 12 12 11 11 10 10
18 18 17 20 25 29 30 30 29 28 28 28 27 25 24 24 23 23 21 19 18 18 18 17 17 17 19 21 22 22 23 24 25 25 24 23 22 22 22 21 21 20 19 19 18 16 16 15 14 14 14 14 14 14 14 14 13 13 13 13 12 11 11
22 21 21 21 22 23 26 28 30 31 31 29 28 27 27 26 25 25 24 22 21 21 21 21 20 19 20 21 22 23 24 25 25 26 25 24 24 24 23 23 23 22 21 21 20 18 17 16 15 15 15 15 15 15 15 15 14 14 14 14 13 13 12
26 24 23 22 22 23 25 27 29 30 32 32 31 31 30 30 29 27 26 25 24 24 25 24 23 23 22 22 23 24 25 25 25 26 26 26 26 26 25 25 24 24 23 22 21 20 19 18 17 17 16 16 16 16 16 15 15 15 15 15 15 14 13
25 25 24 24 25 25 26 27 27 28 30 32 33 34 32 31 30 28 26 25 26 27 27 27 27 27 26 25 25 25 25 25 25 25 26 28 29 29 28 27 26 25 25 24 23 22 21 20 19 18 18 18 17 16 16 16 16 15 15 16 16 16 16
23 24 25 27 28 28 28 28 27 26 28 30 31 33 32 30 28 28 27 27 29 29 29 29 30 30 30 29 27 27 26 25 25 25 26 27 29 30 30 29 28 27 26 25 24 24 23 22 21 21 20 20 19 18 17 16 16 16 16 16 17 17 17
26 25 27 29 30 30 29 29 28 26 26 27 28 29 29 28 28 28 29 30 31 31 31 31 30 31 33 33 30 28 27 25 24 24 26 27 28 29 31 31 30 29 28 27 27 26 25 25 24 24 23 22 21 20 19 18 17 17 17 17 17 18 18
31 29 29 30 30 30 29 28 29 27 26 27 28 27 26 26 27 27 28 29 30 30 30 30 30 31 33 35 34 31 27 26 26 26 27 29 29 29 30 31 31 30 29 28 27 27 27 27 27 26 25 24 23 22 21 20 20 19 18 18 18 18 18
34 32 32 31 31 30 28 27 27 26 26 25 25 25 25 26 26 26 25 26 27 27 27 27 27 29 32 35 36 33 29 29 31 31 30 31 31 31 31 31 32 32 31 29 28 28 28 28 28 28 26 25 25 24 23 22 22 22 21 20 19 19 19
34 33 33 33 32 31 30 29 26 25 24 24 22 21 22 22 23 23 24 24 25 25 25 25 24 25 29 32 35 35 33 34 35 34 33 33 33 32 32 32 32 33 34 33 31 29 29 29 28 28 27 26 26 25 24 23 23 24 23 23 21 21 20
32 32 33 34 35 34 33 31 29 25 24 24 22 20 20 20 20 21 22 23 24 25 24 23 22 23 26 28 31 35 38 38 38 37 37 36 36 34 33 33 33 34 36 36 34 32 30 29 28 27 27 27 26 25 24 24 24 25 25 24 24 23 22
31 30 29 32 35 34 33 33 33 30 25 24 23 22 22 22 22 23 23 21 22 24 24 22 20 21 23 25 27 30 34 37 40 41 40 39 38 37 35 34 34 34 36 37 36 34 32 30 29 28 28 27 26 25 25 25 25 25 25 25 25 25 24
31 27 25 28 31 31 31 32 33 31 27 25 25 24 24 24 24 25 24 22 21 24 24 23 22 21 21 23 24 25 28 33 38 42 42 40 40 40 38 35 35 35 35 36 37 36 34 33 31 29 29 28 27 26 25 26 26 26 25 25 25 26 25
32 28 25 26 29 29 29 29 30 30 29 27 27 26 25 26 26 26 25 23 23 23 22 21 22 21 19 19 20 21 23 26 30 37 42 42 42 42 39 36 36 36 35 35 36 37 37 35 32 31 31 30 29 27 27 27 27 27 27 26 26 27 26
34 31 27 27 29 30 30 29 29 30 30 30 30 29 28 28 28 28 26 25 26 26 23 22 22 22 20 18 17 17 17 18 21 27 34 39 40 41 41 39 37 36 34 34 35 36 37 36 33 33 33 32 31 29 28 28 29 29 28 28 27 27 27
34 31 29 29 31 32 32 31 29 29 30 30 31 30 29 29 29 29 28 27 27 27 26 25 25 25 24 22 21 19 16 14 14 16 22 27 31 35 39 38 35 34 33 33 33 34 34 34 34 34 33 33 33 32 31 31 31 30 30 29 28 28 27
34 31 29 30 32 32 33 32 31 30 31 31 31 31 30 30 29 30 30 29 29 28 27 27 26 26 25 24 24 24 21 17 15 13 13 15 19 25 29 32 32 33 34 34 34 34 33 33 35 34 34 34 35 34 33 33 32 32 31 31 30 29 27
34 32 31 31 30 30 30 31 31 32 32 32 32 32 31 31 31 30 31 31 30 29 28 27 26 25 24 23 25 26 24 22 20 17 13 11 11 12 16 21 27 32 35 36 35 35 35 36 36 35 34 34 34 34 34 35 34 34 33 33 32 31 29
37 37 35 34 33 32 31 31 31 32 32 32 32 32 32 32 32 31 31 32 32 31 30 29 27 26 25 24 25 25 24 24 25 24 21 18 14 11 11 13 16 23 30 35 37 37 36 36 36 36 36 35 33 33 33 34 35 35 35 34 34 32 31
43 42 41 40 39 39 38 36 34 34 34 34 34 33 32 32 32 32 32 32 32 32 31 30 29 27 26 26 26 26 25 25 26 26 26 24 21 19 19 18 15 15 16 22 28 33 35 37 37 37 37 35 34 33 33 33 35 36 35 35 34 34 32
48 48 47 47 46 44 42 41 38 37 36 36 36 35 35 34 34 34 34 33 33 33 32 31 30 29 28 27 27 27 26 25 26 27 27 26 24 24 25 24 23 22 18 15 16 19 24 29 33 35 36 35 35 34 34 33 34 34 35 35 35 35 34
47 48 50 50 50 49 46 44 41 40 39 38 37 36 36 36 35 35 35 34 34 34 33 33 32 30 29 28 28 28 27 26 26 26 26 26 25 25 25 24 24 25 25 22 19 17 17 19 22 25 28 30 32 33 34 34 34 34 34 35 35 34 34
45 47 47 48 49 50 49 47 45 43 42 41 40 39 37 37 36 36 35 35 34 34 33 32 32 31 30 29 29 28 28 27 26 26 27 26 26 25 25 24 23 23 23 24 23 21 20 19 19 19 20 20 23 26 29 31 32 33 34 33 32 32 32
41 45 47 47 48 48 49 49 48 47 46 45 45 44 41 39 37 36 36 35 34 33 32 31 31 30 30 30 30 29 29 28 28 27 27 27 27 27 26 25 25 24 23 24 23 23 22 22 22 23 23 22 22 23 24 25 26 28 29 29 28 28 29
38 37 38 42 46 49 49 50 51 50 50 49 48 47 45 43 41 39 38 37 35 34 33 33 32 31 31 31 31 31 30 30 29 29 29 29 29 28 28 27 27 26 26 26 26 26 25 25 25 26 26 27 27 27 27 27 26 25 26 26 26 27 27
44 38 33 34 39 44 47 50 52 52 53 52 51 49 47 45 44 42 40 38 37 37 36 36 36 36 35 35 35 34 33 33 32 32 32 32 32 31 31 30 29 29 29 29 28 28 28 28 28 28 29 29 30 30 30 30 30 29 29 29 29 29 30
45 42 39 37 38 40 42 44 47 50 51 52 52 50 48 46 45 43 42 41 41 40 40 40 40 40 40 39 38 38 38 37 36 36 35 34 34 35 34 34 32 32 32 31 31 30 30 30 30 31 31 32 32 33 33 33 33 33 33 33 32 32 33
51 48 46 44 44 44 44 42 42 42 43 44 45 45 44 44 43 42 43 43 43 42 42 42 42 42 43 42 41 41 40 40 40 40 39 38 38 37 37 37 36 35 34 34 34 33 33 33 33 34 34 35 35 36 36 36 36 35 36 36 36 36 36
53 51 49 49 48 48 47 46 44 43 42 41 40 40 41 42 43 44 45 45 45 45 45 45 45 44 44 44 44 44 43 42 42 42 41 41 41 40 39 39 38 38 37 36 37 37 36 36 36 36 37 37 37 38 39 39 38 38 38 38 38 38 39
43 42 43 45 47 48 48 47 46 45 44 43 43 42 43 44 46 48 49 48 48 48 48 48 48 47 47 46 46 45 45 44 43 43 43 42 42 42 42 41 40 40 39 38 38 38 38 39 39 39 39 39 39 39 40 41 41 40 39 40 40 41 41
37 37 37 38 41 44 47 48 48 48 47 46 45 44 44 45 46 47 49 49 49 48 48 48 49 49 49 48 47 46 46 45 45 44 43 43 43 43 43 43 42 41 41 41 40 40 39 40 40 40 40 40 41 41 41 42 42 42 42 41 41 42 42
39 39 39 38 39 40 43 46 48 49 49 49 48 48 47 46 46 47 47 48 48 48 48 49 49 49 49 49 48 47 47 46 46 46 45 45 44 44 44 44 44 43 43 42 42 41 41 40 40 40 40 40 41 42 42 42 42 43 43 42 42 43 43

ECMWFFLT1_500_spd_105.txt.gz
Wind_Speed
25 25 24 23 23 22 22 21 21 20 20 21 20 20 20 21 21 20 20 20 20 20 19 19 18 18 18 17 17 17 16 16 15 13 12 12 12 11 10 10 9 9 9 9 10 11 11 11 11 11 11 11 10 10 9 9 9 9 9 8 8 8 9
23 26 27 25 25 25 24 23 22 22 22 22 22 21 21 21 21 22 21 21 20 20 19 19 20 19 19 18 17 17 17 16 16 15 14 13 13 13 12 11 10 10 9 10 10 11 11 11 11 11 11 11 10 10 9 9 8 7 7 8 8 8 8
21 24 26 27 27 28 28 26 25 24 24 23 22 21 21 21 21 22 22 22 21 20 19 19 20 20 20 19 18 18 18 18 17 17 16 15 15 14 13 12 11 11 11 10 9 9 10 10 10 10 10 11 10 10 9 8 8 7 7 7 8 8 8
19 21 23 26 29 31 31 30 27 25 24 23 22 22 22 22 21 21 21 22 21 21 21 20 20 21 21 21 20 20 19 19 19 18 18 17 16 16 15 14 13 12 12 10 9 9 9 9 9 9 10 10 10 10 9 9 8 8 8 7 8 8 8
20 20 21 22 28 35 34 29 28 26 25 24 24 23 23 22 21 19 18 19 20 21 21 20 20 20 20 21 21 21 21 20 20 19 19 18 18 17 17 16 15 14 13 12 11 10 9 9 9 9 9 10 10 10 10 10 9 8 8 8 8 8 8
20 20 21 19 23 34 38 31 28 27 25 26 25 24 24 23 21 19 18 18 19 19 19 19 19 20 20 21 22 22 22 22 21 20 20 19 19 19 18 17 17 15 14 13 13 12 11 10 9 9 9 10 11 11 11 10 10 9 9 8 8 8 8
19 19 20 18 17 27 37 34 30 28 26 26 26 26 26 24 22 21 20 20 19 19 19 19 20 21 22 22 23 23 23 23 23 22 21 21 20 20 20 19 19 18 16 15 15 14 13 12 11 10 10 10 11 12 12 11 11 11 10 9 9 8 8
20 19 20 18 16 22 31 32 30 30 30 29 29 28 27 25 23 22 21 21 21 20 21 21 21 22 22 23 23 24 24 24 24 23 22 22 21 21 21 21 21 19 18 18 17 16 15 14 13 12 11 11 12 12 13 12 12 12 11 11 10 9 9
20 19 19 19 18 22 30 33 32 31 32 33 32 29 27 26 23 21 21 21 21 22 23 22 22 21 21 21 22 23 23 24 24 24 23 23 23 23 23 23 23 22 21 20 19 18 18 16 15 14 14 14 13 14 14 14 14 13 13 12 12 11 10
21 19 19 19 19 22 26 31 34 35 35 35 33 30 28 27 26 25 24 25 25 24 23 22 21 20 19 19 20 21 21 22 23 23 24 24 25 25 25 25 24 24 23 22 21 21 20 19 18 17 17 17 16 16 15 15 15 15 14 14 13 13 12
23 22 20 20 20 21 21 23 28 34 36 36 34 32 31 29 29 29 29 28 28 26 24 22 21 21 20 20 20 20 20 22 23 23 24 25 26 27 27 27 26 26 26 25 24 23 23 21 21 20 20 20 19 18 17 16 16 16 15 15 15 15 14
24 23 22 21 21 22 23 22 22 24 28 30 31 33 33 32 32 32 31 31 31 28 26 25 25 25 25 24 22 22 22 23 23 24 24 25 26 28 29 29 28 28 27 27 26 25 24 23 23 23 22 22 21 20 19 18 18 17 17 17 16 16 16
26 24 23 22 22 22 24 25 23 21 21 24 25 28 31 33 35 36 35 34 33 30 29 29 30 30 29 27 25 25 26 26 26 25 25 26 27 28 30 30 30 30 29 29 28 27 26 25 25 25 24 23 22 22 21 20 19 19 19 19 18 18 18
28 26 24 23 23 23 24 24 24 23 23 24 24 24 27 29 31 34 36 35 33 32 32 32 31 31 31 29 28 28 29 30 30 28 26 27 28 29 30 31 32 32 31 31 30 29 27 27 27 26 26 26 24 24 23 22 21 21 21 21 21 20 19
28 28 26 25 25 25 24 23 23 24 25 26 26 26 26 27 27 28 33 36 34 33 33 33 33 32 31 31 31 31 31 32 33 32 30 29 30 31 31 32 32 32 33 32 31 30 29 29 28 28 28 27 26 25 24 24 24 24 23 23 22 22 21
30 28 27 26 26 28 27 25 25 25 25 27 28 27 27 27 26 25 27 32 33 32 32 33 33 31 31 31 31 31 31 32 33 35 34 33 33 33 33 33 33 32 33 33 33 32 32 31 30 30 30 29 28 27 25 25 25 25 25 24 23 23 22
33 31 29 27 27 29 30 30 28 27 26 27 28 28 27 28 27 26 25 26 28 29 29 30 29 29 29 30 31 31 31 32 33 36 37 37 36 36 35 34 33 32 33 33 34 34 34 33 32 31 31 31 30 28 27 26 26 26 26 26 25 24 23
36 34 32 30 29 29 30 31 31 29 28 28 28 27 27 26 26 25 24 25 26 27 27 27 26 26 27 28 29 29 29 30 31 33 36 39 39 38 36 35 34 34 34 34 35 36 36 36 35 34 33 32 31 30 29 28 28 28 27 26 26 25 25
38 36 34 31 29 29 29 30 30 30 31 31 31 30 28 27 26 25 23 23 24 25 25 26 25 24 25 26 26 26 26 27 27 28 31 36 39 40 39 38 37 37 36 36 36 36 36 37 37 36 35 33 32 32 31 30 29 29 28 27 26 26 26
37 36 34 31 29 28 28 29 31 31 32 33 33 33 32 31 30 28 25 24 24 24 24 24 24 24 25 25 24 23 23 24 24 25 26 30 35 39 41 41 40 39 38 38 37 37 37 38 38 38 37 36 34 33 32 32 31 31 29 28 27 26 26
34 34 33 31 30 29 28 27 28 30 32 33 33 34 33 32 32 30 28 27 26 25 24 24 25 25 24 24 24 24 24 23 22 21 22 24 29 35 39 40 42 42 41 40 39 38 38 38 38 39 39 38 36 35 34 33 33 32 31 29 28 26 25
33 33 33 31 30 30 30 28 27 28 31 33 33 33 32 32 32 32 31 29 29 27 26 26 26 25 23 23 23 23 24 24 21 19 19 18 20 25 31 34 39 43 43 42 40 37 37 38 39 40 40 40 38 37 35 35 34 33 32 31 29 28 26
33 32 32 32 31 31 31 31 29 29 31 33 34 34 33 32 32 33 33 32 31 30 29 28 28 26 26 25 24 24 23 23 21 20 19 17 16 18 20 25 33 40 43 43 41 38 37 38 40 40 40 41 41 40 38 36 35 34 33 32 31 29 28
35 33 32 32 32 32 33 33 33 32 32 34 35 34 34 33 33 34 34 34 33 32 31 30 29 27 27 27 27 27 25 24 23 20 19 18 17 17 16 16 21 30 37 41 41 40 39 39 40 41 42 41 41 41 40 39 37 35 34 33 32 31 30
38 36 35 34 33 32 33 33 34 34 34 35 36 35 35 35 34 34 34 34 34 33 32 31 30 28 28 28 28 28 26 26 25 24 22 21 20 19 17 12 9 11 19 27 34 37 39 39 38 39 40 40 40 40 41 40 39 38 37 35 35 33 32
40 39 36 35 34 33 33 33 33 33 34 35 37 37 37 36 35 35 35 35 35 34 34 33 32 31 31 30 29 29 28 26 26 25 24 22 21 21 21 19 16 12 10 14 19 25 31 35 37 38 37 37 38 40 40 40 39 39 38 37 37 36 35
41 41 39 37 36 35 34 34 34 34 34 35 36 36 37 37 36 35 36 36 36 36 35 34 33 33 33 32 31 30 29 28 26 24 22 21 21 20 19 20 23 21 16 13 11 11 15 21 28 34 38 38 38 38 39 40 40 39 38 37 37 38 37
43 43 42 40 40 39 38 37 36 35 35 36 36 36 36 36 36 36 37 37 37 37 37 36 36 34 33 32 31 30 30 28 26 24 22 22 22 21 18 18 21 24 24 22 19 15 15 16 18 24 31 36 39 39 39 41 41 39 37 37 37 37 37
42 43 44 43 42 41 41 41 40 39 38 38 39 38 38 37 37 36 37 37 38 38 38 38 37 36 35 34 32 30 30 29 26 24 23 24 23 23 23 23 23 23 25 26 23 21 22 23 22 21 22 25 29 32 35 38 40 40 39 38 38 37 36
33 36 38 40 41 42 43 44 44 44 43 43 43 42 41 41 40 38 38 38 38 38 39 38 38 38 37 36 34 32 30 28 27 25 23 23 23 23 24 25 24 23 23 23 23 22 23 24 24 24 24 24 23 23 25 28 32 35 38 39 39 39 37
35 33 33 35 37 39 42 44 46 47 47 47 47 47 46 44 43 42 41 41 40 40 39 39 38 38 37 36 35 33 31 29 27 26 24 23 23 23 23 23 24 24 23 23 23 23 23 23 23 24 25 26 24 23 23 23 24 26 29 31 34 35 35
36 36 35 35 36 38 40 43 44 47 50 51 50 50 49 48 46 44 43 43 42 41 40 39 38 38 37 36 35 33 32 30 29 27 26 25 24 24 24 24 25 25 24 24 23 23 23 24 24 24 24 24 24 24 25 26 26 26 27 27 28 29 29
41 41 40 39 37 38 41 44 44 44 47 50 51 51 50 49 47 46 45 45 44 44 43 41 40 39 38 37 37 35 33 32 30 29 28 27 27 27 26 27 27 27 27 26 26 25 25 25 26 26 26 26 26 26 26 27 28 29 30 30 30 29 29
45 46 47 46 44 41 41 45 47 46 46 48 50 51 50 49 48 47 47 47 47 47 46 45 43 42 40 39 39 38 36 35 33 32 32 31 31 31 30 30 30 30 30 29 29 28 29 29 29 29 29 29 29 30 30 30 31 31 32 32 32 31 31
43 46 48 49 49 47 45 45 45 45 45 46 48 50 51 51 50 49 49 49 49 49 48 48 46 44 43 42 41 41 40 38 37 37 36 36 35 35 35 35 34 34 34 33 33 33 32 32 32 33 33 33 33 33 33 33 33 33 34 34 34 35 34
38 41 44 47 49 50 49 48 45 42 41 40 41 44 48 50 52 53 52 52 52 51 51 50 49 48 47 45 44 43 42 41 40 40 40 40 39 39 38 38 38 38 37 37 37 37 36 36 35 35 36 36 36 36 36 36 35 35 36 36 37 38 38
34 35 36 41 47 50 52 52 53 52 49 45 42 40 41 44 46 49 52 54 54 54 54 53 52 51 50 49 47 46 44 43 43 42 42 41 41 41 40 40 40 41 41 40 40 40 40 39 39 38 38 38 39 39 39 39 38 38 38 39 39 40 41
40 38 35 35 39 44 48 49 51 54 54 53 51 48 46 44 44 44 46 48 51 53 54 55 54 53 53 51 50 48 46 46 45 45 44 44 43 43 42 42 42 42 43 43 42 42 41 42 41 41 41 40 40 41 41 41 41 41 41 42 42 42 43

ECMWFFLT1_500_spd_108.txt.gz
Wind_Speed
19 19 22 23 22 21 20 19 19 19 20 19 20 21 23 25 25 25 25 25 24 24 23 22 21 21 20 20 20 19 18 16 14 12 11 10 10 9 7 6 6 6 6 6 6 6 6 7 7 7 8 8 8 7 7 6 6 7 7 7 7 7 7
18 19 20 22 22 21 21 21 21 20 21 21 20 21 23 24 25 25 25 26 26 25 24 23 22 22 21 21 21 20 19 17 16 14 13 13 12 11 9 8 8 7 7 7 7 6 7 7 7 7 7 7 8 8 8 7 7 7 7 7 7 8 8
19 20 22 23 23 23 22 21 21 22 22 22 22 22 24 24 25 26 26 26 26 26 25 25 24 23 22 21 21 21 19 18 17 16 16 15 14 12 11 10 10 9 9 8 7 7 7 7 7 7 7 8 8 8 8 8 8 7 7 7 7 8 7
19 20 23 25 25 23 22 22 23 24 24 24 24 24 25 25 25 25 26 26 27 27 26 26 26 25 23 23 22 21 20 19 18 18 17 17 16 14 13 12 12 11 10 9 9 9 8 8 8 8 8 8 9 9 9 8 8 7 7 7 7 7 7
20 20 23 26 27 24 22 22 24 26 26 26 26 25 25 25 24 24 24 25 26 26 26 26 26 25 24 24 23 22 21 21 20 19 19 18 17 16 15 14 14 13 12 11 11 10 10 9 9 9 9 9 9 9 9 9 8 8 8 7 7 6 7
21 21 21 22 24 24 23 24 25 27 28 28 27 27 26 25 23 23 23 24 25 25 25 25 25 25 25 25 25 24 23 22 21 20 20 19 18 18 17 16 15 14 13 13 13 12 12 11 10 10 9 10 10 10 10 10 9 9 8 8 7 7 7
21 22 21 20 19 21 23 25 27 28 29 30 30 28 27 25 24 23 22 23 24 24 24 24 24 24 25 25 25 25 24 23 22 21 20 20 19 19 18 17 16 16 15 15 14 14 13 13 12 11 11 10 10 10 11 11 10 10 9 8 8 8 8
21 22 22 21 20 20 22 25 26 27 29 32 32 30 28 27 25 24 23 23 22 22 22 22 23 23 23 24 24 24 24 24 23 22 21 21 21 20 19 19 18 17 17 17 16 16 15 15 14 13 12 12 11 11 11 12 11 11 10 9 9 8 8
21 21 21 21 21 21 22 24 26 28 31 34 35 32 30 29 28 27 25 24 23 22 22 22 22 22 22 22 22 23 23 23 23 23 22 22 22 22 21 21 20 19 19 19 18 18 17 17 16 15 15 14 13 12 12 12 12 11 11 10 10 9 9
22 20 20 21 21 21 22 23 25 29 33 35 35 33 32 31 30 29 27 26 25 24 24 23 22 22 21 21 21 21 21 22 22 22 22 23 24 24 24 23 22 22 21 21 20 20 19 18 18 17 17 16 15 14 13 12 12 12 12 12 12 11 11
23 21 21 21 21 21 21 21 22 26 32 35 35 32 32 32 31 30 28 28 28 27 27 26 24 23 22 21 21 20 20 21 21 22 22 23 24 25 25 25 24 24 23 23 22 21 21 20 20 19 18 18 17 16 15 14 14 14 13 13 13 13 13
24 23 23 22 21 21 20 21 20 20 25 33 38 34 32 33 32 31 30 30 30 29 27 27 25 24 23 22 21 21 21 21 21 21 22 22 23 24 25 26 26 26 25 25 24 23 23 22 21 21 20 19 18 17 17 16 16 16 15 15 15 15 14
24 24 24 23 22 21 20 20 20 18 18 23 32 35 35 36 34 33 34 34 32 30 29 28 27 25 24 23 23 23 23 23 22 22 22 22 23 23 24 25 26 27 27 26 26 25 25 24 23 23 22 21 21 20 19 19 18 18 18 17 17 16 16
25 26 26 25 23 22 21 20 19 19 17 17 21 25 31 37 39 38 37 36 34 32 31 30 30 28 27 26 26 26 26 26 25 24 24 23 24 24 24 25 26 27 27 28 28 27 27 26 26 25 24 24 23 22 21 21 21 20 20 19 19 18 18
28 27 27 26 25 23 23 22 20 19 18 17 18 19 22 27 33 36 36 36 35 35 34 33 33 32 31 30 30 29 29 28 28 27 26 25 25 26 26 26 27 27 28 28 29 30 29 29 28 27 26 26 26 25 24 23 23 23 22 21 20 20 19
31 30 29 28 27 25 25 24 22 20 19 18 18 19 20 22 24 27 28 29 29 31 34 36 37 35 34 33 32 31 31 30 30 30 29 28 27 27 28 29 29 29 28 29 30 31 31 31 30 29 28 27 27 26 26 25 25 25 24 23 22 22 21
34 33 32 31 29 28 27 27 25 23 22 22 21 20 21 23 23 23 23 23 23 25 28 33 38 40 37 35 35 34 32 31 30 30 30 29 29 29 30 32 33 33 31 31 31 32 32 32 32 31 30 30 29 28 27 27 27 26 26 25 24 24 23
35 35 35 34 32 30 29 28 28 26 24 24 24 23 22 23 23 22 22 24 24 25 25 27 33 39 39 35 34 32 30 30 30 29 28 28 28 29 31 32 34 35 34 34 33 33 34 34 33 33 33 32 31 29 29 29 28 28 28 27 26 25 24
36 37 37 36 35 33 31 30 29 28 27 26 26 26 24 23 22 20 20 21 23 25 25 24 25 30 33 30 28 28 28 29 30 29 29 28 27 28 30 30 31 34 36 37 36 35 35 35 35 34 34 34 33 32 31 31 30 30 30 29 28 27 26
37 38 39 39 38 36 34 33 32 31 30 29 28 28 27 25 25 23 21 20 20 21 23 24 23 24 26 26 25 26 27 27 28 27 27 26 25 26 28 29 30 31 35 38 39 37 36 36 36 36 35 35 35 35 34 34 32 32 32 31 30 29 28
37 38 39 40 40 38 37 35 34 33 32 31 30 30 29 28 27 27 25 23 22 21 21 22 22 22 23 24 24 25 25 26 26 25 25 23 22 23 25 27 28 29 31 35 39 40 39 38 38 38 37 37 37 37 37 37 36 34 33 32 31 31 30
38 38 39 40 40 40 39 37 36 35 33 32 31 31 31 30 28 27 28 27 25 25 24 23 23 22 22 23 23 24 25 25 25 25 24 22 21 21 21 21 24 27 29 31 35 39 41 41 41 39 39 39 38 38 38 39 37 36 35 33 32 32 32
39 38 39 39 39 39 39 38 36 34 34 34 33 32 31 30 28 28 30 30 28 28 28 27 26 25 24 23 23 24 24 24 24 24 24 24 24 23 22 20 20 22 26 28 32 37 42 43 43 41 40 40 39 38 38 37 37 37 37 35 34 34 34
40 41 40 39 38 38 38 37 36 34 34 34 34 34 33 30 28 29 30 29 29 29 29 29 29 29 28 26 25 25 25 24 24 24 24 25 25 25 24 21 17 17 18 19 23 30 38 43 44 44 43 41 39 39 38 36 36 38 39 38 36 36 35
40 42 40 37 36 36 36 37 36 34 33 34 35 36 35 33 30 29 29 29 29 29 29 29 30 30 30 28 27 27 26 26 26 26 26 26 26 25 24 20 16 14 15 15 16 20 26 34 39 42 44 42 39 39 39 37 38 39 40 40 39 38 36
40 42 39 35 34 36 36 37 36 34 33 34 35 36 37 35 33 32 31 30 30 30 30 29 30 31 31 30 29 29 29 29 29 28 28 28 27 27 27 25 20 17 16 15 14 15 16 19 24 30 35 39 39 38 37 36 35 38 41 41 41 40 38
42 43 42 39 38 39 40 39 38 37 35 34 35 37 37 37 37 34 33 32 31 31 32 31 31 31 31 31 31 31 31 31 30 29 29 28 28 28 28 29 27 25 22 19 15 13 12 11 13 16 21 28 34 37 37 36 35 39 42 42 41 41 40
45 46 45 42 41 42 43 42 40 39 38 36 35 36 37 38 38 37 35 33 33 33 34 33 33 33 33 33 32 32 32 31 31 30 30 29 29 29 28 28 28 28 28 26 24 22 19 16 14 13 12 15 21 29 35 37 38 41 41 39 39 41 42
42 44 44 43 43 43 43 43 42 40 39 37 36 36 37 37 37 37 36 35 34 35 36 36 35 34 34 34 33 33 33 32 32 32 33 32 31 30 29 29 27 26 26 27 27 27 24 22 21 20 17 15 16 20 26 31 35 38 39 37 37 38 40
39 37 38 42 46 47 45 44 43 41 39 38 37 36 36 36 36 36 36 36 35 36 37 37 37 36 35 34 34 34 33 33 33 33 34 34 33 31 30 30 29 28 28 28 28 27 25 24 24 23 22 21 20 19 20 23 26 29 32 34 35 38 40
43 40 37 37 42 46 46 45 44 41 39 39 38 38 38 37 37 36 36 36 36 36 37 38 37 37 36 35 35 35 34 34 34 33 34 34 34 33 32 31 30 30 29 30 30 29 29 28 26 24 23 21 21 22 23 23 24 25 25 25 27 31 36
41 41 40 38 36 37 40 42 42 41 41 41 41 40 41 40 39 39 38 37 37 37 38 38 38 38 38 37 36 36 36 35 35 34 34 34 34 34 33 32 31 30 30 30 29 29 29 29 28 27 25 23 23 25 25 25 25 27 26 25 24 25 27
44 43 44 43 41 39 38 39 40 41 43 45 44 44 44 44 43 42 41 40 40 40 39 39 39 39 39 38 38 38 37 37 36 35 35 34 33 33 33 33 31 30 29 29 28 28 28 28 28 28 27 26 26 26 26 26 25 26 26 27 27 27 27
47 48 47 47 47 44 41 39 39 40 42 45 47 47 47 47 46 46 46 45 44 44 44 43 42 41 40 40 40 40 39 39 37 36 35 34 33 33 33 33 32 31 29 29 28 28 27 26 26 27 27 27 27 27 27 27 26 26 26 27 28 28 29
39 43 46 48 49 48 44 41 39 39 40 40 41 43 46 47 47 48 48 48 48 48 47 46 45 45 44 43 43 42 42 41 39 38 37 36 35 34 34 34 34 33 31 31 30 29 28 28 27 27 28 28 28 29 29 28 28 28 28 28 29 29 30
32 35 39 42 45 46 46 45 43 42 42 40 38 38 40 43 46 48 48 49 50 50 50 50 49 48 47 46 45 45 44 43 42 41 40 39 38 38 37 37 37 36 35 34 33 32 31 31 30 30 30 30 30 30 31 31 31 31 31 31 31 32 32
31 29 31 36 40 41 42 42 41 41 43 43 42 40 40 40 43 46 48 50 51 51 51 51 51 51 51 50 48 47 47 46 46 45 44 44 43 43 42 41 41 40 39 38 37 36 35 35 34 34 34 34 34 34 34 34 34 34 35 35 35 35 35
37 34 33 34 36 37 38 39 39 40 42 43 44 45 45 44 44 44 46 49 51 52 52 53 52 52 52 52 52 51 50 49 48 48 47 46 46 47 46 45 44 44 43 42 41 40 40 39 39 39 39 38 38 38 38 38 38 38 38 38 38 38 38

ECMWFFLT1_500_spd_111.txt.gz
Wind_Speed
16 16 17 24 30 28 26 25 23 21 21 22 23 23 25 25 24 24 24 23 22 21 21 20 19 19 18 17 17 16 14 13 12 10 9 9 9 8 7 6 6 6 5 5 6 6 6 7 7 6 6 5 5 5 4 5 5 4 4 4 4 3 4
14 15 15 18 26 30 29 27 25 23 21 22 23 23 24 24 25 25 25 25 24 23 22 22 21 20 19 19 19 19 17 15 13 12 12 11 11 9 8 6 6 6 6 5 5 5 5 6 6 6 5 5 5 5 5 5 5 5 5 5 4 4 4
13 15 16 16 20 26 32 32 28 25 24 23 23 23 22 23 24 25 26 27 26 25 24 23 22 21 20 20 21 20 19 16 15 14 14 12 11 11 9 8 7 7 7 6 6 6 6 5 5 5 5 4 4 4 4 5 5 5 5 5 5 5 5
14 15 17 17 18 21 28 33 30 27 26 24 23 23 22 22 23 24 25 26 27 27 26 25 24 22 21 21 21 21 20 18 17 16 15 14 13 12 11 9 8 8 8 6 6 6 6 6 6 6 5 4 4 4 4 4 4 4 5 5 5 5 5
16 16 17 18 18 18 22 28 29 28 26 25 24 23 22 22 22 23 23 24 26 26 27 27 25 24 23 22 23 23 21 20 18 17 17 16 15 14 12 10 9 9 8 7 7 7 7 7 7 6 6 5 4 4 4 5 5 5 5 6 6 6 5
17 16 16 17 18 18 19 22 23 24 25 25 24 23 23 22 22 22 22 23 24 25 26 26 25 25 25 25 25 24 23 21 19 18 17 17 16 15 13 11 11 11 10 9 9 9 9 9 8 7 7 6 5 5 5 5 6 6 6 6 6 6 6
17 16 16 17 19 18 18 21 23 23 24 24 24 24 23 21 21 21 21 21 22 23 23 23 24 25 26 26 26 25 24 22 21 19 18 18 17 16 15 13 13 13 12 11 11 11 11 10 10 9 8 7 7 6 6 7 7 7 7 7 6 5 6
17 16 15 15 17 17 17 19 23 24 24 25 25 25 24 23 22 22 22 22 23 23 22 21 22 23 24 26 26 26 25 24 22 20 19 18 18 18 17 16 16 15 14 14 13 13 13 12 12 11 10 9 8 8 8 8 8 8 8 7 6 6 6
18 16 16 16 17 17 15 16 19 22 24 24 25 25 25 25 25 25 25 25 25 23 21 21 22 22 23 25 25 25 25 24 23 22 21 20 20 19 19 18 17 17 16 16 15 15 15 14 13 14 13 11 10 10 10 9 9 9 9 8 8 7 7
20 18 17 16 16 16 17 17 18 19 20 21 22 24 26 27 29 28 26 26 25 24 23 22 22 22 23 23 24 24 24 23 22 22 21 22 22 21 21 20 19 19 19 18 18 18 17 16 15 15 15 14 13 13 12 11 11 10 10 10 10 9 9
21 20 19 16 14 15 18 21 22 21 20 20 21 23 25 28 32 32 30 28 27 26 25 24 23 23 24 24 24 23 22 22 22 21 21 21 22 22 23 22 21 20 20 19 19 20 19 18 17 17 17 17 16 15 14 13 13 12 12 12 12 11 11
21 22 21 18 14 13 16 19 22 23 21 18 18 21 23 26 32 35 34 32 30 29 28 27 25 25 24 24 24 24 23 23 22 22 21 21 21 22 22 22 22 21 21 20 20 21 21 20 20 19 19 19 18 17 17 16 16 15 14 14 14 13 13
22 23 22 20 16 13 13 15 19 21 20 18 17 19 21 24 29 35 36 34 33 32 30 29 28 27 26 25 25 25 25 24 23 23 22 22 22 22 21 21 21 21 22 21 22 23 23 22 22 21 21 20 20 20 20 19 18 17 17 16 15 15 15
24 24 24 23 20 16 14 14 16 19 20 20 20 20 21 21 24 32 37 35 34 35 33 32 30 29 28 27 26 26 26 25 24 23 22 22 22 21 21 21 21 21 21 22 23 25 25 25 24 23 22 22 22 22 22 22 21 20 19 19 18 17 16
26 25 25 25 24 22 19 16 16 17 19 20 20 20 21 20 20 27 34 35 35 36 34 33 32 31 30 29 28 27 27 26 26 25 24 23 22 22 22 21 21 22 22 22 24 25 26 26 26 25 24 23 23 24 24 24 24 23 22 21 20 19 18
29 27 26 25 25 25 23 21 20 20 20 20 19 18 18 18 18 21 27 31 34 37 36 34 33 32 32 31 30 30 29 29 28 28 26 25 24 24 23 22 22 22 22 23 24 26 26 26 27 27 27 26 25 26 26 26 26 25 24 24 22 20 19
30 29 27 26 25 24 24 25 24 23 23 22 21 18 17 17 18 19 20 22 24 29 34 36 36 35 34 33 32 31 31 31 31 30 29 27 27 26 26 25 24 23 24 24 25 27 27 28 28 29 29 28 28 28 27 28 29 27 26 26 24 23 22
32 30 29 29 27 26 26 27 27 26 26 26 24 21 19 18 18 18 19 18 18 20 24 28 31 34 35 36 35 35 34 34 34 33 32 30 29 29 29 29 27 27 27 27 28 28 29 29 30 30 30 30 31 30 29 31 32 30 28 28 26 25 24
35 33 31 30 29 28 29 30 30 29 28 28 27 25 22 21 20 19 19 19 18 18 18 20 23 26 29 32 34 37 38 39 37 36 34 33 33 33 32 30 29 29 29 29 29 29 29 29 31 32 32 31 31 32 32 34 35 32 31 30 27 26 26
38 36 34 32 32 32 32 32 32 32 31 30 29 28 26 25 23 22 21 21 19 17 17 17 19 21 23 25 27 30 34 38 40 39 37 38 38 36 33 31 29 29 29 28 27 27 28 29 29 30 32 33 33 33 34 36 35 33 33 33 30 27 27
39 38 37 36 35 36 36 36 36 35 34 33 31 30 29 27 26 24 24 23 22 20 18 17 17 19 20 22 24 25 26 30 36 37 35 35 34 34 32 29 28 28 28 26 25 26 28 30 29 28 30 33 35 36 37 37 35 32 33 35 34 31 30
38 38 38 39 39 39 39 39 39 38 37 36 35 33 31 29 28 27 26 25 24 24 23 22 21 22 21 21 23 24 23 23 27 29 28 27 26 26 26 25 24 25 24 23 23 24 25 27 30 32 32 33 34 37 39 38 35 33 34 36 37 35 33
38 38 39 40 41 41 41 41 41 40 39 38 38 37 34 32 30 30 29 27 26 25 25 25 25 25 25 24 22 22 22 23 24 26 25 24 23 22 21 21 21 23 23 21 20 21 23 25 28 32 34 34 33 35 38 39 38 36 36 38 39 37 35
38 39 40 41 42 42 43 42 42 41 41 40 39 39 37 34 32 31 30 28 27 27 27 27 28 28 27 27 24 22 22 23 24 25 25 24 23 21 21 21 22 22 22 20 18 18 21 25 28 31 34 35 36 35 34 36 39 39 38 39 38 37 35
40 41 42 42 43 43 43 43 42 42 42 41 41 40 38 35 34 33 32 31 29 28 27 27 28 27 27 27 25 24 24 24 24 24 24 24 23 23 22 23 23 23 22 20 19 19 19 21 25 27 29 33 38 40 36 35 38 41 41 39 37 35 35
40 41 42 43 43 43 43 42 42 41 41 41 41 41 39 37 35 34 34 33 32 30 28 27 27 28 29 28 27 26 26 26 26 26 26 25 24 24 23 23 23 24 23 22 21 20 19 19 20 21 22 26 32 38 39 39 40 41 41 39 37 36 36
41 41 42 42 43 43 43 43 42 41 41 41 41 42 41 39 37 36 35 34 33 32 31 29 28 29 29 29 28 28 28 28 28 28 28 27 27 26 25 25 25 25 25 24 22 22 20 18 16 16 17 19 22 26 32 37 41 43 41 40 38 38 37
39 40 41 42 42 41 41 42 42 41 40 40 40 42 42 40 38 37 36 35 35 34 33 32 30 29 29 29 30 30 30 30 29 29 29 29 29 28 28 28 28 28 27 27 26 26 25 23 20 18 18 18 19 20 21 26 33 39 40 40 39 37 36
36 38 40 40 41 40 38 39 39 39 39 39 39 40 41 39 37 37 37 37 37 36 36 35 33 31 30 31 31 31 31 31 31 31 31 30 30 30 29 29 29 29 29 29 29 29 30 30 29 28 27 26 25 24 22 22 23 26 28 31 34 36 37
37 37 37 37 39 41 41 41 42 42 41 40 39 40 41 40 38 38 37 37 38 38 37 37 36 34 32 33 33 33 33 33 32 32 32 32 31 31 30 30 31 31 30 31 31 31 31 31 30 30 30 30 29 30 30 30 28 25 22 22 24 27 30
42 41 39 37 37 38 39 42 46 47 46 43 42 42 42 42 41 39 38 38 38 38 37 37 37 36 36 34 34 35 34 34 34 34 34 34 33 33 32 32 32 32 32 32 33 33 33 32 31 30 29 29 30 31 32 33 32 29 25 22 21 22 22
45 46 44 42 40 38 35 36 42 46 48 47 45 44 44 45 45 43 40 38 39 39 38 37 38 38 37 36 36 36 37 36 36 35 35 35 34 34 34 33 33 33 33 33 33 33 33 33 32 31 31 30 31 32 32 32 33 32 30 27 27 26 24
46 48 48 46 46 45 40 36 37 39 42 46 47 48 48 47 46 46 43 39 38 39 40 41 40 39 38 38 38 38 39 38 37 36 36 35 35 34 34 34 34 34 34 34 34 34 34 34 33 33 33 33 32 33 33 32 32 33 33 32 30 28 26
45 48 50 49 48 49 46 42 40 39 40 41 43 45 50 52 49 48 45 41 39 40 41 42 41 40 38 38 38 38 39 39 38 37 36 36 36 36 35 35 35 35 35 35 35 34 34 34 35 34 34 34 33 32 32 30 30 31 31 31 30 29 27
40 43 47 48 48 49 49 46 44 43 42 42 39 38 42 49 51 49 45 42 42 44 43 42 41 40 39 38 38 38 39 39 38 38 38 38 37 37 37 36 36 36 36 35 36 36 35 35 35 35 34 33 32 31 30 29 29 29 29 29 29 29 29
36 37 40 43 45 46 47 46 44 44 44 44 43 40 39 42 45 47 46 45 45 45 44 44 44 42 40 39 39 39 39 39 39 39 39 39 39 38 38 38 38 37 37 36 36 36 36 36 36 36 35 34 33 32 31 30 30 30 30 30 31 31 31
35 32 33 36 39 42 44 43 42 43 44 44 45 46 44 42 41 43 45 47 48 48 47 47 47 45 43 42 42 42 42 41 41 41 41 40 40 40 40 40 40 39 38 38 37 37 37 37 37 37 36 35 34 34 33 32 31 31 31 31 31 32 32
40 37 34 32 33 36 40 41 40 39 40 41 42 45 46 45 43 43 43 45 46 47 48 50 50 48 48 47 47 46 46 46 45 45 44 44 43 43 43 42 42 41 41 40 39 38 38 38 38 39 38 38 37 36 36 35 34 34 34 34 33 34 34

ECMWFFLT1_500_spd_117.txt.gz
Wind_Speed
19 20 23 24 22 20 20 19 19 19 18 18 17 17 16 15 15 14 14 14 14 13 13 12 12 11 10 10 9 9 9 8 7 6 5 5 5 5 5 5 5 5 6 6 6 6 6 6 6 5 4 3 3 3 3 3 3 3 3 4 3 3 3
12 14 21 26 24 21 21 20 20 19 18 17 17 17 17 16 16 16 16 15 14 14 14 14 13 12 11 11 10 10 9 9 8 8 7 5 4 5 5 4 4 5 5 5 5 6 6 6 6 6 5 4 3 3 3 2 2 2 3 3 3 3 2
12 11 15 24 26 23 22 21 20 20 19 17 17 17 16 17 18 18 18 17 16 15 14 14 14 14 13 12 12 11 11 10 9 8 8 7 6 6 6 4 4 5 6 6 6 6 6 6 6 6 5 5 4 3 3 2 2 2 2 2 2 2 2
13 12 13 20 24 24 23 22 21 20 19 19 19 18 17 18 20 21 20 19 18 17 16 15 15 15 14 14 14 13 13 12 11 10 9 8 8 8 7 6 5 5 6 7 7 7 6 6 6 6 5 5 5 4 4 3 2 2 2 2 2 2 2
11 14 16 18 20 21 22 22 22 21 20 21 22 21 19 19 20 22 22 21 20 19 18 17 15 15 15 15 15 15 14 13 13 12 11 10 10 9 9 8 8 7 7 8 7 7 7 7 6 6 6 5 5 5 5 5 4 4 4 3 3 3 2
10 13 15 17 19 19 20 22 23 23 22 23 25 25 22 20 20 22 22 21 22 21 20 19 18 17 17 16 16 15 15 14 14 13 12 12 12 11 11 10 10 9 9 9 8 8 8 7 6 6 6 6 6 6 6 6 6 5 5 5 4 4 3
12 13 15 17 19 20 21 23 24 25 24 25 28 27 25 22 21 22 22 21 21 21 20 20 20 20 19 18 17 16 16 15 15 14 13 13 13 13 12 12 12 12 12 11 10 9 9 8 7 7 7 7 6 6 7 7 7 6 6 6 5 5 4
15 16 17 18 21 23 23 24 25 26 25 25 28 28 25 23 22 21 21 21 21 20 19 19 20 21 20 19 18 18 18 17 16 15 15 14 14 14 14 14 14 14 13 12 12 11 10 9 9 8 8 8 7 7 7 7 7 7 7 7 6 6 5
19 20 22 22 23 24 25 26 26 26 25 24 26 28 27 25 23 22 22 21 20 20 19 18 18 19 20 19 19 19 20 20 19 18 17 16 16 15 15 16 16 15 15 14 14 13 12 11 11 10 10 10 9 8 8 8 8 8 8 8 7 7 7
23 24 24 23 22 21 22 24 24 25 26 24 23 26 28 27 25 24 23 22 21 20 19 18 17 18 18 19 19 19 20 21 21 20 19 18 18 17 17 17 17 16 16 16 16 15 14 14 13 12 12 11 10 9 9 8 8 8 8 9 9 9 8
22 22 20 20 22 22 22 23 23 24 26 23 19 21 25 28 28 26 25 25 23 21 20 19 18 18 17 18 18 18 20 21 21 21 20 20 19 19 18 18 18 18 17 18 18 17 16 16 15 14 14 13 11 10 10 10 10 9 9 10 10 10 10
20 21 21 21 22 22 22 23 24 25 25 22 19 19 21 25 27 28 27 27 25 24 23 21 20 19 19 20 19 19 19 20 21 22 21 20 20 20 20 19 19 19 19 19 19 19 18 18 17 17 15 14 13 12 12 12 12 11 11 11 12 12 12
22 23 24 24 22 21 21 22 25 25 25 24 23 22 22 22 24 27 28 28 26 25 24 22 21 21 21 21 21 19 20 20 21 22 22 21 21 20 20 20 20 20 20 20 21 20 20 19 19 19 17 16 15 15 14 14 14 13 13 13 13 13 13
23 24 24 24 22 22 22 23 26 27 26 26 26 26 25 24 24 26 27 27 26 25 24 22 22 23 23 23 23 21 21 21 22 23 22 21 20 20 20 20 21 21 21 21 22 21 21 21 20 20 18 18 18 17 17 16 16 15 15 15 15 15 15
24 24 24 22 21 23 24 24 26 28 29 28 27 26 26 25 24 25 25 25 26 26 25 24 24 25 26 25 24 24 24 24 23 23 22 21 20 20 20 20 20 20 19 20 21 22 22 22 21 20 19 19 19 18 18 18 17 17 17 17 17 17 17
23 24 25 24 23 23 24 23 24 28 30 28 27 29 30 29 27 26 26 25 26 26 24 23 23 26 28 29 27 26 26 25 24 23 22 22 21 20 21 20 20 20 19 19 21 22 22 22 22 21 21 21 20 20 20 19 17 18 19 18 18 18 19
23 24 24 24 25 25 26 24 22 25 27 27 29 31 31 30 28 28 28 27 26 25 22 20 20 23 27 31 32 31 29 28 26 23 22 22 21 21 21 21 21 21 20 19 20 21 22 22 22 22 22 21 21 22 21 18 18 21 22 21 20 20 21
23 24 23 23 22 22 25 24 22 23 24 25 26 27 27 27 26 27 28 27 26 24 21 20 19 20 23 28 33 34 32 30 27 22 21 23 23 22 22 22 23 23 21 21 21 22 22 22 22 22 22 21 22 22 21 19 21 24 24 23 23 24 24
25 24 24 25 23 22 25 25 23 25 26 25 24 24 25 25 24 25 25 24 23 22 20 18 17 16 17 21 27 30 30 29 26 23 23 26 26 25 24 24 24 24 23 23 23 24 24 23 22 22 23 23 24 24 23 22 23 24 24 25 26 26 27
27 25 23 24 25 26 28 26 24 25 26 24 23 23 25 24 23 24 25 23 22 23 21 18 15 16 16 17 21 25 25 27 27 26 27 28 28 28 28 28 27 26 26 26 26 26 26 25 24 24 24 25 25 25 24 25 25 26 27 27 28 29 29
30 26 23 23 24 24 25 25 24 23 24 24 22 21 23 23 22 22 22 23 23 24 22 19 16 16 16 16 19 22 23 25 27 28 30 31 31 31 30 30 31 30 30 30 30 29 28 28 27 26 26 27 27 27 27 27 28 29 30 30 30 31 32
34 29 27 25 23 22 21 21 21 20 21 24 25 22 21 21 22 24 22 21 22 22 21 19 17 15 15 15 17 18 19 19 21 24 27 30 32 33 33 33 34 34 34 34 33 32 32 32 32 31 30 30 30 30 30 31 33 33 33 32 31 31 34
29 30 31 32 30 26 23 21 22 22 21 22 23 22 20 18 20 23 21 18 18 19 19 17 16 16 17 17 17 17 16 16 17 19 21 23 27 30 32 34 35 36 36 36 36 36 36 36 36 35 35 34 33 32 32 33 35 35 34 33 32 32 34
26 27 30 34 36 34 29 24 24 26 26 27 27 27 26 23 22 22 22 20 18 19 20 18 17 17 19 19 19 19 18 17 17 17 18 19 20 22 24 26 28 30 32 33 34 36 38 39 39 39 38 37 37 37 36 35 34 34 33 33 33 33 32
31 31 31 31 34 36 35 31 27 26 25 25 27 29 31 32 31 31 31 30 29 28 26 24 23 23 23 22 21 21 21 21 21 21 21 21 21 20 20 20 21 23 25 27 29 32 35 38 39 40 40 40 41 41 37 34 32 31 31 31 32 32 30
31 31 32 31 31 33 36 37 36 33 30 27 27 28 30 33 36 37 38 37 35 32 29 27 27 27 28 26 24 24 24 23 24 25 24 24 24 24 23 23 23 24 24 25 25 26 28 29 31 33 34 34 34 33 31 29 28 28 29 30 32 33 32
30 29 29 29 29 30 33 35 37 37 36 35 34 33 33 34 35 38 39 37 36 34 31 29 29 30 31 30 28 27 26 25 26 26 25 24 25 25 25 26 26 26 26 26 25 25 25 26 26 27 26 25 24 24 24 25 25 25 27 29 34 38 39
31 30 30 30 29 29 30 32 34 36 37 38 37 37 37 37 36 37 38 38 37 36 34 33 32 32 32 32 31 31 29 29 29 29 27 27 26 25 26 27 28 28 26 26 26 26 26 27 27 27 26 24 23 23 23 24 25 26 27 29 34 37 33
35 34 34 34 34 33 33 33 34 35 36 38 38 38 39 39 40 40 40 39 39 38 37 36 35 34 34 33 33 32 32 31 32 32 31 30 29 28 27 28 29 28 26 26 26 26 27 27 27 27 27 26 25 24 24 24 25 26 24 23 25 25 21
36 35 34 35 36 37 36 37 37 36 36 38 39 39 40 40 40 41 41 41 40 40 39 39 38 37 37 35 34 34 33 32 33 33 33 32 32 31 31 30 30 29 28 29 29 30 30 30 29 28 28 27 27 26 23 22 23 23 22 21 21 21 20
32 33 33 34 35 36 36 37 38 39 39 39 40 40 41 41 41 41 41 41 40 40 40 40 40 39 39 38 37 36 35 34 34 34 34 35 35 34 33 33 33 32 32 32 32 32 32 32 32 31 30 29 29 28 27 26 26 26 25 25 24 24 24
31 32 33 34 35 36 36 36 37 38 40 41 41 41 42 42 43 43 42 42 41 41 40 40 40 40 40 41 40 39 37 36 35 35 36 37 36 35 35 35 35 34 34 35 36 35 35 35 34 33 33 32 32 32 32 33 33 32 30 30 29 29 30
33 33 34 35 36 37 37 38 38 38 39 41 42 43 43 43 43 44 44 44 43 43 42 40 40 40 41 42 42 41 39 37 36 36 38 39 38 37 37 36 35 34 35 37 38 37 37 37 36 35 34 35 36 37 36 36 36 35 33 33 32 31 30
33 32 32 33 35 36 37 39 40 40 40 41 42 43 44 44 43 43 43 44 44 45 44 43 42 41 41 41 42 42 40 39 39 39 39 40 41 41 39 38 36 36 36 38 38 37 37 37 37 37 37 36 37 39 39 38 37 35 33 32 31 30 29
33 32 30 30 32 33 34 37 39 41 42 42 43 44 45 45 45 44 43 43 44 44 45 45 45 44 43 42 43 43 42 42 43 43 42 42 43 43 42 40 40 39 39 40 40 40 40 40 39 39 40 39 38 38 39 38 37 36 34 32 31 30 30
32 33 32 32 32 32 32 33 35 38 40 41 42 43 44 46 46 46 45 45 45 44 44 45 46 47 46 45 44 44 45 45 46 45 45 44 44 43 43 44 45 44 42 42 42 43 45 45 44 42 41 40 39 38 38 38 37 36 36 35 33 32 31
26 29 30 32 32 33 33 33 33 35 36 38 39 40 42 44 45 47 47 47 47 46 46 45 46 48 49 49 47 47 47 48 48 48 48 47 44 43 43 45 47 47 46 45 44 44 45 46 46 44 42 40 39 38 38 37 37 37 36 36 35 34 33
23 24 26 28 29 31 33 34 35 36 36 37 38 38 39 39 41 43 45 46 46 47 47 46 46 48 49 49 49 49 49 48 47 47 49 50 49 47 46 47 48 48 48 48 47 45 43 42 43 42 40 40 39 39 39 38 38 38 37 36 36 35 35

ECMWFFLT1_500_spd_120.txt.gz
Wind_Speed
25 35 28 23 22 20 21 20 19 18 16 16 15 14 15 14 14 14 13 14 13 14 14 14 14 13 13 12 11 11 11 11 11 11 11 10 10 10 10 10 10 10 11 10 10 10 9 9 9 10 9 9 8 8 7 6 5 5 6 6 6 6 6
22 34 26 22 22 20 21 21 19 19 18 17 16 15 16 15 15 15 15 14 14 14 15 15 15 14 13 13 12 12 11 11 11 11 11 10 9 10 9 9 9 10 11 11 11 10 10 10 10 10 9 9 9 9 7 7 6 6 6 6 5 5 6
15 24 21 20 21 20 20 20 19 20 19 18 17 16 17 17 16 17 16 15 15 14 15 15 16 15 14 13 13 13 12 12 12 11 11 10 9 9 9 9 9 10 11 12 12 12 11 11 10 10 10 10 10 10 8 8 7 6 6 6 6 6 6
10 14 14 16 20 22 23 21 20 20 19 19 18 17 19 19 19 19 19 17 16 15 16 16 17 16 15 15 14 14 13 13 12 12 11 11 10 10 9 9 8 9 11 12 11 12 11 10 10 10 10 10 10 10 9 9 8 8 7 7 7 6 6
10 11 12 14 17 22 24 23 22 20 19 19 18 19 20 21 21 20 20 20 19 17 17 17 17 17 16 16 16 15 14 14 13 12 12 12 11 11 11 10 9 9 10 10 11 11 11 11 10 9 9 9 9 9 9 9 8 8 8 8 7 7 6
11 11 13 13 15 19 24 26 23 21 20 20 19 20 21 22 22 21 21 21 21 20 18 18 18 18 18 17 17 17 16 15 15 14 13 13 13 12 12 12 11 11 11 10 11 12 12 11 10 10 10 9 9 9 9 9 8 8 8 8 8 7 7
13 14 15 15 16 19 22 24 23 21 22 22 21 21 23 23 24 23 22 21 22 21 20 20 20 19 19 19 18 18 17 17 17 16 15 15 15 14 14 14 13 13 12 12 12 12 12 12 11 11 11 10 10 9 9 10 9 9 8 8 8 8 7
16 16 17 17 18 19 19 18 19 21 23 24 24 23 23 24 25 25 23 21 21 22 22 22 22 21 21 20 19 19 18 18 18 17 17 17 17 17 16 16 16 15 15 14 13 13 13 13 13 13 12 11 11 10 10 11 10 10 10 9 8 8 8
17 16 15 13 13 16 18 18 20 22 24 25 26 25 24 24 24 25 25 23 21 21 22 23 23 23 23 22 21 21 20 19 19 18 18 18 18 18 18 18 17 17 17 16 15 15 15 15 15 14 14 13 12 11 12 12 12 11 10 10 9 9 8
18 17 17 16 14 15 18 20 22 24 25 26 27 27 26 25 24 25 27 25 22 22 22 23 24 24 23 23 23 23 22 22 21 21 20 20 19 19 19 19 18 18 18 18 18 18 17 17 17 16 15 14 13 13 13 13 12 12 11 11 11 10 10
22 21 22 22 20 18 19 20 22 24 25 26 28 28 28 27 23 24 28 27 23 23 24 23 24 24 23 24 24 24 24 24 23 23 23 23 22 21 21 20 19 19 19 19 19 19 19 19 18 18 17 16 16 15 15 14 13 13 12 12 12 11 11
23 23 24 25 25 24 22 22 23 25 26 28 29 29 28 28 26 26 30 30 28 27 26 25 25 24 24 24 25 25 25 25 25 25 25 25 24 23 23 22 21 20 20 19 19 20 20 20 20 19 19 18 18 17 17 16 15 14 14 13 13 13 12
24 25 25 26 27 27 26 24 25 26 28 29 31 32 32 31 29 29 32 33 32 30 28 27 27 26 25 25 26 25 25 24 24 24 24 25 25 24 24 24 23 22 21 20 20 20 20 21 21 21 21 20 20 19 18 17 16 16 15 14 14 14 13
25 25 25 25 26 27 27 28 28 29 30 31 32 34 35 35 35 33 34 35 34 31 31 31 29 28 26 25 25 24 22 22 22 23 23 23 24 24 24 24 24 23 22 21 21 21 21 21 22 22 22 22 21 20 19 18 17 17 17 16 16 16 16
24 23 25 26 27 28 29 29 30 30 31 31 32 33 35 37 38 36 34 34 35 35 35 32 29 28 26 25 24 23 23 24 24 24 24 23 23 23 23 23 23 23 23 23 23 23 23 23 23 23 23 23 22 21 20 20 19 20 20 19 18 18 18
22 24 26 28 29 29 28 28 29 30 30 30 31 32 33 35 36 35 33 32 34 36 36 32 30 29 28 26 26 25 26 27 28 28 26 25 24 23 23 23 23 24 24 24 24 24 25 24 24 24 24 24 23 22 21 22 22 23 22 21 21 21 20
20 22 22 26 28 28 28 28 28 28 29 29 30 31 33 36 35 34 33 32 31 34 35 32 30 31 30 27 27 29 28 29 30 29 28 26 24 24 23 23 24 24 23 23 23 23 23 24 24 24 24 24 23 23 23 24 24 24 23 23 23 22 22
22 21 19 22 26 27 29 29 27 26 27 27 29 30 34 37 37 34 33 33 33 34 36 34 32 33 34 30 29 31 31 30 31 30 28 27 26 25 24 24 24 24 23 22 22 21 21 22 22 23 22 23 23 23 24 25 25 25 25 25 24 24 24
25 24 22 21 23 27 28 27 27 27 26 24 25 29 33 36 37 36 34 34 34 34 35 36 33 33 33 29 28 31 32 32 33 32 31 30 28 26 25 24 25 25 24 23 22 22 22 22 22 22 22 22 22 23 24 25 25 25 25 25 25 25 25
26 26 25 24 24 26 27 27 27 27 26 23 23 26 32 36 36 36 35 34 35 34 34 34 30 27 26 24 25 28 30 31 33 35 34 33 31 29 28 27 26 26 25 24 23 23 23 23 23 23 22 22 23 23 23 24 24 24 25 25 25 25 26
26 25 25 25 27 27 27 27 29 28 26 25 24 23 26 31 33 34 34 34 32 32 33 32 27 24 23 21 23 25 26 26 29 31 34 35 34 33 31 29 29 28 28 26 24 23 22 23 24 24 23 23 23 23 23 23 24 24 24 25 26 26 27
28 28 26 25 26 28 28 27 28 28 27 27 27 24 21 23 27 30 32 31 27 27 29 29 26 25 23 21 22 23 23 23 24 25 28 31 33 34 32 31 31 32 31 29 26 25 25 27 27 27 26 26 25 25 25 25 25 25 25 25 27 28 29
25 29 31 29 28 28 27 26 26 27 27 27 27 25 23 25 27 28 28 26 24 24 25 26 25 24 22 20 20 22 22 22 23 22 22 24 27 29 30 31 33 34 33 30 28 28 29 30 30 30 30 30 29 28 28 28 28 28 28 28 29 30 30
26 26 29 31 32 32 30 27 24 24 25 26 27 25 24 25 27 29 28 27 25 24 23 24 23 21 19 19 19 20 21 21 20 20 20 20 22 23 24 26 30 32 33 32 32 32 32 32 32 33 34 34 33 33 33 33 32 32 32 32 32 33 34
32 28 26 27 28 31 33 31 28 25 24 24 24 24 24 24 24 25 27 27 27 26 25 24 23 20 17 18 18 17 18 18 18 18 19 20 21 21 22 23 25 28 29 30 30 31 32 32 33 34 35 36 36 36 36 36 36 36 35 35 36 37 37
35 32 30 29 27 27 29 31 30 29 28 28 26 25 25 27 26 24 25 25 25 26 26 26 25 21 17 16 18 19 19 20 20 20 20 21 21 22 23 23 23 24 24 24 24 24 25 27 29 31 32 33 34 35 37 38 38 37 38 39 40 41 41
34 33 32 32 33 32 30 30 31 30 31 33 32 29 28 28 27 26 26 26 26 26 27 28 28 25 21 20 22 23 22 23 24 22 22 23 23 23 23 23 23 24 22 22 23 23 23 24 25 26 26 27 28 29 31 33 34 34 36 37 39 41 40
30 31 30 31 32 33 31 30 31 32 32 33 35 34 33 32 31 28 27 26 26 26 28 29 31 31 29 27 27 26 26 26 27 26 26 26 24 23 24 25 26 27 26 25 26 27 26 26 26 26 25 25 25 25 25 25 26 27 28 28 29 31 31
26 27 29 29 29 30 29 28 29 31 33 34 35 35 36 38 39 38 35 33 32 31 31 31 33 34 34 32 30 30 29 30 31 31 30 28 26 26 27 28 28 29 29 29 29 29 29 28 29 28 27 27 27 26 25 25 26 26 26 26 27 28 28
26 26 27 28 29 30 29 28 28 29 31 33 34 34 35 36 38 39 38 38 38 38 37 37 37 37 37 36 34 32 31 32 32 33 32 31 30 30 31 31 30 30 31 31 31 30 30 30 30 30 28 27 27 26 26 27 28 29 29 29 30 30 30
29 29 28 29 30 31 32 32 31 31 31 32 33 34 34 35 36 37 37 36 37 38 39 39 40 40 40 40 38 37 35 34 34 34 34 33 33 34 34 34 34 33 33 32 32 32 31 30 30 30 30 29 28 28 29 29 30 31 30 30 29 29 28
29 30 31 31 31 32 32 33 34 34 34 34 34 35 36 37 38 39 38 37 37 37 38 39 41 42 42 42 41 40 39 37 36 36 36 36 35 35 36 37 36 35 34 34 35 35 34 32 32 32 33 34 34 34 33 33 33 32 31 30 28 25 24
27 29 31 33 33 33 33 33 34 34 34 34 34 36 37 38 40 41 42 41 40 39 39 40 41 42 43 42 42 42 41 40 39 39 39 38 37 37 37 37 37 37 36 36 36 36 35 34 35 37 38 38 39 38 37 36 35 34 33 32 31 29 29
25 26 28 30 32 33 34 34 35 35 35 34 34 35 36 38 40 42 43 44 43 43 42 42 42 43 43 43 43 43 43 42 41 41 41 40 40 39 38 38 37 38 38 38 37 37 36 35 36 38 39 40 40 39 38 37 36 36 36 36 35 36 38
24 25 26 28 29 31 32 33 34 35 36 36 36 36 37 38 39 41 43 45 45 45 45 44 44 44 44 44 43 43 43 43 43 42 42 42 42 40 40 39 39 39 40 41 41 41 40 37 35 34 34 37 41 41 40 38 38 38 38 39 39 40 41
22 23 24 26 28 30 31 32 33 33 34 35 36 37 38 39 40 42 43 45 46 46 46 46 45 45 45 44 44 43 43 43 44 44 44 44 44 42 41 41 41 41 41 42 43 44 44 43 41 38 35 36 38 40 40 39 39 39 40 40 41 42 42
21 22 23 24 26 28 30 32 33 33 34 34 34 35 36 38 40 42 43 45 46 48 48 47 46 46 46 45 45 44 44 43 44 45 45 45 45 45 44 43 43 42 42 43 44 45 45 45 46 45 44 42 40 40 40 41 41 42 43 43 43 43 44
21 22 22 23 24 25 27 28 30 31 33 34 34 35 35 36 37 39 41 42 44 46 47 48 48 46 46 46 46 45 45 44 44 45 45 45 46 46 46 45 44 44 44 44 45 46 47 47 48 49 49 49 47 46 45 45 45 45 46 46 46 45 45

ECMWFFLT1_500_spd_123.txt.gz
Wind_Speed
10 14 22 29 29 26 25 23 22 21 20 19 18 17 17 16 16 16 16 17 18 18 18 18 18 17 16 15 14 13 13 13 13 13 13 12 12 11 11 11 11 11 11 11 10 10 9 9 8 8 8 8 8 8 8 7 6 6 6 6 6 6 6
11 11 18 28 31 28 26 26 24 23 22 21 20 19 18 17 16 16 17 17 18 19 19 18 18 18 17 16 15 15 14 13 13 13 13 13 13 12 11 11 11 11 11 11 10 10 10 10 9 9 9 8 8 8 8 8 8 7 7 6 6 6 6
12 12 15 26 31 30 27 27 25 24 23 22 21 20 19 19 18 17 17 18 18 19 19 18 18 18 18 17 16 16 14 14 14 14 14 13 13 12 11 11 11 10 11 11 11 11 11 11 10 10 10 10 9 9 9 8 8 7 7 7 7 7 7
12 12 16 26 31 30 28 27 26 24 24 23 22 21 21 21 20 20 18 18 18 19 19 20 20 19 19 18 18 17 16 16 15 14 13 13 12 12 11 11 11 11 11 11 12 12 12 12 11 11 11 11 11 11 10 9 8 8 8 8 8 8 7
10 10 16 25 29 28 27 26 24 23 24 24 24 23 22 22 22 21 20 19 19 19 20 20 20 20 20 19 18 18 17 17 16 15 13 13 13 12 12 12 11 11 11 11 12 12 12 12 12 11 11 11 11 11 11 10 9 9 8 8 8 8 8
9 7 13 22 26 26 25 24 24 23 24 25 25 25 24 23 22 22 22 21 21 20 20 20 20 21 20 20 20 19 19 18 17 16 15 14 14 13 13 12 11 11 11 11 11 11 12 13 12 12 11 11 10 10 10 10 9 9 9 8 8 8 8
11 11 15 19 22 23 24 25 25 25 25 26 27 27 27 25 23 23 23 22 22 22 21 21 22 23 23 22 22 21 20 20 19 18 17 16 15 14 13 13 13 12 12 11 11 11 12 12 12 12 11 10 10 10 10 10 9 9 9 9 9 9 8
12 13 15 18 19 21 23 26 28 29 27 26 27 27 27 25 24 23 23 22 22 22 22 23 23 24 25 24 24 24 23 22 21 20 19 18 17 16 15 15 15 14 14 13 13 13 13 13 12 12 12 11 10 10 10 10 10 10 10 10 10 10 9
16 17 19 21 21 22 22 24 27 30 30 28 27 28 28 27 25 24 23 22 22 21 22 23 25 25 26 25 25 25 25 24 24 23 22 21 20 19 18 18 18 17 17 16 15 15 14 14 14 13 13 12 11 11 11 11 11 11 10 10 10 10 10
19 19 20 20 20 20 21 23 27 31 31 29 28 28 29 29 27 26 24 23 21 21 22 23 25 27 27 27 27 26 26 25 25 25 24 24 24 22 22 21 20 20 19 18 18 17 17 16 16 15 14 13 13 13 12 12 12 11 11 10 11 11 11
22 21 22 21 20 19 20 23 28 30 32 33 31 30 30 30 29 28 26 25 23 23 25 25 25 27 28 29 28 28 27 27 27 26 26 26 26 25 24 23 22 22 21 21 20 20 19 19 18 17 16 16 15 14 14 13 13 12 12 12 12 12 12
25 24 25 25 23 22 23 25 28 30 33 37 36 34 33 32 32 31 28 26 26 26 27 28 27 27 28 29 29 29 29 29 28 28 28 28 27 26 25 25 24 24 23 22 22 22 21 21 20 19 19 18 17 17 16 15 15 14 14 13 13 13 13
25 24 25 27 25 25 27 28 31 33 34 37 37 35 35 35 35 34 30 28 30 31 29 28 28 28 28 28 29 30 30 30 30 30 30 30 30 28 27 26 25 25 24 24 24 23 23 22 22 22 21 20 20 19 19 18 17 17 16 16 16 15 15
24 22 24 28 28 27 28 29 30 32 34 36 36 36 36 37 37 36 32 30 33 35 34 31 30 29 28 27 28 29 29 29 30 31 31 31 31 30 28 28 27 26 25 25 25 24 24 24 24 24 23 22 22 22 21 20 20 20 19 19 19 18 17
22 20 22 26 28 28 29 29 29 30 30 32 33 34 36 38 38 37 35 34 34 36 38 36 34 31 29 29 29 28 28 28 28 30 30 31 31 31 30 29 28 28 27 26 26 26 26 26 25 25 25 25 25 24 23 22 23 23 22 22 21 20 19
20 20 21 23 25 27 28 29 29 29 29 29 31 34 36 38 38 38 38 38 38 37 39 40 38 33 33 33 32 29 28 27 27 28 29 30 30 30 30 30 30 29 28 28 29 29 29 28 27 26 27 27 27 26 25 25 25 26 25 24 23 22 21
19 20 22 23 24 24 26 27 28 29 30 29 30 33 34 35 37 38 39 41 42 39 38 40 41 37 35 36 35 32 30 29 29 29 29 29 29 29 29 29 29 30 30 31 31 31 31 31 29 29 29 29 28 28 27 27 27 27 26 25 24 24 23
20 20 20 22 24 24 23 24 26 29 31 30 31 33 33 34 35 37 39 42 44 42 38 39 41 40 38 38 37 35 34 33 32 32 31 30 30 29 27 26 27 28 29 30 31 32 33 32 30 30 30 30 29 29 28 28 28 28 27 26 26 26 25
23 21 20 20 21 22 22 22 25 28 30 31 31 32 32 32 33 34 36 38 42 43 41 40 41 40 40 41 40 37 36 35 34 33 33 33 32 30 27 26 27 27 27 28 29 31 31 30 30 29 29 29 29 29 28 29 29 29 28 28 27 27 27
27 25 24 22 21 21 22 22 24 27 28 29 30 30 29 30 31 31 31 32 35 38 41 41 40 40 41 41 39 37 36 35 34 33 34 34 33 31 29 28 28 28 28 28 29 29 29 29 29 29 29 29 29 29 29 29 29 29 29 28 29 28 28
31 29 28 26 23 22 23 24 25 25 26 26 28 29 29 28 28 29 29 28 29 32 36 38 38 38 38 38 39 40 38 36 34 34 33 32 31 31 30 30 31 30 29 29 29 29 29 28 27 27 28 29 29 29 29 29 29 29 28 28 28 28 28
32 31 31 31 27 24 23 25 26 26 25 24 24 27 29 28 27 28 28 25 25 27 32 35 35 34 32 33 37 40 38 35 35 36 36 34 33 33 32 32 33 32 31 29 29 31 30 28 27 27 28 29 29 29 29 29 28 28 28 28 28 28 27
30 29 30 32 31 28 26 26 27 27 27 27 25 24 26 26 25 26 26 24 24 24 28 32 32 30 29 30 33 35 35 35 35 36 36 36 35 36 35 34 35 35 34 33 32 32 32 31 30 30 30 29 28 28 28 29 28 28 28 28 28 28 27
28 27 28 29 30 29 28 27 28 28 28 29 27 25 25 27 26 25 23 23 22 20 23 28 28 26 26 27 29 30 30 30 31 33 33 32 31 32 34 34 35 37 38 37 35 34 35 34 34 34 33 31 30 30 31 30 30 30 30 29 29 29 30
32 31 30 29 28 28 28 27 29 30 30 30 29 27 26 28 28 26 24 22 19 16 17 21 22 21 21 24 27 27 26 26 28 29 29 28 26 27 29 30 31 33 36 37 36 35 35 36 36 36 35 33 33 34 35 34 34 34 33 33 33 33 33
39 38 37 35 32 31 30 28 27 29 30 30 30 30 28 27 27 26 26 25 22 18 15 15 16 18 19 21 24 24 23 24 24 24 25 26 25 24 25 25 25 26 28 29 30 30 31 33 35 36 36 36 36 36 37 36 36 37 36 36 36 37 36
42 42 41 39 35 33 32 31 30 29 29 28 29 30 31 31 29 28 26 25 23 21 19 18 17 17 17 19 21 22 22 22 21 20 23 25 23 22 24 25 24 24 24 25 25 25 25 27 29 31 33 35 36 37 37 37 37 37 37 37 38 39 38
38 39 40 40 38 34 32 32 32 32 32 31 29 28 29 31 32 32 30 28 25 23 23 24 23 21 19 19 21 23 24 24 21 19 21 22 21 20 21 23 24 24 24 24 24 23 23 24 24 24 25 27 29 31 32 33 32 32 33 34 36 37 37
34 35 36 37 37 34 31 30 31 32 33 33 32 31 30 30 32 34 35 34 32 28 26 25 25 24 23 23 24 25 26 26 24 21 20 21 21 20 20 22 23 24 24 24 24 24 24 24 24 23 23 24 25 26 27 28 28 28 28 29 30 31 31
31 31 31 32 33 33 31 30 30 31 32 33 33 32 31 31 32 34 36 37 36 35 32 28 26 26 25 25 26 28 28 28 28 27 26 25 25 24 24 25 26 27 28 29 29 29 29 28 28 28 28 28 27 28 28 29 29 29 28 28 28 28 28
28 28 29 29 30 31 31 31 30 30 30 32 32 32 31 31 31 33 35 37 37 37 36 34 33 33 33 32 31 32 33 33 34 33 32 31 30 29 28 28 28 30 31 32 32 32 32 32 31 31 31 31 31 31 31 31 31 31 31 31 31 30 29
26 27 28 29 30 30 30 31 31 31 30 31 32 33 32 32 31 32 33 35 36 36 36 36 36 37 38 37 36 37 39 39 40 40 38 35 33 31 30 29 29 31 32 33 34 33 33 33 33 33 34 34 33 33 33 33 33 33 33 32 31 30 30
24 25 27 28 30 30 30 30 31 32 32 32 32 33 33 34 33 33 32 34 35 36 36 36 36 37 37 37 36 37 38 40 41 42 41 38 35 34 32 32 32 33 34 34 35 35 36 36 36 36 36 37 36 35 34 34 34 34 34 33 32 31 32
23 24 25 27 28 29 30 30 31 31 33 34 34 34 34 35 36 36 35 35 35 36 36 36 36 37 37 38 37 37 38 39 40 41 42 41 39 37 36 35 35 36 36 37 37 37 37 39 39 39 39 39 38 37 37 36 35 35 35 35 35 35 36
22 23 24 26 27 29 30 30 31 31 33 34 36 36 37 37 38 38 38 38 38 38 38 39 39 39 39 39 39 39 39 40 41 42 42 42 41 40 39 38 38 38 38 39 39 38 39 40 40 41 42 40 38 37 37 37 36 37 38 38 39 40 39
21 21 23 24 26 27 29 30 31 32 33 34 36 37 38 38 39 39 40 40 40 40 40 40 41 42 42 41 41 41 41 42 42 43 43 44 43 43 42 41 40 40 40 41 41 40 41 42 42 42 43 42 40 39 38 37 37 37 37 38 40 41 41
20 21 21 22 23 25 27 29 30 31 33 34 35 36 37 38 39 40 40 41 41 42 42 42 42 43 43 43 42 42 42 43 43 44 44 45 45 45 45 45 44 43 43 43 43 43 43 44 45 45 45 45 44 43 41 40 39 37 36 36 37 40 42
20 21 21 22 23 24 25 27 28 30 31 32 34 35 36 37 38 39 40 41 41 42 43 43 44 45 45 45 45 45 44 44 44 45 45 45 46 46 47 47 46 46 45 45 46 46 45 45 46 47 47 47 48 47 46 45 44 43 41 39 37 38 40

ECMWFFLT1_500_spd_126.txt.gz
Wind_Speed
26 25 24 24 25 25 24 22 20 19 17 16 16 16 17 17 17 17 18 19 20 20 20 20 19 18 17 16 15 14 13 12 12 12 11 11 11 11 12 12 12 12 11 11 10 10 10 10 10 10 9 9 9 9 8 7 6 6 6 6 6 6 6
21 22 23 24 24 25 26 24 23 22 20 19 19 18 17 17 18 18 19 19 20 21 21 20 20 19 19 18 17 16 15 14 13 13 12 12 13 13 13 13 13 12 12 11 11 11 10 10 10 10 10 9 9 9 8 8 7 7 6 5 5 5 5
16 17 19 21 24 26 27 27 26 24 23 22 21 20 18 18 19 20 21 21 21 22 21 21 20 20 19 18 18 17 16 15 15 15 14 14 14 14 14 13 13 13 13 13 12 12 12 11 11 10 10 10 10 9 9 8 8 8 7 7 6 6 6
16 16 17 19 23 28 30 30 29 27 26 24 23 22 21 21 21 22 22 22 22 22 23 22 22 21 20 19 19 19 18 17 17 16 16 15 14 14 14 14 14 14 14 14 14 14 14 13 12 11 11 10 10 10 10 9 9 9 8 8 8 8 7
17 18 18 18 22 29 34 34 33 30 28 27 26 24 24 24 24 23 23 23 23 23 24 24 23 22 21 20 20 19 18 18 18 17 16 16 15 14 14 14 14 14 15 14 14 15 15 14 13 12 11 11 10 10 9 10 10 9 9 9 9 9 8
17 19 20 20 23 30 36 37 35 33 31 29 28 27 27 26 25 24 23 23 23 23 24 24 23 22 21 20 20 19 19 18 18 18 17 16 16 16 16 15 14 14 14 15 15 15 15 14 13 12 12 11 10 9 9 9 9 9 9 9 9 8 8
16 18 19 21 25 30 36 39 38 35 33 32 31 30 29 28 27 25 24 23 23 23 23 23 22 22 22 22 21 20 20 20 20 19 18 17 17 17 16 15 15 15 14 14 14 14 14 14 13 12 12 11 10 9 9 9 9 9 9 9 9 9 9
15 17 18 21 25 30 35 38 38 36 35 34 33 32 31 30 28 27 25 24 23 23 23 23 23 24 24 24 23 23 22 22 22 21 20 19 19 19 17 16 16 15 15 15 14 14 14 14 13 12 12 11 10 10 10 9 9 8 9 9 9 9 9
17 17 18 21 25 30 35 38 37 35 34 33 32 31 30 29 28 27 26 25 24 24 23 23 24 25 25 25 25 25 25 24 24 23 23 22 21 21 19 18 17 16 16 16 15 14 14 14 13 13 12 12 11 11 10 10 10 9 9 9 9 9 9
17 18 20 21 24 27 32 35 34 33 32 31 30 29 27 25 24 24 24 24 24 24 24 24 25 26 26 26 26 27 26 26 26 25 24 24 23 23 21 20 19 18 18 17 16 16 15 15 15 14 13 13 12 11 11 11 10 10 9 9 9 9 9
17 20 22 21 23 25 28 31 32 31 31 31 30 29 28 27 25 24 23 22 22 22 23 23 24 25 26 27 27 27 28 28 27 27 26 26 26 26 24 23 22 21 20 19 18 18 17 17 16 16 15 15 14 13 12 12 11 10 10 10 10 10 10
19 22 23 20 21 23 25 27 29 31 32 33 33 32 31 31 30 28 27 26 25 24 24 23 24 24 25 26 27 28 29 30 30 30 30 29 29 29 28 26 25 24 23 22 22 21 20 19 19 18 18 17 16 15 14 14 13 12 12 11 11 12 12
22 23 24 22 21 22 23 24 26 28 31 33 35 36 36 34 32 31 31 31 31 30 28 28 27 26 25 25 26 28 29 30 31 32 33 33 33 32 31 30 28 27 27 26 25 24 23 23 22 22 21 20 18 18 17 16 16 15 14 14 14 14 13
26 26 25 25 25 23 23 25 26 28 29 30 32 36 39 38 36 35 35 35 35 34 31 30 30 29 28 28 27 28 29 31 32 33 34 35 35 34 33 32 31 30 30 29 28 27 26 26 25 25 24 22 21 20 19 19 19 18 18 17 16 16 16
27 28 27 27 26 25 25 26 27 28 28 28 29 32 37 40 40 40 40 39 37 36 34 33 32 32 33 32 31 30 30 31 33 34 35 35 35 35 34 33 33 32 32 31 30 29 29 28 28 28 27 25 24 23 22 22 22 22 21 20 20 19 19
25 27 28 28 26 25 25 24 24 27 27 26 25 25 29 34 38 39 41 41 40 37 36 36 35 35 35 35 36 36 33 33 33 34 35 35 34 34 34 34 34 34 33 33 32 31 31 30 30 29 29 28 27 26 25 25 25 25 25 24 23 22 21
24 26 27 27 27 26 25 23 23 26 27 26 25 24 23 25 28 30 33 38 39 37 37 38 38 37 37 38 41 40 36 34 35 34 34 34 34 34 35 35 35 34 34 33 33 33 32 31 31 31 30 30 30 29 28 28 28 28 27 26 25 24 23
26 26 27 26 26 27 27 24 22 23 24 24 24 24 24 23 23 24 25 29 33 34 35 38 40 40 40 40 42 43 40 38 38 37 36 34 33 33 34 35 35 34 34 35 35 35 34 33 32 32 32 32 31 30 30 30 30 29 28 28 27 26 25
29 29 29 27 25 26 26 25 22 21 22 22 22 23 23 23 23 23 23 25 27 29 32 36 39 41 41 41 42 44 44 43 42 39 37 35 33 32 33 33 33 33 34 35 36 36 36 35 34 33 33 33 32 31 31 31 31 31 29 29 29 28 28
30 31 32 30 27 26 26 25 23 21 21 22 22 21 23 24 24 24 24 24 25 27 30 34 37 38 39 42 44 44 45 46 44 40 38 36 34 34 34 33 32 33 35 36 35 34 34 34 34 34 35 35 34 33 33 32 33 32 31 31 31 31 30
29 31 33 32 30 28 27 27 24 21 20 21 22 22 22 22 22 22 24 25 27 29 30 32 35 36 37 41 44 44 44 45 44 41 41 40 37 35 34 33 33 35 36 36 35 33 32 31 32 35 36 36 35 35 34 34 34 34 33 33 33 32 31
29 31 33 33 32 30 30 29 28 25 22 21 21 22 22 21 20 20 19 20 24 28 29 30 32 33 34 39 43 43 43 44 43 41 42 42 40 37 36 36 36 37 37 37 36 34 31 29 30 34 37 36 34 34 34 35 35 34 34 34 33 32 31
30 31 32 33 32 31 31 30 29 28 27 25 23 23 23 22 23 24 22 19 20 24 25 26 29 30 30 34 40 44 44 43 41 40 41 43 42 39 38 38 38 37 38 39 38 36 33 30 30 34 38 37 33 32 33 34 34 33 33 32 32 31 30
32 31 31 31 31 29 30 30 29 28 28 28 27 26 25 25 25 27 27 24 23 24 23 22 24 25 27 29 32 37 39 39 39 40 42 43 42 39 38 38 38 37 38 40 40 38 36 35 35 37 38 37 34 32 32 32 32 32 32 32 31 30 30
35 33 31 31 30 28 28 29 29 28 27 27 28 28 28 28 27 27 26 26 26 27 26 23 20 19 22 26 27 29 31 32 34 38 42 42 40 37 37 38 38 37 36 38 40 41 40 39 39 39 39 39 37 35 32 32 33 33 32 32 32 31 30
38 37 35 34 34 33 31 31 30 29 28 27 27 27 28 28 27 26 27 27 27 26 25 25 23 20 19 19 22 25 27 28 31 35 39 41 40 38 38 39 40 39 38 38 41 43 43 43 42 42 41 40 38 36 34 34 34 34 34 34 33 33 32
41 41 41 39 37 36 35 35 34 33 32 29 28 27 28 28 27 25 25 27 27 27 25 24 25 24 21 17 16 17 20 23 24 26 29 31 32 34 35 36 36 36 35 36 37 40 44 46 46 45 43 40 39 38 37 37 36 36 36 36 36 35 35
43 42 41 39 36 34 33 33 34 36 36 34 32 30 29 30 29 26 24 24 25 27 26 25 24 24 23 21 19 17 16 16 17 18 20 21 23 26 28 29 29 27 26 27 28 29 33 37 40 41 39 38 37 36 37 37 38 39 39 38 38 38 38
43 42 40 38 35 32 30 28 29 32 35 37 36 34 32 32 32 30 28 26 25 25 25 25 25 25 25 25 25 24 21 19 17 17 17 18 19 21 22 24 25 23 21 21 22 22 22 25 28 30 31 30 31 31 32 33 35 36 37 38 38 38 38
40 38 36 34 33 31 29 27 25 26 29 33 35 35 34 32 32 33 31 29 28 26 26 25 25 26 28 28 29 28 26 24 22 21 22 21 20 20 19 19 20 19 18 17 18 18 18 20 22 24 26 27 27 27 27 26 27 28 30 30 31 31 32
31 30 29 29 29 28 27 26 24 22 24 26 29 31 31 30 29 30 31 30 30 29 28 28 27 26 27 29 30 30 29 27 24 24 26 27 25 23 21 20 19 18 18 17 17 17 18 20 22 24 25 25 27 28 28 27 27 27 27 27 27 27 28
25 25 25 25 25 25 25 25 24 22 22 22 24 26 27 27 26 27 28 29 29 29 29 28 28 28 27 28 29 30 30 30 28 27 28 29 29 28 28 27 26 26 26 25 24 22 22 24 25 26 27 27 28 29 30 31 31 31 31 30 30 29 29
23 23 23 23 23 23 24 24 25 24 23 23 24 25 26 26 26 26 27 27 28 29 29 29 28 28 28 28 29 29 29 29 30 31 32 33 34 34 34 33 32 32 31 31 30 28 27 27 27 28 29 30 30 31 32 32 32 32 33 33 33 33 32
23 23 23 23 23 24 24 25 26 26 26 25 25 26 26 27 27 27 28 28 28 29 30 30 30 30 29 29 29 30 30 29 29 31 33 35 36 36 36 34 33 32 31 31 31 30 30 29 29 28 29 31 32 34 35 35 34 35 35 36 36 36 35
22 22 23 23 24 25 25 26 26 27 28 28 27 27 27 28 29 29 29 29 30 30 31 32 32 32 32 32 31 31 31 31 31 31 31 33 35 35 35 34 34 33 32 31 31 31 31 32 32 32 31 33 34 35 36 37 38 38 38 39 39 39 38
21 22 22 23 24 25 26 26 27 28 29 29 29 29 29 29 30 31 32 32 32 33 34 34 34 35 35 35 35 34 34 34 34 34 33 33 34 35 35 34 34 35 35 35 35 34 34 35 36 36 36 37 37 37 38 39 40 41 41 41 41 41 41
21 21 21 22 23 24 25 26 27 29 29 30 30 31 31 31 31 32 33 35 35 36 37 37 37 37 37 38 38 38 38 37 37 37 37 37 36 36 36 36 36 36 37 38 38 38 38 38 39 39 40 40 41 41 41 41 42 43 43 43 43 43 42
20 20 20 21 22 23 24 25 27 28 29 30 30 31 32 32 32 32 33 35 37 38 39 39 40 40 41 41 41 41 41 41 40 40 40 40 40 39 39 39 39 39 40 40 41 42 42 42 42 42 42 43 43 44 44 44 44 45 45 45 44 44 44